<?xml version="1.0" encoding="UTF-8" standalone="no" ?>
<gpx xmlns="http://www.topografix.com/GPX/1/1" xmlns:xsi="http://www.w3.org/2001/XMLSchema-instance" xsi:schemaLocation="http://www.topografix.com/GPX/1/1 http://www.topografix.com/GPX/1/1/gpx.xsd" version="1.1" creator="VisuGPX - https://www.visugpx.com">
  <metadata>
    <name>RoadTrip Moto Ecosse Juin 2021</name>
  </metadata>
  <trk>
    <name><![CDATA[J12 - Loans - Dublin]]></name>
    <trkseg>
      <trkpt lat="55.549" lon="-4.62465">
        <ele>18.49</ele>
        <time>2021-03-20T14:09:57Z</time>
      </trkpt>
      <trkpt lat="55.54893" lon="-4.62485">
        <ele>18.14</ele>
        <time>2021-03-20T14:09:59Z</time>
      </trkpt>
      <trkpt lat="55.54878" lon="-4.62466">
        <ele>17.7</ele>
        <time>2021-03-20T14:10:01Z</time>
      </trkpt>
      <trkpt lat="55.54895" lon="-4.62424">
        <ele>18.23</ele>
        <time>2021-03-20T14:10:06Z</time>
      </trkpt>
      <trkpt lat="55.54927" lon="-4.62336">
        <ele>22.26</ele>
        <time>2021-03-20T14:10:11Z</time>
      </trkpt>
      <trkpt lat="55.54939" lon="-4.62297">
        <ele>23.11</ele>
        <time>2021-03-20T14:10:16Z</time>
      </trkpt>
      <trkpt lat="55.549" lon="-4.62263">
        <ele>22.39</ele>
        <time>2021-03-20T14:10:33Z</time>
      </trkpt>
      <trkpt lat="55.54717" lon="-4.62096">
        <ele>23.56</ele>
        <time>2021-03-20T14:10:49Z</time>
      </trkpt>
      <trkpt lat="55.54611" lon="-4.62004">
        <ele>28.71</ele>
        <time>2021-03-20T14:11:06Z</time>
      </trkpt>
      <trkpt lat="55.5437" lon="-4.61809">
        <ele>29.87</ele>
        <time>2021-03-20T14:11:22Z</time>
      </trkpt>
      <trkpt lat="55.54417" lon="-4.6154">
        <ele>35.97</ele>
        <time>2021-03-20T14:11:39Z</time>
      </trkpt>
      <trkpt lat="55.54423" lon="-4.6154">
        <ele>35.78</ele>
        <time>2021-03-20T14:11:44Z</time>
      </trkpt>
      <trkpt lat="55.54428" lon="-4.61533">
        <ele>35.6</ele>
        <time>2021-03-20T14:11:50Z</time>
      </trkpt>
      <trkpt lat="55.54428" lon="-4.61519">
        <ele>35.4</ele>
        <time>2021-03-20T14:11:55Z</time>
      </trkpt>
      <trkpt lat="55.54423" lon="-4.61511">
        <ele>35.3</ele>
        <time>2021-03-20T14:12:00Z</time>
      </trkpt>
      <trkpt lat="55.54417" lon="-4.61512">
        <ele>35.42</ele>
        <time>2021-03-20T14:12:06Z</time>
      </trkpt>
      <trkpt lat="55.54414" lon="-4.61516">
        <ele>35.81</ele>
        <time>2021-03-20T14:12:11Z</time>
      </trkpt>
      <trkpt lat="55.54373" lon="-4.61515">
        <ele>38.36</ele>
        <time>2021-03-20T14:12:16Z</time>
      </trkpt>
      <trkpt lat="55.53891" lon="-4.61354">
        <ele>40.72</ele>
        <time>2021-03-20T14:12:22Z</time>
      </trkpt>
      <trkpt lat="55.53813" lon="-4.61332">
        <ele>38.27</ele>
        <time>2021-03-20T14:12:27Z</time>
      </trkpt>
      <trkpt lat="55.53674" lon="-4.61311">
        <ele>34.49</ele>
        <time>2021-03-20T14:12:32Z</time>
      </trkpt>
      <trkpt lat="55.5354" lon="-4.61299">
        <ele>32.43</ele>
        <time>2021-03-20T14:12:38Z</time>
      </trkpt>
      <trkpt lat="55.53491" lon="-4.61289">
        <ele>31.8</ele>
        <time>2021-03-20T14:12:43Z</time>
      </trkpt>
      <trkpt lat="55.53401" lon="-4.61257">
        <ele>29</ele>
        <time>2021-03-20T14:12:48Z</time>
      </trkpt>
      <trkpt lat="55.53349" lon="-4.6123">
        <ele>28.47</ele>
        <time>2021-03-20T14:12:54Z</time>
      </trkpt>
      <trkpt lat="55.53267" lon="-4.61176">
        <ele>26.99</ele>
        <time>2021-03-20T14:12:59Z</time>
      </trkpt>
      <trkpt lat="55.52721" lon="-4.60776">
        <ele>28.03</ele>
        <time>2021-03-20T14:13:04Z</time>
      </trkpt>
      <trkpt lat="55.5251" lon="-4.60613">
        <ele>26.29</ele>
        <time>2021-03-20T14:13:10Z</time>
      </trkpt>
      <trkpt lat="55.52497" lon="-4.60585">
        <ele>26.94</ele>
        <time>2021-03-20T14:13:15Z</time>
      </trkpt>
      <trkpt lat="55.52494" lon="-4.60563">
        <ele>28.33</ele>
        <time>2021-03-20T14:13:21Z</time>
      </trkpt>
      <trkpt lat="55.52484" lon="-4.6055">
        <ele>28.53</ele>
        <time>2021-03-20T14:13:26Z</time>
      </trkpt>
      <trkpt lat="55.5247" lon="-4.60522">
        <ele>27.86</ele>
        <time>2021-03-20T14:13:32Z</time>
      </trkpt>
      <trkpt lat="55.52467" lon="-4.60509">
        <ele>27.64</ele>
        <time>2021-03-20T14:13:37Z</time>
      </trkpt>
      <trkpt lat="55.52465" lon="-4.60472">
        <ele>27.44</ele>
        <time>2021-03-20T14:13:43Z</time>
      </trkpt>
      <trkpt lat="55.5249" lon="-4.59556">
        <ele>31.61</ele>
        <time>2021-03-20T14:13:48Z</time>
      </trkpt>
      <trkpt lat="55.52487" lon="-4.59339">
        <ele>33</ele>
        <time>2021-03-20T14:13:54Z</time>
      </trkpt>
      <trkpt lat="55.52472" lon="-4.59122">
        <ele>34.62</ele>
        <time>2021-03-20T14:13:59Z</time>
      </trkpt>
      <trkpt lat="55.52474" lon="-4.59067">
        <ele>36.58</ele>
        <time>2021-03-20T14:14:04Z</time>
      </trkpt>
      <trkpt lat="55.52478" lon="-4.5903">
        <ele>37.91</ele>
        <time>2021-03-20T14:14:10Z</time>
      </trkpt>
      <trkpt lat="55.52481" lon="-4.59017">
        <ele>38.37</ele>
        <time>2021-03-20T14:14:15Z</time>
      </trkpt>
      <trkpt lat="55.52482" lon="-4.58999">
        <ele>39</ele>
        <time>2021-03-20T14:14:19Z</time>
      </trkpt>
      <trkpt lat="55.5248" lon="-4.5898">
        <ele>39</ele>
        <time>2021-03-20T14:14:24Z</time>
      </trkpt>
      <trkpt lat="55.52476" lon="-4.58971">
        <ele>39</ele>
        <time>2021-03-20T14:14:29Z</time>
      </trkpt>
      <trkpt lat="55.52468" lon="-4.5896">
        <ele>39</ele>
        <time>2021-03-20T14:14:34Z</time>
      </trkpt>
      <trkpt lat="55.5246" lon="-4.58953">
        <ele>39</ele>
        <time>2021-03-20T14:14:39Z</time>
      </trkpt>
      <trkpt lat="55.52448" lon="-4.58951">
        <ele>39</ele>
        <time>2021-03-20T14:14:43Z</time>
      </trkpt>
      <trkpt lat="55.52415" lon="-4.58935">
        <ele>39.07</ele>
        <time>2021-03-20T14:14:48Z</time>
      </trkpt>
      <trkpt lat="55.52399" lon="-4.58921">
        <ele>39.65</ele>
        <time>2021-03-20T14:14:53Z</time>
      </trkpt>
      <trkpt lat="55.52372" lon="-4.58887">
        <ele>39.6</ele>
        <time>2021-03-20T14:14:58Z</time>
      </trkpt>
      <trkpt lat="55.52306" lon="-4.58792">
        <ele>39.47</ele>
        <time>2021-03-20T14:15:02Z</time>
      </trkpt>
      <trkpt lat="55.52259" lon="-4.58728">
        <ele>41.68</ele>
        <time>2021-03-20T14:15:07Z</time>
      </trkpt>
      <trkpt lat="55.52173" lon="-4.5861">
        <ele>44.77</ele>
        <time>2021-03-20T14:15:12Z</time>
      </trkpt>
      <trkpt lat="55.52066" lon="-4.58455">
        <ele>39.38</ele>
        <time>2021-03-20T14:15:17Z</time>
      </trkpt>
      <trkpt lat="55.51966" lon="-4.58289">
        <ele>37.23</ele>
        <time>2021-03-20T14:15:21Z</time>
      </trkpt>
      <trkpt lat="55.51904" lon="-4.58191">
        <ele>33.61</ele>
        <time>2021-03-20T14:15:26Z</time>
      </trkpt>
      <trkpt lat="55.51767" lon="-4.57952">
        <ele>33.99</ele>
        <time>2021-03-20T14:15:31Z</time>
      </trkpt>
      <trkpt lat="55.51528" lon="-4.57524">
        <ele>28.13</ele>
        <time>2021-03-20T14:15:36Z</time>
      </trkpt>
      <trkpt lat="55.51382" lon="-4.57286">
        <ele>26.46</ele>
        <time>2021-03-20T14:15:41Z</time>
      </trkpt>
      <trkpt lat="55.51264" lon="-4.57121">
        <ele>27.95</ele>
        <time>2021-03-20T14:15:45Z</time>
      </trkpt>
      <trkpt lat="55.51158" lon="-4.56993">
        <ele>27.67</ele>
        <time>2021-03-20T14:15:50Z</time>
      </trkpt>
      <trkpt lat="55.51038" lon="-4.56877">
        <ele>28.38</ele>
        <time>2021-03-20T14:15:55Z</time>
      </trkpt>
      <trkpt lat="55.50914" lon="-4.56771">
        <ele>30.14</ele>
        <time>2021-03-20T14:16:00Z</time>
      </trkpt>
      <trkpt lat="55.50781" lon="-4.56682">
        <ele>32.35</ele>
        <time>2021-03-20T14:16:04Z</time>
      </trkpt>
      <trkpt lat="55.50651" lon="-4.56609">
        <ele>31.06</ele>
        <time>2021-03-20T14:16:09Z</time>
      </trkpt>
      <trkpt lat="55.50514" lon="-4.56557">
        <ele>30.52</ele>
        <time>2021-03-20T14:16:14Z</time>
      </trkpt>
      <trkpt lat="55.50378" lon="-4.56523">
        <ele>25.67</ele>
        <time>2021-03-20T14:16:19Z</time>
      </trkpt>
      <trkpt lat="55.50242" lon="-4.56511">
        <ele>22.72</ele>
        <time>2021-03-20T14:16:23Z</time>
      </trkpt>
      <trkpt lat="55.501" lon="-4.56512">
        <ele>22.55</ele>
        <time>2021-03-20T14:16:28Z</time>
      </trkpt>
      <trkpt lat="55.49957" lon="-4.56523">
        <ele>22.17</ele>
        <time>2021-03-20T14:16:33Z</time>
      </trkpt>
      <trkpt lat="55.49833" lon="-4.56572">
        <ele>21.42</ele>
        <time>2021-03-20T14:16:38Z</time>
      </trkpt>
      <trkpt lat="55.49807" lon="-4.56576">
        <ele>21.26</ele>
        <time>2021-03-20T14:16:42Z</time>
      </trkpt>
      <trkpt lat="55.49791" lon="-4.56564">
        <ele>21.35</ele>
        <time>2021-03-20T14:16:47Z</time>
      </trkpt>
      <trkpt lat="55.49783" lon="-4.56549">
        <ele>21.2</ele>
        <time>2021-03-20T14:16:52Z</time>
      </trkpt>
      <trkpt lat="55.49776" lon="-4.56542">
        <ele>20.95</ele>
        <time>2021-03-20T14:16:57Z</time>
      </trkpt>
      <trkpt lat="55.49768" lon="-4.56543">
        <ele>20.65</ele>
        <time>2021-03-20T14:17:02Z</time>
      </trkpt>
      <trkpt lat="55.49702" lon="-4.56595">
        <ele>20</ele>
        <time>2021-03-20T14:17:06Z</time>
      </trkpt>
      <trkpt lat="55.49651" lon="-4.5663">
        <ele>20.14</ele>
        <time>2021-03-20T14:17:11Z</time>
      </trkpt>
      <trkpt lat="55.49453" lon="-4.56725">
        <ele>18.03</ele>
        <time>2021-03-20T14:17:16Z</time>
      </trkpt>
      <trkpt lat="55.49324" lon="-4.56806">
        <ele>18</ele>
        <time>2021-03-20T14:17:21Z</time>
      </trkpt>
      <trkpt lat="55.49221" lon="-4.56886">
        <ele>17.05</ele>
        <time>2021-03-20T14:17:25Z</time>
      </trkpt>
      <trkpt lat="55.49047" lon="-4.57064">
        <ele>19.32</ele>
        <time>2021-03-20T14:17:30Z</time>
      </trkpt>
      <trkpt lat="55.49029" lon="-4.57085">
        <ele>20</ele>
        <time>2021-03-20T14:17:35Z</time>
      </trkpt>
      <trkpt lat="55.48934" lon="-4.57206">
        <ele>18</ele>
        <time>2021-03-20T14:17:40Z</time>
      </trkpt>
      <trkpt lat="55.48847" lon="-4.5734">
        <ele>17</ele>
        <time>2021-03-20T14:17:44Z</time>
      </trkpt>
      <trkpt lat="55.488" lon="-4.5742">
        <ele>17.2</ele>
        <time>2021-03-20T14:17:49Z</time>
      </trkpt>
      <trkpt lat="55.48563" lon="-4.57844">
        <ele>28.17</ele>
        <time>2021-03-20T14:17:54Z</time>
      </trkpt>
      <trkpt lat="55.48514" lon="-4.57929">
        <ele>27.49</ele>
        <time>2021-03-20T14:17:59Z</time>
      </trkpt>
      <trkpt lat="55.4848" lon="-4.57979">
        <ele>26.3</ele>
        <time>2021-03-20T14:18:04Z</time>
      </trkpt>
      <trkpt lat="55.48446" lon="-4.58024">
        <ele>25.93</ele>
        <time>2021-03-20T14:18:08Z</time>
      </trkpt>
      <trkpt lat="55.48424" lon="-4.5805">
        <ele>26.22</ele>
        <time>2021-03-20T14:18:13Z</time>
      </trkpt>
      <trkpt lat="55.48359" lon="-4.58119">
        <ele>27.3</ele>
        <time>2021-03-20T14:18:18Z</time>
      </trkpt>
      <trkpt lat="55.48305" lon="-4.58174">
        <ele>26.98</ele>
        <time>2021-03-20T14:18:23Z</time>
      </trkpt>
      <trkpt lat="55.48252" lon="-4.58234">
        <ele>25.98</ele>
        <time>2021-03-20T14:18:27Z</time>
      </trkpt>
      <trkpt lat="55.48159" lon="-4.58321">
        <ele>27</ele>
        <time>2021-03-20T14:18:32Z</time>
      </trkpt>
      <trkpt lat="55.48082" lon="-4.58381">
        <ele>28.03</ele>
        <time>2021-03-20T14:18:37Z</time>
      </trkpt>
      <trkpt lat="55.47959" lon="-4.58463">
        <ele>31.66</ele>
        <time>2021-03-20T14:18:42Z</time>
      </trkpt>
      <trkpt lat="55.47736" lon="-4.586">
        <ele>34.21</ele>
        <time>2021-03-20T14:18:46Z</time>
      </trkpt>
      <trkpt lat="55.47667" lon="-4.5863">
        <ele>33.32</ele>
        <time>2021-03-20T14:18:51Z</time>
      </trkpt>
      <trkpt lat="55.47646" lon="-4.58627">
        <ele>33.86</ele>
        <time>2021-03-20T14:18:56Z</time>
      </trkpt>
      <trkpt lat="55.47636" lon="-4.58604">
        <ele>34.11</ele>
        <time>2021-03-20T14:19:01Z</time>
      </trkpt>
      <trkpt lat="55.47621" lon="-4.58592">
        <ele>34.66</ele>
        <time>2021-03-20T14:19:06Z</time>
      </trkpt>
      <trkpt lat="55.47599" lon="-4.58589">
        <ele>36.21</ele>
        <time>2021-03-20T14:19:11Z</time>
      </trkpt>
      <trkpt lat="55.47587" lon="-4.58589">
        <ele>37.45</ele>
        <time>2021-03-20T14:19:16Z</time>
      </trkpt>
      <trkpt lat="55.47575" lon="-4.58593">
        <ele>38.19</ele>
        <time>2021-03-20T14:19:21Z</time>
      </trkpt>
      <trkpt lat="55.47496" lon="-4.58589">
        <ele>39.87</ele>
        <time>2021-03-20T14:19:26Z</time>
      </trkpt>
      <trkpt lat="55.4743" lon="-4.58559">
        <ele>37.53</ele>
        <time>2021-03-20T14:19:31Z</time>
      </trkpt>
      <trkpt lat="55.47284" lon="-4.58474">
        <ele>27.23</ele>
        <time>2021-03-20T14:19:36Z</time>
      </trkpt>
      <trkpt lat="55.47205" lon="-4.5844">
        <ele>25</ele>
        <time>2021-03-20T14:19:41Z</time>
      </trkpt>
      <trkpt lat="55.47116" lon="-4.58416">
        <ele>22.98</ele>
        <time>2021-03-20T14:19:46Z</time>
      </trkpt>
      <trkpt lat="55.47076" lon="-4.58411">
        <ele>23.58</ele>
        <time>2021-03-20T14:19:51Z</time>
      </trkpt>
      <trkpt lat="55.47025" lon="-4.58409">
        <ele>22.22</ele>
        <time>2021-03-20T14:19:56Z</time>
      </trkpt>
      <trkpt lat="55.46942" lon="-4.58412">
        <ele>18.84</ele>
        <time>2021-03-20T14:20:01Z</time>
      </trkpt>
      <trkpt lat="55.46865" lon="-4.5843">
        <ele>18.41</ele>
        <time>2021-03-20T14:20:07Z</time>
      </trkpt>
      <trkpt lat="55.46785" lon="-4.58461">
        <ele>16.94</ele>
        <time>2021-03-20T14:20:12Z</time>
      </trkpt>
      <trkpt lat="55.46694" lon="-4.58512">
        <ele>13.02</ele>
        <time>2021-03-20T14:20:17Z</time>
      </trkpt>
      <trkpt lat="55.4661" lon="-4.58576">
        <ele>14.28</ele>
        <time>2021-03-20T14:20:22Z</time>
      </trkpt>
      <trkpt lat="55.4653" lon="-4.58653">
        <ele>13.08</ele>
        <time>2021-03-20T14:20:27Z</time>
      </trkpt>
      <trkpt lat="55.46378" lon="-4.58829">
        <ele>10.61</ele>
        <time>2021-03-20T14:20:32Z</time>
      </trkpt>
      <trkpt lat="55.46236" lon="-4.59">
        <ele>9</ele>
        <time>2021-03-20T14:20:37Z</time>
      </trkpt>
      <trkpt lat="55.46158" lon="-4.5908">
        <ele>10.04</ele>
        <time>2021-03-20T14:20:42Z</time>
      </trkpt>
      <trkpt lat="55.46086" lon="-4.59145">
        <ele>6.76</ele>
        <time>2021-03-20T14:20:47Z</time>
      </trkpt>
      <trkpt lat="55.46" lon="-4.5921">
        <ele>12</ele>
        <time>2021-03-20T14:20:52Z</time>
      </trkpt>
      <trkpt lat="55.45887" lon="-4.59286">
        <ele>13.36</ele>
        <time>2021-03-20T14:20:57Z</time>
      </trkpt>
      <trkpt lat="55.45622" lon="-4.59481">
        <ele>22</ele>
        <time>2021-03-20T14:21:02Z</time>
      </trkpt>
      <trkpt lat="55.4559" lon="-4.59501">
        <ele>21.97</ele>
        <time>2021-03-20T14:21:07Z</time>
      </trkpt>
      <trkpt lat="55.45573" lon="-4.59502">
        <ele>21.54</ele>
        <time>2021-03-20T14:21:12Z</time>
      </trkpt>
      <trkpt lat="55.45566" lon="-4.59493">
        <ele>21.37</ele>
        <time>2021-03-20T14:21:20Z</time>
      </trkpt>
      <trkpt lat="55.45559" lon="-4.59488">
        <ele>21.12</ele>
        <time>2021-03-20T14:21:28Z</time>
      </trkpt>
      <trkpt lat="55.45549" lon="-4.59487">
        <ele>20.75</ele>
        <time>2021-03-20T14:21:37Z</time>
      </trkpt>
      <trkpt lat="55.4554" lon="-4.59491">
        <ele>20.45</ele>
        <time>2021-03-20T14:21:45Z</time>
      </trkpt>
      <trkpt lat="55.45532" lon="-4.59502">
        <ele>20.14</ele>
        <time>2021-03-20T14:21:53Z</time>
      </trkpt>
      <trkpt lat="55.45527" lon="-4.59511">
        <ele>20</ele>
        <time>2021-03-20T14:22:01Z</time>
      </trkpt>
      <trkpt lat="55.45485" lon="-4.5954">
        <ele>21</ele>
        <time>2021-03-20T14:22:10Z</time>
      </trkpt>
      <trkpt lat="55.4424" lon="-4.60027">
        <ele>34.4</ele>
        <time>2021-03-20T14:22:18Z</time>
      </trkpt>
      <trkpt lat="55.44134" lon="-4.60083">
        <ele>33</ele>
        <time>2021-03-20T14:22:26Z</time>
      </trkpt>
      <trkpt lat="55.44028" lon="-4.60165">
        <ele>32</ele>
        <time>2021-03-20T14:22:34Z</time>
      </trkpt>
      <trkpt lat="55.43996" lon="-4.60185">
        <ele>33.8</ele>
        <time>2021-03-20T14:22:43Z</time>
      </trkpt>
      <trkpt lat="55.43985" lon="-4.6018">
        <ele>34.02</ele>
        <time>2021-03-20T14:22:48Z</time>
      </trkpt>
      <trkpt lat="55.4395" lon="-4.60178">
        <ele>34.39</ele>
        <time>2021-03-20T14:22:54Z</time>
      </trkpt>
      <trkpt lat="55.43936" lon="-4.60188">
        <ele>34.83</ele>
        <time>2021-03-20T14:22:59Z</time>
      </trkpt>
      <trkpt lat="55.43928" lon="-4.60207">
        <ele>35.17</ele>
        <time>2021-03-20T14:23:05Z</time>
      </trkpt>
      <trkpt lat="55.43927" lon="-4.60242">
        <ele>35.61</ele>
        <time>2021-03-20T14:23:10Z</time>
      </trkpt>
      <trkpt lat="55.43923" lon="-4.60266">
        <ele>35.47</ele>
        <time>2021-03-20T14:23:16Z</time>
      </trkpt>
      <trkpt lat="55.43912" lon="-4.60295">
        <ele>35.45</ele>
        <time>2021-03-20T14:23:21Z</time>
      </trkpt>
      <trkpt lat="55.43656" lon="-4.60699">
        <ele>36.51</ele>
        <time>2021-03-20T14:23:27Z</time>
      </trkpt>
      <trkpt lat="55.43572" lon="-4.6081">
        <ele>38.67</ele>
        <time>2021-03-20T14:23:33Z</time>
      </trkpt>
      <trkpt lat="55.4348" lon="-4.60895">
        <ele>37.84</ele>
        <time>2021-03-20T14:23:38Z</time>
      </trkpt>
      <trkpt lat="55.43379" lon="-4.60951">
        <ele>35.92</ele>
        <time>2021-03-20T14:23:44Z</time>
      </trkpt>
      <trkpt lat="55.43279" lon="-4.60996">
        <ele>32.04</ele>
        <time>2021-03-20T14:23:49Z</time>
      </trkpt>
      <trkpt lat="55.4318" lon="-4.6105">
        <ele>28.97</ele>
        <time>2021-03-20T14:23:55Z</time>
      </trkpt>
      <trkpt lat="55.43089" lon="-4.6113">
        <ele>27.58</ele>
        <time>2021-03-20T14:24:00Z</time>
      </trkpt>
      <trkpt lat="55.43043" lon="-4.61181">
        <ele>26.6</ele>
        <time>2021-03-20T14:24:06Z</time>
      </trkpt>
      <trkpt lat="55.42966" lon="-4.61286">
        <ele>27.22</ele>
        <time>2021-03-20T14:24:11Z</time>
      </trkpt>
      <trkpt lat="55.42845" lon="-4.61437">
        <ele>27</ele>
        <time>2021-03-20T14:24:17Z</time>
      </trkpt>
      <trkpt lat="55.42762" lon="-4.61513">
        <ele>27.52</ele>
        <time>2021-03-20T14:24:22Z</time>
      </trkpt>
      <trkpt lat="55.42681" lon="-4.61567">
        <ele>27.19</ele>
        <time>2021-03-20T14:24:28Z</time>
      </trkpt>
      <trkpt lat="55.42604" lon="-4.61597">
        <ele>28.73</ele>
        <time>2021-03-20T14:24:33Z</time>
      </trkpt>
      <trkpt lat="55.42567" lon="-4.61604">
        <ele>28</ele>
        <time>2021-03-20T14:24:39Z</time>
      </trkpt>
      <trkpt lat="55.42493" lon="-4.6161">
        <ele>27.26</ele>
        <time>2021-03-20T14:24:45Z</time>
      </trkpt>
      <trkpt lat="55.42399" lon="-4.61603">
        <ele>29</ele>
        <time>2021-03-20T14:24:50Z</time>
      </trkpt>
      <trkpt lat="55.42307" lon="-4.61602">
        <ele>28</ele>
        <time>2021-03-20T14:24:56Z</time>
      </trkpt>
      <trkpt lat="55.42214" lon="-4.61622">
        <ele>29.27</ele>
        <time>2021-03-20T14:25:01Z</time>
      </trkpt>
      <trkpt lat="55.42117" lon="-4.61671">
        <ele>30.94</ele>
        <time>2021-03-20T14:25:07Z</time>
      </trkpt>
      <trkpt lat="55.41951" lon="-4.6178">
        <ele>34.31</ele>
        <time>2021-03-20T14:25:12Z</time>
      </trkpt>
      <trkpt lat="55.41869" lon="-4.61851">
        <ele>40.01</ele>
        <time>2021-03-20T14:25:18Z</time>
      </trkpt>
      <trkpt lat="55.4179" lon="-4.61941">
        <ele>43.89</ele>
        <time>2021-03-20T14:25:23Z</time>
      </trkpt>
      <trkpt lat="55.41706" lon="-4.62005">
        <ele>41.19</ele>
        <time>2021-03-20T14:25:29Z</time>
      </trkpt>
      <trkpt lat="55.41536" lon="-4.62076">
        <ele>36.56</ele>
        <time>2021-03-20T14:25:34Z</time>
      </trkpt>
      <trkpt lat="55.41489" lon="-4.62099">
        <ele>36</ele>
        <time>2021-03-20T14:25:40Z</time>
      </trkpt>
      <trkpt lat="55.41444" lon="-4.62136">
        <ele>37.86</ele>
        <time>2021-03-20T14:25:46Z</time>
      </trkpt>
      <trkpt lat="55.41282" lon="-4.62312">
        <ele>43.88</ele>
        <time>2021-03-20T14:25:51Z</time>
      </trkpt>
      <trkpt lat="55.41122" lon="-4.6247">
        <ele>41.41</ele>
        <time>2021-03-20T14:25:57Z</time>
      </trkpt>
      <trkpt lat="55.40992" lon="-4.62555">
        <ele>41.72</ele>
        <time>2021-03-20T14:26:02Z</time>
      </trkpt>
      <trkpt lat="55.40982" lon="-4.62509">
        <ele>41.78</ele>
        <time>2021-03-20T14:26:06Z</time>
      </trkpt>
      <trkpt lat="55.4077" lon="-4.6178">
        <ele>52.92</ele>
        <time>2021-03-20T14:26:10Z</time>
      </trkpt>
      <trkpt lat="55.40755" lon="-4.61721">
        <ele>54.18</ele>
        <time>2021-03-20T14:26:14Z</time>
      </trkpt>
      <trkpt lat="55.4075" lon="-4.61695">
        <ele>54.01</ele>
        <time>2021-03-20T14:26:18Z</time>
      </trkpt>
      <trkpt lat="55.40744" lon="-4.61646">
        <ele>53.57</ele>
        <time>2021-03-20T14:26:22Z</time>
      </trkpt>
      <trkpt lat="55.40736" lon="-4.6151">
        <ele>52.31</ele>
        <time>2021-03-20T14:26:26Z</time>
      </trkpt>
      <trkpt lat="55.40737" lon="-4.61415">
        <ele>53.06</ele>
        <time>2021-03-20T14:26:30Z</time>
      </trkpt>
      <trkpt lat="55.40742" lon="-4.61308">
        <ele>55</ele>
        <time>2021-03-20T14:26:34Z</time>
      </trkpt>
      <trkpt lat="55.40744" lon="-4.61247">
        <ele>55.33</ele>
        <time>2021-03-20T14:26:38Z</time>
      </trkpt>
      <trkpt lat="55.40739" lon="-4.61221">
        <ele>56.38</ele>
        <time>2021-03-20T14:26:42Z</time>
      </trkpt>
      <trkpt lat="55.40691" lon="-4.6117">
        <ele>58.01</ele>
        <time>2021-03-20T14:26:46Z</time>
      </trkpt>
      <trkpt lat="55.40651" lon="-4.61135">
        <ele>60.21</ele>
        <time>2021-03-20T14:26:50Z</time>
      </trkpt>
      <trkpt lat="55.40584" lon="-4.61084">
        <ele>64.92</ele>
        <time>2021-03-20T14:26:54Z</time>
      </trkpt>
      <trkpt lat="55.40556" lon="-4.61053">
        <ele>66.1</ele>
        <time>2021-03-20T14:26:58Z</time>
      </trkpt>
      <trkpt lat="55.40365" lon="-4.60545">
        <ele>76.39</ele>
        <time>2021-03-20T14:27:02Z</time>
      </trkpt>
      <trkpt lat="55.403" lon="-4.60399">
        <ele>79.41</ele>
        <time>2021-03-20T14:27:06Z</time>
      </trkpt>
      <trkpt lat="55.40242" lon="-4.60299">
        <ele>81.18</ele>
        <time>2021-03-20T14:27:10Z</time>
      </trkpt>
      <trkpt lat="55.40218" lon="-4.6025">
        <ele>81.99</ele>
        <time>2021-03-20T14:27:14Z</time>
      </trkpt>
      <trkpt lat="55.40209" lon="-4.6021">
        <ele>83</ele>
        <time>2021-03-20T14:27:18Z</time>
      </trkpt>
      <trkpt lat="55.40219" lon="-4.60077">
        <ele>86.22</ele>
        <time>2021-03-20T14:27:22Z</time>
      </trkpt>
      <trkpt lat="55.40221" lon="-4.60003">
        <ele>87.88</ele>
        <time>2021-03-20T14:27:26Z</time>
      </trkpt>
      <trkpt lat="55.40209" lon="-4.59904">
        <ele>87</ele>
        <time>2021-03-20T14:27:30Z</time>
      </trkpt>
      <trkpt lat="55.40192" lon="-4.5982">
        <ele>87.1</ele>
        <time>2021-03-20T14:27:34Z</time>
      </trkpt>
      <trkpt lat="55.40168" lon="-4.59741">
        <ele>85.74</ele>
        <time>2021-03-20T14:27:38Z</time>
      </trkpt>
      <trkpt lat="55.40147" lon="-4.59656">
        <ele>83.04</ele>
        <time>2021-03-20T14:27:42Z</time>
      </trkpt>
      <trkpt lat="55.40142" lon="-4.59642">
        <ele>82.32</ele>
        <time>2021-03-20T14:27:46Z</time>
      </trkpt>
      <trkpt lat="55.40119" lon="-4.59588">
        <ele>78.93</ele>
        <time>2021-03-20T14:27:50Z</time>
      </trkpt>
      <trkpt lat="55.4008" lon="-4.59556">
        <ele>73.63</ele>
        <time>2021-03-20T14:27:54Z</time>
      </trkpt>
      <trkpt lat="55.40046" lon="-4.59552">
        <ele>70.13</ele>
        <time>2021-03-20T14:27:58Z</time>
      </trkpt>
      <trkpt lat="55.40016" lon="-4.59561">
        <ele>68.29</ele>
        <time>2021-03-20T14:28:02Z</time>
      </trkpt>
      <trkpt lat="55.39984" lon="-4.59586">
        <ele>66.94</ele>
        <time>2021-03-20T14:28:06Z</time>
      </trkpt>
      <trkpt lat="55.39958" lon="-4.59614">
        <ele>64.73</ele>
        <time>2021-03-20T14:28:10Z</time>
      </trkpt>
      <trkpt lat="55.39923" lon="-4.59642">
        <ele>62.9</ele>
        <time>2021-03-20T14:28:14Z</time>
      </trkpt>
      <trkpt lat="55.3989" lon="-4.59647">
        <ele>60.65</ele>
        <time>2021-03-20T14:28:18Z</time>
      </trkpt>
      <trkpt lat="55.39848" lon="-4.59638">
        <ele>58.05</ele>
        <time>2021-03-20T14:28:22Z</time>
      </trkpt>
      <trkpt lat="55.39822" lon="-4.59604">
        <ele>55.6</ele>
        <time>2021-03-20T14:28:26Z</time>
      </trkpt>
      <trkpt lat="55.39808" lon="-4.59579">
        <ele>55.07</ele>
        <time>2021-03-20T14:28:30Z</time>
      </trkpt>
      <trkpt lat="55.39803" lon="-4.59569">
        <ele>54.95</ele>
        <time>2021-03-20T14:28:34Z</time>
      </trkpt>
      <trkpt lat="55.39792" lon="-4.5953">
        <ele>55</ele>
        <time>2021-03-20T14:28:38Z</time>
      </trkpt>
      <trkpt lat="55.39782" lon="-4.59486">
        <ele>55.85</ele>
        <time>2021-03-20T14:28:42Z</time>
      </trkpt>
      <trkpt lat="55.39764" lon="-4.5939">
        <ele>55.47</ele>
        <time>2021-03-20T14:28:46Z</time>
      </trkpt>
      <trkpt lat="55.39717" lon="-4.59219">
        <ele>56.82</ele>
        <time>2021-03-20T14:28:50Z</time>
      </trkpt>
      <trkpt lat="55.39574" lon="-4.59295">
        <ele>54.16</ele>
        <time>2021-03-20T14:28:53Z</time>
      </trkpt>
      <trkpt lat="55.39564" lon="-4.59299">
        <ele>54.78</ele>
        <time>2021-03-20T14:28:57Z</time>
      </trkpt>
      <trkpt lat="55.3954" lon="-4.59304">
        <ele>56.26</ele>
        <time>2021-03-20T14:29:00Z</time>
      </trkpt>
      <trkpt lat="55.39428" lon="-4.59299">
        <ele>56.25</ele>
        <time>2021-03-20T14:29:04Z</time>
      </trkpt>
      <trkpt lat="55.394" lon="-4.59306">
        <ele>56.62</ele>
        <time>2021-03-20T14:29:07Z</time>
      </trkpt>
      <trkpt lat="55.39376" lon="-4.59331">
        <ele>56.13</ele>
        <time>2021-03-20T14:29:10Z</time>
      </trkpt>
      <trkpt lat="55.39213" lon="-4.59602">
        <ele>51.77</ele>
        <time>2021-03-20T14:29:14Z</time>
      </trkpt>
      <trkpt lat="55.39178" lon="-4.59654">
        <ele>51.27</ele>
        <time>2021-03-20T14:29:17Z</time>
      </trkpt>
      <trkpt lat="55.39109" lon="-4.59735">
        <ele>50.7</ele>
        <time>2021-03-20T14:29:21Z</time>
      </trkpt>
      <trkpt lat="55.39005" lon="-4.59829">
        <ele>50.1</ele>
        <time>2021-03-20T14:29:24Z</time>
      </trkpt>
      <trkpt lat="55.38986" lon="-4.5986">
        <ele>49.58</ele>
        <time>2021-03-20T14:29:27Z</time>
      </trkpt>
      <trkpt lat="55.38955" lon="-4.59886">
        <ele>50.92</ele>
        <time>2021-03-20T14:29:31Z</time>
      </trkpt>
      <trkpt lat="55.38924" lon="-4.59883">
        <ele>52.95</ele>
        <time>2021-03-20T14:29:34Z</time>
      </trkpt>
      <trkpt lat="55.38685" lon="-4.59798">
        <ele>53</ele>
        <time>2021-03-20T14:29:37Z</time>
      </trkpt>
      <trkpt lat="55.38651" lon="-4.59804">
        <ele>52.63</ele>
        <time>2021-03-20T14:29:41Z</time>
      </trkpt>
      <trkpt lat="55.38624" lon="-4.59823">
        <ele>52.94</ele>
        <time>2021-03-20T14:29:44Z</time>
      </trkpt>
      <trkpt lat="55.38606" lon="-4.59857">
        <ele>53</ele>
        <time>2021-03-20T14:29:48Z</time>
      </trkpt>
      <trkpt lat="55.38515" lon="-4.60194">
        <ele>59.99</ele>
        <time>2021-03-20T14:29:51Z</time>
      </trkpt>
      <trkpt lat="55.38488" lon="-4.60259">
        <ele>63.33</ele>
        <time>2021-03-20T14:29:54Z</time>
      </trkpt>
      <trkpt lat="55.38455" lon="-4.6032">
        <ele>63.74</ele>
        <time>2021-03-20T14:29:58Z</time>
      </trkpt>
      <trkpt lat="55.38403" lon="-4.60446">
        <ele>65.53</ele>
        <time>2021-03-20T14:30:01Z</time>
      </trkpt>
      <trkpt lat="55.38384" lon="-4.60517">
        <ele>66.42</ele>
        <time>2021-03-20T14:30:05Z</time>
      </trkpt>
      <trkpt lat="55.38373" lon="-4.60582">
        <ele>67.82</ele>
        <time>2021-03-20T14:30:08Z</time>
      </trkpt>
      <trkpt lat="55.38356" lon="-4.60641">
        <ele>66.61</ele>
        <time>2021-03-20T14:30:11Z</time>
      </trkpt>
      <trkpt lat="55.38325" lon="-4.60683">
        <ele>65.42</ele>
        <time>2021-03-20T14:30:15Z</time>
      </trkpt>
      <trkpt lat="55.38251" lon="-4.60753">
        <ele>65.94</ele>
        <time>2021-03-20T14:30:18Z</time>
      </trkpt>
      <trkpt lat="55.3822" lon="-4.60806">
        <ele>67.17</ele>
        <time>2021-03-20T14:30:22Z</time>
      </trkpt>
      <trkpt lat="55.38196" lon="-4.60865">
        <ele>67.72</ele>
        <time>2021-03-20T14:30:25Z</time>
      </trkpt>
      <trkpt lat="55.38186" lon="-4.60979">
        <ele>69.59</ele>
        <time>2021-03-20T14:30:28Z</time>
      </trkpt>
      <trkpt lat="55.38169" lon="-4.61028">
        <ele>70.81</ele>
        <time>2021-03-20T14:30:32Z</time>
      </trkpt>
      <trkpt lat="55.38148" lon="-4.61079">
        <ele>71.52</ele>
        <time>2021-03-20T14:30:35Z</time>
      </trkpt>
      <trkpt lat="55.38126" lon="-4.61124">
        <ele>72.69</ele>
        <time>2021-03-20T14:30:39Z</time>
      </trkpt>
      <trkpt lat="55.38103" lon="-4.61188">
        <ele>73.64</ele>
        <time>2021-03-20T14:30:42Z</time>
      </trkpt>
      <trkpt lat="55.38085" lon="-4.61264">
        <ele>74.86</ele>
        <time>2021-03-20T14:30:45Z</time>
      </trkpt>
      <trkpt lat="55.38061" lon="-4.61329">
        <ele>75.62</ele>
        <time>2021-03-20T14:30:49Z</time>
      </trkpt>
      <trkpt lat="55.38032" lon="-4.6139">
        <ele>76.47</ele>
        <time>2021-03-20T14:30:52Z</time>
      </trkpt>
      <trkpt lat="55.37968" lon="-4.61512">
        <ele>76.44</ele>
        <time>2021-03-20T14:30:56Z</time>
      </trkpt>
      <trkpt lat="55.37861" lon="-4.61669">
        <ele>77.95</ele>
        <time>2021-03-20T14:30:59Z</time>
      </trkpt>
      <trkpt lat="55.37811" lon="-4.61804">
        <ele>83.69</ele>
        <time>2021-03-20T14:31:02Z</time>
      </trkpt>
      <trkpt lat="55.37783" lon="-4.61966">
        <ele>85.78</ele>
        <time>2021-03-20T14:31:06Z</time>
      </trkpt>
      <trkpt lat="55.37754" lon="-4.62088">
        <ele>84.11</ele>
        <time>2021-03-20T14:31:09Z</time>
      </trkpt>
      <trkpt lat="55.3773" lon="-4.62149">
        <ele>85.66</ele>
        <time>2021-03-20T14:31:12Z</time>
      </trkpt>
      <trkpt lat="55.37702" lon="-4.62197">
        <ele>85.36</ele>
        <time>2021-03-20T14:31:16Z</time>
      </trkpt>
      <trkpt lat="55.37673" lon="-4.62242">
        <ele>84.34</ele>
        <time>2021-03-20T14:31:19Z</time>
      </trkpt>
      <trkpt lat="55.37653" lon="-4.62312">
        <ele>81</ele>
        <time>2021-03-20T14:31:23Z</time>
      </trkpt>
      <trkpt lat="55.3764" lon="-4.62373">
        <ele>80.97</ele>
        <time>2021-03-20T14:31:26Z</time>
      </trkpt>
      <trkpt lat="55.37631" lon="-4.62421">
        <ele>80.28</ele>
        <time>2021-03-20T14:31:29Z</time>
      </trkpt>
      <trkpt lat="55.37629" lon="-4.62461">
        <ele>79.21</ele>
        <time>2021-03-20T14:31:33Z</time>
      </trkpt>
      <trkpt lat="55.3763" lon="-4.62488">
        <ele>77.57</ele>
        <time>2021-03-20T14:31:36Z</time>
      </trkpt>
      <trkpt lat="55.37643" lon="-4.62567">
        <ele>74.59</ele>
        <time>2021-03-20T14:31:40Z</time>
      </trkpt>
      <trkpt lat="55.37667" lon="-4.62681">
        <ele>72.5</ele>
        <time>2021-03-20T14:31:43Z</time>
      </trkpt>
      <trkpt lat="55.37676" lon="-4.62747">
        <ele>71.13</ele>
        <time>2021-03-20T14:31:46Z</time>
      </trkpt>
      <trkpt lat="55.37686" lon="-4.62824">
        <ele>69.47</ele>
        <time>2021-03-20T14:31:50Z</time>
      </trkpt>
      <trkpt lat="55.37688" lon="-4.62862">
        <ele>67.75</ele>
        <time>2021-03-20T14:31:53Z</time>
      </trkpt>
      <trkpt lat="55.37688" lon="-4.62898">
        <ele>66.67</ele>
        <time>2021-03-20T14:31:57Z</time>
      </trkpt>
      <trkpt lat="55.37685" lon="-4.62926">
        <ele>65.78</ele>
        <time>2021-03-20T14:32:00Z</time>
      </trkpt>
      <trkpt lat="55.37677" lon="-4.62965">
        <ele>64.13</ele>
        <time>2021-03-20T14:32:03Z</time>
      </trkpt>
      <trkpt lat="55.37667" lon="-4.63001">
        <ele>62.94</ele>
        <time>2021-03-20T14:32:07Z</time>
      </trkpt>
      <trkpt lat="55.37654" lon="-4.63035">
        <ele>61.65</ele>
        <time>2021-03-20T14:32:10Z</time>
      </trkpt>
      <trkpt lat="55.37606" lon="-4.63142">
        <ele>60.2</ele>
        <time>2021-03-20T14:32:14Z</time>
      </trkpt>
      <trkpt lat="55.37535" lon="-4.63181">
        <ele>58.84</ele>
        <time>2021-03-20T14:32:17Z</time>
      </trkpt>
      <trkpt lat="55.37469" lon="-4.63234">
        <ele>56.31</ele>
        <time>2021-03-20T14:32:20Z</time>
      </trkpt>
      <trkpt lat="55.37413" lon="-4.63291">
        <ele>52.67</ele>
        <time>2021-03-20T14:32:24Z</time>
      </trkpt>
      <trkpt lat="55.37397" lon="-4.63324">
        <ele>50.39</ele>
        <time>2021-03-20T14:32:27Z</time>
      </trkpt>
      <trkpt lat="55.37391" lon="-4.6336">
        <ele>48.97</ele>
        <time>2021-03-20T14:32:30Z</time>
      </trkpt>
      <trkpt lat="55.37398" lon="-4.63414">
        <ele>48.89</ele>
        <time>2021-03-20T14:32:34Z</time>
      </trkpt>
      <trkpt lat="55.37335" lon="-4.63442">
        <ele>48.05</ele>
        <time>2021-03-20T14:32:38Z</time>
      </trkpt>
      <trkpt lat="55.37248" lon="-4.6349">
        <ele>48.08</ele>
        <time>2021-03-20T14:32:42Z</time>
      </trkpt>
      <trkpt lat="55.37163" lon="-4.63546">
        <ele>48</ele>
        <time>2021-03-20T14:32:46Z</time>
      </trkpt>
      <trkpt lat="55.37121" lon="-4.6358">
        <ele>49.54</ele>
        <time>2021-03-20T14:32:50Z</time>
      </trkpt>
      <trkpt lat="55.37084" lon="-4.63633">
        <ele>50.02</ele>
        <time>2021-03-20T14:32:55Z</time>
      </trkpt>
      <trkpt lat="55.37013" lon="-4.63752">
        <ele>49.96</ele>
        <time>2021-03-20T14:32:59Z</time>
      </trkpt>
      <trkpt lat="55.36871" lon="-4.64002">
        <ele>48.92</ele>
        <time>2021-03-20T14:33:03Z</time>
      </trkpt>
      <trkpt lat="55.36773" lon="-4.64189">
        <ele>48.53</ele>
        <time>2021-03-20T14:33:07Z</time>
      </trkpt>
      <trkpt lat="55.36739" lon="-4.64239">
        <ele>48.06</ele>
        <time>2021-03-20T14:33:11Z</time>
      </trkpt>
      <trkpt lat="55.36574" lon="-4.64457">
        <ele>49.87</ele>
        <time>2021-03-20T14:33:15Z</time>
      </trkpt>
      <trkpt lat="55.3654" lon="-4.64484">
        <ele>49.82</ele>
        <time>2021-03-20T14:33:19Z</time>
      </trkpt>
      <trkpt lat="55.36503" lon="-4.6449">
        <ele>50</ele>
        <time>2021-03-20T14:33:23Z</time>
      </trkpt>
      <trkpt lat="55.36382" lon="-4.64499">
        <ele>51.01</ele>
        <time>2021-03-20T14:33:28Z</time>
      </trkpt>
      <trkpt lat="55.36344" lon="-4.64512">
        <ele>50.9</ele>
        <time>2021-03-20T14:33:32Z</time>
      </trkpt>
      <trkpt lat="55.36275" lon="-4.64562">
        <ele>48.21</ele>
        <time>2021-03-20T14:33:36Z</time>
      </trkpt>
      <trkpt lat="55.36081" lon="-4.64611">
        <ele>49.01</ele>
        <time>2021-03-20T14:33:40Z</time>
      </trkpt>
      <trkpt lat="55.36048" lon="-4.64615">
        <ele>48.97</ele>
        <time>2021-03-20T14:33:44Z</time>
      </trkpt>
      <trkpt lat="55.36018" lon="-4.64594">
        <ele>49</ele>
        <time>2021-03-20T14:33:48Z</time>
      </trkpt>
      <trkpt lat="55.35991" lon="-4.64555">
        <ele>49.69</ele>
        <time>2021-03-20T14:33:52Z</time>
      </trkpt>
      <trkpt lat="55.35959" lon="-4.64519">
        <ele>51.78</ele>
        <time>2021-03-20T14:33:56Z</time>
      </trkpt>
      <trkpt lat="55.35925" lon="-4.64496">
        <ele>53.78</ele>
        <time>2021-03-20T14:34:01Z</time>
      </trkpt>
      <trkpt lat="55.35891" lon="-4.64505">
        <ele>54.75</ele>
        <time>2021-03-20T14:34:05Z</time>
      </trkpt>
      <trkpt lat="55.35858" lon="-4.6453">
        <ele>55</ele>
        <time>2021-03-20T14:34:09Z</time>
      </trkpt>
      <trkpt lat="55.35829" lon="-4.64572">
        <ele>55.06</ele>
        <time>2021-03-20T14:34:13Z</time>
      </trkpt>
      <trkpt lat="55.35781" lon="-4.64678">
        <ele>56.92</ele>
        <time>2021-03-20T14:34:17Z</time>
      </trkpt>
      <trkpt lat="55.35748" lon="-4.64705">
        <ele>56.55</ele>
        <time>2021-03-20T14:34:21Z</time>
      </trkpt>
      <trkpt lat="55.35709" lon="-4.64719">
        <ele>55.12</ele>
        <time>2021-03-20T14:34:25Z</time>
      </trkpt>
      <trkpt lat="55.35629" lon="-4.64722">
        <ele>55.66</ele>
        <time>2021-03-20T14:34:30Z</time>
      </trkpt>
      <trkpt lat="55.35594" lon="-4.64715">
        <ele>56</ele>
        <time>2021-03-20T14:34:34Z</time>
      </trkpt>
      <trkpt lat="55.35558" lon="-4.64699">
        <ele>56.08</ele>
        <time>2021-03-20T14:34:38Z</time>
      </trkpt>
      <trkpt lat="55.35467" lon="-4.64615">
        <ele>52.36</ele>
        <time>2021-03-20T14:34:42Z</time>
      </trkpt>
      <trkpt lat="55.35432" lon="-4.64594">
        <ele>54.88</ele>
        <time>2021-03-20T14:34:46Z</time>
      </trkpt>
      <trkpt lat="55.35398" lon="-4.64581">
        <ele>56.17</ele>
        <time>2021-03-20T14:34:50Z</time>
      </trkpt>
      <trkpt lat="55.35369" lon="-4.64557">
        <ele>57.23</ele>
        <time>2021-03-20T14:34:54Z</time>
      </trkpt>
      <trkpt lat="55.3503" lon="-4.64013">
        <ele>66</ele>
        <time>2021-03-20T14:34:58Z</time>
      </trkpt>
      <trkpt lat="55.35017" lon="-4.63995">
        <ele>66</ele>
        <time>2021-03-20T14:35:03Z</time>
      </trkpt>
      <trkpt lat="55.34979" lon="-4.63951">
        <ele>65.81</ele>
        <time>2021-03-20T14:35:07Z</time>
      </trkpt>
      <trkpt lat="55.34949" lon="-4.63902">
        <ele>66</ele>
        <time>2021-03-20T14:35:11Z</time>
      </trkpt>
      <trkpt lat="55.34894" lon="-4.63846">
        <ele>66.74</ele>
        <time>2021-03-20T14:35:15Z</time>
      </trkpt>
      <trkpt lat="55.34884" lon="-4.63842">
        <ele>66.63</ele>
        <time>2021-03-20T14:35:19Z</time>
      </trkpt>
      <trkpt lat="55.34866" lon="-4.63843">
        <ele>66.42</ele>
        <time>2021-03-20T14:35:23Z</time>
      </trkpt>
      <trkpt lat="55.34855" lon="-4.63851">
        <ele>66.39</ele>
        <time>2021-03-20T14:35:27Z</time>
      </trkpt>
      <trkpt lat="55.34799" lon="-4.63899">
        <ele>65.12</ele>
        <time>2021-03-20T14:35:31Z</time>
      </trkpt>
      <trkpt lat="55.34633" lon="-4.64029">
        <ele>67.21</ele>
        <time>2021-03-20T14:35:35Z</time>
      </trkpt>
      <trkpt lat="55.34609" lon="-4.6405">
        <ele>68</ele>
        <time>2021-03-20T14:35:39Z</time>
      </trkpt>
      <trkpt lat="55.34601" lon="-4.64063">
        <ele>68.09</ele>
        <time>2021-03-20T14:35:43Z</time>
      </trkpt>
      <trkpt lat="55.34591" lon="-4.64083">
        <ele>68.72</ele>
        <time>2021-03-20T14:35:47Z</time>
      </trkpt>
      <trkpt lat="55.34564" lon="-4.64161">
        <ele>69.69</ele>
        <time>2021-03-20T14:35:51Z</time>
      </trkpt>
      <trkpt lat="55.34419" lon="-4.64554">
        <ele>62</ele>
        <time>2021-03-20T14:35:55Z</time>
      </trkpt>
      <trkpt lat="55.34412" lon="-4.64586">
        <ele>62.98</ele>
        <time>2021-03-20T14:35:59Z</time>
      </trkpt>
      <trkpt lat="55.34389" lon="-4.64727">
        <ele>58.17</ele>
        <time>2021-03-20T14:36:03Z</time>
      </trkpt>
      <trkpt lat="55.34367" lon="-4.64851">
        <ele>60.29</ele>
        <time>2021-03-20T14:36:07Z</time>
      </trkpt>
      <trkpt lat="55.34348" lon="-4.64921">
        <ele>59.47</ele>
        <time>2021-03-20T14:36:11Z</time>
      </trkpt>
      <trkpt lat="55.34328" lon="-4.64984">
        <ele>58</ele>
        <time>2021-03-20T14:36:15Z</time>
      </trkpt>
      <trkpt lat="55.34296" lon="-4.65049">
        <ele>57.41</ele>
        <time>2021-03-20T14:36:19Z</time>
      </trkpt>
      <trkpt lat="55.34244" lon="-4.65116">
        <ele>56.82</ele>
        <time>2021-03-20T14:36:23Z</time>
      </trkpt>
      <trkpt lat="55.34042" lon="-4.64887">
        <ele>59.61</ele>
        <time>2021-03-20T14:36:32Z</time>
      </trkpt>
      <trkpt lat="55.34012" lon="-4.64857">
        <ele>59.6</ele>
        <time>2021-03-20T14:36:41Z</time>
      </trkpt>
      <trkpt lat="55.33958" lon="-4.6482">
        <ele>57.94</ele>
        <time>2021-03-20T14:36:50Z</time>
      </trkpt>
      <trkpt lat="55.33741" lon="-4.64715">
        <ele>66</ele>
        <time>2021-03-20T14:36:59Z</time>
      </trkpt>
      <trkpt lat="55.33044" lon="-4.64414">
        <ele>42.5</ele>
        <time>2021-03-20T14:37:08Z</time>
      </trkpt>
      <trkpt lat="55.3301" lon="-4.64397">
        <ele>40.63</ele>
        <time>2021-03-20T14:37:17Z</time>
      </trkpt>
      <trkpt lat="55.32958" lon="-4.64376">
        <ele>39</ele>
        <time>2021-03-20T14:37:26Z</time>
      </trkpt>
      <trkpt lat="55.32769" lon="-4.64312">
        <ele>39.67</ele>
        <time>2021-03-20T14:37:35Z</time>
      </trkpt>
      <trkpt lat="55.32704" lon="-4.64301">
        <ele>39.7</ele>
        <time>2021-03-20T14:37:44Z</time>
      </trkpt>
      <trkpt lat="55.32685" lon="-4.64295">
        <ele>40</ele>
        <time>2021-03-20T14:37:53Z</time>
      </trkpt>
      <trkpt lat="55.32667" lon="-4.64284">
        <ele>40</ele>
        <time>2021-03-20T14:38:02Z</time>
      </trkpt>
      <trkpt lat="55.32613" lon="-4.64238">
        <ele>42.31</ele>
        <time>2021-03-20T14:38:11Z</time>
      </trkpt>
      <trkpt lat="55.32536" lon="-4.64167">
        <ele>41.29</ele>
        <time>2021-03-20T14:38:20Z</time>
      </trkpt>
      <trkpt lat="55.32468" lon="-4.64098">
        <ele>43.56</ele>
        <time>2021-03-20T14:38:29Z</time>
      </trkpt>
      <trkpt lat="55.32449" lon="-4.64125">
        <ele>43.75</ele>
        <time>2021-03-20T14:38:32Z</time>
      </trkpt>
      <trkpt lat="55.32443" lon="-4.64138">
        <ele>44.1</ele>
        <time>2021-03-20T14:38:35Z</time>
      </trkpt>
      <trkpt lat="55.32432" lon="-4.64169">
        <ele>44.96</ele>
        <time>2021-03-20T14:38:38Z</time>
      </trkpt>
      <trkpt lat="55.32428" lon="-4.64186">
        <ele>45.59</ele>
        <time>2021-03-20T14:38:41Z</time>
      </trkpt>
      <trkpt lat="55.32418" lon="-4.64269">
        <ele>45.87</ele>
        <time>2021-03-20T14:38:44Z</time>
      </trkpt>
      <trkpt lat="55.32409" lon="-4.64315">
        <ele>46.28</ele>
        <time>2021-03-20T14:38:47Z</time>
      </trkpt>
      <trkpt lat="55.32399" lon="-4.64352">
        <ele>45.99</ele>
        <time>2021-03-20T14:38:50Z</time>
      </trkpt>
      <trkpt lat="55.32387" lon="-4.64381">
        <ele>46.06</ele>
        <time>2021-03-20T14:38:53Z</time>
      </trkpt>
      <trkpt lat="55.32325" lon="-4.6449">
        <ele>44</ele>
        <time>2021-03-20T14:38:56Z</time>
      </trkpt>
      <trkpt lat="55.32252" lon="-4.64644">
        <ele>43.85</ele>
        <time>2021-03-20T14:39:00Z</time>
      </trkpt>
      <trkpt lat="55.32234" lon="-4.64673">
        <ele>45.61</ele>
        <time>2021-03-20T14:39:03Z</time>
      </trkpt>
      <trkpt lat="55.32197" lon="-4.64727">
        <ele>50.54</ele>
        <time>2021-03-20T14:39:06Z</time>
      </trkpt>
      <trkpt lat="55.31977" lon="-4.65023">
        <ele>50</ele>
        <time>2021-03-20T14:39:09Z</time>
      </trkpt>
      <trkpt lat="55.31946" lon="-4.65078">
        <ele>49.14</ele>
        <time>2021-03-20T14:39:12Z</time>
      </trkpt>
      <trkpt lat="55.31911" lon="-4.65145">
        <ele>50.58</ele>
        <time>2021-03-20T14:39:15Z</time>
      </trkpt>
      <trkpt lat="55.31838" lon="-4.65251">
        <ele>49.65</ele>
        <time>2021-03-20T14:39:18Z</time>
      </trkpt>
      <trkpt lat="55.3176" lon="-4.65351">
        <ele>50.77</ele>
        <time>2021-03-20T14:39:21Z</time>
      </trkpt>
      <trkpt lat="55.31685" lon="-4.65455">
        <ele>51.31</ele>
        <time>2021-03-20T14:39:24Z</time>
      </trkpt>
      <trkpt lat="55.31578" lon="-4.65598">
        <ele>58.41</ele>
        <time>2021-03-20T14:39:27Z</time>
      </trkpt>
      <trkpt lat="55.31557" lon="-4.65621">
        <ele>59.19</ele>
        <time>2021-03-20T14:39:30Z</time>
      </trkpt>
      <trkpt lat="55.31521" lon="-4.6565">
        <ele>59.34</ele>
        <time>2021-03-20T14:39:33Z</time>
      </trkpt>
      <trkpt lat="55.3149" lon="-4.65666">
        <ele>57.67</ele>
        <time>2021-03-20T14:39:36Z</time>
      </trkpt>
      <trkpt lat="55.3143" lon="-4.65687">
        <ele>57.52</ele>
        <time>2021-03-20T14:39:39Z</time>
      </trkpt>
      <trkpt lat="55.31418" lon="-4.65694">
        <ele>57.97</ele>
        <time>2021-03-20T14:39:42Z</time>
      </trkpt>
      <trkpt lat="55.3141" lon="-4.65705">
        <ele>57.53</ele>
        <time>2021-03-20T14:39:45Z</time>
      </trkpt>
      <trkpt lat="55.31374" lon="-4.65816">
        <ele>51.9</ele>
        <time>2021-03-20T14:39:48Z</time>
      </trkpt>
      <trkpt lat="55.31352" lon="-4.65853">
        <ele>51.95</ele>
        <time>2021-03-20T14:39:51Z</time>
      </trkpt>
      <trkpt lat="55.31332" lon="-4.65859">
        <ele>52.83</ele>
        <time>2021-03-20T14:39:55Z</time>
      </trkpt>
      <trkpt lat="55.31287" lon="-4.65848">
        <ele>51.72</ele>
        <time>2021-03-20T14:39:58Z</time>
      </trkpt>
      <trkpt lat="55.31264" lon="-4.65858">
        <ele>50.56</ele>
        <time>2021-03-20T14:40:01Z</time>
      </trkpt>
      <trkpt lat="55.31246" lon="-4.65882">
        <ele>49.99</ele>
        <time>2021-03-20T14:40:04Z</time>
      </trkpt>
      <trkpt lat="55.31197" lon="-4.65985">
        <ele>49.39</ele>
        <time>2021-03-20T14:40:07Z</time>
      </trkpt>
      <trkpt lat="55.31142" lon="-4.66087">
        <ele>49.85</ele>
        <time>2021-03-20T14:40:10Z</time>
      </trkpt>
      <trkpt lat="55.31099" lon="-4.66212">
        <ele>46.74</ele>
        <time>2021-03-20T14:40:13Z</time>
      </trkpt>
      <trkpt lat="55.31078" lon="-4.66304">
        <ele>47.51</ele>
        <time>2021-03-20T14:40:16Z</time>
      </trkpt>
      <trkpt lat="55.31049" lon="-4.66383">
        <ele>43.14</ele>
        <time>2021-03-20T14:40:19Z</time>
      </trkpt>
      <trkpt lat="55.31042" lon="-4.66414">
        <ele>42.85</ele>
        <time>2021-03-20T14:40:22Z</time>
      </trkpt>
      <trkpt lat="55.31023" lon="-4.66512">
        <ele>39.44</ele>
        <time>2021-03-20T14:40:25Z</time>
      </trkpt>
      <trkpt lat="55.31017" lon="-4.66524">
        <ele>38.83</ele>
        <time>2021-03-20T14:40:28Z</time>
      </trkpt>
      <trkpt lat="55.30979" lon="-4.66563">
        <ele>39.7</ele>
        <time>2021-03-20T14:40:31Z</time>
      </trkpt>
      <trkpt lat="55.30819" lon="-4.66712">
        <ele>47.04</ele>
        <time>2021-03-20T14:40:34Z</time>
      </trkpt>
      <trkpt lat="55.3066" lon="-4.66871">
        <ele>43.26</ele>
        <time>2021-03-20T14:40:37Z</time>
      </trkpt>
      <trkpt lat="55.30589" lon="-4.66982">
        <ele>43.66</ele>
        <time>2021-03-20T14:40:40Z</time>
      </trkpt>
      <trkpt lat="55.30517" lon="-4.67064">
        <ele>38.16</ele>
        <time>2021-03-20T14:40:43Z</time>
      </trkpt>
      <trkpt lat="55.30401" lon="-4.67228">
        <ele>37.22</ele>
        <time>2021-03-20T14:40:46Z</time>
      </trkpt>
      <trkpt lat="55.30368" lon="-4.673">
        <ele>38.92</ele>
        <time>2021-03-20T14:40:50Z</time>
      </trkpt>
      <trkpt lat="55.30339" lon="-4.67341">
        <ele>41.01</ele>
        <time>2021-03-20T14:40:53Z</time>
      </trkpt>
      <trkpt lat="55.30306" lon="-4.67383">
        <ele>40.62</ele>
        <time>2021-03-20T14:40:56Z</time>
      </trkpt>
      <trkpt lat="55.30294" lon="-4.67403">
        <ele>39.54</ele>
        <time>2021-03-20T14:40:59Z</time>
      </trkpt>
      <trkpt lat="55.30265" lon="-4.67466">
        <ele>37.83</ele>
        <time>2021-03-20T14:41:02Z</time>
      </trkpt>
      <trkpt lat="55.30248" lon="-4.67507">
        <ele>37.22</ele>
        <time>2021-03-20T14:41:05Z</time>
      </trkpt>
      <trkpt lat="55.302" lon="-4.67643">
        <ele>38.76</ele>
        <time>2021-03-20T14:41:08Z</time>
      </trkpt>
      <trkpt lat="55.30189" lon="-4.67668">
        <ele>38.47</ele>
        <time>2021-03-20T14:41:11Z</time>
      </trkpt>
      <trkpt lat="55.30179" lon="-4.67684">
        <ele>37.92</ele>
        <time>2021-03-20T14:41:14Z</time>
      </trkpt>
      <trkpt lat="55.30157" lon="-4.67706">
        <ele>36.14</ele>
        <time>2021-03-20T14:41:17Z</time>
      </trkpt>
      <trkpt lat="55.30109" lon="-4.67742">
        <ele>33.53</ele>
        <time>2021-03-20T14:41:20Z</time>
      </trkpt>
      <trkpt lat="55.3007" lon="-4.67782">
        <ele>32.34</ele>
        <time>2021-03-20T14:41:23Z</time>
      </trkpt>
      <trkpt lat="55.30043" lon="-4.67816">
        <ele>32.68</ele>
        <time>2021-03-20T14:41:26Z</time>
      </trkpt>
      <trkpt lat="55.30015" lon="-4.67869">
        <ele>31.95</ele>
        <time>2021-03-20T14:41:29Z</time>
      </trkpt>
      <trkpt lat="55.29997" lon="-4.67908">
        <ele>32.2</ele>
        <time>2021-03-20T14:41:32Z</time>
      </trkpt>
      <trkpt lat="55.29966" lon="-4.67994">
        <ele>33.12</ele>
        <time>2021-03-20T14:41:35Z</time>
      </trkpt>
      <trkpt lat="55.29956" lon="-4.6803">
        <ele>33.25</ele>
        <time>2021-03-20T14:41:38Z</time>
      </trkpt>
      <trkpt lat="55.29949" lon="-4.68069">
        <ele>32.5</ele>
        <time>2021-03-20T14:41:41Z</time>
      </trkpt>
      <trkpt lat="55.29944" lon="-4.68107">
        <ele>32</ele>
        <time>2021-03-20T14:41:45Z</time>
      </trkpt>
      <trkpt lat="55.2993" lon="-4.68279">
        <ele>33.92</ele>
        <time>2021-03-20T14:41:48Z</time>
      </trkpt>
      <trkpt lat="55.29917" lon="-4.68476">
        <ele>34</ele>
        <time>2021-03-20T14:41:51Z</time>
      </trkpt>
      <trkpt lat="55.29908" lon="-4.68695">
        <ele>33</ele>
        <time>2021-03-20T14:41:54Z</time>
      </trkpt>
      <trkpt lat="55.29906" lon="-4.68716">
        <ele>33</ele>
        <time>2021-03-20T14:41:57Z</time>
      </trkpt>
      <trkpt lat="55.29899" lon="-4.6875">
        <ele>34</ele>
        <time>2021-03-20T14:42:00Z</time>
      </trkpt>
      <trkpt lat="55.29892" lon="-4.6877">
        <ele>34</ele>
        <time>2021-03-20T14:42:03Z</time>
      </trkpt>
      <trkpt lat="55.29883" lon="-4.68786">
        <ele>33.54</ele>
        <time>2021-03-20T14:42:06Z</time>
      </trkpt>
      <trkpt lat="55.29873" lon="-4.688">
        <ele>32.82</ele>
        <time>2021-03-20T14:42:09Z</time>
      </trkpt>
      <trkpt lat="55.29842" lon="-4.68819">
        <ele>31.64</ele>
        <time>2021-03-20T14:42:12Z</time>
      </trkpt>
      <trkpt lat="55.29826" lon="-4.68823">
        <ele>32.06</ele>
        <time>2021-03-20T14:42:15Z</time>
      </trkpt>
      <trkpt lat="55.29808" lon="-4.68825">
        <ele>33.26</ele>
        <time>2021-03-20T14:42:18Z</time>
      </trkpt>
      <trkpt lat="55.2979" lon="-4.68821">
        <ele>34.81</ele>
        <time>2021-03-20T14:42:21Z</time>
      </trkpt>
      <trkpt lat="55.29722" lon="-4.68791">
        <ele>37.38</ele>
        <time>2021-03-20T14:42:24Z</time>
      </trkpt>
      <trkpt lat="55.29703" lon="-4.68777">
        <ele>35.98</ele>
        <time>2021-03-20T14:42:27Z</time>
      </trkpt>
      <trkpt lat="55.2967" lon="-4.68742">
        <ele>33.43</ele>
        <time>2021-03-20T14:42:30Z</time>
      </trkpt>
      <trkpt lat="55.29655" lon="-4.68733">
        <ele>32.79</ele>
        <time>2021-03-20T14:42:33Z</time>
      </trkpt>
      <trkpt lat="55.29641" lon="-4.68729">
        <ele>32.49</ele>
        <time>2021-03-20T14:42:36Z</time>
      </trkpt>
      <trkpt lat="55.29618" lon="-4.68733">
        <ele>32.06</ele>
        <time>2021-03-20T14:42:40Z</time>
      </trkpt>
      <trkpt lat="55.29606" lon="-4.68741">
        <ele>32.26</ele>
        <time>2021-03-20T14:42:43Z</time>
      </trkpt>
      <trkpt lat="55.29594" lon="-4.68754">
        <ele>32.44</ele>
        <time>2021-03-20T14:42:46Z</time>
      </trkpt>
      <trkpt lat="55.29567" lon="-4.68798">
        <ele>32.44</ele>
        <time>2021-03-20T14:42:49Z</time>
      </trkpt>
      <trkpt lat="55.29508" lon="-4.68929">
        <ele>31.98</ele>
        <time>2021-03-20T14:42:52Z</time>
      </trkpt>
      <trkpt lat="55.29488" lon="-4.68958">
        <ele>32.29</ele>
        <time>2021-03-20T14:42:55Z</time>
      </trkpt>
      <trkpt lat="55.29477" lon="-4.68967">
        <ele>32.15</ele>
        <time>2021-03-20T14:42:58Z</time>
      </trkpt>
      <trkpt lat="55.29465" lon="-4.68971">
        <ele>32.64</ele>
        <time>2021-03-20T14:43:01Z</time>
      </trkpt>
      <trkpt lat="55.29423" lon="-4.68966">
        <ele>34.18</ele>
        <time>2021-03-20T14:43:04Z</time>
      </trkpt>
      <trkpt lat="55.29406" lon="-4.68966">
        <ele>34.8</ele>
        <time>2021-03-20T14:43:07Z</time>
      </trkpt>
      <trkpt lat="55.29334" lon="-4.68986">
        <ele>37.97</ele>
        <time>2021-03-20T14:43:10Z</time>
      </trkpt>
      <trkpt lat="55.29299" lon="-4.68999">
        <ele>37</ele>
        <time>2021-03-20T14:43:13Z</time>
      </trkpt>
      <trkpt lat="55.29247" lon="-4.69025">
        <ele>37.2</ele>
        <time>2021-03-20T14:43:16Z</time>
      </trkpt>
      <trkpt lat="55.29196" lon="-4.69062">
        <ele>38.19</ele>
        <time>2021-03-20T14:43:19Z</time>
      </trkpt>
      <trkpt lat="55.29187" lon="-4.69069">
        <ele>38.6</ele>
        <time>2021-03-20T14:43:22Z</time>
      </trkpt>
      <trkpt lat="55.2912" lon="-4.69144">
        <ele>39.79</ele>
        <time>2021-03-20T14:43:25Z</time>
      </trkpt>
      <trkpt lat="55.29089" lon="-4.69164">
        <ele>39.8</ele>
        <time>2021-03-20T14:43:28Z</time>
      </trkpt>
      <trkpt lat="55.29062" lon="-4.69191">
        <ele>39.22</ele>
        <time>2021-03-20T14:43:31Z</time>
      </trkpt>
      <trkpt lat="55.29048" lon="-4.69214">
        <ele>38.72</ele>
        <time>2021-03-20T14:43:35Z</time>
      </trkpt>
      <trkpt lat="55.29021" lon="-4.69271">
        <ele>39</ele>
        <time>2021-03-20T14:43:38Z</time>
      </trkpt>
      <trkpt lat="55.28956" lon="-4.69422">
        <ele>40.83</ele>
        <time>2021-03-20T14:43:41Z</time>
      </trkpt>
      <trkpt lat="55.28936" lon="-4.69448">
        <ele>39.23</ele>
        <time>2021-03-20T14:43:44Z</time>
      </trkpt>
      <trkpt lat="55.28825" lon="-4.69543">
        <ele>33.97</ele>
        <time>2021-03-20T14:43:47Z</time>
      </trkpt>
      <trkpt lat="55.2881" lon="-4.69551">
        <ele>35.62</ele>
        <time>2021-03-20T14:43:50Z</time>
      </trkpt>
      <trkpt lat="55.28738" lon="-4.69559">
        <ele>43.76</ele>
        <time>2021-03-20T14:43:53Z</time>
      </trkpt>
      <trkpt lat="55.28719" lon="-4.69569">
        <ele>43.21</ele>
        <time>2021-03-20T14:43:56Z</time>
      </trkpt>
      <trkpt lat="55.28705" lon="-4.69584">
        <ele>43.18</ele>
        <time>2021-03-20T14:43:59Z</time>
      </trkpt>
      <trkpt lat="55.28619" lon="-4.69812">
        <ele>31.49</ele>
        <time>2021-03-20T14:44:02Z</time>
      </trkpt>
      <trkpt lat="55.28514" lon="-4.70097">
        <ele>36.96</ele>
        <time>2021-03-20T14:44:05Z</time>
      </trkpt>
      <trkpt lat="55.28487" lon="-4.70178">
        <ele>40.39</ele>
        <time>2021-03-20T14:44:08Z</time>
      </trkpt>
      <trkpt lat="55.28482" lon="-4.70202">
        <ele>41.26</ele>
        <time>2021-03-20T14:44:11Z</time>
      </trkpt>
      <trkpt lat="55.2845" lon="-4.70655">
        <ele>43.58</ele>
        <time>2021-03-20T14:44:14Z</time>
      </trkpt>
      <trkpt lat="55.28443" lon="-4.70702">
        <ele>44.07</ele>
        <time>2021-03-20T14:44:17Z</time>
      </trkpt>
      <trkpt lat="55.28437" lon="-4.7072">
        <ele>44.26</ele>
        <time>2021-03-20T14:44:20Z</time>
      </trkpt>
      <trkpt lat="55.28393" lon="-4.70817">
        <ele>41.79</ele>
        <time>2021-03-20T14:44:23Z</time>
      </trkpt>
      <trkpt lat="55.28318" lon="-4.70968">
        <ele>39.29</ele>
        <time>2021-03-20T14:44:27Z</time>
      </trkpt>
      <trkpt lat="55.2827" lon="-4.71063">
        <ele>34.82</ele>
        <time>2021-03-20T14:44:30Z</time>
      </trkpt>
      <trkpt lat="55.28198" lon="-4.71197">
        <ele>31.99</ele>
        <time>2021-03-20T14:44:33Z</time>
      </trkpt>
      <trkpt lat="55.28188" lon="-4.71212">
        <ele>31.76</ele>
        <time>2021-03-20T14:44:36Z</time>
      </trkpt>
      <trkpt lat="55.28177" lon="-4.71221">
        <ele>31.38</ele>
        <time>2021-03-20T14:44:39Z</time>
      </trkpt>
      <trkpt lat="55.28161" lon="-4.7123">
        <ele>30.92</ele>
        <time>2021-03-20T14:44:42Z</time>
      </trkpt>
      <trkpt lat="55.28133" lon="-4.71241">
        <ele>31.94</ele>
        <time>2021-03-20T14:44:45Z</time>
      </trkpt>
      <trkpt lat="55.28113" lon="-4.71253">
        <ele>33.83</ele>
        <time>2021-03-20T14:44:48Z</time>
      </trkpt>
      <trkpt lat="55.28106" lon="-4.7126">
        <ele>34.61</ele>
        <time>2021-03-20T14:44:51Z</time>
      </trkpt>
      <trkpt lat="55.28073" lon="-4.71326">
        <ele>38.39</ele>
        <time>2021-03-20T14:44:54Z</time>
      </trkpt>
      <trkpt lat="55.2806" lon="-4.71345">
        <ele>38.84</ele>
        <time>2021-03-20T14:44:57Z</time>
      </trkpt>
      <trkpt lat="55.28006" lon="-4.71413">
        <ele>39.41</ele>
        <time>2021-03-20T14:45:00Z</time>
      </trkpt>
      <trkpt lat="55.27993" lon="-4.71436">
        <ele>38.49</ele>
        <time>2021-03-20T14:45:03Z</time>
      </trkpt>
      <trkpt lat="55.2781" lon="-4.71858">
        <ele>30.11</ele>
        <time>2021-03-20T14:45:06Z</time>
      </trkpt>
      <trkpt lat="55.27804" lon="-4.71872">
        <ele>30.06</ele>
        <time>2021-03-20T14:45:09Z</time>
      </trkpt>
      <trkpt lat="55.27789" lon="-4.71896">
        <ele>30.6</ele>
        <time>2021-03-20T14:45:12Z</time>
      </trkpt>
      <trkpt lat="55.27659" lon="-4.72051">
        <ele>37.27</ele>
        <time>2021-03-20T14:45:15Z</time>
      </trkpt>
      <trkpt lat="55.27632" lon="-4.72074">
        <ele>38.74</ele>
        <time>2021-03-20T14:45:18Z</time>
      </trkpt>
      <trkpt lat="55.2755" lon="-4.72102">
        <ele>41.08</ele>
        <time>2021-03-20T14:45:22Z</time>
      </trkpt>
      <trkpt lat="55.27538" lon="-4.72111">
        <ele>42.25</ele>
        <time>2021-03-20T14:45:25Z</time>
      </trkpt>
      <trkpt lat="55.27522" lon="-4.72128">
        <ele>43.51</ele>
        <time>2021-03-20T14:45:28Z</time>
      </trkpt>
      <trkpt lat="55.27511" lon="-4.72145">
        <ele>44.2</ele>
        <time>2021-03-20T14:45:31Z</time>
      </trkpt>
      <trkpt lat="55.27503" lon="-4.7216">
        <ele>44.75</ele>
        <time>2021-03-20T14:45:34Z</time>
      </trkpt>
      <trkpt lat="55.2749" lon="-4.72198">
        <ele>44.98</ele>
        <time>2021-03-20T14:45:37Z</time>
      </trkpt>
      <trkpt lat="55.27468" lon="-4.72299">
        <ele>46.75</ele>
        <time>2021-03-20T14:45:40Z</time>
      </trkpt>
      <trkpt lat="55.27457" lon="-4.72356">
        <ele>47.8</ele>
        <time>2021-03-20T14:45:43Z</time>
      </trkpt>
      <trkpt lat="55.27421" lon="-4.72522">
        <ele>48</ele>
        <time>2021-03-20T14:45:46Z</time>
      </trkpt>
      <trkpt lat="55.27394" lon="-4.72618">
        <ele>50.89</ele>
        <time>2021-03-20T14:45:49Z</time>
      </trkpt>
      <trkpt lat="55.27381" lon="-4.7265">
        <ele>52.81</ele>
        <time>2021-03-20T14:45:52Z</time>
      </trkpt>
      <trkpt lat="55.27365" lon="-4.72693">
        <ele>54.63</ele>
        <time>2021-03-20T14:45:55Z</time>
      </trkpt>
      <trkpt lat="55.2733" lon="-4.72771">
        <ele>58.88</ele>
        <time>2021-03-20T14:45:58Z</time>
      </trkpt>
      <trkpt lat="55.27293" lon="-4.72843">
        <ele>63</ele>
        <time>2021-03-20T14:46:01Z</time>
      </trkpt>
      <trkpt lat="55.27278" lon="-4.72862">
        <ele>63</ele>
        <time>2021-03-20T14:46:04Z</time>
      </trkpt>
      <trkpt lat="55.27266" lon="-4.72873">
        <ele>63</ele>
        <time>2021-03-20T14:46:07Z</time>
      </trkpt>
      <trkpt lat="55.2724" lon="-4.72886">
        <ele>62.96</ele>
        <time>2021-03-20T14:46:10Z</time>
      </trkpt>
      <trkpt lat="55.27197" lon="-4.72901">
        <ele>62.92</ele>
        <time>2021-03-20T14:46:13Z</time>
      </trkpt>
      <trkpt lat="55.2717" lon="-4.72915">
        <ele>62.94</ele>
        <time>2021-03-20T14:46:17Z</time>
      </trkpt>
      <trkpt lat="55.27153" lon="-4.72929">
        <ele>62.92</ele>
        <time>2021-03-20T14:46:20Z</time>
      </trkpt>
      <trkpt lat="55.27135" lon="-4.72955">
        <ele>63.22</ele>
        <time>2021-03-20T14:46:23Z</time>
      </trkpt>
      <trkpt lat="55.27119" lon="-4.72988">
        <ele>63.43</ele>
        <time>2021-03-20T14:46:26Z</time>
      </trkpt>
      <trkpt lat="55.27111" lon="-4.7301">
        <ele>62.98</ele>
        <time>2021-03-20T14:46:29Z</time>
      </trkpt>
      <trkpt lat="55.27082" lon="-4.7314">
        <ele>59.9</ele>
        <time>2021-03-20T14:46:32Z</time>
      </trkpt>
      <trkpt lat="55.2707" lon="-4.73188">
        <ele>57.5</ele>
        <time>2021-03-20T14:46:35Z</time>
      </trkpt>
      <trkpt lat="55.27054" lon="-4.73234">
        <ele>54.27</ele>
        <time>2021-03-20T14:46:38Z</time>
      </trkpt>
      <trkpt lat="55.27042" lon="-4.73262">
        <ele>53.51</ele>
        <time>2021-03-20T14:46:41Z</time>
      </trkpt>
      <trkpt lat="55.26945" lon="-4.73437">
        <ele>54.55</ele>
        <time>2021-03-20T14:46:44Z</time>
      </trkpt>
      <trkpt lat="55.26915" lon="-4.73495">
        <ele>53.68</ele>
        <time>2021-03-20T14:46:47Z</time>
      </trkpt>
      <trkpt lat="55.26903" lon="-4.73522">
        <ele>53.9</ele>
        <time>2021-03-20T14:46:50Z</time>
      </trkpt>
      <trkpt lat="55.26869" lon="-4.73615">
        <ele>52.17</ele>
        <time>2021-03-20T14:46:53Z</time>
      </trkpt>
      <trkpt lat="55.26858" lon="-4.7364">
        <ele>51.4</ele>
        <time>2021-03-20T14:46:56Z</time>
      </trkpt>
      <trkpt lat="55.26848" lon="-4.73657">
        <ele>51.94</ele>
        <time>2021-03-20T14:46:59Z</time>
      </trkpt>
      <trkpt lat="55.26836" lon="-4.7367">
        <ele>53.23</ele>
        <time>2021-03-20T14:47:02Z</time>
      </trkpt>
      <trkpt lat="55.2682" lon="-4.73681">
        <ele>54.12</ele>
        <time>2021-03-20T14:47:05Z</time>
      </trkpt>
      <trkpt lat="55.26805" lon="-4.73687">
        <ele>55.51</ele>
        <time>2021-03-20T14:47:08Z</time>
      </trkpt>
      <trkpt lat="55.26792" lon="-4.73687">
        <ele>55.04</ele>
        <time>2021-03-20T14:47:12Z</time>
      </trkpt>
      <trkpt lat="55.26764" lon="-4.73682">
        <ele>54.67</ele>
        <time>2021-03-20T14:47:15Z</time>
      </trkpt>
      <trkpt lat="55.26718" lon="-4.73668">
        <ele>55.17</ele>
        <time>2021-03-20T14:47:18Z</time>
      </trkpt>
      <trkpt lat="55.26695" lon="-4.73665">
        <ele>55.99</ele>
        <time>2021-03-20T14:47:21Z</time>
      </trkpt>
      <trkpt lat="55.26684" lon="-4.73667">
        <ele>56.74</ele>
        <time>2021-03-20T14:47:24Z</time>
      </trkpt>
      <trkpt lat="55.26672" lon="-4.73672">
        <ele>57.45</ele>
        <time>2021-03-20T14:47:27Z</time>
      </trkpt>
      <trkpt lat="55.26662" lon="-4.7368">
        <ele>57.76</ele>
        <time>2021-03-20T14:47:30Z</time>
      </trkpt>
      <trkpt lat="55.26648" lon="-4.73694">
        <ele>58.35</ele>
        <time>2021-03-20T14:47:33Z</time>
      </trkpt>
      <trkpt lat="55.26635" lon="-4.73713">
        <ele>59.26</ele>
        <time>2021-03-20T14:47:36Z</time>
      </trkpt>
      <trkpt lat="55.26626" lon="-4.73735">
        <ele>60.39</ele>
        <time>2021-03-20T14:47:39Z</time>
      </trkpt>
      <trkpt lat="55.26603" lon="-4.73835">
        <ele>64.26</ele>
        <time>2021-03-20T14:47:42Z</time>
      </trkpt>
      <trkpt lat="55.26586" lon="-4.73991">
        <ele>65.24</ele>
        <time>2021-03-20T14:47:45Z</time>
      </trkpt>
      <trkpt lat="55.26579" lon="-4.74031">
        <ele>63.21</ele>
        <time>2021-03-20T14:47:48Z</time>
      </trkpt>
      <trkpt lat="55.26574" lon="-4.74055">
        <ele>62.1</ele>
        <time>2021-03-20T14:47:51Z</time>
      </trkpt>
      <trkpt lat="55.26554" lon="-4.74104">
        <ele>61.52</ele>
        <time>2021-03-20T14:47:54Z</time>
      </trkpt>
      <trkpt lat="55.26531" lon="-4.74151">
        <ele>63.09</ele>
        <time>2021-03-20T14:47:57Z</time>
      </trkpt>
      <trkpt lat="55.26493" lon="-4.74221">
        <ele>63.55</ele>
        <time>2021-03-20T14:48:00Z</time>
      </trkpt>
      <trkpt lat="55.26444" lon="-4.743">
        <ele>69.26</ele>
        <time>2021-03-20T14:48:03Z</time>
      </trkpt>
      <trkpt lat="55.26421" lon="-4.74326">
        <ele>70.78</ele>
        <time>2021-03-20T14:48:07Z</time>
      </trkpt>
      <trkpt lat="55.26363" lon="-4.74379">
        <ele>73.38</ele>
        <time>2021-03-20T14:48:10Z</time>
      </trkpt>
      <trkpt lat="55.2634" lon="-4.74413">
        <ele>75.06</ele>
        <time>2021-03-20T14:48:13Z</time>
      </trkpt>
      <trkpt lat="55.26325" lon="-4.74448">
        <ele>76.66</ele>
        <time>2021-03-20T14:48:16Z</time>
      </trkpt>
      <trkpt lat="55.263" lon="-4.74557">
        <ele>77.13</ele>
        <time>2021-03-20T14:48:19Z</time>
      </trkpt>
      <trkpt lat="55.26265" lon="-4.74651">
        <ele>76.13</ele>
        <time>2021-03-20T14:48:22Z</time>
      </trkpt>
      <trkpt lat="55.26253" lon="-4.74692">
        <ele>76.64</ele>
        <time>2021-03-20T14:48:25Z</time>
      </trkpt>
      <trkpt lat="55.26242" lon="-4.74739">
        <ele>77.16</ele>
        <time>2021-03-20T14:48:28Z</time>
      </trkpt>
      <trkpt lat="55.26233" lon="-4.74797">
        <ele>79.4</ele>
        <time>2021-03-20T14:48:31Z</time>
      </trkpt>
      <trkpt lat="55.26229" lon="-4.74847">
        <ele>80.53</ele>
        <time>2021-03-20T14:48:34Z</time>
      </trkpt>
      <trkpt lat="55.2623" lon="-4.74992">
        <ele>78.92</ele>
        <time>2021-03-20T14:48:37Z</time>
      </trkpt>
      <trkpt lat="55.26228" lon="-4.7504">
        <ele>79.2</ele>
        <time>2021-03-20T14:48:40Z</time>
      </trkpt>
      <trkpt lat="55.26221" lon="-4.75088">
        <ele>80.36</ele>
        <time>2021-03-20T14:48:43Z</time>
      </trkpt>
      <trkpt lat="55.26203" lon="-4.75174">
        <ele>83.98</ele>
        <time>2021-03-20T14:48:46Z</time>
      </trkpt>
      <trkpt lat="55.26196" lon="-4.75218">
        <ele>84.98</ele>
        <time>2021-03-20T14:48:49Z</time>
      </trkpt>
      <trkpt lat="55.26183" lon="-4.75345">
        <ele>81.93</ele>
        <time>2021-03-20T14:48:52Z</time>
      </trkpt>
      <trkpt lat="55.26144" lon="-4.75801">
        <ele>89.9</ele>
        <time>2021-03-20T14:48:55Z</time>
      </trkpt>
      <trkpt lat="55.26137" lon="-4.75871">
        <ele>89.17</ele>
        <time>2021-03-20T14:48:58Z</time>
      </trkpt>
      <trkpt lat="55.26127" lon="-4.75917">
        <ele>87.88</ele>
        <time>2021-03-20T14:49:02Z</time>
      </trkpt>
      <trkpt lat="55.25942" lon="-4.76577">
        <ele>62</ele>
        <time>2021-03-20T14:49:05Z</time>
      </trkpt>
      <trkpt lat="55.25926" lon="-4.76653">
        <ele>61.64</ele>
        <time>2021-03-20T14:49:08Z</time>
      </trkpt>
      <trkpt lat="55.2592" lon="-4.76699">
        <ele>61.09</ele>
        <time>2021-03-20T14:49:11Z</time>
      </trkpt>
      <trkpt lat="55.25917" lon="-4.76744">
        <ele>60.21</ele>
        <time>2021-03-20T14:49:14Z</time>
      </trkpt>
      <trkpt lat="55.25918" lon="-4.76798">
        <ele>60.28</ele>
        <time>2021-03-20T14:49:17Z</time>
      </trkpt>
      <trkpt lat="55.25923" lon="-4.76863">
        <ele>61.68</ele>
        <time>2021-03-20T14:49:20Z</time>
      </trkpt>
      <trkpt lat="55.25953" lon="-4.77055">
        <ele>62.23</ele>
        <time>2021-03-20T14:49:23Z</time>
      </trkpt>
      <trkpt lat="55.25965" lon="-4.77157">
        <ele>60.26</ele>
        <time>2021-03-20T14:49:26Z</time>
      </trkpt>
      <trkpt lat="55.25991" lon="-4.77319">
        <ele>61.1</ele>
        <time>2021-03-20T14:49:29Z</time>
      </trkpt>
      <trkpt lat="55.25995" lon="-4.77372">
        <ele>60.26</ele>
        <time>2021-03-20T14:49:32Z</time>
      </trkpt>
      <trkpt lat="55.25994" lon="-4.77421">
        <ele>60.08</ele>
        <time>2021-03-20T14:49:35Z</time>
      </trkpt>
      <trkpt lat="55.25987" lon="-4.77468">
        <ele>61.3</ele>
        <time>2021-03-20T14:49:38Z</time>
      </trkpt>
      <trkpt lat="55.25978" lon="-4.77511">
        <ele>62.81</ele>
        <time>2021-03-20T14:49:41Z</time>
      </trkpt>
      <trkpt lat="55.25967" lon="-4.7755">
        <ele>64.84</ele>
        <time>2021-03-20T14:49:44Z</time>
      </trkpt>
      <trkpt lat="55.25872" lon="-4.77731">
        <ele>64.8</ele>
        <time>2021-03-20T14:49:47Z</time>
      </trkpt>
      <trkpt lat="55.25656" lon="-4.78039">
        <ele>46.61</ele>
        <time>2021-03-20T14:49:50Z</time>
      </trkpt>
      <trkpt lat="55.25634" lon="-4.7808">
        <ele>45.28</ele>
        <time>2021-03-20T14:49:53Z</time>
      </trkpt>
      <trkpt lat="55.25619" lon="-4.78123">
        <ele>45.31</ele>
        <time>2021-03-20T14:49:57Z</time>
      </trkpt>
      <trkpt lat="55.25608" lon="-4.78161">
        <ele>45.11</ele>
        <time>2021-03-20T14:50:00Z</time>
      </trkpt>
      <trkpt lat="55.25601" lon="-4.78195">
        <ele>45.12</ele>
        <time>2021-03-20T14:50:03Z</time>
      </trkpt>
      <trkpt lat="55.25597" lon="-4.78232">
        <ele>45.22</ele>
        <time>2021-03-20T14:50:06Z</time>
      </trkpt>
      <trkpt lat="55.25596" lon="-4.78281">
        <ele>46.44</ele>
        <time>2021-03-20T14:50:09Z</time>
      </trkpt>
      <trkpt lat="55.25629" lon="-4.78746">
        <ele>39.04</ele>
        <time>2021-03-20T14:50:12Z</time>
      </trkpt>
      <trkpt lat="55.2563" lon="-4.78872">
        <ele>36.35</ele>
        <time>2021-03-20T14:50:15Z</time>
      </trkpt>
      <trkpt lat="55.25611" lon="-4.79221">
        <ele>32.98</ele>
        <time>2021-03-20T14:50:18Z</time>
      </trkpt>
      <trkpt lat="55.25608" lon="-4.79255">
        <ele>34.28</ele>
        <time>2021-03-20T14:50:21Z</time>
      </trkpt>
      <trkpt lat="55.25603" lon="-4.79287">
        <ele>34.5</ele>
        <time>2021-03-20T14:50:24Z</time>
      </trkpt>
      <trkpt lat="55.256" lon="-4.79275">
        <ele>34.81</ele>
        <time>2021-03-20T14:50:26Z</time>
      </trkpt>
      <trkpt lat="55.2551" lon="-4.79116">
        <ele>49.93</ele>
        <time>2021-03-20T14:50:29Z</time>
      </trkpt>
      <trkpt lat="55.25464" lon="-4.79049">
        <ele>56.51</ele>
        <time>2021-03-20T14:50:31Z</time>
      </trkpt>
      <trkpt lat="55.25339" lon="-4.78847">
        <ele>70.24</ele>
        <time>2021-03-20T14:50:33Z</time>
      </trkpt>
      <trkpt lat="55.2531" lon="-4.78816">
        <ele>72.47</ele>
        <time>2021-03-20T14:50:35Z</time>
      </trkpt>
      <trkpt lat="55.2529" lon="-4.78787">
        <ele>75.89</ele>
        <time>2021-03-20T14:50:37Z</time>
      </trkpt>
      <trkpt lat="55.25282" lon="-4.78761">
        <ele>77.54</ele>
        <time>2021-03-20T14:50:40Z</time>
      </trkpt>
      <trkpt lat="55.25275" lon="-4.78735">
        <ele>78.47</ele>
        <time>2021-03-20T14:50:42Z</time>
      </trkpt>
      <trkpt lat="55.25269" lon="-4.78696">
        <ele>79.27</ele>
        <time>2021-03-20T14:50:44Z</time>
      </trkpt>
      <trkpt lat="55.25265" lon="-4.78661">
        <ele>79.79</ele>
        <time>2021-03-20T14:50:46Z</time>
      </trkpt>
      <trkpt lat="55.25259" lon="-4.78562">
        <ele>80.08</ele>
        <time>2021-03-20T14:50:48Z</time>
      </trkpt>
      <trkpt lat="55.25211" lon="-4.78344">
        <ele>87.99</ele>
        <time>2021-03-20T14:50:50Z</time>
      </trkpt>
      <trkpt lat="55.25203" lon="-4.78317">
        <ele>88.91</ele>
        <time>2021-03-20T14:50:53Z</time>
      </trkpt>
      <trkpt lat="55.25189" lon="-4.78283">
        <ele>90.23</ele>
        <time>2021-03-20T14:50:55Z</time>
      </trkpt>
      <trkpt lat="55.25171" lon="-4.7826">
        <ele>92.37</ele>
        <time>2021-03-20T14:50:57Z</time>
      </trkpt>
      <trkpt lat="55.25094" lon="-4.78201">
        <ele>99.54</ele>
        <time>2021-03-20T14:50:59Z</time>
      </trkpt>
      <trkpt lat="55.25047" lon="-4.78161">
        <ele>101.14</ele>
        <time>2021-03-20T14:51:01Z</time>
      </trkpt>
      <trkpt lat="55.2502" lon="-4.78133">
        <ele>101.5</ele>
        <time>2021-03-20T14:51:03Z</time>
      </trkpt>
      <trkpt lat="55.25009" lon="-4.78128">
        <ele>102.07</ele>
        <time>2021-03-20T14:51:06Z</time>
      </trkpt>
      <trkpt lat="55.24994" lon="-4.78128">
        <ele>103.02</ele>
        <time>2021-03-20T14:51:08Z</time>
      </trkpt>
      <trkpt lat="55.24988" lon="-4.78131">
        <ele>103.54</ele>
        <time>2021-03-20T14:51:10Z</time>
      </trkpt>
      <trkpt lat="55.24958" lon="-4.78169">
        <ele>104.92</ele>
        <time>2021-03-20T14:51:12Z</time>
      </trkpt>
      <trkpt lat="55.24949" lon="-4.78177">
        <ele>104.61</ele>
        <time>2021-03-20T14:51:14Z</time>
      </trkpt>
      <trkpt lat="55.24937" lon="-4.78181">
        <ele>104.33</ele>
        <time>2021-03-20T14:51:17Z</time>
      </trkpt>
      <trkpt lat="55.24927" lon="-4.78179">
        <ele>104.24</ele>
        <time>2021-03-20T14:51:19Z</time>
      </trkpt>
      <trkpt lat="55.2491" lon="-4.78168">
        <ele>104.69</ele>
        <time>2021-03-20T14:51:21Z</time>
      </trkpt>
      <trkpt lat="55.24911" lon="-4.78162">
        <ele>104.96</ele>
        <time>2021-03-20T14:51:23Z</time>
      </trkpt>
      <trkpt lat="55.2491" lon="-4.78153">
        <ele>105.24</ele>
        <time>2021-03-20T14:51:24Z</time>
      </trkpt>
      <trkpt lat="55.24884" lon="-4.78076">
        <ele>107.32</ele>
        <time>2021-03-20T14:51:26Z</time>
      </trkpt>
      <trkpt lat="55.24877" lon="-4.78049">
        <ele>108.42</ele>
        <time>2021-03-20T14:51:27Z</time>
      </trkpt>
      <trkpt lat="55.24874" lon="-4.78023">
        <ele>109.16</ele>
        <time>2021-03-20T14:51:29Z</time>
      </trkpt>
      <trkpt lat="55.24873" lon="-4.77999">
        <ele>110.29</ele>
        <time>2021-03-20T14:51:31Z</time>
      </trkpt>
      <trkpt lat="55.24868" lon="-4.77972">
        <ele>111.49</ele>
        <time>2021-03-20T14:51:32Z</time>
      </trkpt>
      <trkpt lat="55.24861" lon="-4.77946">
        <ele>112.89</ele>
        <time>2021-03-20T14:51:34Z</time>
      </trkpt>
      <trkpt lat="55.24834" lon="-4.77866">
        <ele>114.78</ele>
        <time>2021-03-20T14:51:36Z</time>
      </trkpt>
      <trkpt lat="55.24823" lon="-4.77837">
        <ele>116.87</ele>
        <time>2021-03-20T14:51:37Z</time>
      </trkpt>
      <trkpt lat="55.24793" lon="-4.77788">
        <ele>119.18</ele>
        <time>2021-03-20T14:51:39Z</time>
      </trkpt>
      <trkpt lat="55.24788" lon="-4.77774">
        <ele>119.84</ele>
        <time>2021-03-20T14:51:40Z</time>
      </trkpt>
      <trkpt lat="55.2478" lon="-4.77745">
        <ele>120.52</ele>
        <time>2021-03-20T14:51:42Z</time>
      </trkpt>
      <trkpt lat="55.24771" lon="-4.77693">
        <ele>122.87</ele>
        <time>2021-03-20T14:51:44Z</time>
      </trkpt>
      <trkpt lat="55.24768" lon="-4.77648">
        <ele>124.93</ele>
        <time>2021-03-20T14:51:45Z</time>
      </trkpt>
      <trkpt lat="55.24765" lon="-4.77592">
        <ele>126.78</ele>
        <time>2021-03-20T14:51:47Z</time>
      </trkpt>
      <trkpt lat="55.24768" lon="-4.77546">
        <ele>128.42</ele>
        <time>2021-03-20T14:51:48Z</time>
      </trkpt>
      <trkpt lat="55.24767" lon="-4.7753">
        <ele>128.59</ele>
        <time>2021-03-20T14:51:50Z</time>
      </trkpt>
      <trkpt lat="55.24764" lon="-4.77517">
        <ele>128.91</ele>
        <time>2021-03-20T14:51:52Z</time>
      </trkpt>
      <trkpt lat="55.2476" lon="-4.7751">
        <ele>129.01</ele>
        <time>2021-03-20T14:51:53Z</time>
      </trkpt>
      <trkpt lat="55.24754" lon="-4.77506">
        <ele>128.95</ele>
        <time>2021-03-20T14:51:55Z</time>
      </trkpt>
      <trkpt lat="55.2474" lon="-4.77505">
        <ele>128.83</ele>
        <time>2021-03-20T14:51:57Z</time>
      </trkpt>
      <trkpt lat="55.24707" lon="-4.77514">
        <ele>129.56</ele>
        <time>2021-03-20T14:51:58Z</time>
      </trkpt>
      <trkpt lat="55.24595" lon="-4.77568">
        <ele>136.57</ele>
        <time>2021-03-20T14:52:00Z</time>
      </trkpt>
      <trkpt lat="55.24584" lon="-4.77569">
        <ele>136.53</ele>
        <time>2021-03-20T14:52:01Z</time>
      </trkpt>
      <trkpt lat="55.24569" lon="-4.77566">
        <ele>136.81</ele>
        <time>2021-03-20T14:52:03Z</time>
      </trkpt>
      <trkpt lat="55.24553" lon="-4.77558">
        <ele>137.1</ele>
        <time>2021-03-20T14:52:05Z</time>
      </trkpt>
      <trkpt lat="55.24527" lon="-4.77528">
        <ele>138.06</ele>
        <time>2021-03-20T14:52:06Z</time>
      </trkpt>
      <trkpt lat="55.24472" lon="-4.77443">
        <ele>144.04</ele>
        <time>2021-03-20T14:52:08Z</time>
      </trkpt>
      <trkpt lat="55.2446" lon="-4.77431">
        <ele>144.85</ele>
        <time>2021-03-20T14:52:10Z</time>
      </trkpt>
      <trkpt lat="55.24415" lon="-4.77395">
        <ele>146.28</ele>
        <time>2021-03-20T14:52:11Z</time>
      </trkpt>
      <trkpt lat="55.24381" lon="-4.77362">
        <ele>147</ele>
        <time>2021-03-20T14:52:13Z</time>
      </trkpt>
      <trkpt lat="55.24334" lon="-4.77296">
        <ele>149.63</ele>
        <time>2021-03-20T14:52:14Z</time>
      </trkpt>
      <trkpt lat="55.24272" lon="-4.77214">
        <ele>149.99</ele>
        <time>2021-03-20T14:52:16Z</time>
      </trkpt>
      <trkpt lat="55.24265" lon="-4.77201">
        <ele>149.07</ele>
        <time>2021-03-20T14:52:18Z</time>
      </trkpt>
      <trkpt lat="55.24255" lon="-4.77166">
        <ele>149.1</ele>
        <time>2021-03-20T14:52:19Z</time>
      </trkpt>
      <trkpt lat="55.24252" lon="-4.77139">
        <ele>149.43</ele>
        <time>2021-03-20T14:52:21Z</time>
      </trkpt>
      <trkpt lat="55.24248" lon="-4.76982">
        <ele>151.89</ele>
        <time>2021-03-20T14:52:23Z</time>
      </trkpt>
      <trkpt lat="55.24244" lon="-4.76938">
        <ele>155.02</ele>
        <time>2021-03-20T14:52:24Z</time>
      </trkpt>
      <trkpt lat="55.24237" lon="-4.76888">
        <ele>157.12</ele>
        <time>2021-03-20T14:52:26Z</time>
      </trkpt>
      <trkpt lat="55.24231" lon="-4.76862">
        <ele>157.45</ele>
        <time>2021-03-20T14:52:27Z</time>
      </trkpt>
      <trkpt lat="55.24203" lon="-4.76762">
        <ele>160.88</ele>
        <time>2021-03-20T14:52:29Z</time>
      </trkpt>
      <trkpt lat="55.2419" lon="-4.7672">
        <ele>162.36</ele>
        <time>2021-03-20T14:52:31Z</time>
      </trkpt>
      <trkpt lat="55.24178" lon="-4.76698">
        <ele>161.44</ele>
        <time>2021-03-20T14:52:32Z</time>
      </trkpt>
      <trkpt lat="55.24169" lon="-4.76688">
        <ele>160.53</ele>
        <time>2021-03-20T14:52:34Z</time>
      </trkpt>
      <trkpt lat="55.24152" lon="-4.76662">
        <ele>160.65</ele>
        <time>2021-03-20T14:52:35Z</time>
      </trkpt>
      <trkpt lat="55.24135" lon="-4.76616">
        <ele>161.67</ele>
        <time>2021-03-20T14:52:37Z</time>
      </trkpt>
      <trkpt lat="55.24131" lon="-4.76592">
        <ele>162.22</ele>
        <time>2021-03-20T14:52:39Z</time>
      </trkpt>
      <trkpt lat="55.24129" lon="-4.76451">
        <ele>165.01</ele>
        <time>2021-03-20T14:52:40Z</time>
      </trkpt>
      <trkpt lat="55.24123" lon="-4.76407">
        <ele>165.77</ele>
        <time>2021-03-20T14:52:42Z</time>
      </trkpt>
      <trkpt lat="55.24086" lon="-4.76267">
        <ele>167.09</ele>
        <time>2021-03-20T14:52:44Z</time>
      </trkpt>
      <trkpt lat="55.24085" lon="-4.76252">
        <ele>167.06</ele>
        <time>2021-03-20T14:52:45Z</time>
      </trkpt>
      <trkpt lat="55.24094" lon="-4.76143">
        <ele>168.68</ele>
        <time>2021-03-20T14:52:47Z</time>
      </trkpt>
      <trkpt lat="55.24093" lon="-4.76124">
        <ele>169.4</ele>
        <time>2021-03-20T14:52:48Z</time>
      </trkpt>
      <trkpt lat="55.24088" lon="-4.76105">
        <ele>170.23</ele>
        <time>2021-03-20T14:52:50Z</time>
      </trkpt>
      <trkpt lat="55.24083" lon="-4.76096">
        <ele>170.52</ele>
        <time>2021-03-20T14:52:52Z</time>
      </trkpt>
      <trkpt lat="55.24056" lon="-4.76088">
        <ele>168.83</ele>
        <time>2021-03-20T14:52:53Z</time>
      </trkpt>
      <trkpt lat="55.24048" lon="-4.76082">
        <ele>168.55</ele>
        <time>2021-03-20T14:52:55Z</time>
      </trkpt>
      <trkpt lat="55.23906" lon="-4.75703">
        <ele>176.49</ele>
        <time>2021-03-20T14:52:57Z</time>
      </trkpt>
      <trkpt lat="55.23897" lon="-4.75687">
        <ele>176.13</ele>
        <time>2021-03-20T14:52:58Z</time>
      </trkpt>
      <trkpt lat="55.23837" lon="-4.75614">
        <ele>175.9</ele>
        <time>2021-03-20T14:53:00Z</time>
      </trkpt>
      <trkpt lat="55.2383" lon="-4.75603">
        <ele>176.56</ele>
        <time>2021-03-20T14:53:01Z</time>
      </trkpt>
      <trkpt lat="55.23771" lon="-4.75443">
        <ele>183.58</ele>
        <time>2021-03-20T14:53:03Z</time>
      </trkpt>
      <trkpt lat="55.23744" lon="-4.75364">
        <ele>186.2</ele>
        <time>2021-03-20T14:53:05Z</time>
      </trkpt>
      <trkpt lat="55.23714" lon="-4.75295">
        <ele>187.42</ele>
        <time>2021-03-20T14:53:06Z</time>
      </trkpt>
      <trkpt lat="55.23682" lon="-4.75215">
        <ele>188.52</ele>
        <time>2021-03-20T14:53:08Z</time>
      </trkpt>
      <trkpt lat="55.23636" lon="-4.75128">
        <ele>190.3</ele>
        <time>2021-03-20T14:53:10Z</time>
      </trkpt>
      <trkpt lat="55.23629" lon="-4.75111">
        <ele>190.58</ele>
        <time>2021-03-20T14:53:11Z</time>
      </trkpt>
      <trkpt lat="55.2362" lon="-4.75072">
        <ele>192.16</ele>
        <time>2021-03-20T14:53:13Z</time>
      </trkpt>
      <trkpt lat="55.23607" lon="-4.74981">
        <ele>196.88</ele>
        <time>2021-03-20T14:53:14Z</time>
      </trkpt>
      <trkpt lat="55.23579" lon="-4.74834">
        <ele>199.69</ele>
        <time>2021-03-20T14:53:16Z</time>
      </trkpt>
      <trkpt lat="55.23575" lon="-4.74805">
        <ele>199.4</ele>
        <time>2021-03-20T14:53:18Z</time>
      </trkpt>
      <trkpt lat="55.23572" lon="-4.7478">
        <ele>199.77</ele>
        <time>2021-03-20T14:53:19Z</time>
      </trkpt>
      <trkpt lat="55.23576" lon="-4.74703">
        <ele>200.21</ele>
        <time>2021-03-20T14:53:21Z</time>
      </trkpt>
      <trkpt lat="55.23576" lon="-4.7467">
        <ele>200.41</ele>
        <time>2021-03-20T14:53:22Z</time>
      </trkpt>
      <trkpt lat="55.23563" lon="-4.74625">
        <ele>202.01</ele>
        <time>2021-03-20T14:53:24Z</time>
      </trkpt>
      <trkpt lat="55.2356" lon="-4.74604">
        <ele>202.87</ele>
        <time>2021-03-20T14:53:26Z</time>
      </trkpt>
      <trkpt lat="55.23557" lon="-4.74579">
        <ele>203.49</ele>
        <time>2021-03-20T14:53:27Z</time>
      </trkpt>
      <trkpt lat="55.23552" lon="-4.74492">
        <ele>208.15</ele>
        <time>2021-03-20T14:53:29Z</time>
      </trkpt>
      <trkpt lat="55.23548" lon="-4.74467">
        <ele>209.04</ele>
        <time>2021-03-20T14:53:31Z</time>
      </trkpt>
      <trkpt lat="55.23532" lon="-4.74409">
        <ele>211.02</ele>
        <time>2021-03-20T14:53:32Z</time>
      </trkpt>
      <trkpt lat="55.23506" lon="-4.74346">
        <ele>209.62</ele>
        <time>2021-03-20T14:53:34Z</time>
      </trkpt>
      <trkpt lat="55.23495" lon="-4.74331">
        <ele>207.98</ele>
        <time>2021-03-20T14:53:35Z</time>
      </trkpt>
      <trkpt lat="55.23474" lon="-4.7432">
        <ele>207.55</ele>
        <time>2021-03-20T14:53:37Z</time>
      </trkpt>
      <trkpt lat="55.23443" lon="-4.74295">
        <ele>208.45</ele>
        <time>2021-03-20T14:53:39Z</time>
      </trkpt>
      <trkpt lat="55.23397" lon="-4.74269">
        <ele>212.09</ele>
        <time>2021-03-20T14:53:40Z</time>
      </trkpt>
      <trkpt lat="55.23389" lon="-4.74267">
        <ele>212.57</ele>
        <time>2021-03-20T14:53:42Z</time>
      </trkpt>
      <trkpt lat="55.2334" lon="-4.74268">
        <ele>214.38</ele>
        <time>2021-03-20T14:53:44Z</time>
      </trkpt>
      <trkpt lat="55.23314" lon="-4.74256">
        <ele>214.78</ele>
        <time>2021-03-20T14:53:45Z</time>
      </trkpt>
      <trkpt lat="55.23299" lon="-4.74242">
        <ele>214.7</ele>
        <time>2021-03-20T14:53:47Z</time>
      </trkpt>
      <trkpt lat="55.23267" lon="-4.74203">
        <ele>214</ele>
        <time>2021-03-20T14:53:48Z</time>
      </trkpt>
      <trkpt lat="55.23232" lon="-4.74169">
        <ele>213.4</ele>
        <time>2021-03-20T14:53:50Z</time>
      </trkpt>
      <trkpt lat="55.23217" lon="-4.74142">
        <ele>213</ele>
        <time>2021-03-20T14:53:52Z</time>
      </trkpt>
      <trkpt lat="55.23211" lon="-4.74123">
        <ele>212.76</ele>
        <time>2021-03-20T14:53:53Z</time>
      </trkpt>
      <trkpt lat="55.23205" lon="-4.74084">
        <ele>212.37</ele>
        <time>2021-03-20T14:53:55Z</time>
      </trkpt>
      <trkpt lat="55.23197" lon="-4.74049">
        <ele>212.08</ele>
        <time>2021-03-20T14:53:57Z</time>
      </trkpt>
      <trkpt lat="55.23184" lon="-4.74026">
        <ele>211.69</ele>
        <time>2021-03-20T14:53:58Z</time>
      </trkpt>
      <trkpt lat="55.23174" lon="-4.74014">
        <ele>211.74</ele>
        <time>2021-03-20T14:54:00Z</time>
      </trkpt>
      <trkpt lat="55.23141" lon="-4.73991">
        <ele>211.4</ele>
        <time>2021-03-20T14:54:01Z</time>
      </trkpt>
      <trkpt lat="55.23124" lon="-4.73986">
        <ele>211.52</ele>
        <time>2021-03-20T14:54:03Z</time>
      </trkpt>
      <trkpt lat="55.23115" lon="-4.73987">
        <ele>211.47</ele>
        <time>2021-03-20T14:54:05Z</time>
      </trkpt>
      <trkpt lat="55.23105" lon="-4.73993">
        <ele>211.01</ele>
        <time>2021-03-20T14:54:06Z</time>
      </trkpt>
      <trkpt lat="55.23074" lon="-4.74027">
        <ele>207.71</ele>
        <time>2021-03-20T14:54:08Z</time>
      </trkpt>
      <trkpt lat="55.23064" lon="-4.74034">
        <ele>206.95</ele>
        <time>2021-03-20T14:54:10Z</time>
      </trkpt>
      <trkpt lat="55.23049" lon="-4.74036">
        <ele>206.61</ele>
        <time>2021-03-20T14:54:11Z</time>
      </trkpt>
      <trkpt lat="55.22985" lon="-4.74034">
        <ele>206.13</ele>
        <time>2021-03-20T14:54:13Z</time>
      </trkpt>
      <trkpt lat="55.22968" lon="-4.74028">
        <ele>204.63</ele>
        <time>2021-03-20T14:54:14Z</time>
      </trkpt>
      <trkpt lat="55.22844" lon="-4.73962">
        <ele>203.77</ele>
        <time>2021-03-20T14:54:16Z</time>
      </trkpt>
      <trkpt lat="55.22827" lon="-4.73944">
        <ele>204.02</ele>
        <time>2021-03-20T14:54:18Z</time>
      </trkpt>
      <trkpt lat="55.22818" lon="-4.7393">
        <ele>204.52</ele>
        <time>2021-03-20T14:54:19Z</time>
      </trkpt>
      <trkpt lat="55.22772" lon="-4.73832">
        <ele>207</ele>
        <time>2021-03-20T14:54:21Z</time>
      </trkpt>
      <trkpt lat="55.22745" lon="-4.73786">
        <ele>207.6</ele>
        <time>2021-03-20T14:54:22Z</time>
      </trkpt>
      <trkpt lat="55.22696" lon="-4.73731">
        <ele>207.4</ele>
        <time>2021-03-20T14:54:24Z</time>
      </trkpt>
      <trkpt lat="55.226" lon="-4.73547">
        <ele>200.96</ele>
        <time>2021-03-20T14:54:26Z</time>
      </trkpt>
      <trkpt lat="55.22596" lon="-4.73534">
        <ele>200.27</ele>
        <time>2021-03-20T14:54:27Z</time>
      </trkpt>
      <trkpt lat="55.22594" lon="-4.7352">
        <ele>200.09</ele>
        <time>2021-03-20T14:54:29Z</time>
      </trkpt>
      <trkpt lat="55.22597" lon="-4.73488">
        <ele>200.93</ele>
        <time>2021-03-20T14:54:31Z</time>
      </trkpt>
      <trkpt lat="55.22614" lon="-4.73416">
        <ele>203.28</ele>
        <time>2021-03-20T14:54:32Z</time>
      </trkpt>
      <trkpt lat="55.22614" lon="-4.73391">
        <ele>202.44</ele>
        <time>2021-03-20T14:54:34Z</time>
      </trkpt>
      <trkpt lat="55.22612" lon="-4.73378">
        <ele>202.11</ele>
        <time>2021-03-20T14:54:35Z</time>
      </trkpt>
      <trkpt lat="55.22605" lon="-4.73364">
        <ele>201.78</ele>
        <time>2021-03-20T14:54:37Z</time>
      </trkpt>
      <trkpt lat="55.22598" lon="-4.73356">
        <ele>201.72</ele>
        <time>2021-03-20T14:54:39Z</time>
      </trkpt>
      <trkpt lat="55.22571" lon="-4.73334">
        <ele>201.53</ele>
        <time>2021-03-20T14:54:40Z</time>
      </trkpt>
      <trkpt lat="55.22562" lon="-4.73323">
        <ele>201.33</ele>
        <time>2021-03-20T14:54:42Z</time>
      </trkpt>
      <trkpt lat="55.22493" lon="-4.73185">
        <ele>201.07</ele>
        <time>2021-03-20T14:54:44Z</time>
      </trkpt>
      <trkpt lat="55.22464" lon="-4.7314">
        <ele>199.41</ele>
        <time>2021-03-20T14:54:45Z</time>
      </trkpt>
      <trkpt lat="55.22454" lon="-4.73121">
        <ele>199.32</ele>
        <time>2021-03-20T14:54:47Z</time>
      </trkpt>
      <trkpt lat="55.22443" lon="-4.73084">
        <ele>198.92</ele>
        <time>2021-03-20T14:54:48Z</time>
      </trkpt>
      <trkpt lat="55.22436" lon="-4.73067">
        <ele>198.41</ele>
        <time>2021-03-20T14:54:50Z</time>
      </trkpt>
      <trkpt lat="55.22408" lon="-4.73017">
        <ele>196.82</ele>
        <time>2021-03-20T14:54:52Z</time>
      </trkpt>
      <trkpt lat="55.22403" lon="-4.72977">
        <ele>197</ele>
        <time>2021-03-20T14:54:53Z</time>
      </trkpt>
      <trkpt lat="55.224" lon="-4.7293">
        <ele>195.48</ele>
        <time>2021-03-20T14:54:55Z</time>
      </trkpt>
      <trkpt lat="55.22396" lon="-4.72903">
        <ele>194.01</ele>
        <time>2021-03-20T14:54:57Z</time>
      </trkpt>
      <trkpt lat="55.22387" lon="-4.7288">
        <ele>192.5</ele>
        <time>2021-03-20T14:54:58Z</time>
      </trkpt>
      <trkpt lat="55.22375" lon="-4.72857">
        <ele>191.56</ele>
        <time>2021-03-20T14:55:00Z</time>
      </trkpt>
      <trkpt lat="55.2235" lon="-4.72763">
        <ele>186.18</ele>
        <time>2021-03-20T14:55:01Z</time>
      </trkpt>
      <trkpt lat="55.22348" lon="-4.72751">
        <ele>185.57</ele>
        <time>2021-03-20T14:55:03Z</time>
      </trkpt>
      <trkpt lat="55.22349" lon="-4.72712">
        <ele>182.92</ele>
        <time>2021-03-20T14:55:05Z</time>
      </trkpt>
      <trkpt lat="55.22347" lon="-4.72694">
        <ele>182.46</ele>
        <time>2021-03-20T14:55:06Z</time>
      </trkpt>
      <trkpt lat="55.22345" lon="-4.72683">
        <ele>182.36</ele>
        <time>2021-03-20T14:55:08Z</time>
      </trkpt>
      <trkpt lat="55.22315" lon="-4.72599">
        <ele>178.24</ele>
        <time>2021-03-20T14:55:09Z</time>
      </trkpt>
      <trkpt lat="55.22307" lon="-4.72582">
        <ele>176.63</ele>
        <time>2021-03-20T14:55:11Z</time>
      </trkpt>
      <trkpt lat="55.22296" lon="-4.72571">
        <ele>176.1</ele>
        <time>2021-03-20T14:55:13Z</time>
      </trkpt>
      <trkpt lat="55.22276" lon="-4.72564">
        <ele>176.61</ele>
        <time>2021-03-20T14:55:14Z</time>
      </trkpt>
      <trkpt lat="55.22238" lon="-4.72538">
        <ele>175.65</ele>
        <time>2021-03-20T14:55:16Z</time>
      </trkpt>
      <trkpt lat="55.22183" lon="-4.72512">
        <ele>172.93</ele>
        <time>2021-03-20T14:55:18Z</time>
      </trkpt>
      <trkpt lat="55.22169" lon="-4.72508">
        <ele>172.2</ele>
        <time>2021-03-20T14:55:19Z</time>
      </trkpt>
      <trkpt lat="55.22153" lon="-4.72509">
        <ele>171.8</ele>
        <time>2021-03-20T14:55:21Z</time>
      </trkpt>
      <trkpt lat="55.22114" lon="-4.72521">
        <ele>172.06</ele>
        <time>2021-03-20T14:55:22Z</time>
      </trkpt>
      <trkpt lat="55.22107" lon="-4.72519">
        <ele>172.51</ele>
        <time>2021-03-20T14:55:24Z</time>
      </trkpt>
      <trkpt lat="55.22097" lon="-4.72512">
        <ele>173.28</ele>
        <time>2021-03-20T14:55:26Z</time>
      </trkpt>
      <trkpt lat="55.22092" lon="-4.72504">
        <ele>173.01</ele>
        <time>2021-03-20T14:55:27Z</time>
      </trkpt>
      <trkpt lat="55.22085" lon="-4.72478">
        <ele>171.35</ele>
        <time>2021-03-20T14:55:29Z</time>
      </trkpt>
      <trkpt lat="55.2208" lon="-4.72455">
        <ele>169.15</ele>
        <time>2021-03-20T14:55:31Z</time>
      </trkpt>
      <trkpt lat="55.22075" lon="-4.72401">
        <ele>164.79</ele>
        <time>2021-03-20T14:55:32Z</time>
      </trkpt>
      <trkpt lat="55.22073" lon="-4.7239">
        <ele>163.93</ele>
        <time>2021-03-20T14:55:34Z</time>
      </trkpt>
      <trkpt lat="55.22068" lon="-4.72373">
        <ele>162.84</ele>
        <time>2021-03-20T14:55:35Z</time>
      </trkpt>
      <trkpt lat="55.22055" lon="-4.72359">
        <ele>162.69</ele>
        <time>2021-03-20T14:55:37Z</time>
      </trkpt>
      <trkpt lat="55.22023" lon="-4.7233">
        <ele>160.9</ele>
        <time>2021-03-20T14:55:39Z</time>
      </trkpt>
      <trkpt lat="55.21989" lon="-4.72306">
        <ele>166.42</ele>
        <time>2021-03-20T14:55:40Z</time>
      </trkpt>
      <trkpt lat="55.21985" lon="-4.72298">
        <ele>166.36</ele>
        <time>2021-03-20T14:55:42Z</time>
      </trkpt>
      <trkpt lat="55.21982" lon="-4.72289">
        <ele>166.02</ele>
        <time>2021-03-20T14:55:44Z</time>
      </trkpt>
      <trkpt lat="55.2198" lon="-4.72274">
        <ele>164.7</ele>
        <time>2021-03-20T14:55:45Z</time>
      </trkpt>
      <trkpt lat="55.21979" lon="-4.7225">
        <ele>162.26</ele>
        <time>2021-03-20T14:55:47Z</time>
      </trkpt>
      <trkpt lat="55.21977" lon="-4.72237">
        <ele>160.84</ele>
        <time>2021-03-20T14:55:48Z</time>
      </trkpt>
      <trkpt lat="55.21961" lon="-4.72174">
        <ele>156.4</ele>
        <time>2021-03-20T14:55:50Z</time>
      </trkpt>
      <trkpt lat="55.21956" lon="-4.7216">
        <ele>155.6</ele>
        <time>2021-03-20T14:55:52Z</time>
      </trkpt>
      <trkpt lat="55.21925" lon="-4.72106">
        <ele>153.88</ele>
        <time>2021-03-20T14:55:53Z</time>
      </trkpt>
      <trkpt lat="55.21876" lon="-4.71993">
        <ele>146.48</ele>
        <time>2021-03-20T14:55:55Z</time>
      </trkpt>
      <trkpt lat="55.21868" lon="-4.71981">
        <ele>145.57</ele>
        <time>2021-03-20T14:55:56Z</time>
      </trkpt>
      <trkpt lat="55.21851" lon="-4.71963">
        <ele>143.34</ele>
        <time>2021-03-20T14:55:58Z</time>
      </trkpt>
      <trkpt lat="55.21839" lon="-4.71955">
        <ele>141.74</ele>
        <time>2021-03-20T14:56:00Z</time>
      </trkpt>
      <trkpt lat="55.2183" lon="-4.71953">
        <ele>141.27</ele>
        <time>2021-03-20T14:56:01Z</time>
      </trkpt>
      <trkpt lat="55.21817" lon="-4.71956">
        <ele>142.06</ele>
        <time>2021-03-20T14:56:03Z</time>
      </trkpt>
      <trkpt lat="55.21801" lon="-4.71983">
        <ele>145.67</ele>
        <time>2021-03-20T14:56:05Z</time>
      </trkpt>
      <trkpt lat="55.21794" lon="-4.71986">
        <ele>146.72</ele>
        <time>2021-03-20T14:56:06Z</time>
      </trkpt>
      <trkpt lat="55.21787" lon="-4.71984">
        <ele>147.2</ele>
        <time>2021-03-20T14:56:08Z</time>
      </trkpt>
      <trkpt lat="55.21783" lon="-4.71979">
        <ele>147.14</ele>
        <time>2021-03-20T14:56:09Z</time>
      </trkpt>
      <trkpt lat="55.2178" lon="-4.71968">
        <ele>146.35</ele>
        <time>2021-03-20T14:56:11Z</time>
      </trkpt>
      <trkpt lat="55.21779" lon="-4.71921">
        <ele>143.03</ele>
        <time>2021-03-20T14:56:13Z</time>
      </trkpt>
      <trkpt lat="55.21777" lon="-4.71907">
        <ele>142.81</ele>
        <time>2021-03-20T14:56:14Z</time>
      </trkpt>
      <trkpt lat="55.21769" lon="-4.7189">
        <ele>143.05</ele>
        <time>2021-03-20T14:56:16Z</time>
      </trkpt>
      <trkpt lat="55.21707" lon="-4.71828">
        <ele>141.6</ele>
        <time>2021-03-20T14:56:18Z</time>
      </trkpt>
      <trkpt lat="55.21692" lon="-4.71815">
        <ele>140.67</ele>
        <time>2021-03-20T14:56:19Z</time>
      </trkpt>
      <trkpt lat="55.21683" lon="-4.7181">
        <ele>140.32</ele>
        <time>2021-03-20T14:56:21Z</time>
      </trkpt>
      <trkpt lat="55.21656" lon="-4.7181">
        <ele>141.04</ele>
        <time>2021-03-20T14:56:22Z</time>
      </trkpt>
      <trkpt lat="55.21651" lon="-4.71805">
        <ele>141.05</ele>
        <time>2021-03-20T14:56:24Z</time>
      </trkpt>
      <trkpt lat="55.21647" lon="-4.71797">
        <ele>140.41</ele>
        <time>2021-03-20T14:56:26Z</time>
      </trkpt>
      <trkpt lat="55.21644" lon="-4.71762">
        <ele>137.48</ele>
        <time>2021-03-20T14:56:27Z</time>
      </trkpt>
      <trkpt lat="55.21638" lon="-4.71726">
        <ele>135.31</ele>
        <time>2021-03-20T14:56:29Z</time>
      </trkpt>
      <trkpt lat="55.2163" lon="-4.71704">
        <ele>133.81</ele>
        <time>2021-03-20T14:56:31Z</time>
      </trkpt>
      <trkpt lat="55.2162" lon="-4.71693">
        <ele>133.81</ele>
        <time>2021-03-20T14:56:32Z</time>
      </trkpt>
      <trkpt lat="55.21582" lon="-4.71674">
        <ele>134.71</ele>
        <time>2021-03-20T14:56:34Z</time>
      </trkpt>
      <trkpt lat="55.21569" lon="-4.71657">
        <ele>135.07</ele>
        <time>2021-03-20T14:56:35Z</time>
      </trkpt>
      <trkpt lat="55.21565" lon="-4.71643">
        <ele>134.86</ele>
        <time>2021-03-20T14:56:37Z</time>
      </trkpt>
      <trkpt lat="55.21563" lon="-4.71627">
        <ele>134.13</ele>
        <time>2021-03-20T14:56:39Z</time>
      </trkpt>
      <trkpt lat="55.21553" lon="-4.7151">
        <ele>126.53</ele>
        <time>2021-03-20T14:56:40Z</time>
      </trkpt>
      <trkpt lat="55.2155" lon="-4.71496">
        <ele>125.53</ele>
        <time>2021-03-20T14:56:42Z</time>
      </trkpt>
      <trkpt lat="55.21547" lon="-4.71482">
        <ele>125.17</ele>
        <time>2021-03-20T14:56:43Z</time>
      </trkpt>
      <trkpt lat="55.21542" lon="-4.7147">
        <ele>124.78</ele>
        <time>2021-03-20T14:56:45Z</time>
      </trkpt>
      <trkpt lat="55.21535" lon="-4.71462">
        <ele>124.46</ele>
        <time>2021-03-20T14:56:47Z</time>
      </trkpt>
      <trkpt lat="55.21522" lon="-4.71456">
        <ele>123.93</ele>
        <time>2021-03-20T14:56:48Z</time>
      </trkpt>
      <trkpt lat="55.21475" lon="-4.71464">
        <ele>121.13</ele>
        <time>2021-03-20T14:56:50Z</time>
      </trkpt>
      <trkpt lat="55.21432" lon="-4.71469">
        <ele>118.1</ele>
        <time>2021-03-20T14:56:52Z</time>
      </trkpt>
      <trkpt lat="55.21425" lon="-4.71472">
        <ele>117.83</ele>
        <time>2021-03-20T14:56:53Z</time>
      </trkpt>
      <trkpt lat="55.21417" lon="-4.71479">
        <ele>118</ele>
        <time>2021-03-20T14:56:55Z</time>
      </trkpt>
      <trkpt lat="55.21393" lon="-4.71519">
        <ele>119.3</ele>
        <time>2021-03-20T14:56:56Z</time>
      </trkpt>
      <trkpt lat="55.21373" lon="-4.7154">
        <ele>118.83</ele>
        <time>2021-03-20T14:56:58Z</time>
      </trkpt>
      <trkpt lat="55.2136" lon="-4.71548">
        <ele>117.35</ele>
        <time>2021-03-20T14:57:00Z</time>
      </trkpt>
      <trkpt lat="55.2134" lon="-4.71553">
        <ele>116.34</ele>
        <time>2021-03-20T14:57:01Z</time>
      </trkpt>
      <trkpt lat="55.21279" lon="-4.71561">
        <ele>114.81</ele>
        <time>2021-03-20T14:57:03Z</time>
      </trkpt>
      <trkpt lat="55.21266" lon="-4.71558">
        <ele>114.31</ele>
        <time>2021-03-20T14:57:05Z</time>
      </trkpt>
      <trkpt lat="55.21233" lon="-4.71541">
        <ele>111.53</ele>
        <time>2021-03-20T14:57:06Z</time>
      </trkpt>
      <trkpt lat="55.21219" lon="-4.71538">
        <ele>110.7</ele>
        <time>2021-03-20T14:57:08Z</time>
      </trkpt>
      <trkpt lat="55.21209" lon="-4.71538">
        <ele>110.76</ele>
        <time>2021-03-20T14:57:09Z</time>
      </trkpt>
      <trkpt lat="55.2117" lon="-4.7155">
        <ele>114.92</ele>
        <time>2021-03-20T14:57:11Z</time>
      </trkpt>
      <trkpt lat="55.21118" lon="-4.71554">
        <ele>114.49</ele>
        <time>2021-03-20T14:57:13Z</time>
      </trkpt>
      <trkpt lat="55.21079" lon="-4.71565">
        <ele>112.08</ele>
        <time>2021-03-20T14:57:14Z</time>
      </trkpt>
      <trkpt lat="55.2106" lon="-4.71567">
        <ele>111.38</ele>
        <time>2021-03-20T14:57:16Z</time>
      </trkpt>
      <trkpt lat="55.21051" lon="-4.71561">
        <ele>110.1</ele>
        <time>2021-03-20T14:57:18Z</time>
      </trkpt>
      <trkpt lat="55.21047" lon="-4.71553">
        <ele>108.79</ele>
        <time>2021-03-20T14:57:19Z</time>
      </trkpt>
      <trkpt lat="55.21045" lon="-4.71533">
        <ele>107.34</ele>
        <time>2021-03-20T14:57:21Z</time>
      </trkpt>
      <trkpt lat="55.21046" lon="-4.71489">
        <ele>104.74</ele>
        <time>2021-03-20T14:57:22Z</time>
      </trkpt>
      <trkpt lat="55.21041" lon="-4.7142">
        <ele>103.53</ele>
        <time>2021-03-20T14:57:24Z</time>
      </trkpt>
      <trkpt lat="55.21039" lon="-4.71362">
        <ele>104</ele>
        <time>2021-03-20T14:57:26Z</time>
      </trkpt>
      <trkpt lat="55.21038" lon="-4.71352">
        <ele>104</ele>
        <time>2021-03-20T14:57:27Z</time>
      </trkpt>
      <trkpt lat="55.2103" lon="-4.71346">
        <ele>104</ele>
        <time>2021-03-20T14:57:30Z</time>
      </trkpt>
      <trkpt lat="55.20979" lon="-4.71341">
        <ele>103.73</ele>
        <time>2021-03-20T14:57:33Z</time>
      </trkpt>
      <trkpt lat="55.20956" lon="-4.71337">
        <ele>104.36</ele>
        <time>2021-03-20T14:57:35Z</time>
      </trkpt>
      <trkpt lat="55.20936" lon="-4.71338">
        <ele>104.94</ele>
        <time>2021-03-20T14:57:38Z</time>
      </trkpt>
      <trkpt lat="55.20917" lon="-4.71344">
        <ele>105.21</ele>
        <time>2021-03-20T14:57:40Z</time>
      </trkpt>
      <trkpt lat="55.20871" lon="-4.71374">
        <ele>104.39</ele>
        <time>2021-03-20T14:57:43Z</time>
      </trkpt>
      <trkpt lat="55.20821" lon="-4.71377">
        <ele>106.07</ele>
        <time>2021-03-20T14:57:45Z</time>
      </trkpt>
      <trkpt lat="55.20803" lon="-4.71387">
        <ele>106.28</ele>
        <time>2021-03-20T14:57:48Z</time>
      </trkpt>
      <trkpt lat="55.20786" lon="-4.71402">
        <ele>105.74</ele>
        <time>2021-03-20T14:57:51Z</time>
      </trkpt>
      <trkpt lat="55.20775" lon="-4.71417">
        <ele>105.09</ele>
        <time>2021-03-20T14:57:53Z</time>
      </trkpt>
      <trkpt lat="55.20743" lon="-4.71476">
        <ele>102.6</ele>
        <time>2021-03-20T14:57:56Z</time>
      </trkpt>
      <trkpt lat="55.20734" lon="-4.71484">
        <ele>103.28</ele>
        <time>2021-03-20T14:57:58Z</time>
      </trkpt>
      <trkpt lat="55.20695" lon="-4.71489">
        <ele>106.36</ele>
        <time>2021-03-20T14:58:01Z</time>
      </trkpt>
      <trkpt lat="55.20672" lon="-4.71515">
        <ele>107.35</ele>
        <time>2021-03-20T14:58:04Z</time>
      </trkpt>
      <trkpt lat="55.20651" lon="-4.71563">
        <ele>106.47</ele>
        <time>2021-03-20T14:58:06Z</time>
      </trkpt>
      <trkpt lat="55.20625" lon="-4.71658">
        <ele>106.4</ele>
        <time>2021-03-20T14:58:09Z</time>
      </trkpt>
      <trkpt lat="55.20535" lon="-4.71795">
        <ele>108.89</ele>
        <time>2021-03-20T14:58:11Z</time>
      </trkpt>
      <trkpt lat="55.20506" lon="-4.71865">
        <ele>108.66</ele>
        <time>2021-03-20T14:58:14Z</time>
      </trkpt>
      <trkpt lat="55.20477" lon="-4.71926">
        <ele>108.97</ele>
        <time>2021-03-20T14:58:17Z</time>
      </trkpt>
      <trkpt lat="55.20373" lon="-4.72072">
        <ele>108.86</ele>
        <time>2021-03-20T14:58:19Z</time>
      </trkpt>
      <trkpt lat="55.20319" lon="-4.72183">
        <ele>108.92</ele>
        <time>2021-03-20T14:58:22Z</time>
      </trkpt>
      <trkpt lat="55.20302" lon="-4.7227">
        <ele>103.19</ele>
        <time>2021-03-20T14:58:24Z</time>
      </trkpt>
      <trkpt lat="55.2018" lon="-4.72599">
        <ele>105.32</ele>
        <time>2021-03-20T14:58:27Z</time>
      </trkpt>
      <trkpt lat="55.20152" lon="-4.7273">
        <ele>99.4</ele>
        <time>2021-03-20T14:58:30Z</time>
      </trkpt>
      <trkpt lat="55.20125" lon="-4.72813">
        <ele>99.61</ele>
        <time>2021-03-20T14:58:32Z</time>
      </trkpt>
      <trkpt lat="55.20116" lon="-4.72867">
        <ele>98.42</ele>
        <time>2021-03-20T14:58:35Z</time>
      </trkpt>
      <trkpt lat="55.20109" lon="-4.72962">
        <ele>95.15</ele>
        <time>2021-03-20T14:58:37Z</time>
      </trkpt>
      <trkpt lat="55.20084" lon="-4.7313">
        <ele>95.24</ele>
        <time>2021-03-20T14:58:40Z</time>
      </trkpt>
      <trkpt lat="55.20066" lon="-4.73171">
        <ele>97.49</ele>
        <time>2021-03-20T14:58:42Z</time>
      </trkpt>
      <trkpt lat="55.20026" lon="-4.73215">
        <ele>101.82</ele>
        <time>2021-03-20T14:58:45Z</time>
      </trkpt>
      <trkpt lat="55.2" lon="-4.73256">
        <ele>103.55</ele>
        <time>2021-03-20T14:58:48Z</time>
      </trkpt>
      <trkpt lat="55.19975" lon="-4.73332">
        <ele>100.64</ele>
        <time>2021-03-20T14:58:50Z</time>
      </trkpt>
      <trkpt lat="55.19956" lon="-4.73369">
        <ele>99.76</ele>
        <time>2021-03-20T14:58:53Z</time>
      </trkpt>
      <trkpt lat="55.19943" lon="-4.73408">
        <ele>98.94</ele>
        <time>2021-03-20T14:58:55Z</time>
      </trkpt>
      <trkpt lat="55.19924" lon="-4.73549">
        <ele>93.22</ele>
        <time>2021-03-20T14:58:58Z</time>
      </trkpt>
      <trkpt lat="55.19929" lon="-4.73643">
        <ele>94.73</ele>
        <time>2021-03-20T14:59:01Z</time>
      </trkpt>
      <trkpt lat="55.19929" lon="-4.73701">
        <ele>96.01</ele>
        <time>2021-03-20T14:59:03Z</time>
      </trkpt>
      <trkpt lat="55.1993" lon="-4.73756">
        <ele>97.1</ele>
        <time>2021-03-20T14:59:06Z</time>
      </trkpt>
      <trkpt lat="55.19924" lon="-4.73792">
        <ele>97.81</ele>
        <time>2021-03-20T14:59:08Z</time>
      </trkpt>
      <trkpt lat="55.19894" lon="-4.7387">
        <ele>98.16</ele>
        <time>2021-03-20T14:59:11Z</time>
      </trkpt>
      <trkpt lat="55.1985" lon="-4.73939">
        <ele>98.98</ele>
        <time>2021-03-20T14:59:14Z</time>
      </trkpt>
      <trkpt lat="55.19823" lon="-4.73988">
        <ele>98.06</ele>
        <time>2021-03-20T14:59:16Z</time>
      </trkpt>
      <trkpt lat="55.19741" lon="-4.74251">
        <ele>92.28</ele>
        <time>2021-03-20T14:59:19Z</time>
      </trkpt>
      <trkpt lat="55.19714" lon="-4.74308">
        <ele>91.04</ele>
        <time>2021-03-20T14:59:21Z</time>
      </trkpt>
      <trkpt lat="55.19653" lon="-4.74384">
        <ele>93.53</ele>
        <time>2021-03-20T14:59:24Z</time>
      </trkpt>
      <trkpt lat="55.19625" lon="-4.74411">
        <ele>93.87</ele>
        <time>2021-03-20T14:59:27Z</time>
      </trkpt>
      <trkpt lat="55.19538" lon="-4.74443">
        <ele>94.12</ele>
        <time>2021-03-20T14:59:29Z</time>
      </trkpt>
      <trkpt lat="55.19511" lon="-4.74462">
        <ele>94.21</ele>
        <time>2021-03-20T14:59:32Z</time>
      </trkpt>
      <trkpt lat="55.1947" lon="-4.74521">
        <ele>97.01</ele>
        <time>2021-03-20T14:59:34Z</time>
      </trkpt>
      <trkpt lat="55.19448" lon="-4.7455">
        <ele>97.99</ele>
        <time>2021-03-20T14:59:37Z</time>
      </trkpt>
      <trkpt lat="55.19431" lon="-4.74579">
        <ele>99.43</ele>
        <time>2021-03-20T14:59:39Z</time>
      </trkpt>
      <trkpt lat="55.19386" lon="-4.74672">
        <ele>104.11</ele>
        <time>2021-03-20T14:59:42Z</time>
      </trkpt>
      <trkpt lat="55.19358" lon="-4.7474">
        <ele>107.64</ele>
        <time>2021-03-20T14:59:45Z</time>
      </trkpt>
      <trkpt lat="55.19267" lon="-4.74989">
        <ele>104</ele>
        <time>2021-03-20T14:59:47Z</time>
      </trkpt>
      <trkpt lat="55.19248" lon="-4.75029">
        <ele>103.93</ele>
        <time>2021-03-20T14:59:50Z</time>
      </trkpt>
      <trkpt lat="55.1922" lon="-4.75072">
        <ele>101.23</ele>
        <time>2021-03-20T14:59:52Z</time>
      </trkpt>
      <trkpt lat="55.19138" lon="-4.75169">
        <ele>90.83</ele>
        <time>2021-03-20T14:59:55Z</time>
      </trkpt>
      <trkpt lat="55.19115" lon="-4.75202">
        <ele>89.12</ele>
        <time>2021-03-20T14:59:58Z</time>
      </trkpt>
      <trkpt lat="55.19098" lon="-4.75235">
        <ele>87.6</ele>
        <time>2021-03-20T15:00:00Z</time>
      </trkpt>
      <trkpt lat="55.19072" lon="-4.75308">
        <ele>84.96</ele>
        <time>2021-03-20T15:00:03Z</time>
      </trkpt>
      <trkpt lat="55.19025" lon="-4.75452">
        <ele>85.84</ele>
        <time>2021-03-20T15:00:05Z</time>
      </trkpt>
      <trkpt lat="55.19012" lon="-4.75485">
        <ele>85.31</ele>
        <time>2021-03-20T15:00:08Z</time>
      </trkpt>
      <trkpt lat="55.18994" lon="-4.75516">
        <ele>85.43</ele>
        <time>2021-03-20T15:00:11Z</time>
      </trkpt>
      <trkpt lat="55.1897" lon="-4.75541">
        <ele>87.17</ele>
        <time>2021-03-20T15:00:13Z</time>
      </trkpt>
      <trkpt lat="55.1895" lon="-4.75558">
        <ele>88.65</ele>
        <time>2021-03-20T15:00:16Z</time>
      </trkpt>
      <trkpt lat="55.18938" lon="-4.75578">
        <ele>91</ele>
        <time>2021-03-20T15:00:18Z</time>
      </trkpt>
      <trkpt lat="55.18932" lon="-4.75604">
        <ele>92.92</ele>
        <time>2021-03-20T15:00:21Z</time>
      </trkpt>
      <trkpt lat="55.18934" lon="-4.75639">
        <ele>93.88</ele>
        <time>2021-03-20T15:00:24Z</time>
      </trkpt>
      <trkpt lat="55.18947" lon="-4.75695">
        <ele>92.5</ele>
        <time>2021-03-20T15:00:26Z</time>
      </trkpt>
      <trkpt lat="55.1895" lon="-4.75719">
        <ele>92.21</ele>
        <time>2021-03-20T15:00:29Z</time>
      </trkpt>
      <trkpt lat="55.18947" lon="-4.75731">
        <ele>92.92</ele>
        <time>2021-03-20T15:00:31Z</time>
      </trkpt>
      <trkpt lat="55.18929" lon="-4.75762">
        <ele>96.29</ele>
        <time>2021-03-20T15:00:34Z</time>
      </trkpt>
      <trkpt lat="55.18906" lon="-4.75839">
        <ele>100.11</ele>
        <time>2021-03-20T15:00:36Z</time>
      </trkpt>
      <trkpt lat="55.18837" lon="-4.75953">
        <ele>106.56</ele>
        <time>2021-03-20T15:00:39Z</time>
      </trkpt>
      <trkpt lat="55.1881" lon="-4.75988">
        <ele>109.48</ele>
        <time>2021-03-20T15:00:42Z</time>
      </trkpt>
      <trkpt lat="55.18795" lon="-4.76015">
        <ele>110.65</ele>
        <time>2021-03-20T15:00:44Z</time>
      </trkpt>
      <trkpt lat="55.18772" lon="-4.76075">
        <ele>110.22</ele>
        <time>2021-03-20T15:00:47Z</time>
      </trkpt>
      <trkpt lat="55.18624" lon="-4.76426">
        <ele>111.43</ele>
        <time>2021-03-20T15:00:49Z</time>
      </trkpt>
      <trkpt lat="55.18603" lon="-4.76487">
        <ele>110.37</ele>
        <time>2021-03-20T15:00:52Z</time>
      </trkpt>
      <trkpt lat="55.18578" lon="-4.76572">
        <ele>107.11</ele>
        <time>2021-03-20T15:00:55Z</time>
      </trkpt>
      <trkpt lat="55.18538" lon="-4.76677">
        <ele>105.79</ele>
        <time>2021-03-20T15:00:57Z</time>
      </trkpt>
      <trkpt lat="55.18529" lon="-4.76718">
        <ele>104.09</ele>
        <time>2021-03-20T15:01:00Z</time>
      </trkpt>
      <trkpt lat="55.1852" lon="-4.7679">
        <ele>101.75</ele>
        <time>2021-03-20T15:01:02Z</time>
      </trkpt>
      <trkpt lat="55.18494" lon="-4.77031">
        <ele>93.11</ele>
        <time>2021-03-20T15:01:05Z</time>
      </trkpt>
      <trkpt lat="55.18482" lon="-4.77118">
        <ele>94.59</ele>
        <time>2021-03-20T15:01:08Z</time>
      </trkpt>
      <trkpt lat="55.18465" lon="-4.77199">
        <ele>95.21</ele>
        <time>2021-03-20T15:01:10Z</time>
      </trkpt>
      <trkpt lat="55.18463" lon="-4.77291">
        <ele>90.89</ele>
        <time>2021-03-20T15:01:13Z</time>
      </trkpt>
      <trkpt lat="55.18458" lon="-4.77337">
        <ele>89.74</ele>
        <time>2021-03-20T15:01:15Z</time>
      </trkpt>
      <trkpt lat="55.18446" lon="-4.77385">
        <ele>88.81</ele>
        <time>2021-03-20T15:01:18Z</time>
      </trkpt>
      <trkpt lat="55.18444" lon="-4.77417">
        <ele>87.07</ele>
        <time>2021-03-20T15:01:21Z</time>
      </trkpt>
      <trkpt lat="55.18446" lon="-4.77463">
        <ele>85.15</ele>
        <time>2021-03-20T15:01:23Z</time>
      </trkpt>
      <trkpt lat="55.18444" lon="-4.77575">
        <ele>83.04</ele>
        <time>2021-03-20T15:01:26Z</time>
      </trkpt>
      <trkpt lat="55.18437" lon="-4.77643">
        <ele>82.79</ele>
        <time>2021-03-20T15:01:28Z</time>
      </trkpt>
      <trkpt lat="55.18433" lon="-4.77658">
        <ele>83.22</ele>
        <time>2021-03-20T15:01:31Z</time>
      </trkpt>
      <trkpt lat="55.18393" lon="-4.77749">
        <ele>86.42</ele>
        <time>2021-03-20T15:01:33Z</time>
      </trkpt>
      <trkpt lat="55.18383" lon="-4.77787">
        <ele>87.89</ele>
        <time>2021-03-20T15:01:36Z</time>
      </trkpt>
      <trkpt lat="55.18356" lon="-4.77964">
        <ele>88.96</ele>
        <time>2021-03-20T15:01:39Z</time>
      </trkpt>
      <trkpt lat="55.18333" lon="-4.78045">
        <ele>88.43</ele>
        <time>2021-03-20T15:01:41Z</time>
      </trkpt>
      <trkpt lat="55.18299" lon="-4.78176">
        <ele>86.53</ele>
        <time>2021-03-20T15:01:44Z</time>
      </trkpt>
      <trkpt lat="55.18281" lon="-4.7832">
        <ele>83.5</ele>
        <time>2021-03-20T15:01:46Z</time>
      </trkpt>
      <trkpt lat="55.18274" lon="-4.78394">
        <ele>82.38</ele>
        <time>2021-03-20T15:01:49Z</time>
      </trkpt>
      <trkpt lat="55.18267" lon="-4.7842">
        <ele>82.49</ele>
        <time>2021-03-20T15:01:52Z</time>
      </trkpt>
      <trkpt lat="55.18235" lon="-4.78485">
        <ele>85.99</ele>
        <time>2021-03-20T15:01:54Z</time>
      </trkpt>
      <trkpt lat="55.18204" lon="-4.78571">
        <ele>89.8</ele>
        <time>2021-03-20T15:01:57Z</time>
      </trkpt>
      <trkpt lat="55.18184" lon="-4.78609">
        <ele>90.7</ele>
        <time>2021-03-20T15:01:59Z</time>
      </trkpt>
      <trkpt lat="55.18162" lon="-4.78636">
        <ele>89.84</ele>
        <time>2021-03-20T15:02:02Z</time>
      </trkpt>
      <trkpt lat="55.18139" lon="-4.7865">
        <ele>90.71</ele>
        <time>2021-03-20T15:02:05Z</time>
      </trkpt>
      <trkpt lat="55.18118" lon="-4.78668">
        <ele>92.49</ele>
        <time>2021-03-20T15:02:07Z</time>
      </trkpt>
      <trkpt lat="55.18105" lon="-4.78694">
        <ele>92.93</ele>
        <time>2021-03-20T15:02:10Z</time>
      </trkpt>
      <trkpt lat="55.18051" lon="-4.78852">
        <ele>97.46</ele>
        <time>2021-03-20T15:02:12Z</time>
      </trkpt>
      <trkpt lat="55.18039" lon="-4.78893">
        <ele>99.48</ele>
        <time>2021-03-20T15:02:15Z</time>
      </trkpt>
      <trkpt lat="55.18024" lon="-4.78977">
        <ele>98.36</ele>
        <time>2021-03-20T15:02:18Z</time>
      </trkpt>
      <trkpt lat="55.17998" lon="-4.79053">
        <ele>95.4</ele>
        <time>2021-03-20T15:02:20Z</time>
      </trkpt>
      <trkpt lat="55.17987" lon="-4.79073">
        <ele>94.73</ele>
        <time>2021-03-20T15:02:23Z</time>
      </trkpt>
      <trkpt lat="55.17962" lon="-4.79089">
        <ele>95.17</ele>
        <time>2021-03-20T15:02:25Z</time>
      </trkpt>
      <trkpt lat="55.1795" lon="-4.79105">
        <ele>95.03</ele>
        <time>2021-03-20T15:02:28Z</time>
      </trkpt>
      <trkpt lat="55.17914" lon="-4.79187">
        <ele>94.31</ele>
        <time>2021-03-20T15:02:30Z</time>
      </trkpt>
      <trkpt lat="55.17806" lon="-4.79364">
        <ele>86.9</ele>
        <time>2021-03-20T15:02:33Z</time>
      </trkpt>
      <trkpt lat="55.17783" lon="-4.79412">
        <ele>85.33</ele>
        <time>2021-03-20T15:02:36Z</time>
      </trkpt>
      <trkpt lat="55.17767" lon="-4.795">
        <ele>82.51</ele>
        <time>2021-03-20T15:02:38Z</time>
      </trkpt>
      <trkpt lat="55.17756" lon="-4.79599">
        <ele>81.12</ele>
        <time>2021-03-20T15:02:41Z</time>
      </trkpt>
      <trkpt lat="55.17745" lon="-4.79889">
        <ele>79.84</ele>
        <time>2021-03-20T15:02:43Z</time>
      </trkpt>
      <trkpt lat="55.17739" lon="-4.79936">
        <ele>81.59</ele>
        <time>2021-03-20T15:02:46Z</time>
      </trkpt>
      <trkpt lat="55.17691" lon="-4.80095">
        <ele>82.83</ele>
        <time>2021-03-20T15:02:49Z</time>
      </trkpt>
      <trkpt lat="55.17647" lon="-4.80146">
        <ele>86.67</ele>
        <time>2021-03-20T15:02:51Z</time>
      </trkpt>
      <trkpt lat="55.17627" lon="-4.80175">
        <ele>87.7</ele>
        <time>2021-03-20T15:02:54Z</time>
      </trkpt>
      <trkpt lat="55.17617" lon="-4.80214">
        <ele>86.73</ele>
        <time>2021-03-20T15:02:56Z</time>
      </trkpt>
      <trkpt lat="55.17613" lon="-4.80249">
        <ele>86.77</ele>
        <time>2021-03-20T15:02:59Z</time>
      </trkpt>
      <trkpt lat="55.17606" lon="-4.80286">
        <ele>87.4</ele>
        <time>2021-03-20T15:03:02Z</time>
      </trkpt>
      <trkpt lat="55.17587" lon="-4.80326">
        <ele>87.96</ele>
        <time>2021-03-20T15:03:04Z</time>
      </trkpt>
      <trkpt lat="55.17464" lon="-4.80534">
        <ele>82.56</ele>
        <time>2021-03-20T15:03:07Z</time>
      </trkpt>
      <trkpt lat="55.17441" lon="-4.80591">
        <ele>83.06</ele>
        <time>2021-03-20T15:03:09Z</time>
      </trkpt>
      <trkpt lat="55.17423" lon="-4.80622">
        <ele>83.65</ele>
        <time>2021-03-20T15:03:12Z</time>
      </trkpt>
      <trkpt lat="55.17354" lon="-4.80698">
        <ele>83.87</ele>
        <time>2021-03-20T15:03:15Z</time>
      </trkpt>
      <trkpt lat="55.17328" lon="-4.80716">
        <ele>86.78</ele>
        <time>2021-03-20T15:03:17Z</time>
      </trkpt>
      <trkpt lat="55.17309" lon="-4.80735">
        <ele>87.52</ele>
        <time>2021-03-20T15:03:20Z</time>
      </trkpt>
      <trkpt lat="55.17295" lon="-4.80758">
        <ele>88.28</ele>
        <time>2021-03-20T15:03:22Z</time>
      </trkpt>
      <trkpt lat="55.17289" lon="-4.80791">
        <ele>89.47</ele>
        <time>2021-03-20T15:03:25Z</time>
      </trkpt>
      <trkpt lat="55.17265" lon="-4.81185">
        <ele>89.18</ele>
        <time>2021-03-20T15:03:27Z</time>
      </trkpt>
      <trkpt lat="55.17261" lon="-4.81228">
        <ele>88.25</ele>
        <time>2021-03-20T15:03:30Z</time>
      </trkpt>
      <trkpt lat="55.1725" lon="-4.81262">
        <ele>88.52</ele>
        <time>2021-03-20T15:03:33Z</time>
      </trkpt>
      <trkpt lat="55.17232" lon="-4.81293">
        <ele>89.01</ele>
        <time>2021-03-20T15:03:35Z</time>
      </trkpt>
      <trkpt lat="55.17225" lon="-4.81313">
        <ele>88.56</ele>
        <time>2021-03-20T15:03:38Z</time>
      </trkpt>
      <trkpt lat="55.17224" lon="-4.8133">
        <ele>88.06</ele>
        <time>2021-03-20T15:03:40Z</time>
      </trkpt>
      <trkpt lat="55.17225" lon="-4.8135">
        <ele>87.34</ele>
        <time>2021-03-20T15:03:43Z</time>
      </trkpt>
      <trkpt lat="55.17232" lon="-4.81386">
        <ele>87</ele>
        <time>2021-03-20T15:03:46Z</time>
      </trkpt>
      <trkpt lat="55.17236" lon="-4.81428">
        <ele>87</ele>
        <time>2021-03-20T15:03:48Z</time>
      </trkpt>
      <trkpt lat="55.17235" lon="-4.81476">
        <ele>88</ele>
        <time>2021-03-20T15:03:51Z</time>
      </trkpt>
      <trkpt lat="55.17223" lon="-4.81574">
        <ele>89.62</ele>
        <time>2021-03-20T15:03:53Z</time>
      </trkpt>
      <trkpt lat="55.17189" lon="-4.81804">
        <ele>91.11</ele>
        <time>2021-03-20T15:03:56Z</time>
      </trkpt>
      <trkpt lat="55.1717" lon="-4.81997">
        <ele>82.89</ele>
        <time>2021-03-20T15:03:59Z</time>
      </trkpt>
      <trkpt lat="55.1717" lon="-4.82016">
        <ele>82.23</ele>
        <time>2021-03-20T15:04:01Z</time>
      </trkpt>
      <trkpt lat="55.17175" lon="-4.82028">
        <ele>81.36</ele>
        <time>2021-03-20T15:04:04Z</time>
      </trkpt>
      <trkpt lat="55.17182" lon="-4.82032">
        <ele>80.69</ele>
        <time>2021-03-20T15:04:06Z</time>
      </trkpt>
      <trkpt lat="55.17199" lon="-4.82028">
        <ele>79.69</ele>
        <time>2021-03-20T15:04:09Z</time>
      </trkpt>
      <trkpt lat="55.17202" lon="-4.82033">
        <ele>78.93</ele>
        <time>2021-03-20T15:04:12Z</time>
      </trkpt>
      <trkpt lat="55.172" lon="-4.82043">
        <ele>78.31</ele>
        <time>2021-03-20T15:04:14Z</time>
      </trkpt>
      <trkpt lat="55.17186" lon="-4.8206">
        <ele>78.05</ele>
        <time>2021-03-20T15:04:17Z</time>
      </trkpt>
      <trkpt lat="55.17171" lon="-4.82083">
        <ele>75.5</ele>
        <time>2021-03-20T15:04:19Z</time>
      </trkpt>
      <trkpt lat="55.17157" lon="-4.82111">
        <ele>72.04</ele>
        <time>2021-03-20T15:04:22Z</time>
      </trkpt>
      <trkpt lat="55.17148" lon="-4.82152">
        <ele>64.35</ele>
        <time>2021-03-20T15:04:24Z</time>
      </trkpt>
      <trkpt lat="55.17142" lon="-4.82197">
        <ele>60.83</ele>
        <time>2021-03-20T15:04:27Z</time>
      </trkpt>
      <trkpt lat="55.17134" lon="-4.82235">
        <ele>59.92</ele>
        <time>2021-03-20T15:04:30Z</time>
      </trkpt>
      <trkpt lat="55.1712" lon="-4.82265">
        <ele>59.31</ele>
        <time>2021-03-20T15:04:32Z</time>
      </trkpt>
      <trkpt lat="55.17101" lon="-4.82286">
        <ele>58.81</ele>
        <time>2021-03-20T15:04:35Z</time>
      </trkpt>
      <trkpt lat="55.17083" lon="-4.82296">
        <ele>58.33</ele>
        <time>2021-03-20T15:04:37Z</time>
      </trkpt>
      <trkpt lat="55.17077" lon="-4.82305">
        <ele>58.7</ele>
        <time>2021-03-20T15:04:40Z</time>
      </trkpt>
      <trkpt lat="55.17075" lon="-4.82316">
        <ele>58.98</ele>
        <time>2021-03-20T15:04:43Z</time>
      </trkpt>
      <trkpt lat="55.17081" lon="-4.82366">
        <ele>66.56</ele>
        <time>2021-03-20T15:04:45Z</time>
      </trkpt>
      <trkpt lat="55.17035" lon="-4.8238">
        <ele>63.95</ele>
        <time>2021-03-20T15:04:48Z</time>
      </trkpt>
      <trkpt lat="55.16975" lon="-4.82408">
        <ele>65.15</ele>
        <time>2021-03-20T15:04:52Z</time>
      </trkpt>
      <trkpt lat="55.1694" lon="-4.82421">
        <ele>66.94</ele>
        <time>2021-03-20T15:04:55Z</time>
      </trkpt>
      <trkpt lat="55.16885" lon="-4.82409">
        <ele>66.2</ele>
        <time>2021-03-20T15:04:58Z</time>
      </trkpt>
      <trkpt lat="55.16854" lon="-4.82412">
        <ele>65.87</ele>
        <time>2021-03-20T15:05:01Z</time>
      </trkpt>
      <trkpt lat="55.16797" lon="-4.82457">
        <ele>64.51</ele>
        <time>2021-03-20T15:05:04Z</time>
      </trkpt>
      <trkpt lat="55.16622" lon="-4.82482">
        <ele>62.93</ele>
        <time>2021-03-20T15:05:07Z</time>
      </trkpt>
      <trkpt lat="55.16546" lon="-4.82504">
        <ele>65.94</ele>
        <time>2021-03-20T15:05:10Z</time>
      </trkpt>
      <trkpt lat="55.16295" lon="-4.82614">
        <ele>62.42</ele>
        <time>2021-03-20T15:05:13Z</time>
      </trkpt>
      <trkpt lat="55.16233" lon="-4.82644">
        <ele>63.55</ele>
        <time>2021-03-20T15:05:16Z</time>
      </trkpt>
      <trkpt lat="55.16197" lon="-4.82676">
        <ele>64.32</ele>
        <time>2021-03-20T15:05:19Z</time>
      </trkpt>
      <trkpt lat="55.16154" lon="-4.82721">
        <ele>58.67</ele>
        <time>2021-03-20T15:05:23Z</time>
      </trkpt>
      <trkpt lat="55.16111" lon="-4.82762">
        <ele>55.84</ele>
        <time>2021-03-20T15:05:26Z</time>
      </trkpt>
      <trkpt lat="55.16085" lon="-4.82807">
        <ele>57.15</ele>
        <time>2021-03-20T15:05:29Z</time>
      </trkpt>
      <trkpt lat="55.16053" lon="-4.82888">
        <ele>60.68</ele>
        <time>2021-03-20T15:05:32Z</time>
      </trkpt>
      <trkpt lat="55.16038" lon="-4.82916">
        <ele>60.12</ele>
        <time>2021-03-20T15:05:35Z</time>
      </trkpt>
      <trkpt lat="55.1602" lon="-4.82942">
        <ele>57.92</ele>
        <time>2021-03-20T15:05:38Z</time>
      </trkpt>
      <trkpt lat="55.15952" lon="-4.83016">
        <ele>58.93</ele>
        <time>2021-03-20T15:05:41Z</time>
      </trkpt>
      <trkpt lat="55.15937" lon="-4.83036">
        <ele>59.4</ele>
        <time>2021-03-20T15:05:44Z</time>
      </trkpt>
      <trkpt lat="55.15926" lon="-4.83052">
        <ele>58.9</ele>
        <time>2021-03-20T15:05:47Z</time>
      </trkpt>
      <trkpt lat="55.15898" lon="-4.83106">
        <ele>61.37</ele>
        <time>2021-03-20T15:05:50Z</time>
      </trkpt>
      <trkpt lat="55.15884" lon="-4.83125">
        <ele>62.01</ele>
        <time>2021-03-20T15:05:54Z</time>
      </trkpt>
      <trkpt lat="55.15818" lon="-4.83178">
        <ele>62.4</ele>
        <time>2021-03-20T15:05:57Z</time>
      </trkpt>
      <trkpt lat="55.15758" lon="-4.83231">
        <ele>64.51</ele>
        <time>2021-03-20T15:06:00Z</time>
      </trkpt>
      <trkpt lat="55.15723" lon="-4.83257">
        <ele>66.61</ele>
        <time>2021-03-20T15:06:03Z</time>
      </trkpt>
      <trkpt lat="55.15684" lon="-4.83269">
        <ele>65.22</ele>
        <time>2021-03-20T15:06:06Z</time>
      </trkpt>
      <trkpt lat="55.15647" lon="-4.8327">
        <ele>64.93</ele>
        <time>2021-03-20T15:06:09Z</time>
      </trkpt>
      <trkpt lat="55.15597" lon="-4.83264">
        <ele>64.11</ele>
        <time>2021-03-20T15:06:12Z</time>
      </trkpt>
      <trkpt lat="55.15563" lon="-4.83253">
        <ele>57.34</ele>
        <time>2021-03-20T15:06:15Z</time>
      </trkpt>
      <trkpt lat="55.15548" lon="-4.83265">
        <ele>57.87</ele>
        <time>2021-03-20T15:06:18Z</time>
      </trkpt>
      <trkpt lat="55.15522" lon="-4.83313">
        <ele>59.9</ele>
        <time>2021-03-20T15:06:21Z</time>
      </trkpt>
      <trkpt lat="55.15501" lon="-4.83347">
        <ele>60.04</ele>
        <time>2021-03-20T15:06:23Z</time>
      </trkpt>
      <trkpt lat="55.15478" lon="-4.83367">
        <ele>59.11</ele>
        <time>2021-03-20T15:06:26Z</time>
      </trkpt>
      <trkpt lat="55.15454" lon="-4.83382">
        <ele>57.47</ele>
        <time>2021-03-20T15:06:28Z</time>
      </trkpt>
      <trkpt lat="55.15391" lon="-4.83465">
        <ele>54.04</ele>
        <time>2021-03-20T15:06:31Z</time>
      </trkpt>
      <trkpt lat="55.15371" lon="-4.83499">
        <ele>53.69</ele>
        <time>2021-03-20T15:06:34Z</time>
      </trkpt>
      <trkpt lat="55.15365" lon="-4.83534">
        <ele>54.73</ele>
        <time>2021-03-20T15:06:36Z</time>
      </trkpt>
      <trkpt lat="55.15365" lon="-4.83593">
        <ele>58.37</ele>
        <time>2021-03-20T15:06:39Z</time>
      </trkpt>
      <trkpt lat="55.15356" lon="-4.83625">
        <ele>59.54</ele>
        <time>2021-03-20T15:06:42Z</time>
      </trkpt>
      <trkpt lat="55.15333" lon="-4.83657">
        <ele>57.24</ele>
        <time>2021-03-20T15:06:44Z</time>
      </trkpt>
      <trkpt lat="55.15308" lon="-4.83667">
        <ele>56.18</ele>
        <time>2021-03-20T15:06:47Z</time>
      </trkpt>
      <trkpt lat="55.1528" lon="-4.8369">
        <ele>54.83</ele>
        <time>2021-03-20T15:06:50Z</time>
      </trkpt>
      <trkpt lat="55.15257" lon="-4.8374">
        <ele>55.76</ele>
        <time>2021-03-20T15:06:52Z</time>
      </trkpt>
      <trkpt lat="55.15222" lon="-4.83833">
        <ele>57.92</ele>
        <time>2021-03-20T15:06:55Z</time>
      </trkpt>
      <trkpt lat="55.152" lon="-4.83857">
        <ele>58.25</ele>
        <time>2021-03-20T15:06:58Z</time>
      </trkpt>
      <trkpt lat="55.15145" lon="-4.8389">
        <ele>58.35</ele>
        <time>2021-03-20T15:07:00Z</time>
      </trkpt>
      <trkpt lat="55.1509" lon="-4.83909">
        <ele>54.31</ele>
        <time>2021-03-20T15:07:03Z</time>
      </trkpt>
      <trkpt lat="55.15039" lon="-4.83916">
        <ele>49.69</ele>
        <time>2021-03-20T15:07:06Z</time>
      </trkpt>
      <trkpt lat="55.15019" lon="-4.83927">
        <ele>48.84</ele>
        <time>2021-03-20T15:07:08Z</time>
      </trkpt>
      <trkpt lat="55.14974" lon="-4.83962">
        <ele>47.11</ele>
        <time>2021-03-20T15:07:11Z</time>
      </trkpt>
      <trkpt lat="55.14951" lon="-4.83972">
        <ele>48.77</ele>
        <time>2021-03-20T15:07:14Z</time>
      </trkpt>
      <trkpt lat="55.1493" lon="-4.83977">
        <ele>51.74</ele>
        <time>2021-03-20T15:07:16Z</time>
      </trkpt>
      <trkpt lat="55.14885" lon="-4.83964">
        <ele>54.52</ele>
        <time>2021-03-20T15:07:19Z</time>
      </trkpt>
      <trkpt lat="55.14843" lon="-4.83956">
        <ele>50.33</ele>
        <time>2021-03-20T15:07:21Z</time>
      </trkpt>
      <trkpt lat="55.14765" lon="-4.8397">
        <ele>48.42</ele>
        <time>2021-03-20T15:07:24Z</time>
      </trkpt>
      <trkpt lat="55.14748" lon="-4.83978">
        <ele>48.04</ele>
        <time>2021-03-20T15:07:27Z</time>
      </trkpt>
      <trkpt lat="55.14736" lon="-4.83989">
        <ele>47.32</ele>
        <time>2021-03-20T15:07:29Z</time>
      </trkpt>
      <trkpt lat="55.14727" lon="-4.84005">
        <ele>46.64</ele>
        <time>2021-03-20T15:07:32Z</time>
      </trkpt>
      <trkpt lat="55.14718" lon="-4.84028">
        <ele>46.69</ele>
        <time>2021-03-20T15:07:35Z</time>
      </trkpt>
      <trkpt lat="55.14731" lon="-4.84086">
        <ele>47.23</ele>
        <time>2021-03-20T15:07:37Z</time>
      </trkpt>
      <trkpt lat="55.14731" lon="-4.84101">
        <ele>47.26</ele>
        <time>2021-03-20T15:07:40Z</time>
      </trkpt>
      <trkpt lat="55.14728" lon="-4.84138">
        <ele>47.06</ele>
        <time>2021-03-20T15:07:42Z</time>
      </trkpt>
      <trkpt lat="55.14718" lon="-4.84223">
        <ele>48.02</ele>
        <time>2021-03-20T15:07:44Z</time>
      </trkpt>
      <trkpt lat="55.1471" lon="-4.8435">
        <ele>46.81</ele>
        <time>2021-03-20T15:07:47Z</time>
      </trkpt>
      <trkpt lat="55.14711" lon="-4.84373">
        <ele>47.39</ele>
        <time>2021-03-20T15:07:49Z</time>
      </trkpt>
      <trkpt lat="55.14719" lon="-4.84401">
        <ele>48.9</ele>
        <time>2021-03-20T15:07:52Z</time>
      </trkpt>
      <trkpt lat="55.1473" lon="-4.84424">
        <ele>50.54</ele>
        <time>2021-03-20T15:07:54Z</time>
      </trkpt>
      <trkpt lat="55.14734" lon="-4.84444">
        <ele>50.81</ele>
        <time>2021-03-20T15:07:57Z</time>
      </trkpt>
      <trkpt lat="55.14736" lon="-4.84469">
        <ele>51.86</ele>
        <time>2021-03-20T15:07:59Z</time>
      </trkpt>
      <trkpt lat="55.1473" lon="-4.8459">
        <ele>54.58</ele>
        <time>2021-03-20T15:08:02Z</time>
      </trkpt>
      <trkpt lat="55.14733" lon="-4.84624">
        <ele>54.07</ele>
        <time>2021-03-20T15:08:04Z</time>
      </trkpt>
      <trkpt lat="55.14747" lon="-4.8468">
        <ele>54.03</ele>
        <time>2021-03-20T15:08:06Z</time>
      </trkpt>
      <trkpt lat="55.14745" lon="-4.84738">
        <ele>51.46</ele>
        <time>2021-03-20T15:08:09Z</time>
      </trkpt>
      <trkpt lat="55.1475" lon="-4.84793">
        <ele>52.08</ele>
        <time>2021-03-20T15:08:11Z</time>
      </trkpt>
      <trkpt lat="55.14734" lon="-4.84895">
        <ele>51.96</ele>
        <time>2021-03-20T15:08:14Z</time>
      </trkpt>
      <trkpt lat="55.14725" lon="-4.8493">
        <ele>52.05</ele>
        <time>2021-03-20T15:08:16Z</time>
      </trkpt>
      <trkpt lat="55.14714" lon="-4.8496">
        <ele>51.48</ele>
        <time>2021-03-20T15:08:19Z</time>
      </trkpt>
      <trkpt lat="55.14669" lon="-4.85026">
        <ele>51.14</ele>
        <time>2021-03-20T15:08:21Z</time>
      </trkpt>
      <trkpt lat="55.14654" lon="-4.85059">
        <ele>49.91</ele>
        <time>2021-03-20T15:08:23Z</time>
      </trkpt>
      <trkpt lat="55.14643" lon="-4.85097">
        <ele>48.81</ele>
        <time>2021-03-20T15:08:26Z</time>
      </trkpt>
      <trkpt lat="55.14621" lon="-4.85189">
        <ele>44.52</ele>
        <time>2021-03-20T15:08:28Z</time>
      </trkpt>
      <trkpt lat="55.1461" lon="-4.8525">
        <ele>41.84</ele>
        <time>2021-03-20T15:08:31Z</time>
      </trkpt>
      <trkpt lat="55.14607" lon="-4.85279">
        <ele>41.6</ele>
        <time>2021-03-20T15:08:33Z</time>
      </trkpt>
      <trkpt lat="55.14607" lon="-4.85308">
        <ele>42.51</ele>
        <time>2021-03-20T15:08:36Z</time>
      </trkpt>
      <trkpt lat="55.14605" lon="-4.85331">
        <ele>42.89</ele>
        <time>2021-03-20T15:08:38Z</time>
      </trkpt>
      <trkpt lat="55.14599" lon="-4.85353">
        <ele>42.47</ele>
        <time>2021-03-20T15:08:40Z</time>
      </trkpt>
      <trkpt lat="55.14585" lon="-4.85389">
        <ele>40.24</ele>
        <time>2021-03-20T15:08:43Z</time>
      </trkpt>
      <trkpt lat="55.1458" lon="-4.85414">
        <ele>40.53</ele>
        <time>2021-03-20T15:08:45Z</time>
      </trkpt>
      <trkpt lat="55.14579" lon="-4.85433">
        <ele>41</ele>
        <time>2021-03-20T15:08:48Z</time>
      </trkpt>
      <trkpt lat="55.14583" lon="-4.85456">
        <ele>41.89</ele>
        <time>2021-03-20T15:08:50Z</time>
      </trkpt>
      <trkpt lat="55.14598" lon="-4.85501">
        <ele>43.06</ele>
        <time>2021-03-20T15:08:53Z</time>
      </trkpt>
      <trkpt lat="55.14601" lon="-4.85546">
        <ele>42.93</ele>
        <time>2021-03-20T15:08:55Z</time>
      </trkpt>
      <trkpt lat="55.14598" lon="-4.85582">
        <ele>44.47</ele>
        <time>2021-03-20T15:08:57Z</time>
      </trkpt>
      <trkpt lat="55.14567" lon="-4.85738">
        <ele>45.85</ele>
        <time>2021-03-20T15:09:00Z</time>
      </trkpt>
      <trkpt lat="55.14552" lon="-4.85826">
        <ele>47.63</ele>
        <time>2021-03-20T15:09:02Z</time>
      </trkpt>
      <trkpt lat="55.14541" lon="-4.85873">
        <ele>48.69</ele>
        <time>2021-03-20T15:09:05Z</time>
      </trkpt>
      <trkpt lat="55.1447" lon="-4.86125">
        <ele>48.32</ele>
        <time>2021-03-20T15:09:07Z</time>
      </trkpt>
      <trkpt lat="55.14439" lon="-4.86249">
        <ele>50.81</ele>
        <time>2021-03-20T15:09:10Z</time>
      </trkpt>
      <trkpt lat="55.14421" lon="-4.86311">
        <ele>48.17</ele>
        <time>2021-03-20T15:09:12Z</time>
      </trkpt>
      <trkpt lat="55.14401" lon="-4.86363">
        <ele>45.81</ele>
        <time>2021-03-20T15:09:14Z</time>
      </trkpt>
      <trkpt lat="55.14347" lon="-4.86494">
        <ele>44.69</ele>
        <time>2021-03-20T15:09:17Z</time>
      </trkpt>
      <trkpt lat="55.14333" lon="-4.86539">
        <ele>44.33</ele>
        <time>2021-03-20T15:09:19Z</time>
      </trkpt>
      <trkpt lat="55.14318" lon="-4.866">
        <ele>44.39</ele>
        <time>2021-03-20T15:09:22Z</time>
      </trkpt>
      <trkpt lat="55.14308" lon="-4.86656">
        <ele>44.99</ele>
        <time>2021-03-20T15:09:24Z</time>
      </trkpt>
      <trkpt lat="55.14299" lon="-4.86714">
        <ele>48.33</ele>
        <time>2021-03-20T15:09:27Z</time>
      </trkpt>
      <trkpt lat="55.14236" lon="-4.86889">
        <ele>47.46</ele>
        <time>2021-03-20T15:09:29Z</time>
      </trkpt>
      <trkpt lat="55.14197" lon="-4.87011">
        <ele>50.64</ele>
        <time>2021-03-20T15:09:32Z</time>
      </trkpt>
      <trkpt lat="55.14176" lon="-4.87097">
        <ele>50.72</ele>
        <time>2021-03-20T15:09:34Z</time>
      </trkpt>
      <trkpt lat="55.1414" lon="-4.87269">
        <ele>53.79</ele>
        <time>2021-03-20T15:09:36Z</time>
      </trkpt>
      <trkpt lat="55.14124" lon="-4.87352">
        <ele>53.15</ele>
        <time>2021-03-20T15:09:39Z</time>
      </trkpt>
      <trkpt lat="55.14114" lon="-4.87418">
        <ele>54</ele>
        <time>2021-03-20T15:09:41Z</time>
      </trkpt>
      <trkpt lat="55.14106" lon="-4.87451">
        <ele>54.06</ele>
        <time>2021-03-20T15:09:44Z</time>
      </trkpt>
      <trkpt lat="55.14085" lon="-4.87513">
        <ele>54.06</ele>
        <time>2021-03-20T15:09:46Z</time>
      </trkpt>
      <trkpt lat="55.14071" lon="-4.87593">
        <ele>52.71</ele>
        <time>2021-03-20T15:09:49Z</time>
      </trkpt>
      <trkpt lat="55.14065" lon="-4.87652">
        <ele>53.31</ele>
        <time>2021-03-20T15:09:51Z</time>
      </trkpt>
      <trkpt lat="55.14056" lon="-4.87693">
        <ele>54.01</ele>
        <time>2021-03-20T15:09:53Z</time>
      </trkpt>
      <trkpt lat="55.14027" lon="-4.87795">
        <ele>49.88</ele>
        <time>2021-03-20T15:09:56Z</time>
      </trkpt>
      <trkpt lat="55.14005" lon="-4.87906">
        <ele>48.44</ele>
        <time>2021-03-20T15:09:58Z</time>
      </trkpt>
      <trkpt lat="55.13986" lon="-4.8798">
        <ele>47.71</ele>
        <time>2021-03-20T15:10:01Z</time>
      </trkpt>
      <trkpt lat="55.13943" lon="-4.88119">
        <ele>46.17</ele>
        <time>2021-03-20T15:10:03Z</time>
      </trkpt>
      <trkpt lat="55.13887" lon="-4.88351">
        <ele>49.06</ele>
        <time>2021-03-20T15:10:06Z</time>
      </trkpt>
      <trkpt lat="55.13882" lon="-4.88392">
        <ele>50.38</ele>
        <time>2021-03-20T15:10:08Z</time>
      </trkpt>
      <trkpt lat="55.13879" lon="-4.88445">
        <ele>51.88</ele>
        <time>2021-03-20T15:10:10Z</time>
      </trkpt>
      <trkpt lat="55.1388" lon="-4.88498">
        <ele>52.32</ele>
        <time>2021-03-20T15:10:13Z</time>
      </trkpt>
      <trkpt lat="55.13907" lon="-4.88833">
        <ele>53.33</ele>
        <time>2021-03-20T15:10:15Z</time>
      </trkpt>
      <trkpt lat="55.1392" lon="-4.88897">
        <ele>54.21</ele>
        <time>2021-03-20T15:10:18Z</time>
      </trkpt>
      <trkpt lat="55.13934" lon="-4.88937">
        <ele>54.83</ele>
        <time>2021-03-20T15:10:20Z</time>
      </trkpt>
      <trkpt lat="55.13958" lon="-4.88987">
        <ele>55.2</ele>
        <time>2021-03-20T15:10:23Z</time>
      </trkpt>
      <trkpt lat="55.13967" lon="-4.89034">
        <ele>54.98</ele>
        <time>2021-03-20T15:10:25Z</time>
      </trkpt>
      <trkpt lat="55.13969" lon="-4.89064">
        <ele>55.16</ele>
        <time>2021-03-20T15:10:27Z</time>
      </trkpt>
      <trkpt lat="55.13959" lon="-4.89151">
        <ele>53.94</ele>
        <time>2021-03-20T15:10:30Z</time>
      </trkpt>
      <trkpt lat="55.1394" lon="-4.8922">
        <ele>53.17</ele>
        <time>2021-03-20T15:10:32Z</time>
      </trkpt>
      <trkpt lat="55.13918" lon="-4.89315">
        <ele>52.65</ele>
        <time>2021-03-20T15:10:35Z</time>
      </trkpt>
      <trkpt lat="55.13885" lon="-4.89384">
        <ele>47.06</ele>
        <time>2021-03-20T15:10:37Z</time>
      </trkpt>
      <trkpt lat="55.1388" lon="-4.89431">
        <ele>47.87</ele>
        <time>2021-03-20T15:10:40Z</time>
      </trkpt>
      <trkpt lat="55.13888" lon="-4.8962">
        <ele>47.27</ele>
        <time>2021-03-20T15:10:42Z</time>
      </trkpt>
      <trkpt lat="55.13875" lon="-4.89674">
        <ele>48</ele>
        <time>2021-03-20T15:10:45Z</time>
      </trkpt>
      <trkpt lat="55.13835" lon="-4.89759">
        <ele>50.48</ele>
        <time>2021-03-20T15:10:47Z</time>
      </trkpt>
      <trkpt lat="55.13768" lon="-4.89892">
        <ele>50.25</ele>
        <time>2021-03-20T15:10:49Z</time>
      </trkpt>
      <trkpt lat="55.13744" lon="-4.89933">
        <ele>51.23</ele>
        <time>2021-03-20T15:10:52Z</time>
      </trkpt>
      <trkpt lat="55.13717" lon="-4.89974">
        <ele>50.45</ele>
        <time>2021-03-20T15:10:54Z</time>
      </trkpt>
      <trkpt lat="55.13607" lon="-4.90096">
        <ele>48.23</ele>
        <time>2021-03-20T15:10:57Z</time>
      </trkpt>
      <trkpt lat="55.13572" lon="-4.90165">
        <ele>46.4</ele>
        <time>2021-03-20T15:10:59Z</time>
      </trkpt>
      <trkpt lat="55.13488" lon="-4.90284">
        <ele>43.44</ele>
        <time>2021-03-20T15:11:02Z</time>
      </trkpt>
      <trkpt lat="55.13447" lon="-4.90367">
        <ele>44</ele>
        <time>2021-03-20T15:11:04Z</time>
      </trkpt>
      <trkpt lat="55.13408" lon="-4.90466">
        <ele>43.07</ele>
        <time>2021-03-20T15:11:06Z</time>
      </trkpt>
      <trkpt lat="55.13365" lon="-4.90583">
        <ele>41.02</ele>
        <time>2021-03-20T15:11:09Z</time>
      </trkpt>
      <trkpt lat="55.133" lon="-4.90773">
        <ele>36.41</ele>
        <time>2021-03-20T15:11:11Z</time>
      </trkpt>
      <trkpt lat="55.13261" lon="-4.90877">
        <ele>39.97</ele>
        <time>2021-03-20T15:11:14Z</time>
      </trkpt>
      <trkpt lat="55.13211" lon="-4.91096">
        <ele>40.77</ele>
        <time>2021-03-20T15:11:16Z</time>
      </trkpt>
      <trkpt lat="55.13312" lon="-4.9118">
        <ele>38.49</ele>
        <time>2021-03-20T15:11:19Z</time>
      </trkpt>
      <trkpt lat="55.13328" lon="-4.91198">
        <ele>38.4</ele>
        <time>2021-03-20T15:11:22Z</time>
      </trkpt>
      <trkpt lat="55.13338" lon="-4.91214">
        <ele>37.73</ele>
        <time>2021-03-20T15:11:25Z</time>
      </trkpt>
      <trkpt lat="55.13349" lon="-4.91253">
        <ele>35.46</ele>
        <time>2021-03-20T15:11:28Z</time>
      </trkpt>
      <trkpt lat="55.1337" lon="-4.91395">
        <ele>33.71</ele>
        <time>2021-03-20T15:11:31Z</time>
      </trkpt>
      <trkpt lat="55.13377" lon="-4.91426">
        <ele>34.74</ele>
        <time>2021-03-20T15:11:34Z</time>
      </trkpt>
      <trkpt lat="55.13378" lon="-4.91436">
        <ele>34.81</ele>
        <time>2021-03-20T15:11:37Z</time>
      </trkpt>
      <trkpt lat="55.13376" lon="-4.91455">
        <ele>35.16</ele>
        <time>2021-03-20T15:11:40Z</time>
      </trkpt>
      <trkpt lat="55.13296" lon="-4.91801">
        <ele>39.93</ele>
        <time>2021-03-20T15:11:43Z</time>
      </trkpt>
      <trkpt lat="55.13231" lon="-4.92024">
        <ele>49.58</ele>
        <time>2021-03-20T15:11:46Z</time>
      </trkpt>
      <trkpt lat="55.13203" lon="-4.92237">
        <ele>58.36</ele>
        <time>2021-03-20T15:11:49Z</time>
      </trkpt>
      <trkpt lat="55.13191" lon="-4.923">
        <ele>60.13</ele>
        <time>2021-03-20T15:11:52Z</time>
      </trkpt>
      <trkpt lat="55.13166" lon="-4.92371">
        <ele>61.29</ele>
        <time>2021-03-20T15:11:55Z</time>
      </trkpt>
      <trkpt lat="55.13147" lon="-4.92416">
        <ele>60.17</ele>
        <time>2021-03-20T15:11:58Z</time>
      </trkpt>
      <trkpt lat="55.1313" lon="-4.92624">
        <ele>59.71</ele>
        <time>2021-03-20T15:12:01Z</time>
      </trkpt>
      <trkpt lat="55.13136" lon="-4.92777">
        <ele>58.91</ele>
        <time>2021-03-20T15:12:05Z</time>
      </trkpt>
      <trkpt lat="55.13168" lon="-4.93178">
        <ele>61.83</ele>
        <time>2021-03-20T15:12:08Z</time>
      </trkpt>
      <trkpt lat="55.13172" lon="-4.93261">
        <ele>61.13</ele>
        <time>2021-03-20T15:12:11Z</time>
      </trkpt>
      <trkpt lat="55.13172" lon="-4.93365">
        <ele>60.14</ele>
        <time>2021-03-20T15:12:14Z</time>
      </trkpt>
      <trkpt lat="55.13176" lon="-4.93419">
        <ele>60.65</ele>
        <time>2021-03-20T15:12:17Z</time>
      </trkpt>
      <trkpt lat="55.13204" lon="-4.93557">
        <ele>61.63</ele>
        <time>2021-03-20T15:12:20Z</time>
      </trkpt>
      <trkpt lat="55.13203" lon="-4.93586">
        <ele>61.61</ele>
        <time>2021-03-20T15:12:23Z</time>
      </trkpt>
      <trkpt lat="55.13103" lon="-4.94015">
        <ele>60.98</ele>
        <time>2021-03-20T15:12:26Z</time>
      </trkpt>
      <trkpt lat="55.131" lon="-4.9405">
        <ele>61.49</ele>
        <time>2021-03-20T15:12:29Z</time>
      </trkpt>
      <trkpt lat="55.13096" lon="-4.94112">
        <ele>61.99</ele>
        <time>2021-03-20T15:12:32Z</time>
      </trkpt>
      <trkpt lat="55.1309" lon="-4.94133">
        <ele>61.4</ele>
        <time>2021-03-20T15:12:35Z</time>
      </trkpt>
      <trkpt lat="55.13079" lon="-4.94152">
        <ele>61</ele>
        <time>2021-03-20T15:12:38Z</time>
      </trkpt>
      <trkpt lat="55.13045" lon="-4.94229">
        <ele>58.32</ele>
        <time>2021-03-20T15:12:41Z</time>
      </trkpt>
      <trkpt lat="55.13041" lon="-4.94284">
        <ele>57.76</ele>
        <time>2021-03-20T15:12:44Z</time>
      </trkpt>
      <trkpt lat="55.1304" lon="-4.94374">
        <ele>59.45</ele>
        <time>2021-03-20T15:12:47Z</time>
      </trkpt>
      <trkpt lat="55.13034" lon="-4.94499">
        <ele>59.78</ele>
        <time>2021-03-20T15:12:50Z</time>
      </trkpt>
      <trkpt lat="55.13018" lon="-4.94588">
        <ele>58.65</ele>
        <time>2021-03-20T15:12:53Z</time>
      </trkpt>
      <trkpt lat="55.13008" lon="-4.94613">
        <ele>58.21</ele>
        <time>2021-03-20T15:12:56Z</time>
      </trkpt>
      <trkpt lat="55.12932" lon="-4.94674">
        <ele>54.81</ele>
        <time>2021-03-20T15:12:59Z</time>
      </trkpt>
      <trkpt lat="55.12922" lon="-4.94696">
        <ele>54.36</ele>
        <time>2021-03-20T15:13:02Z</time>
      </trkpt>
      <trkpt lat="55.12912" lon="-4.94697">
        <ele>53.68</ele>
        <time>2021-03-20T15:13:05Z</time>
      </trkpt>
      <trkpt lat="55.12826" lon="-4.94789">
        <ele>50.59</ele>
        <time>2021-03-20T15:13:08Z</time>
      </trkpt>
      <trkpt lat="55.12789" lon="-4.94845">
        <ele>47.75</ele>
        <time>2021-03-20T15:13:10Z</time>
      </trkpt>
      <trkpt lat="55.1278" lon="-4.94852">
        <ele>46.9</ele>
        <time>2021-03-20T15:13:13Z</time>
      </trkpt>
      <trkpt lat="55.12766" lon="-4.94853">
        <ele>46.99</ele>
        <time>2021-03-20T15:13:16Z</time>
      </trkpt>
      <trkpt lat="55.12641" lon="-4.94699">
        <ele>56</ele>
        <time>2021-03-20T15:13:19Z</time>
      </trkpt>
      <trkpt lat="55.12621" lon="-4.94671">
        <ele>55.25</ele>
        <time>2021-03-20T15:13:22Z</time>
      </trkpt>
      <trkpt lat="55.12537" lon="-4.94487">
        <ele>52.3</ele>
        <time>2021-03-20T15:13:25Z</time>
      </trkpt>
      <trkpt lat="55.12449" lon="-4.94408">
        <ele>45.01</ele>
        <time>2021-03-20T15:13:27Z</time>
      </trkpt>
      <trkpt lat="55.12424" lon="-4.94406">
        <ele>44.3</ele>
        <time>2021-03-20T15:13:30Z</time>
      </trkpt>
      <trkpt lat="55.1238" lon="-4.94422">
        <ele>43.04</ele>
        <time>2021-03-20T15:13:33Z</time>
      </trkpt>
      <trkpt lat="55.12309" lon="-4.94507">
        <ele>45.24</ele>
        <time>2021-03-20T15:13:36Z</time>
      </trkpt>
      <trkpt lat="55.12281" lon="-4.94602">
        <ele>49.84</ele>
        <time>2021-03-20T15:13:39Z</time>
      </trkpt>
      <trkpt lat="55.12259" lon="-4.94746">
        <ele>49.77</ele>
        <time>2021-03-20T15:13:42Z</time>
      </trkpt>
      <trkpt lat="55.12256" lon="-4.94809">
        <ele>52.65</ele>
        <time>2021-03-20T15:13:44Z</time>
      </trkpt>
      <trkpt lat="55.12237" lon="-4.94878">
        <ele>53.5</ele>
        <time>2021-03-20T15:13:47Z</time>
      </trkpt>
      <trkpt lat="55.12167" lon="-4.95034">
        <ele>50.48</ele>
        <time>2021-03-20T15:13:50Z</time>
      </trkpt>
      <trkpt lat="55.12089" lon="-4.95229">
        <ele>51.03</ele>
        <time>2021-03-20T15:13:53Z</time>
      </trkpt>
      <trkpt lat="55.11984" lon="-4.95409">
        <ele>48.63</ele>
        <time>2021-03-20T15:13:56Z</time>
      </trkpt>
      <trkpt lat="55.11946" lon="-4.95493">
        <ele>50.44</ele>
        <time>2021-03-20T15:13:59Z</time>
      </trkpt>
      <trkpt lat="55.11674" lon="-4.95736">
        <ele>26.73</ele>
        <time>2021-03-20T15:14:01Z</time>
      </trkpt>
      <trkpt lat="55.11609" lon="-4.95923">
        <ele>24.85</ele>
        <time>2021-03-20T15:14:04Z</time>
      </trkpt>
      <trkpt lat="55.11592" lon="-4.96044">
        <ele>27.86</ele>
        <time>2021-03-20T15:14:07Z</time>
      </trkpt>
      <trkpt lat="55.11587" lon="-4.9614">
        <ele>29.63</ele>
        <time>2021-03-20T15:14:10Z</time>
      </trkpt>
      <trkpt lat="55.11571" lon="-4.96176">
        <ele>27.9</ele>
        <time>2021-03-20T15:14:13Z</time>
      </trkpt>
      <trkpt lat="55.11481" lon="-4.96276">
        <ele>20.17</ele>
        <time>2021-03-20T15:14:16Z</time>
      </trkpt>
      <trkpt lat="55.11448" lon="-4.96298">
        <ele>18.69</ele>
        <time>2021-03-20T15:14:18Z</time>
      </trkpt>
      <trkpt lat="55.11423" lon="-4.96303">
        <ele>17.92</ele>
        <time>2021-03-20T15:14:21Z</time>
      </trkpt>
      <trkpt lat="55.11395" lon="-4.96297">
        <ele>18.57</ele>
        <time>2021-03-20T15:14:24Z</time>
      </trkpt>
      <trkpt lat="55.11376" lon="-4.96281">
        <ele>19.25</ele>
        <time>2021-03-20T15:14:27Z</time>
      </trkpt>
      <trkpt lat="55.11347" lon="-4.96237">
        <ele>17.8</ele>
        <time>2021-03-20T15:14:30Z</time>
      </trkpt>
      <trkpt lat="55.11318" lon="-4.96232">
        <ele>19.59</ele>
        <time>2021-03-20T15:14:33Z</time>
      </trkpt>
      <trkpt lat="55.1122" lon="-4.96274">
        <ele>19.69</ele>
        <time>2021-03-20T15:14:35Z</time>
      </trkpt>
      <trkpt lat="55.1114" lon="-4.9628">
        <ele>17.09</ele>
        <time>2021-03-20T15:14:38Z</time>
      </trkpt>
      <trkpt lat="55.11102" lon="-4.96292">
        <ele>16.85</ele>
        <time>2021-03-20T15:14:41Z</time>
      </trkpt>
      <trkpt lat="55.11074" lon="-4.96308">
        <ele>15.7</ele>
        <time>2021-03-20T15:14:44Z</time>
      </trkpt>
      <trkpt lat="55.11054" lon="-4.96328">
        <ele>14.94</ele>
        <time>2021-03-20T15:14:47Z</time>
      </trkpt>
      <trkpt lat="55.11033" lon="-4.96359">
        <ele>15.11</ele>
        <time>2021-03-20T15:14:50Z</time>
      </trkpt>
      <trkpt lat="55.11013" lon="-4.96402">
        <ele>15.4</ele>
        <time>2021-03-20T15:14:52Z</time>
      </trkpt>
      <trkpt lat="55.11004" lon="-4.9643">
        <ele>15.33</ele>
        <time>2021-03-20T15:14:55Z</time>
      </trkpt>
      <trkpt lat="55.11" lon="-4.96453">
        <ele>15.3</ele>
        <time>2021-03-20T15:14:58Z</time>
      </trkpt>
      <trkpt lat="55.10995" lon="-4.9651">
        <ele>16.61</ele>
        <time>2021-03-20T15:15:01Z</time>
      </trkpt>
      <trkpt lat="55.10985" lon="-4.96559">
        <ele>16.29</ele>
        <time>2021-03-20T15:15:04Z</time>
      </trkpt>
      <trkpt lat="55.10965" lon="-4.96624">
        <ele>13.69</ele>
        <time>2021-03-20T15:15:07Z</time>
      </trkpt>
      <trkpt lat="55.10934" lon="-4.96766">
        <ele>16.74</ele>
        <time>2021-03-20T15:15:09Z</time>
      </trkpt>
      <trkpt lat="55.10898" lon="-4.969">
        <ele>18.74</ele>
        <time>2021-03-20T15:15:12Z</time>
      </trkpt>
      <trkpt lat="55.10895" lon="-4.96954">
        <ele>20.17</ele>
        <time>2021-03-20T15:15:15Z</time>
      </trkpt>
      <trkpt lat="55.10882" lon="-4.97014">
        <ele>21.91</ele>
        <time>2021-03-20T15:15:18Z</time>
      </trkpt>
      <trkpt lat="55.10834" lon="-4.97153">
        <ele>18.57</ele>
        <time>2021-03-20T15:15:21Z</time>
      </trkpt>
      <trkpt lat="55.10804" lon="-4.97258">
        <ele>18.43</ele>
        <time>2021-03-20T15:15:24Z</time>
      </trkpt>
      <trkpt lat="55.10772" lon="-4.97321">
        <ele>19.31</ele>
        <time>2021-03-20T15:15:26Z</time>
      </trkpt>
      <trkpt lat="55.10686" lon="-4.97471">
        <ele>18.05</ele>
        <time>2021-03-20T15:15:29Z</time>
      </trkpt>
      <trkpt lat="55.10634" lon="-4.97595">
        <ele>15.89</ele>
        <time>2021-03-20T15:15:32Z</time>
      </trkpt>
      <trkpt lat="55.10615" lon="-4.97646">
        <ele>16.66</ele>
        <time>2021-03-20T15:15:35Z</time>
      </trkpt>
      <trkpt lat="55.10589" lon="-4.97818">
        <ele>21.19</ele>
        <time>2021-03-20T15:15:38Z</time>
      </trkpt>
      <trkpt lat="55.10551" lon="-4.97924">
        <ele>21.88</ele>
        <time>2021-03-20T15:15:41Z</time>
      </trkpt>
      <trkpt lat="55.10527" lon="-4.9797">
        <ele>21.74</ele>
        <time>2021-03-20T15:15:43Z</time>
      </trkpt>
      <trkpt lat="55.10507" lon="-4.98015">
        <ele>20.26</ele>
        <time>2021-03-20T15:15:46Z</time>
      </trkpt>
      <trkpt lat="55.10479" lon="-4.981">
        <ele>19.03</ele>
        <time>2021-03-20T15:15:49Z</time>
      </trkpt>
      <trkpt lat="55.10452" lon="-4.98151">
        <ele>15.78</ele>
        <time>2021-03-20T15:15:52Z</time>
      </trkpt>
      <trkpt lat="55.10443" lon="-4.98188">
        <ele>17.19</ele>
        <time>2021-03-20T15:15:55Z</time>
      </trkpt>
      <trkpt lat="55.10432" lon="-4.9822">
        <ele>18.56</ele>
        <time>2021-03-20T15:15:58Z</time>
      </trkpt>
      <trkpt lat="55.10387" lon="-4.98286">
        <ele>17.74</ele>
        <time>2021-03-20T15:16:00Z</time>
      </trkpt>
      <trkpt lat="55.10374" lon="-4.98336">
        <ele>20.08</ele>
        <time>2021-03-20T15:16:03Z</time>
      </trkpt>
      <trkpt lat="55.10316" lon="-4.98443">
        <ele>22.75</ele>
        <time>2021-03-20T15:16:06Z</time>
      </trkpt>
      <trkpt lat="55.10291" lon="-4.98531">
        <ele>23.08</ele>
        <time>2021-03-20T15:16:09Z</time>
      </trkpt>
      <trkpt lat="55.10264" lon="-4.98583">
        <ele>21.52</ele>
        <time>2021-03-20T15:16:12Z</time>
      </trkpt>
      <trkpt lat="55.1021" lon="-4.9872">
        <ele>19.72</ele>
        <time>2021-03-20T15:16:15Z</time>
      </trkpt>
      <trkpt lat="55.10158" lon="-4.9894">
        <ele>17.71</ele>
        <time>2021-03-20T15:16:17Z</time>
      </trkpt>
      <trkpt lat="55.10145" lon="-4.98984">
        <ele>16.75</ele>
        <time>2021-03-20T15:16:20Z</time>
      </trkpt>
      <trkpt lat="55.10106" lon="-4.99083">
        <ele>15.94</ele>
        <time>2021-03-20T15:16:23Z</time>
      </trkpt>
      <trkpt lat="55.10089" lon="-4.99146">
        <ele>16.62</ele>
        <time>2021-03-20T15:16:26Z</time>
      </trkpt>
      <trkpt lat="55.10066" lon="-4.99223">
        <ele>14.65</ele>
        <time>2021-03-20T15:16:29Z</time>
      </trkpt>
      <trkpt lat="55.10032" lon="-4.99366">
        <ele>16.58</ele>
        <time>2021-03-20T15:16:32Z</time>
      </trkpt>
      <trkpt lat="55.10009" lon="-4.99471">
        <ele>19.89</ele>
        <time>2021-03-20T15:16:34Z</time>
      </trkpt>
      <trkpt lat="55.09928" lon="-4.99714">
        <ele>18.63</ele>
        <time>2021-03-20T15:16:37Z</time>
      </trkpt>
      <trkpt lat="55.0989" lon="-4.99803">
        <ele>11.24</ele>
        <time>2021-03-20T15:16:40Z</time>
      </trkpt>
      <trkpt lat="55.09875" lon="-4.99943">
        <ele>13.4</ele>
        <time>2021-03-20T15:16:43Z</time>
      </trkpt>
      <trkpt lat="55.09866" lon="-4.99998">
        <ele>12.22</ele>
        <time>2021-03-20T15:16:46Z</time>
      </trkpt>
      <trkpt lat="55.09856" lon="-5.00044">
        <ele>11.07</ele>
        <time>2021-03-20T15:16:49Z</time>
      </trkpt>
      <trkpt lat="55.09855" lon="-5.00064">
        <ele>10.63</ele>
        <time>2021-03-20T15:16:51Z</time>
      </trkpt>
      <trkpt lat="55.09858" lon="-5.00104">
        <ele>10.49</ele>
        <time>2021-03-20T15:16:54Z</time>
      </trkpt>
      <trkpt lat="55.09848" lon="-5.00128">
        <ele>8.38</ele>
        <time>2021-03-20T15:16:57Z</time>
      </trkpt>
      <trkpt lat="55.0983" lon="-5.00102">
        <ele>5.87</ele>
        <time>2021-03-20T15:17:01Z</time>
      </trkpt>
      <trkpt lat="55.09688" lon="-4.99942">
        <ele>4</ele>
        <time>2021-03-20T15:17:06Z</time>
      </trkpt>
      <trkpt lat="55.0966" lon="-4.99905">
        <ele>3.44</ele>
        <time>2021-03-20T15:17:10Z</time>
      </trkpt>
      <trkpt lat="55.09616" lon="-4.99827">
        <ele>4.81</ele>
        <time>2021-03-20T15:17:14Z</time>
      </trkpt>
      <trkpt lat="55.09585" lon="-4.99732">
        <ele>5.98</ele>
        <time>2021-03-20T15:17:18Z</time>
      </trkpt>
      <trkpt lat="55.09568" lon="-4.99661">
        <ele>7.77</ele>
        <time>2021-03-20T15:17:22Z</time>
      </trkpt>
      <trkpt lat="55.09556" lon="-4.996">
        <ele>11.36</ele>
        <time>2021-03-20T15:17:27Z</time>
      </trkpt>
      <trkpt lat="55.09483" lon="-4.99181">
        <ele>24.85</ele>
        <time>2021-03-20T15:17:31Z</time>
      </trkpt>
      <trkpt lat="55.0947" lon="-4.99127">
        <ele>25.44</ele>
        <time>2021-03-20T15:17:35Z</time>
      </trkpt>
      <trkpt lat="55.0946" lon="-4.99096">
        <ele>26.25</ele>
        <time>2021-03-20T15:17:39Z</time>
      </trkpt>
      <trkpt lat="55.09433" lon="-4.99074">
        <ele>28.19</ele>
        <time>2021-03-20T15:17:44Z</time>
      </trkpt>
      <trkpt lat="55.09416" lon="-4.99073">
        <ele>29.54</ele>
        <time>2021-03-20T15:17:48Z</time>
      </trkpt>
      <trkpt lat="55.09401" lon="-4.9908">
        <ele>31.44</ele>
        <time>2021-03-20T15:17:52Z</time>
      </trkpt>
      <trkpt lat="55.09389" lon="-4.99095">
        <ele>32.56</ele>
        <time>2021-03-20T15:17:56Z</time>
      </trkpt>
      <trkpt lat="55.09379" lon="-4.99113">
        <ele>33.38</ele>
        <time>2021-03-20T15:18:00Z</time>
      </trkpt>
      <trkpt lat="55.09371" lon="-4.9914">
        <ele>32.95</ele>
        <time>2021-03-20T15:18:05Z</time>
      </trkpt>
      <trkpt lat="55.09356" lon="-4.99216">
        <ele>33.81</ele>
        <time>2021-03-20T15:18:09Z</time>
      </trkpt>
      <trkpt lat="55.09339" lon="-4.99274">
        <ele>35.14</ele>
        <time>2021-03-20T15:18:13Z</time>
      </trkpt>
      <trkpt lat="55.09319" lon="-4.9933">
        <ele>38.6</ele>
        <time>2021-03-20T15:18:17Z</time>
      </trkpt>
      <trkpt lat="55.09303" lon="-4.99364">
        <ele>41.34</ele>
        <time>2021-03-20T15:18:21Z</time>
      </trkpt>
      <trkpt lat="55.09262" lon="-4.99435">
        <ele>43.31</ele>
        <time>2021-03-20T15:18:26Z</time>
      </trkpt>
      <trkpt lat="55.09234" lon="-4.99509">
        <ele>41.29</ele>
        <time>2021-03-20T15:18:30Z</time>
      </trkpt>
      <trkpt lat="55.09222" lon="-4.99536">
        <ele>41.76</ele>
        <time>2021-03-20T15:18:34Z</time>
      </trkpt>
      <trkpt lat="55.09211" lon="-4.99553">
        <ele>42.76</ele>
        <time>2021-03-20T15:18:38Z</time>
      </trkpt>
      <trkpt lat="55.09199" lon="-4.99566">
        <ele>43.65</ele>
        <time>2021-03-20T15:18:43Z</time>
      </trkpt>
      <trkpt lat="55.09181" lon="-4.99576">
        <ele>44.04</ele>
        <time>2021-03-20T15:18:47Z</time>
      </trkpt>
      <trkpt lat="55.09045" lon="-4.99617">
        <ele>50.51</ele>
        <time>2021-03-20T15:18:51Z</time>
      </trkpt>
      <trkpt lat="55.09" lon="-4.99613">
        <ele>52.84</ele>
        <time>2021-03-20T15:18:55Z</time>
      </trkpt>
      <trkpt lat="55.08968" lon="-4.996">
        <ele>53.48</ele>
        <time>2021-03-20T15:18:59Z</time>
      </trkpt>
      <trkpt lat="55.08951" lon="-4.99587">
        <ele>54.53</ele>
        <time>2021-03-20T15:19:04Z</time>
      </trkpt>
      <trkpt lat="55.08936" lon="-4.99567">
        <ele>55.89</ele>
        <time>2021-03-20T15:19:08Z</time>
      </trkpt>
      <trkpt lat="55.08926" lon="-4.99543">
        <ele>57.2</ele>
        <time>2021-03-20T15:19:12Z</time>
      </trkpt>
      <trkpt lat="55.08903" lon="-4.99473">
        <ele>61.46</ele>
        <time>2021-03-20T15:19:16Z</time>
      </trkpt>
      <trkpt lat="55.08873" lon="-4.99334">
        <ele>66.41</ele>
        <time>2021-03-20T15:19:21Z</time>
      </trkpt>
      <trkpt lat="55.08858" lon="-4.99285">
        <ele>67.94</ele>
        <time>2021-03-20T15:19:25Z</time>
      </trkpt>
      <trkpt lat="55.08809" lon="-4.99204">
        <ele>73.48</ele>
        <time>2021-03-20T15:19:29Z</time>
      </trkpt>
      <trkpt lat="55.0879" lon="-4.99151">
        <ele>75</ele>
        <time>2021-03-20T15:19:33Z</time>
      </trkpt>
      <trkpt lat="55.08777" lon="-4.99096">
        <ele>75.54</ele>
        <time>2021-03-20T15:19:37Z</time>
      </trkpt>
      <trkpt lat="55.0876" lon="-4.99052">
        <ele>77.13</ele>
        <time>2021-03-20T15:19:42Z</time>
      </trkpt>
      <trkpt lat="55.08707" lon="-4.9899">
        <ele>80.36</ele>
        <time>2021-03-20T15:19:46Z</time>
      </trkpt>
      <trkpt lat="55.08683" lon="-4.98948">
        <ele>81.43</ele>
        <time>2021-03-20T15:19:50Z</time>
      </trkpt>
      <trkpt lat="55.08666" lon="-4.98899">
        <ele>81.59</ele>
        <time>2021-03-20T15:19:54Z</time>
      </trkpt>
      <trkpt lat="55.0866" lon="-4.9878">
        <ele>84.65</ele>
        <time>2021-03-20T15:19:59Z</time>
      </trkpt>
      <trkpt lat="55.08646" lon="-4.98646">
        <ele>85.25</ele>
        <time>2021-03-20T15:20:03Z</time>
      </trkpt>
      <trkpt lat="55.08649" lon="-4.98506">
        <ele>85.73</ele>
        <time>2021-03-20T15:20:07Z</time>
      </trkpt>
      <trkpt lat="55.08633" lon="-4.98368">
        <ele>86.36</ele>
        <time>2021-03-20T15:20:11Z</time>
      </trkpt>
      <trkpt lat="55.08622" lon="-4.97883">
        <ele>99.97</ele>
        <time>2021-03-20T15:20:15Z</time>
      </trkpt>
      <trkpt lat="55.08622" lon="-4.97756">
        <ele>104.99</ele>
        <time>2021-03-20T15:20:20Z</time>
      </trkpt>
      <trkpt lat="55.08612" lon="-4.97709">
        <ele>106.51</ele>
        <time>2021-03-20T15:20:24Z</time>
      </trkpt>
      <trkpt lat="55.0859" lon="-4.97678">
        <ele>106.95</ele>
        <time>2021-03-20T15:20:28Z</time>
      </trkpt>
      <trkpt lat="55.08562" lon="-4.97674">
        <ele>106.75</ele>
        <time>2021-03-20T15:20:32Z</time>
      </trkpt>
      <trkpt lat="55.08529" lon="-4.97683">
        <ele>106.99</ele>
        <time>2021-03-20T15:20:37Z</time>
      </trkpt>
      <trkpt lat="55.0848" lon="-4.97718">
        <ele>112.25</ele>
        <time>2021-03-20T15:20:41Z</time>
      </trkpt>
      <trkpt lat="55.08436" lon="-4.97758">
        <ele>111.81</ele>
        <time>2021-03-20T15:20:45Z</time>
      </trkpt>
      <trkpt lat="55.08379" lon="-4.97762">
        <ele>114.19</ele>
        <time>2021-03-20T15:20:49Z</time>
      </trkpt>
      <trkpt lat="55.08317" lon="-4.97718">
        <ele>114.17</ele>
        <time>2021-03-20T15:20:53Z</time>
      </trkpt>
      <trkpt lat="55.0828" lon="-4.97704">
        <ele>115.6</ele>
        <time>2021-03-20T15:20:58Z</time>
      </trkpt>
      <trkpt lat="55.0824" lon="-4.97701">
        <ele>117.39</ele>
        <time>2021-03-20T15:21:02Z</time>
      </trkpt>
      <trkpt lat="55.08163" lon="-4.97728">
        <ele>122.92</ele>
        <time>2021-03-20T15:21:06Z</time>
      </trkpt>
      <trkpt lat="55.08128" lon="-4.97728">
        <ele>123.79</ele>
        <time>2021-03-20T15:21:10Z</time>
      </trkpt>
      <trkpt lat="55.08091" lon="-4.97709">
        <ele>124.86</ele>
        <time>2021-03-20T15:21:15Z</time>
      </trkpt>
      <trkpt lat="55.08015" lon="-4.9766">
        <ele>126.79</ele>
        <time>2021-03-20T15:21:19Z</time>
      </trkpt>
      <trkpt lat="55.07994" lon="-4.97649">
        <ele>127.78</ele>
        <time>2021-03-20T15:21:23Z</time>
      </trkpt>
      <trkpt lat="55.07979" lon="-4.97641">
        <ele>128.59</ele>
        <time>2021-03-20T15:21:27Z</time>
      </trkpt>
      <trkpt lat="55.07942" lon="-4.97634">
        <ele>131.91</ele>
        <time>2021-03-20T15:21:31Z</time>
      </trkpt>
      <trkpt lat="55.07904" lon="-4.97638">
        <ele>132.97</ele>
        <time>2021-03-20T15:21:36Z</time>
      </trkpt>
      <trkpt lat="55.07866" lon="-4.9765">
        <ele>133.32</ele>
        <time>2021-03-20T15:21:40Z</time>
      </trkpt>
      <trkpt lat="55.07835" lon="-4.97676">
        <ele>134.96</ele>
        <time>2021-03-20T15:21:44Z</time>
      </trkpt>
      <trkpt lat="55.0781" lon="-4.97718">
        <ele>137.99</ele>
        <time>2021-03-20T15:21:48Z</time>
      </trkpt>
      <trkpt lat="55.0779" lon="-4.97773">
        <ele>139.22</ele>
        <time>2021-03-20T15:21:53Z</time>
      </trkpt>
      <trkpt lat="55.07772" lon="-4.97835">
        <ele>139.8</ele>
        <time>2021-03-20T15:21:57Z</time>
      </trkpt>
      <trkpt lat="55.07734" lon="-4.98025">
        <ele>146.12</ele>
        <time>2021-03-20T15:22:01Z</time>
      </trkpt>
      <trkpt lat="55.07726" lon="-4.98054">
        <ele>146.73</ele>
        <time>2021-03-20T15:22:05Z</time>
      </trkpt>
      <trkpt lat="55.07694" lon="-4.9812">
        <ele>150.62</ele>
        <time>2021-03-20T15:22:09Z</time>
      </trkpt>
      <trkpt lat="55.0766" lon="-4.98145">
        <ele>150.76</ele>
        <time>2021-03-20T15:22:14Z</time>
      </trkpt>
      <trkpt lat="55.07353" lon="-4.98326">
        <ele>157.61</ele>
        <time>2021-03-20T15:22:18Z</time>
      </trkpt>
      <trkpt lat="55.06838" lon="-4.98575">
        <ele>156.58</ele>
        <time>2021-03-20T15:22:22Z</time>
      </trkpt>
      <trkpt lat="55.06718" lon="-4.98639">
        <ele>164.35</ele>
        <time>2021-03-20T15:22:26Z</time>
      </trkpt>
      <trkpt lat="55.06665" lon="-4.98659">
        <ele>165.27</ele>
        <time>2021-03-20T15:22:31Z</time>
      </trkpt>
      <trkpt lat="55.06611" lon="-4.98669">
        <ele>163.91</ele>
        <time>2021-03-20T15:22:35Z</time>
      </trkpt>
      <trkpt lat="55.06556" lon="-4.98671">
        <ele>162.66</ele>
        <time>2021-03-20T15:22:39Z</time>
      </trkpt>
      <trkpt lat="55.06274" lon="-4.98696">
        <ele>162.95</ele>
        <time>2021-03-20T15:22:43Z</time>
      </trkpt>
      <trkpt lat="55.05581" lon="-4.98747">
        <ele>175.32</ele>
        <time>2021-03-20T15:22:47Z</time>
      </trkpt>
      <trkpt lat="55.05531" lon="-4.98748">
        <ele>179.72</ele>
        <time>2021-03-20T15:22:52Z</time>
      </trkpt>
      <trkpt lat="55.05482" lon="-4.9874">
        <ele>183.77</ele>
        <time>2021-03-20T15:22:56Z</time>
      </trkpt>
      <trkpt lat="55.05435" lon="-4.98724">
        <ele>183.4</ele>
        <time>2021-03-20T15:23:00Z</time>
      </trkpt>
      <trkpt lat="55.05364" lon="-4.98685">
        <ele>180.79</ele>
        <time>2021-03-20T15:23:04Z</time>
      </trkpt>
      <trkpt lat="55.05269" lon="-4.98662">
        <ele>177.41</ele>
        <time>2021-03-20T15:23:09Z</time>
      </trkpt>
      <trkpt lat="55.05237" lon="-4.98667">
        <ele>174.05</ele>
        <time>2021-03-20T15:23:13Z</time>
      </trkpt>
      <trkpt lat="55.05147" lon="-4.98695">
        <ele>171.41</ele>
        <time>2021-03-20T15:23:17Z</time>
      </trkpt>
      <trkpt lat="55.05109" lon="-4.98701">
        <ele>166.78</ele>
        <time>2021-03-20T15:23:21Z</time>
      </trkpt>
      <trkpt lat="55.05075" lon="-4.98701">
        <ele>163.73</ele>
        <time>2021-03-20T15:23:25Z</time>
      </trkpt>
      <trkpt lat="55.04986" lon="-4.98737">
        <ele>154.62</ele>
        <time>2021-03-20T15:23:30Z</time>
      </trkpt>
      <trkpt lat="55.04937" lon="-4.98749">
        <ele>151.28</ele>
        <time>2021-03-20T15:23:34Z</time>
      </trkpt>
      <trkpt lat="55.04869" lon="-4.98749">
        <ele>145.43</ele>
        <time>2021-03-20T15:23:38Z</time>
      </trkpt>
      <trkpt lat="55.04836" lon="-4.98758">
        <ele>140.14</ele>
        <time>2021-03-20T15:23:42Z</time>
      </trkpt>
      <trkpt lat="55.04804" lon="-4.9878">
        <ele>136.11</ele>
        <time>2021-03-20T15:23:47Z</time>
      </trkpt>
      <trkpt lat="55.04774" lon="-4.98809">
        <ele>134.32</ele>
        <time>2021-03-20T15:23:51Z</time>
      </trkpt>
      <trkpt lat="55.04746" lon="-4.98847">
        <ele>132.25</ele>
        <time>2021-03-20T15:23:55Z</time>
      </trkpt>
      <trkpt lat="55.0472" lon="-4.98892">
        <ele>130.81</ele>
        <time>2021-03-20T15:23:59Z</time>
      </trkpt>
      <trkpt lat="55.04696" lon="-4.98939">
        <ele>129.11</ele>
        <time>2021-03-20T15:24:03Z</time>
      </trkpt>
      <trkpt lat="55.04658" lon="-4.99001">
        <ele>124.05</ele>
        <time>2021-03-20T15:24:08Z</time>
      </trkpt>
      <trkpt lat="55.04539" lon="-4.99166">
        <ele>123.12</ele>
        <time>2021-03-20T15:24:12Z</time>
      </trkpt>
      <trkpt lat="55.04324" lon="-4.99411">
        <ele>105.64</ele>
        <time>2021-03-20T15:24:16Z</time>
      </trkpt>
      <trkpt lat="55.0425" lon="-4.99478">
        <ele>96.25</ele>
        <time>2021-03-20T15:24:20Z</time>
      </trkpt>
      <trkpt lat="55.0421" lon="-4.99497">
        <ele>92.26</ele>
        <time>2021-03-20T15:24:25Z</time>
      </trkpt>
      <trkpt lat="55.04106" lon="-4.99535">
        <ele>93</ele>
        <time>2021-03-20T15:24:29Z</time>
      </trkpt>
      <trkpt lat="55.04058" lon="-4.99563">
        <ele>91.57</ele>
        <time>2021-03-20T15:24:33Z</time>
      </trkpt>
      <trkpt lat="55.04023" lon="-4.99592">
        <ele>89.62</ele>
        <time>2021-03-20T15:24:37Z</time>
      </trkpt>
      <trkpt lat="55.03985" lon="-4.99634">
        <ele>87.18</ele>
        <time>2021-03-20T15:24:41Z</time>
      </trkpt>
      <trkpt lat="55.03841" lon="-4.99845">
        <ele>83.32</ele>
        <time>2021-03-20T15:24:46Z</time>
      </trkpt>
      <trkpt lat="55.03381" lon="-5.00496">
        <ele>73</ele>
        <time>2021-03-20T15:24:50Z</time>
      </trkpt>
      <trkpt lat="55.03351" lon="-5.00548">
        <ele>73.49</ele>
        <time>2021-03-20T15:24:54Z</time>
      </trkpt>
      <trkpt lat="55.03298" lon="-5.0066">
        <ele>69.97</ele>
        <time>2021-03-20T15:24:58Z</time>
      </trkpt>
      <trkpt lat="55.03269" lon="-5.00711">
        <ele>71.98</ele>
        <time>2021-03-20T15:25:02Z</time>
      </trkpt>
      <trkpt lat="55.03235" lon="-5.00754">
        <ele>70.49</ele>
        <time>2021-03-20T15:25:07Z</time>
      </trkpt>
      <trkpt lat="55.032" lon="-5.00795">
        <ele>69.33</ele>
        <time>2021-03-20T15:25:11Z</time>
      </trkpt>
      <trkpt lat="55.03152" lon="-5.00863">
        <ele>76.54</ele>
        <time>2021-03-20T15:25:15Z</time>
      </trkpt>
      <trkpt lat="55.03053" lon="-5.01068">
        <ele>68.26</ele>
        <time>2021-03-20T15:25:19Z</time>
      </trkpt>
      <trkpt lat="55.03004" lon="-5.01185">
        <ele>64.24</ele>
        <time>2021-03-20T15:25:24Z</time>
      </trkpt>
      <trkpt lat="55.02966" lon="-5.01309">
        <ele>62.88</ele>
        <time>2021-03-20T15:25:28Z</time>
      </trkpt>
      <trkpt lat="55.02943" lon="-5.01364">
        <ele>63.01</ele>
        <time>2021-03-20T15:25:32Z</time>
      </trkpt>
      <trkpt lat="55.02914" lon="-5.01409">
        <ele>63.75</ele>
        <time>2021-03-20T15:25:36Z</time>
      </trkpt>
      <trkpt lat="55.02881" lon="-5.01441">
        <ele>63.48</ele>
        <time>2021-03-20T15:25:40Z</time>
      </trkpt>
      <trkpt lat="55.02803" lon="-5.0149">
        <ele>63.27</ele>
        <time>2021-03-20T15:25:45Z</time>
      </trkpt>
      <trkpt lat="55.02748" lon="-5.01532">
        <ele>60.9</ele>
        <time>2021-03-20T15:25:49Z</time>
      </trkpt>
      <trkpt lat="55.02719" lon="-5.01559">
        <ele>61.7</ele>
        <time>2021-03-20T15:25:53Z</time>
      </trkpt>
      <trkpt lat="55.02693" lon="-5.01591">
        <ele>59.64</ele>
        <time>2021-03-20T15:25:57Z</time>
      </trkpt>
      <trkpt lat="55.02652" lon="-5.01652">
        <ele>60.72</ele>
        <time>2021-03-20T15:26:02Z</time>
      </trkpt>
      <trkpt lat="55.02631" lon="-5.0169">
        <ele>60.88</ele>
        <time>2021-03-20T15:26:06Z</time>
      </trkpt>
      <trkpt lat="55.0256" lon="-5.0184">
        <ele>59.42</ele>
        <time>2021-03-20T15:26:10Z</time>
      </trkpt>
      <trkpt lat="55.02533" lon="-5.01891">
        <ele>60.32</ele>
        <time>2021-03-20T15:26:14Z</time>
      </trkpt>
      <trkpt lat="55.02503" lon="-5.01938">
        <ele>60.24</ele>
        <time>2021-03-20T15:26:18Z</time>
      </trkpt>
      <trkpt lat="55.02354" lon="-5.02136">
        <ele>60.72</ele>
        <time>2021-03-20T15:26:23Z</time>
      </trkpt>
      <trkpt lat="55.0229" lon="-5.02248">
        <ele>57.05</ele>
        <time>2021-03-20T15:26:27Z</time>
      </trkpt>
      <trkpt lat="55.02262" lon="-5.02312">
        <ele>56.81</ele>
        <time>2021-03-20T15:26:31Z</time>
      </trkpt>
      <trkpt lat="55.0219" lon="-5.02498">
        <ele>59.47</ele>
        <time>2021-03-20T15:26:35Z</time>
      </trkpt>
      <trkpt lat="55.02165" lon="-5.02557">
        <ele>57.31</ele>
        <time>2021-03-20T15:26:40Z</time>
      </trkpt>
      <trkpt lat="55.02115" lon="-5.02649">
        <ele>58.35</ele>
        <time>2021-03-20T15:26:44Z</time>
      </trkpt>
      <trkpt lat="55.01905" lon="-5.02997">
        <ele>63.33</ele>
        <time>2021-03-20T15:26:48Z</time>
      </trkpt>
      <trkpt lat="55.01855" lon="-5.03097">
        <ele>60.55</ele>
        <time>2021-03-20T15:26:52Z</time>
      </trkpt>
      <trkpt lat="55.01657" lon="-5.03526">
        <ele>60.13</ele>
        <time>2021-03-20T15:26:56Z</time>
      </trkpt>
      <trkpt lat="55.01565" lon="-5.03741">
        <ele>59.9</ele>
        <time>2021-03-20T15:27:01Z</time>
      </trkpt>
      <trkpt lat="55.01475" lon="-5.03933">
        <ele>47.67</ele>
        <time>2021-03-20T15:27:05Z</time>
      </trkpt>
      <trkpt lat="55.01413" lon="-5.04034">
        <ele>46.01</ele>
        <time>2021-03-20T15:27:09Z</time>
      </trkpt>
      <trkpt lat="55.0138" lon="-5.04081">
        <ele>45.67</ele>
        <time>2021-03-20T15:27:13Z</time>
      </trkpt>
      <trkpt lat="55.01061" lon="-5.04478">
        <ele>32.28</ele>
        <time>2021-03-20T15:27:18Z</time>
      </trkpt>
      <trkpt lat="55.0094" lon="-5.04644">
        <ele>28.45</ele>
        <time>2021-03-20T15:27:22Z</time>
      </trkpt>
      <trkpt lat="55.00905" lon="-5.04684">
        <ele>28.96</ele>
        <time>2021-03-20T15:27:26Z</time>
      </trkpt>
      <trkpt lat="55.00868" lon="-5.04717">
        <ele>25.77</ele>
        <time>2021-03-20T15:27:30Z</time>
      </trkpt>
      <trkpt lat="55.00826" lon="-5.04744">
        <ele>23.11</ele>
        <time>2021-03-20T15:27:34Z</time>
      </trkpt>
      <trkpt lat="55.00784" lon="-5.04758">
        <ele>21.95</ele>
        <time>2021-03-20T15:27:39Z</time>
      </trkpt>
      <trkpt lat="55.00742" lon="-5.04767">
        <ele>20.32</ele>
        <time>2021-03-20T15:27:43Z</time>
      </trkpt>
      <trkpt lat="55.007" lon="-5.04765">
        <ele>20.61</ele>
        <time>2021-03-20T15:27:47Z</time>
      </trkpt>
      <trkpt lat="55.00658" lon="-5.04758">
        <ele>22.43</ele>
        <time>2021-03-20T15:27:51Z</time>
      </trkpt>
      <trkpt lat="55.00616" lon="-5.04741">
        <ele>25.13</ele>
        <time>2021-03-20T15:27:56Z</time>
      </trkpt>
      <trkpt lat="55.00558" lon="-5.04701">
        <ele>25.88</ele>
        <time>2021-03-20T15:28:00Z</time>
      </trkpt>
      <trkpt lat="55.00406" lon="-5.04565">
        <ele>28.05</ele>
        <time>2021-03-20T15:28:04Z</time>
      </trkpt>
      <trkpt lat="55.00372" lon="-5.04526">
        <ele>28.52</ele>
        <time>2021-03-20T15:28:08Z</time>
      </trkpt>
      <trkpt lat="55.0034" lon="-5.04482">
        <ele>31.26</ele>
        <time>2021-03-20T15:28:12Z</time>
      </trkpt>
      <trkpt lat="55.0031" lon="-5.04433">
        <ele>34.09</ele>
        <time>2021-03-20T15:28:17Z</time>
      </trkpt>
      <trkpt lat="55.00219" lon="-5.04276">
        <ele>42.7</ele>
        <time>2021-03-20T15:28:21Z</time>
      </trkpt>
      <trkpt lat="55.00057" lon="-5.04072">
        <ele>45.6</ele>
        <time>2021-03-20T15:28:25Z</time>
      </trkpt>
      <trkpt lat="54.99983" lon="-5.03976">
        <ele>49.49</ele>
        <time>2021-03-20T15:28:29Z</time>
      </trkpt>
      <trkpt lat="54.99923" lon="-5.03905">
        <ele>51.64</ele>
        <time>2021-03-20T15:28:34Z</time>
      </trkpt>
      <trkpt lat="54.99898" lon="-5.0388">
        <ele>49.77</ele>
        <time>2021-03-20T15:28:38Z</time>
      </trkpt>
      <trkpt lat="54.9984" lon="-5.03827">
        <ele>49.25</ele>
        <time>2021-03-20T15:28:42Z</time>
      </trkpt>
      <trkpt lat="54.99788" lon="-5.0379">
        <ele>51.12</ele>
        <time>2021-03-20T15:28:46Z</time>
      </trkpt>
      <trkpt lat="54.9975" lon="-5.03769">
        <ele>54.24</ele>
        <time>2021-03-20T15:28:50Z</time>
      </trkpt>
      <trkpt lat="54.99686" lon="-5.03742">
        <ele>53</ele>
        <time>2021-03-20T15:28:55Z</time>
      </trkpt>
      <trkpt lat="54.99612" lon="-5.03723">
        <ele>48.03</ele>
        <time>2021-03-20T15:28:59Z</time>
      </trkpt>
      <trkpt lat="54.9956" lon="-5.03713">
        <ele>47.8</ele>
        <time>2021-03-20T15:29:03Z</time>
      </trkpt>
      <trkpt lat="54.99516" lon="-5.03702">
        <ele>44.76</ele>
        <time>2021-03-20T15:29:07Z</time>
      </trkpt>
      <trkpt lat="54.9949" lon="-5.03685">
        <ele>44.05</ele>
        <time>2021-03-20T15:29:12Z</time>
      </trkpt>
      <trkpt lat="54.99457" lon="-5.03657">
        <ele>47.43</ele>
        <time>2021-03-20T15:29:16Z</time>
      </trkpt>
      <trkpt lat="54.9944" lon="-5.03645">
        <ele>49.15</ele>
        <time>2021-03-20T15:29:20Z</time>
      </trkpt>
      <trkpt lat="54.9942" lon="-5.03638">
        <ele>50.25</ele>
        <time>2021-03-20T15:29:24Z</time>
      </trkpt>
      <trkpt lat="54.99404" lon="-5.03637">
        <ele>49.28</ele>
        <time>2021-03-20T15:29:28Z</time>
      </trkpt>
      <trkpt lat="54.99352" lon="-5.03638">
        <ele>43.67</ele>
        <time>2021-03-20T15:29:33Z</time>
      </trkpt>
      <trkpt lat="54.99228" lon="-5.03647">
        <ele>34.97</ele>
        <time>2021-03-20T15:29:37Z</time>
      </trkpt>
      <trkpt lat="54.99133" lon="-5.03637">
        <ele>28.79</ele>
        <time>2021-03-20T15:29:41Z</time>
      </trkpt>
      <trkpt lat="54.99079" lon="-5.03622">
        <ele>26.25</ele>
        <time>2021-03-20T15:29:45Z</time>
      </trkpt>
      <trkpt lat="54.99056" lon="-5.0361">
        <ele>26.38</ele>
        <time>2021-03-20T15:29:50Z</time>
      </trkpt>
      <trkpt lat="54.98932" lon="-5.03527">
        <ele>23.76</ele>
        <time>2021-03-20T15:29:54Z</time>
      </trkpt>
      <trkpt lat="54.98887" lon="-5.03502">
        <ele>23.37</ele>
        <time>2021-03-20T15:29:58Z</time>
      </trkpt>
      <trkpt lat="54.98868" lon="-5.03497">
        <ele>23.34</ele>
        <time>2021-03-20T15:30:02Z</time>
      </trkpt>
      <trkpt lat="54.98833" lon="-5.03496">
        <ele>21.09</ele>
        <time>2021-03-20T15:30:06Z</time>
      </trkpt>
      <trkpt lat="54.9881" lon="-5.03492">
        <ele>20.56</ele>
        <time>2021-03-20T15:30:11Z</time>
      </trkpt>
      <trkpt lat="54.98787" lon="-5.0348">
        <ele>20.53</ele>
        <time>2021-03-20T15:30:15Z</time>
      </trkpt>
      <trkpt lat="54.98727" lon="-5.03442">
        <ele>19.15</ele>
        <time>2021-03-20T15:30:19Z</time>
      </trkpt>
      <trkpt lat="54.98659" lon="-5.0339">
        <ele>19.97</ele>
        <time>2021-03-20T15:30:23Z</time>
      </trkpt>
      <trkpt lat="54.98633" lon="-5.03373">
        <ele>20.66</ele>
        <time>2021-03-20T15:30:28Z</time>
      </trkpt>
      <trkpt lat="54.98542" lon="-5.03329">
        <ele>16.94</ele>
        <time>2021-03-20T15:30:32Z</time>
      </trkpt>
      <trkpt lat="54.98429" lon="-5.03279">
        <ele>22.01</ele>
        <time>2021-03-20T15:30:36Z</time>
      </trkpt>
      <trkpt lat="54.98404" lon="-5.03272">
        <ele>20.65</ele>
        <time>2021-03-20T15:30:40Z</time>
      </trkpt>
      <trkpt lat="54.98345" lon="-5.03265">
        <ele>14.81</ele>
        <time>2021-03-20T15:30:44Z</time>
      </trkpt>
      <trkpt lat="54.98306" lon="-5.03251">
        <ele>11.97</ele>
        <time>2021-03-20T15:30:49Z</time>
      </trkpt>
      <trkpt lat="54.9817" lon="-5.03153">
        <ele>10.04</ele>
        <time>2021-03-20T15:30:53Z</time>
      </trkpt>
      <trkpt lat="54.98148" lon="-5.0313">
        <ele>10.07</ele>
        <time>2021-03-20T15:30:57Z</time>
      </trkpt>
      <trkpt lat="54.98137" lon="-5.03111">
        <ele>10.66</ele>
        <time>2021-03-20T15:31:01Z</time>
      </trkpt>
      <trkpt lat="54.98133" lon="-5.03099">
        <ele>11.08</ele>
        <time>2021-03-20T15:31:03Z</time>
      </trkpt>
      <trkpt lat="54.98129" lon="-5.03094">
        <ele>11.02</ele>
        <time>2021-03-20T15:31:05Z</time>
      </trkpt>
      <trkpt lat="54.98121" lon="-5.03091">
        <ele>10.36</ele>
        <time>2021-03-20T15:31:06Z</time>
      </trkpt>
      <trkpt lat="54.98116" lon="-5.03093">
        <ele>9.53</ele>
        <time>2021-03-20T15:31:08Z</time>
      </trkpt>
      <trkpt lat="54.98111" lon="-5.03098">
        <ele>8.43</ele>
        <time>2021-03-20T15:31:10Z</time>
      </trkpt>
      <trkpt lat="54.98108" lon="-5.03106">
        <ele>7.32</ele>
        <time>2021-03-20T15:31:11Z</time>
      </trkpt>
      <trkpt lat="54.98107" lon="-5.03115">
        <ele>6.43</ele>
        <time>2021-03-20T15:31:13Z</time>
      </trkpt>
      <trkpt lat="54.98109" lon="-5.03132">
        <ele>5.42</ele>
        <time>2021-03-20T15:31:14Z</time>
      </trkpt>
      <trkpt lat="54.98111" lon="-5.03186">
        <ele>2.38</ele>
        <time>2021-03-20T15:31:16Z</time>
      </trkpt>
      <trkpt lat="54.98114" lon="-5.03202">
        <ele>2.17</ele>
        <time>2021-03-20T15:31:18Z</time>
      </trkpt>
      <trkpt lat="54.98121" lon="-5.03218">
        <ele>2.39</ele>
        <time>2021-03-20T15:31:19Z</time>
      </trkpt>
      <trkpt lat="54.98141" lon="-5.03257">
        <ele>6.54</ele>
        <time>2021-03-20T15:31:21Z</time>
      </trkpt>
      <trkpt lat="54.98145" lon="-5.03264">
        <ele>5.88</ele>
        <time>2021-03-20T15:31:27Z</time>
      </trkpt>
      <trkpt lat="54.98147" lon="-5.03265">
        <ele>5.53</ele>
        <time>2021-03-20T15:31:33Z</time>
      </trkpt>
      <trkpt lat="54.98153" lon="-5.03262">
        <ele>5.06</ele>
        <time>2021-03-20T15:31:39Z</time>
      </trkpt>
      <trkpt lat="54.98155" lon="-5.0325">
        <ele>5.22</ele>
        <time>2021-03-20T15:31:44Z</time>
      </trkpt>
      <trkpt lat="54.98152" lon="-5.03242">
        <ele>5.11</ele>
        <time>2021-03-20T15:31:50Z</time>
      </trkpt>
      <trkpt lat="54.98157" lon="-5.03233">
        <ele>4.59</ele>
        <time>2021-03-20T15:31:56Z</time>
      </trkpt>
      <trkpt lat="54.98163" lon="-5.03228">
        <ele>4.68</ele>
        <time>2021-03-20T15:32:02Z</time>
      </trkpt>
      <trkpt lat="54.98177" lon="-5.03228">
        <ele>5.49</ele>
        <time>2021-03-20T15:32:08Z</time>
      </trkpt>
      <trkpt lat="54.98189" lon="-5.0324">
        <ele>5.45</ele>
        <time>2021-03-20T15:32:14Z</time>
      </trkpt>
      <trkpt lat="54.98243" lon="-5.03321">
        <ele>3.34</ele>
        <time>2021-03-20T15:32:20Z</time>
      </trkpt>
      <trkpt lat="54.9828" lon="-5.03354">
        <ele>3.33</ele>
        <time>2021-03-20T15:32:25Z</time>
      </trkpt>
      <trkpt lat="54.983" lon="-5.03359">
        <ele>3.86</ele>
        <time>2021-03-20T15:32:31Z</time>
      </trkpt>
      <trkpt lat="54.98335" lon="-5.03357">
        <ele>5.19</ele>
        <time>2021-03-20T15:32:37Z</time>
      </trkpt>
      <trkpt lat="54.98378" lon="-5.03363">
        <ele>5.86</ele>
        <time>2021-03-20T15:32:43Z</time>
      </trkpt>
      <trkpt lat="54.98378" lon="-5.03363">
        <ele>5.86</ele>
        <time>2021-03-20T15:32:43Z</time>
      </trkpt>
      <trkpt lat="54.984" lon="-5.03366">
        <ele>6.04</ele>
        <time>2021-03-20T15:32:52Z</time>
      </trkpt>
      <trkpt lat="54.98483" lon="-5.03442">
        <ele>4.07</ele>
        <time>2021-03-20T15:33:01Z</time>
      </trkpt>
      <trkpt lat="54.98519" lon="-5.03434">
        <ele>5.05</ele>
        <time>2021-03-20T15:33:11Z</time>
      </trkpt>
      <trkpt lat="54.98523" lon="-5.03426">
        <ele>5.52</ele>
        <time>2021-03-20T15:33:20Z</time>
      </trkpt>
      <trkpt lat="54.98529" lon="-5.03387">
        <ele>7.43</ele>
        <time>2021-03-20T15:33:29Z</time>
      </trkpt>
      <trkpt lat="54.98529" lon="-5.03377">
        <ele>8.86</ele>
        <time>2021-03-20T15:33:38Z</time>
      </trkpt>
      <trkpt lat="54.98525" lon="-5.03367">
        <ele>10.05</ele>
        <time>2021-03-20T15:33:48Z</time>
      </trkpt>
      <trkpt lat="54.9852" lon="-5.03361">
        <ele>10.49</ele>
        <time>2021-03-20T15:33:57Z</time>
      </trkpt>
      <trkpt lat="54.98417" lon="-5.03318">
        <ele>12.25</ele>
        <time>2021-03-20T15:34:06Z</time>
      </trkpt>
      <trkpt lat="54.9835" lon="-5.03308">
        <ele>8.93</ele>
        <time>2021-03-20T15:34:15Z</time>
      </trkpt>
      <trkpt lat="54.98335" lon="-5.03313">
        <ele>7.6</ele>
        <time>2021-03-20T15:34:25Z</time>
      </trkpt>
      <trkpt lat="54.98296" lon="-5.03344">
        <ele>4.31</ele>
        <time>2021-03-20T15:34:34Z</time>
      </trkpt>
      <trkpt lat="54.98283" lon="-5.03347">
        <ele>3.7</ele>
        <time>2021-03-20T15:34:43Z</time>
      </trkpt>
      <trkpt lat="54.98268" lon="-5.03343">
        <ele>3.3</ele>
        <time>2021-03-20T15:34:52Z</time>
      </trkpt>
      <trkpt lat="54.98243" lon="-5.03321">
        <ele>3.34</ele>
        <time>2021-03-20T15:35:02Z</time>
      </trkpt>
      <trkpt lat="54.98189" lon="-5.0324">
        <ele>5.45</ele>
        <time>2021-03-20T15:35:11Z</time>
      </trkpt>
      <trkpt lat="54.98177" lon="-5.03228">
        <ele>5.49</ele>
        <time>2021-03-20T15:35:20Z</time>
      </trkpt>
      <trkpt lat="54.98163" lon="-5.03228">
        <ele>4.68</ele>
        <time>2021-03-20T15:35:29Z</time>
      </trkpt>
      <trkpt lat="54.98157" lon="-5.03233">
        <ele>4.59</ele>
        <time>2021-03-20T15:35:38Z</time>
      </trkpt>
      <trkpt lat="54.98152" lon="-5.03242">
        <ele>5.11</ele>
        <time>2021-03-20T15:35:48Z</time>
      </trkpt>
      <trkpt lat="54.98147" lon="-5.0324">
        <ele>5.19</ele>
        <time>2021-03-20T15:35:49Z</time>
      </trkpt>
      <trkpt lat="54.98145" lon="-5.03241">
        <ele>5.42</ele>
        <time>2021-03-20T15:35:51Z</time>
      </trkpt>
      <trkpt lat="54.98121" lon="-5.03196">
        <ele>2.66</ele>
        <time>2021-03-20T15:35:53Z</time>
      </trkpt>
      <trkpt lat="54.98118" lon="-5.03184">
        <ele>2.93</ele>
        <time>2021-03-20T15:35:54Z</time>
      </trkpt>
      <trkpt lat="54.98117" lon="-5.03174">
        <ele>3.37</ele>
        <time>2021-03-20T15:35:56Z</time>
      </trkpt>
      <trkpt lat="54.98119" lon="-5.0316">
        <ele>4.37</ele>
        <time>2021-03-20T15:35:58Z</time>
      </trkpt>
      <trkpt lat="54.98124" lon="-5.03144">
        <ele>6.05</ele>
        <time>2021-03-20T15:35:59Z</time>
      </trkpt>
      <trkpt lat="54.98127" lon="-5.03142">
        <ele>6.47</ele>
        <time>2021-03-20T15:36:06Z</time>
      </trkpt>
      <trkpt lat="54.98134" lon="-5.03133">
        <ele>8.06</ele>
        <time>2021-03-20T15:36:12Z</time>
      </trkpt>
      <trkpt lat="54.98137" lon="-5.03119">
        <ele>9.91</ele>
        <time>2021-03-20T15:36:18Z</time>
      </trkpt>
      <trkpt lat="54.98137" lon="-5.03111">
        <ele>10.66</ele>
        <time>2021-03-20T15:36:25Z</time>
      </trkpt>
      <trkpt lat="54.98133" lon="-5.03099">
        <ele>11.08</ele>
        <time>2021-03-20T15:36:31Z</time>
      </trkpt>
      <trkpt lat="54.98129" lon="-5.03094">
        <ele>11.02</ele>
        <time>2021-03-20T15:36:37Z</time>
      </trkpt>
      <trkpt lat="54.98104" lon="-5.0308">
        <ele>9.36</ele>
        <time>2021-03-20T15:36:44Z</time>
      </trkpt>
      <trkpt lat="54.98085" lon="-5.03061">
        <ele>7.93</ele>
        <time>2021-03-20T15:36:50Z</time>
      </trkpt>
      <trkpt lat="54.98062" lon="-5.03027">
        <ele>7.86</ele>
        <time>2021-03-20T15:36:57Z</time>
      </trkpt>
      <trkpt lat="54.98045" lon="-5.03007">
        <ele>8.59</ele>
        <time>2021-03-20T15:37:03Z</time>
      </trkpt>
      <trkpt lat="54.98025" lon="-5.02988">
        <ele>8.93</ele>
        <time>2021-03-20T15:37:09Z</time>
      </trkpt>
      <trkpt lat="54.98" lon="-5.02972">
        <ele>7.07</ele>
        <time>2021-03-20T15:37:16Z</time>
      </trkpt>
      <trkpt lat="54.97974" lon="-5.0296">
        <ele>5.48</ele>
        <time>2021-03-20T15:37:22Z</time>
      </trkpt>
      <trkpt lat="54.97921" lon="-5.02945">
        <ele>6.95</ele>
        <time>2021-03-20T15:37:28Z</time>
      </trkpt>
      <trkpt lat="54.97892" lon="-5.02942">
        <ele>6.21</ele>
        <time>2021-03-20T15:37:35Z</time>
      </trkpt>
      <trkpt lat="54.97613" lon="-5.0294">
        <ele>5.16</ele>
        <time>2021-03-20T15:37:41Z</time>
      </trkpt>
      <trkpt lat="54.97587" lon="-5.02937">
        <ele>4.38</ele>
        <time>2021-03-20T15:37:47Z</time>
      </trkpt>
      <trkpt lat="54.97563" lon="-5.02931">
        <ele>4.5</ele>
        <time>2021-03-20T15:37:54Z</time>
      </trkpt>
      <trkpt lat="54.97543" lon="-5.0292">
        <ele>4.93</ele>
        <time>2021-03-20T15:38:00Z</time>
      </trkpt>
      <trkpt lat="54.97523" lon="-5.02907">
        <ele>5.18</ele>
        <time>2021-03-20T15:38:06Z</time>
      </trkpt>
      <trkpt lat="54.97492" lon="-5.02878">
        <ele>4.71</ele>
        <time>2021-03-20T15:38:13Z</time>
      </trkpt>
      <trkpt lat="54.97457" lon="-5.02825">
        <ele>3.44</ele>
        <time>2021-03-20T15:38:19Z</time>
      </trkpt>
      <trkpt lat="54.97447" lon="-5.02804">
        <ele>3.09</ele>
        <time>2021-03-20T15:38:26Z</time>
      </trkpt>
      <trkpt lat="54.97423" lon="-5.02737">
        <ele>3.1</ele>
        <time>2021-03-20T15:38:32Z</time>
      </trkpt>
      <trkpt lat="54.97414" lon="-5.02704">
        <ele>2.91</ele>
        <time>2021-03-20T15:38:38Z</time>
      </trkpt>
      <trkpt lat="54.9738" lon="-5.02542">
        <ele>6.87</ele>
        <time>2021-03-20T15:38:45Z</time>
      </trkpt>
      <trkpt lat="54.97366" lon="-5.02493">
        <ele>7.8</ele>
        <time>2021-03-20T15:38:51Z</time>
      </trkpt>
      <trkpt lat="54.97353" lon="-5.02454">
        <ele>7.86</ele>
        <time>2021-03-20T15:38:57Z</time>
      </trkpt>
      <trkpt lat="54.9733" lon="-5.02403">
        <ele>7.13</ele>
        <time>2021-03-20T15:39:04Z</time>
      </trkpt>
      <trkpt lat="54.97272" lon="-5.02292">
        <ele>6.24</ele>
        <time>2021-03-20T15:39:10Z</time>
      </trkpt>
      <trkpt lat="54.97239" lon="-5.02233">
        <ele>6.81</ele>
        <time>2021-03-20T15:39:16Z</time>
      </trkpt>
      <trkpt lat="54.97185" lon="-5.02142">
        <ele>6.76</ele>
        <time>2021-03-20T15:39:23Z</time>
      </trkpt>
      <trkpt lat="54.97158" lon="-5.02092">
        <ele>6.82</ele>
        <time>2021-03-20T15:39:29Z</time>
      </trkpt>
      <trkpt lat="54.97083" lon="-5.01942">
        <ele>6.11</ele>
        <time>2021-03-20T15:39:35Z</time>
      </trkpt>
      <trkpt lat="54.97067" lon="-5.01916">
        <ele>6.24</ele>
        <time>2021-03-20T15:39:42Z</time>
      </trkpt>
      <trkpt lat="54.97037" lon="-5.01874">
        <ele>6.58</ele>
        <time>2021-03-20T15:39:48Z</time>
      </trkpt>
      <trkpt lat="54.97013" lon="-5.01848">
        <ele>6.55</ele>
        <time>2021-03-20T15:39:54Z</time>
      </trkpt>
      <trkpt lat="54.96977" lon="-5.01814">
        <ele>5.81</ele>
        <time>2021-03-20T15:40:01Z</time>
      </trkpt>
      <trkpt lat="54.96871" lon="-5.01724">
        <ele>6.5</ele>
        <time>2021-03-20T15:40:07Z</time>
      </trkpt>
      <trkpt lat="54.96812" lon="-5.01665">
        <ele>5.1</ele>
        <time>2021-03-20T15:40:14Z</time>
      </trkpt>
      <trkpt lat="54.96686" lon="-5.01519">
        <ele>4.03</ele>
        <time>2021-03-20T15:40:20Z</time>
      </trkpt>
      <trkpt lat="54.96635" lon="-5.01473">
        <ele>5.09</ele>
        <time>2021-03-20T15:40:26Z</time>
      </trkpt>
      <trkpt lat="54.96607" lon="-5.01451">
        <ele>6.48</ele>
        <time>2021-03-20T15:40:33Z</time>
      </trkpt>
      <trkpt lat="54.9652" lon="-5.01389">
        <ele>7.01</ele>
        <time>2021-03-20T15:40:39Z</time>
      </trkpt>
      <trkpt lat="54.96399" lon="-5.01273">
        <ele>7.2</ele>
        <time>2021-03-20T15:40:45Z</time>
      </trkpt>
      <trkpt lat="54.96381" lon="-5.01329">
        <ele>2.85</ele>
        <time>2021-03-20T15:40:50Z</time>
      </trkpt>
      <trkpt lat="54.9638" lon="-5.01331">
        <ele>2.73</ele>
        <time>2021-03-20T15:40:56Z</time>
      </trkpt>
      <trkpt lat="54.96368" lon="-5.01337">
        <ele>2.22</ele>
        <time>2021-03-20T15:41:02Z</time>
      </trkpt>
      <trkpt lat="54.96363" lon="-5.01337">
        <ele>2.06</ele>
        <time>2021-03-20T15:41:07Z</time>
      </trkpt>
      <trkpt lat="54.96358" lon="-5.01334">
        <ele>2.11</ele>
        <time>2021-03-20T15:41:13Z</time>
      </trkpt>
      <trkpt lat="54.96346" lon="-5.01319">
        <ele>2.56</ele>
        <time>2021-03-20T15:41:19Z</time>
      </trkpt>
      <trkpt lat="54.96338" lon="-5.01286">
        <ele>2.95</ele>
        <time>2021-03-20T15:41:24Z</time>
      </trkpt>
      <trkpt lat="54.9633" lon="-5.01268">
        <ele>3.75</ele>
        <time>2021-03-20T15:41:30Z</time>
      </trkpt>
      <trkpt lat="54.96316" lon="-5.0125">
        <ele>5</ele>
        <time>2021-03-20T15:41:36Z</time>
      </trkpt>
      <trkpt lat="54.96302" lon="-5.0124">
        <ele>5.37</ele>
        <time>2021-03-20T15:41:41Z</time>
      </trkpt>
      <trkpt lat="54.96145" lon="-5.01167">
        <ele>5.2</ele>
        <time>2021-03-20T15:41:47Z</time>
      </trkpt>
      <trkpt lat="54.96134" lon="-5.01153">
        <ele>5.78</ele>
        <time>2021-03-20T15:41:53Z</time>
      </trkpt>
      <trkpt lat="54.96053" lon="-5.01105">
        <ele>3.76</ele>
        <time>2021-03-20T15:41:58Z</time>
      </trkpt>
      <trkpt lat="54.96042" lon="-5.01109">
        <ele>2.33</ele>
        <time>2021-03-20T15:42:04Z</time>
      </trkpt>
      <trkpt lat="54.96035" lon="-5.01116">
        <ele>1.13</ele>
        <time>2021-03-20T15:42:10Z</time>
      </trkpt>
      <trkpt lat="54.96031" lon="-5.01125">
        <ele>0.19</ele>
        <time>2021-03-20T15:42:15Z</time>
      </trkpt>
      <trkpt lat="54.96028" lon="-5.01137">
        <ele>-0.85</ele>
        <time>2021-03-20T15:42:21Z</time>
      </trkpt>
      <trkpt lat="54.96028" lon="-5.01149">
        <ele>-1.36</ele>
        <time>2021-03-20T15:42:27Z</time>
      </trkpt>
      <trkpt lat="54.96031" lon="-5.01165">
        <ele>-1.82</ele>
        <time>2021-03-20T15:42:32Z</time>
      </trkpt>
      <trkpt lat="54.9605" lon="-5.01222">
        <ele>0.98</ele>
        <time>2021-03-20T15:42:38Z</time>
      </trkpt>
      <trkpt lat="54.96056" lon="-5.01234">
        <ele>2.63</ele>
        <time>2021-03-20T15:52:35Z</time>
      </trkpt>
      <trkpt lat="54.96066" lon="-5.01243">
        <ele>2.89</ele>
        <time>2021-03-20T16:02:32Z</time>
      </trkpt>
      <trkpt lat="54.96086" lon="-5.0125">
        <ele>1.31</ele>
        <time>2021-03-20T16:12:30Z</time>
      </trkpt>
      <trkpt lat="54.96096" lon="-5.01262">
        <ele>2.33</ele>
        <time>2021-03-20T16:22:27Z</time>
      </trkpt>
      <trkpt lat="54.96132" lon="-5.01364">
        <ele>2.31</ele>
        <time>2021-03-20T16:32:24Z</time>
      </trkpt>
      <trkpt lat="54.96138" lon="-5.01376">
        <ele>2.23</ele>
        <time>2021-03-20T16:42:22Z</time>
      </trkpt>
      <trkpt lat="54.96149" lon="-5.01389">
        <ele>2.12</ele>
        <time>2021-03-20T16:52:19Z</time>
      </trkpt>
      <trkpt lat="54.96156" lon="-5.01406">
        <ele>2</ele>
        <time>2021-03-20T17:02:16Z</time>
      </trkpt>
      <trkpt lat="54.96202" lon="-5.01538">
        <ele>2.01</ele>
        <time>2021-03-20T17:12:13Z</time>
      </trkpt>
      <trkpt lat="54.96207" lon="-5.01783">
        <ele>2.03</ele>
        <time>2021-03-20T17:22:11Z</time>
      </trkpt>
      <trkpt lat="54.9624" lon="-5.02044">
        <ele>2.05</ele>
        <time>2021-03-20T17:32:08Z</time>
      </trkpt>
      <trkpt lat="54.96322" lon="-5.02374">
        <ele>2.07</ele>
        <time>2021-03-20T17:42:05Z</time>
      </trkpt>
      <trkpt lat="54.96396" lon="-5.02489">
        <ele>2.08</ele>
        <time>2021-03-20T17:52:02Z</time>
      </trkpt>
      <trkpt lat="54.97112" lon="-5.03285">
        <ele>2.15</ele>
        <time>2021-03-20T18:02:00Z</time>
      </trkpt>
      <trkpt lat="54.99848" lon="-5.05898">
        <ele>2.41</ele>
        <time>2021-03-20T18:11:57Z</time>
      </trkpt>
      <trkpt lat="55.02774" lon="-5.07937">
        <ele>2.64</ele>
        <time>2021-03-20T18:21:54Z</time>
      </trkpt>
      <trkpt lat="55.0359" lon="-5.09894">
        <ele>2.77</ele>
        <time>2021-03-20T18:31:51Z</time>
      </trkpt>
      <trkpt lat="55.03728" lon="-5.15525">
        <ele>3.11</ele>
        <time>2021-03-20T18:41:49Z</time>
      </trkpt>
      <trkpt lat="55.03472" lon="-5.17945">
        <ele>3.25</ele>
        <time>2021-03-20T18:51:46Z</time>
      </trkpt>
      <trkpt lat="54.86853" lon="-5.78197">
        <ele>7.55</ele>
        <time>2021-03-20T19:01:43Z</time>
      </trkpt>
      <trkpt lat="54.86558" lon="-5.78639">
        <ele>7.58</ele>
        <time>2021-03-20T19:11:41Z</time>
      </trkpt>
      <trkpt lat="54.85172" lon="-5.79414">
        <ele>7.7</ele>
        <time>2021-03-20T19:21:38Z</time>
      </trkpt>
      <trkpt lat="54.8508" lon="-5.79478">
        <ele>7.71</ele>
        <time>2021-03-20T19:31:35Z</time>
      </trkpt>
      <trkpt lat="54.84928" lon="-5.79619">
        <ele>7.72</ele>
        <time>2021-03-20T19:41:32Z</time>
      </trkpt>
      <trkpt lat="54.84881" lon="-5.79658">
        <ele>7.1</ele>
        <time>2021-03-20T19:51:30Z</time>
      </trkpt>
      <trkpt lat="54.84852" lon="-5.7969">
        <ele>5.31</ele>
        <time>2021-03-20T20:01:27Z</time>
      </trkpt>
      <trkpt lat="54.84841" lon="-5.79709">
        <ele>4.47</ele>
        <time>2021-03-20T20:11:24Z</time>
      </trkpt>
      <trkpt lat="54.84824" lon="-5.79772">
        <ele>4.34</ele>
        <time>2021-03-20T20:21:21Z</time>
      </trkpt>
      <trkpt lat="54.84721" lon="-5.79855">
        <ele>4.73</ele>
        <time>2021-03-20T20:21:28Z</time>
      </trkpt>
      <trkpt lat="54.84716" lon="-5.79868">
        <ele>4.78</ele>
        <time>2021-03-20T20:21:34Z</time>
      </trkpt>
      <trkpt lat="54.84714" lon="-5.79881">
        <ele>4.69</ele>
        <time>2021-03-20T20:21:40Z</time>
      </trkpt>
      <trkpt lat="54.84653" lon="-5.79971">
        <ele>3.48</ele>
        <time>2021-03-20T20:21:46Z</time>
      </trkpt>
      <trkpt lat="54.84561" lon="-5.80114">
        <ele>5</ele>
        <time>2021-03-20T20:21:52Z</time>
      </trkpt>
      <trkpt lat="54.84543" lon="-5.80134">
        <ele>4.91</ele>
        <time>2021-03-20T20:21:58Z</time>
      </trkpt>
      <trkpt lat="54.84535" lon="-5.80137">
        <ele>4.95</ele>
        <time>2021-03-20T20:22:05Z</time>
      </trkpt>
      <trkpt lat="54.84523" lon="-5.80135">
        <ele>4.56</ele>
        <time>2021-03-20T20:22:11Z</time>
      </trkpt>
      <trkpt lat="54.84518" lon="-5.80132">
        <ele>4.23</ele>
        <time>2021-03-20T20:22:14Z</time>
      </trkpt>
      <trkpt lat="54.84502" lon="-5.80129">
        <ele>3.44</ele>
        <time>2021-03-20T20:22:17Z</time>
      </trkpt>
      <trkpt lat="54.84493" lon="-5.80132">
        <ele>3.43</ele>
        <time>2021-03-20T20:22:20Z</time>
      </trkpt>
      <trkpt lat="54.84483" lon="-5.8014">
        <ele>3.61</ele>
        <time>2021-03-20T20:22:23Z</time>
      </trkpt>
      <trkpt lat="54.84476" lon="-5.8015">
        <ele>3.87</ele>
        <time>2021-03-20T20:22:26Z</time>
      </trkpt>
      <trkpt lat="54.84467" lon="-5.80173">
        <ele>3.82</ele>
        <time>2021-03-20T20:22:29Z</time>
      </trkpt>
      <trkpt lat="54.84463" lon="-5.80202">
        <ele>3.34</ele>
        <time>2021-03-20T20:22:32Z</time>
      </trkpt>
      <trkpt lat="54.84464" lon="-5.80218">
        <ele>3.31</ele>
        <time>2021-03-20T20:22:35Z</time>
      </trkpt>
      <trkpt lat="54.8447" lon="-5.80244">
        <ele>3.1</ele>
        <time>2021-03-20T20:22:39Z</time>
      </trkpt>
      <trkpt lat="54.84481" lon="-5.80265">
        <ele>3</ele>
        <time>2021-03-20T20:22:42Z</time>
      </trkpt>
      <trkpt lat="54.84488" lon="-5.80273">
        <ele>3</ele>
        <time>2021-03-20T20:22:45Z</time>
      </trkpt>
      <trkpt lat="54.84494" lon="-5.80286">
        <ele>2.7</ele>
        <time>2021-03-20T20:22:48Z</time>
      </trkpt>
      <trkpt lat="54.84502" lon="-5.80313">
        <ele>2.06</ele>
        <time>2021-03-20T20:22:51Z</time>
      </trkpt>
      <trkpt lat="54.84504" lon="-5.80328">
        <ele>2.13</ele>
        <time>2021-03-20T20:22:54Z</time>
      </trkpt>
      <trkpt lat="54.84506" lon="-5.80386">
        <ele>2.2</ele>
        <time>2021-03-20T20:22:57Z</time>
      </trkpt>
      <trkpt lat="54.84522" lon="-5.8103">
        <ele>3.59</ele>
        <time>2021-03-20T20:23:00Z</time>
      </trkpt>
      <trkpt lat="54.8452" lon="-5.81062">
        <ele>3.51</ele>
        <time>2021-03-20T20:23:03Z</time>
      </trkpt>
      <trkpt lat="54.84517" lon="-5.81078">
        <ele>3.54</ele>
        <time>2021-03-20T20:23:06Z</time>
      </trkpt>
      <trkpt lat="54.84511" lon="-5.81091">
        <ele>3.54</ele>
        <time>2021-03-20T20:23:09Z</time>
      </trkpt>
      <trkpt lat="54.84503" lon="-5.81121">
        <ele>3.66</ele>
        <time>2021-03-20T20:23:12Z</time>
      </trkpt>
      <trkpt lat="54.84501" lon="-5.81138">
        <ele>3.03</ele>
        <time>2021-03-20T20:23:15Z</time>
      </trkpt>
      <trkpt lat="54.84505" lon="-5.81171">
        <ele>2.85</ele>
        <time>2021-03-20T20:23:18Z</time>
      </trkpt>
      <trkpt lat="54.84508" lon="-5.81184">
        <ele>2.36</ele>
        <time>2021-03-20T20:23:22Z</time>
      </trkpt>
      <trkpt lat="54.84518" lon="-5.81206">
        <ele>1.6</ele>
        <time>2021-03-20T20:23:25Z</time>
      </trkpt>
      <trkpt lat="54.84531" lon="-5.81222">
        <ele>1.12</ele>
        <time>2021-03-20T20:23:28Z</time>
      </trkpt>
      <trkpt lat="54.84545" lon="-5.8123">
        <ele>1.45</ele>
        <time>2021-03-20T20:23:31Z</time>
      </trkpt>
      <trkpt lat="54.84576" lon="-5.81267">
        <ele>1</ele>
        <time>2021-03-20T20:23:34Z</time>
      </trkpt>
      <trkpt lat="54.84819" lon="-5.81681">
        <ele>4.99</ele>
        <time>2021-03-20T20:23:37Z</time>
      </trkpt>
      <trkpt lat="54.84843" lon="-5.81709">
        <ele>5.66</ele>
        <time>2021-03-20T20:23:38Z</time>
      </trkpt>
      <trkpt lat="54.84849" lon="-5.81712">
        <ele>6.14</ele>
        <time>2021-03-20T20:23:39Z</time>
      </trkpt>
      <trkpt lat="54.84857" lon="-5.81713">
        <ele>6.7</ele>
        <time>2021-03-20T20:23:40Z</time>
      </trkpt>
      <trkpt lat="54.8464" lon="-5.81344">
        <ele>3.51</ele>
        <time>2021-03-20T20:23:58Z</time>
      </trkpt>
      <trkpt lat="54.8464" lon="-5.81344">
        <ele>3.51</ele>
        <time>2021-03-20T20:23:58Z</time>
      </trkpt>
      <trkpt lat="54.84609" lon="-5.81291">
        <ele>1.48</ele>
        <time>2021-03-20T20:23:59Z</time>
      </trkpt>
      <trkpt lat="54.84595" lon="-5.81251">
        <ele>1</ele>
        <time>2021-03-20T20:24:01Z</time>
      </trkpt>
      <trkpt lat="54.84593" lon="-5.81219">
        <ele>1.64</ele>
        <time>2021-03-20T20:24:02Z</time>
      </trkpt>
      <trkpt lat="54.84596" lon="-5.81192">
        <ele>1.55</ele>
        <time>2021-03-20T20:24:04Z</time>
      </trkpt>
      <trkpt lat="54.84603" lon="-5.81163">
        <ele>1.28</ele>
        <time>2021-03-20T20:24:07Z</time>
      </trkpt>
      <trkpt lat="54.84605" lon="-5.81145">
        <ele>1.23</ele>
        <time>2021-03-20T20:24:11Z</time>
      </trkpt>
      <trkpt lat="54.84604" lon="-5.81126">
        <ele>1.6</ele>
        <time>2021-03-20T20:24:15Z</time>
      </trkpt>
      <trkpt lat="54.84596" lon="-5.8109">
        <ele>2.75</ele>
        <time>2021-03-20T20:24:19Z</time>
      </trkpt>
      <trkpt lat="54.84586" lon="-5.81073">
        <ele>3.41</ele>
        <time>2021-03-20T20:24:23Z</time>
      </trkpt>
      <trkpt lat="54.84579" lon="-5.81064">
        <ele>3.73</ele>
        <time>2021-03-20T20:24:27Z</time>
      </trkpt>
      <trkpt lat="54.84566" lon="-5.81055">
        <ele>4</ele>
        <time>2021-03-20T20:24:31Z</time>
      </trkpt>
      <trkpt lat="54.84559" lon="-5.81052">
        <ele>4</ele>
        <time>2021-03-20T20:24:35Z</time>
      </trkpt>
      <trkpt lat="54.84541" lon="-5.81055">
        <ele>4</ele>
        <time>2021-03-20T20:24:39Z</time>
      </trkpt>
      <trkpt lat="54.84533" lon="-5.8106">
        <ele>4</ele>
        <time>2021-03-20T20:24:43Z</time>
      </trkpt>
      <trkpt lat="54.84517" lon="-5.81078">
        <ele>3.54</ele>
        <time>2021-03-20T20:24:46Z</time>
      </trkpt>
      <trkpt lat="54.84511" lon="-5.81091">
        <ele>3.54</ele>
        <time>2021-03-20T20:24:50Z</time>
      </trkpt>
      <trkpt lat="54.84503" lon="-5.81121">
        <ele>3.66</ele>
        <time>2021-03-20T20:24:54Z</time>
      </trkpt>
      <trkpt lat="54.84501" lon="-5.81138">
        <ele>3.03</ele>
        <time>2021-03-20T20:24:58Z</time>
      </trkpt>
      <trkpt lat="54.84505" lon="-5.81171">
        <ele>2.85</ele>
        <time>2021-03-20T20:25:02Z</time>
      </trkpt>
      <trkpt lat="54.84508" lon="-5.81184">
        <ele>2.36</ele>
        <time>2021-03-20T20:25:06Z</time>
      </trkpt>
      <trkpt lat="54.84518" lon="-5.81206">
        <ele>1.6</ele>
        <time>2021-03-20T20:25:10Z</time>
      </trkpt>
      <trkpt lat="54.84531" lon="-5.81222">
        <ele>1.12</ele>
        <time>2021-03-20T20:25:14Z</time>
      </trkpt>
      <trkpt lat="54.84545" lon="-5.8123">
        <ele>1.45</ele>
        <time>2021-03-20T20:25:18Z</time>
      </trkpt>
      <trkpt lat="54.84576" lon="-5.81267">
        <ele>1</ele>
        <time>2021-03-20T20:25:21Z</time>
      </trkpt>
      <trkpt lat="54.84914" lon="-5.81843">
        <ele>6.55</ele>
        <time>2021-03-20T20:25:25Z</time>
      </trkpt>
      <trkpt lat="54.84931" lon="-5.81878">
        <ele>7.05</ele>
        <time>2021-03-20T20:25:29Z</time>
      </trkpt>
      <trkpt lat="54.84955" lon="-5.8194">
        <ele>5.87</ele>
        <time>2021-03-20T20:25:33Z</time>
      </trkpt>
      <trkpt lat="54.8497" lon="-5.82009">
        <ele>5.55</ele>
        <time>2021-03-20T20:25:37Z</time>
      </trkpt>
      <trkpt lat="54.84979" lon="-5.82072">
        <ele>5.83</ele>
        <time>2021-03-20T20:25:41Z</time>
      </trkpt>
      <trkpt lat="54.85008" lon="-5.82447">
        <ele>11.93</ele>
        <time>2021-03-20T20:25:45Z</time>
      </trkpt>
      <trkpt lat="54.85014" lon="-5.82494">
        <ele>11.08</ele>
        <time>2021-03-20T20:25:49Z</time>
      </trkpt>
      <trkpt lat="54.85023" lon="-5.82537">
        <ele>11.67</ele>
        <time>2021-03-20T20:25:53Z</time>
      </trkpt>
      <trkpt lat="54.8508" lon="-5.82693">
        <ele>12.88</ele>
        <time>2021-03-20T20:25:57Z</time>
      </trkpt>
      <trkpt lat="54.85091" lon="-5.8273">
        <ele>14.24</ele>
        <time>2021-03-20T20:26:00Z</time>
      </trkpt>
      <trkpt lat="54.85095" lon="-5.82746">
        <ele>15.45</ele>
        <time>2021-03-20T20:26:04Z</time>
      </trkpt>
      <trkpt lat="54.851" lon="-5.82801">
        <ele>19.03</ele>
        <time>2021-03-20T20:26:08Z</time>
      </trkpt>
      <trkpt lat="54.85099" lon="-5.82844">
        <ele>20.43</ele>
        <time>2021-03-20T20:26:12Z</time>
      </trkpt>
      <trkpt lat="54.85089" lon="-5.83032">
        <ele>25.3</ele>
        <time>2021-03-20T20:26:16Z</time>
      </trkpt>
      <trkpt lat="54.85081" lon="-5.83099">
        <ele>27.16</ele>
        <time>2021-03-20T20:26:20Z</time>
      </trkpt>
      <trkpt lat="54.85004" lon="-5.83509">
        <ele>34.51</ele>
        <time>2021-03-20T20:26:24Z</time>
      </trkpt>
      <trkpt lat="54.84967" lon="-5.83666">
        <ele>39.25</ele>
        <time>2021-03-20T20:26:28Z</time>
      </trkpt>
      <trkpt lat="54.84953" lon="-5.83714">
        <ele>39.31</ele>
        <time>2021-03-20T20:26:32Z</time>
      </trkpt>
      <trkpt lat="54.84939" lon="-5.8376">
        <ele>39.74</ele>
        <time>2021-03-20T20:26:35Z</time>
      </trkpt>
      <trkpt lat="54.84904" lon="-5.83853">
        <ele>43.69</ele>
        <time>2021-03-20T20:26:39Z</time>
      </trkpt>
      <trkpt lat="54.84705" lon="-5.8433">
        <ele>53.92</ele>
        <time>2021-03-20T20:26:43Z</time>
      </trkpt>
      <trkpt lat="54.84671" lon="-5.84406">
        <ele>56.17</ele>
        <time>2021-03-20T20:26:47Z</time>
      </trkpt>
      <trkpt lat="54.84628" lon="-5.84484">
        <ele>58.88</ele>
        <time>2021-03-20T20:26:51Z</time>
      </trkpt>
      <trkpt lat="54.84578" lon="-5.84563">
        <ele>60.53</ele>
        <time>2021-03-20T20:26:55Z</time>
      </trkpt>
      <trkpt lat="54.84419" lon="-5.84756">
        <ele>65.21</ele>
        <time>2021-03-20T20:26:59Z</time>
      </trkpt>
      <trkpt lat="54.8439" lon="-5.84795">
        <ele>67.93</ele>
        <time>2021-03-20T20:27:03Z</time>
      </trkpt>
      <trkpt lat="54.84356" lon="-5.84845">
        <ele>68.43</ele>
        <time>2021-03-20T20:27:07Z</time>
      </trkpt>
      <trkpt lat="54.84329" lon="-5.84894">
        <ele>67.17</ele>
        <time>2021-03-20T20:27:11Z</time>
      </trkpt>
      <trkpt lat="54.84298" lon="-5.84952">
        <ele>69.59</ele>
        <time>2021-03-20T20:27:14Z</time>
      </trkpt>
      <trkpt lat="54.84217" lon="-5.8513">
        <ele>70.13</ele>
        <time>2021-03-20T20:27:18Z</time>
      </trkpt>
      <trkpt lat="54.83954" lon="-5.85708">
        <ele>83.97</ele>
        <time>2021-03-20T20:27:22Z</time>
      </trkpt>
      <trkpt lat="54.83894" lon="-5.85848">
        <ele>85.82</ele>
        <time>2021-03-20T20:27:26Z</time>
      </trkpt>
      <trkpt lat="54.8386" lon="-5.85915">
        <ele>86.87</ele>
        <time>2021-03-20T20:27:30Z</time>
      </trkpt>
      <trkpt lat="54.83843" lon="-5.85939">
        <ele>86.86</ele>
        <time>2021-03-20T20:27:34Z</time>
      </trkpt>
      <trkpt lat="54.83835" lon="-5.85941">
        <ele>86.9</ele>
        <time>2021-03-20T20:27:38Z</time>
      </trkpt>
      <trkpt lat="54.83827" lon="-5.85936">
        <ele>86.75</ele>
        <time>2021-03-20T20:27:42Z</time>
      </trkpt>
      <trkpt lat="54.83818" lon="-5.85935">
        <ele>86.84</ele>
        <time>2021-03-20T20:27:46Z</time>
      </trkpt>
      <trkpt lat="54.83809" lon="-5.85939">
        <ele>86.97</ele>
        <time>2021-03-20T20:27:50Z</time>
      </trkpt>
      <trkpt lat="54.83802" lon="-5.85948">
        <ele>87.26</ele>
        <time>2021-03-20T20:27:54Z</time>
      </trkpt>
      <trkpt lat="54.83798" lon="-5.85961">
        <ele>87.86</ele>
        <time>2021-03-20T20:27:58Z</time>
      </trkpt>
      <trkpt lat="54.83795" lon="-5.85982">
        <ele>88.51</ele>
        <time>2021-03-20T20:28:02Z</time>
      </trkpt>
      <trkpt lat="54.83795" lon="-5.85993">
        <ele>88.64</ele>
        <time>2021-03-20T20:28:06Z</time>
      </trkpt>
      <trkpt lat="54.83793" lon="-5.86016">
        <ele>89.47</ele>
        <time>2021-03-20T20:28:10Z</time>
      </trkpt>
      <trkpt lat="54.83776" lon="-5.86069">
        <ele>92.06</ele>
        <time>2021-03-20T20:28:14Z</time>
      </trkpt>
      <trkpt lat="54.83703" lon="-5.8626">
        <ele>90.2</ele>
        <time>2021-03-20T20:28:18Z</time>
      </trkpt>
      <trkpt lat="54.83641" lon="-5.86401">
        <ele>90.44</ele>
        <time>2021-03-20T20:28:22Z</time>
      </trkpt>
      <trkpt lat="54.83498" lon="-5.86716">
        <ele>88</ele>
        <time>2021-03-20T20:28:26Z</time>
      </trkpt>
      <trkpt lat="54.83275" lon="-5.87225">
        <ele>92.21</ele>
        <time>2021-03-20T20:28:30Z</time>
      </trkpt>
      <trkpt lat="54.83266" lon="-5.87235">
        <ele>92.88</ele>
        <time>2021-03-20T20:28:34Z</time>
      </trkpt>
      <trkpt lat="54.83254" lon="-5.87244">
        <ele>93.61</ele>
        <time>2021-03-20T20:28:38Z</time>
      </trkpt>
      <trkpt lat="54.83242" lon="-5.87244">
        <ele>94.35</ele>
        <time>2021-03-20T20:28:44Z</time>
      </trkpt>
      <trkpt lat="54.8323" lon="-5.87251">
        <ele>95.42</ele>
        <time>2021-03-20T20:28:50Z</time>
      </trkpt>
      <trkpt lat="54.83221" lon="-5.87263">
        <ele>96.1</ele>
        <time>2021-03-20T20:28:55Z</time>
      </trkpt>
      <trkpt lat="54.83214" lon="-5.87279">
        <ele>96.56</ele>
        <time>2021-03-20T20:29:01Z</time>
      </trkpt>
      <trkpt lat="54.8321" lon="-5.87298">
        <ele>95.84</ele>
        <time>2021-03-20T20:29:07Z</time>
      </trkpt>
      <trkpt lat="54.83209" lon="-5.87318">
        <ele>95.26</ele>
        <time>2021-03-20T20:29:12Z</time>
      </trkpt>
      <trkpt lat="54.83212" lon="-5.87337">
        <ele>95.08</ele>
        <time>2021-03-20T20:29:18Z</time>
      </trkpt>
      <trkpt lat="54.83211" lon="-5.87356">
        <ele>95.5</ele>
        <time>2021-03-20T20:29:24Z</time>
      </trkpt>
      <trkpt lat="54.83207" lon="-5.87379">
        <ele>95.76</ele>
        <time>2021-03-20T20:29:29Z</time>
      </trkpt>
      <trkpt lat="54.83201" lon="-5.87399">
        <ele>95.82</ele>
        <time>2021-03-20T20:29:35Z</time>
      </trkpt>
      <trkpt lat="54.83154" lon="-5.87511">
        <ele>96.66</ele>
        <time>2021-03-20T20:29:41Z</time>
      </trkpt>
      <trkpt lat="54.83065" lon="-5.87707">
        <ele>99.67</ele>
        <time>2021-03-20T20:29:46Z</time>
      </trkpt>
      <trkpt lat="54.82982" lon="-5.8788">
        <ele>100.12</ele>
        <time>2021-03-20T20:29:52Z</time>
      </trkpt>
      <trkpt lat="54.8284" lon="-5.88162">
        <ele>98.43</ele>
        <time>2021-03-20T20:29:58Z</time>
      </trkpt>
      <trkpt lat="54.82812" lon="-5.88214">
        <ele>99.69</ele>
        <time>2021-03-20T20:30:03Z</time>
      </trkpt>
      <trkpt lat="54.82702" lon="-5.88438">
        <ele>99.58</ele>
        <time>2021-03-20T20:30:09Z</time>
      </trkpt>
      <trkpt lat="54.82578" lon="-5.8868">
        <ele>95.33</ele>
        <time>2021-03-20T20:30:14Z</time>
      </trkpt>
      <trkpt lat="54.82531" lon="-5.88768">
        <ele>94.1</ele>
        <time>2021-03-20T20:30:20Z</time>
      </trkpt>
      <trkpt lat="54.82405" lon="-5.88942">
        <ele>96.68</ele>
        <time>2021-03-20T20:30:26Z</time>
      </trkpt>
      <trkpt lat="54.82331" lon="-5.89026">
        <ele>98.13</ele>
        <time>2021-03-20T20:30:31Z</time>
      </trkpt>
      <trkpt lat="54.82171" lon="-5.89182">
        <ele>103.9</ele>
        <time>2021-03-20T20:30:37Z</time>
      </trkpt>
      <trkpt lat="54.81764" lon="-5.89572">
        <ele>107.1</ele>
        <time>2021-03-20T20:30:43Z</time>
      </trkpt>
      <trkpt lat="54.81631" lon="-5.89705">
        <ele>108.08</ele>
        <time>2021-03-20T20:30:48Z</time>
      </trkpt>
      <trkpt lat="54.81525" lon="-5.89819">
        <ele>108.4</ele>
        <time>2021-03-20T20:30:54Z</time>
      </trkpt>
      <trkpt lat="54.81495" lon="-5.89857">
        <ele>109.5</ele>
        <time>2021-03-20T20:31:00Z</time>
      </trkpt>
      <trkpt lat="54.8142" lon="-5.89971">
        <ele>113.99</ele>
        <time>2021-03-20T20:31:05Z</time>
      </trkpt>
      <trkpt lat="54.81366" lon="-5.90063">
        <ele>113</ele>
        <time>2021-03-20T20:31:11Z</time>
      </trkpt>
      <trkpt lat="54.8132" lon="-5.90158">
        <ele>112</ele>
        <time>2021-03-20T20:31:17Z</time>
      </trkpt>
      <trkpt lat="54.81254" lon="-5.90299">
        <ele>114.61</ele>
        <time>2021-03-20T20:31:22Z</time>
      </trkpt>
      <trkpt lat="54.81213" lon="-5.90381">
        <ele>118.36</ele>
        <time>2021-03-20T20:31:28Z</time>
      </trkpt>
      <trkpt lat="54.81146" lon="-5.90502">
        <ele>125.07</ele>
        <time>2021-03-20T20:31:34Z</time>
      </trkpt>
      <trkpt lat="54.81083" lon="-5.90607">
        <ele>126.84</ele>
        <time>2021-03-20T20:31:39Z</time>
      </trkpt>
      <trkpt lat="54.80927" lon="-5.90842">
        <ele>124.06</ele>
        <time>2021-03-20T20:31:45Z</time>
      </trkpt>
      <trkpt lat="54.80818" lon="-5.91028">
        <ele>121.44</ele>
        <time>2021-03-20T20:31:51Z</time>
      </trkpt>
      <trkpt lat="54.80756" lon="-5.91145">
        <ele>120.58</ele>
        <time>2021-03-20T20:31:56Z</time>
      </trkpt>
      <trkpt lat="54.80722" lon="-5.91216">
        <ele>120.02</ele>
        <time>2021-03-20T20:32:02Z</time>
      </trkpt>
      <trkpt lat="54.80657" lon="-5.91352">
        <ele>123.34</ele>
        <time>2021-03-20T20:32:08Z</time>
      </trkpt>
      <trkpt lat="54.80605" lon="-5.91474">
        <ele>123.24</ele>
        <time>2021-03-20T20:32:13Z</time>
      </trkpt>
      <trkpt lat="54.80564" lon="-5.91559">
        <ele>124.62</ele>
        <time>2021-03-20T20:32:19Z</time>
      </trkpt>
      <trkpt lat="54.80498" lon="-5.91682">
        <ele>123.5</ele>
        <time>2021-03-20T20:32:25Z</time>
      </trkpt>
      <trkpt lat="54.80396" lon="-5.9185">
        <ele>123.11</ele>
        <time>2021-03-20T20:32:30Z</time>
      </trkpt>
      <trkpt lat="54.80083" lon="-5.92323">
        <ele>125.62</ele>
        <time>2021-03-20T20:32:36Z</time>
      </trkpt>
      <trkpt lat="54.79814" lon="-5.92721">
        <ele>133.69</ele>
        <time>2021-03-20T20:32:42Z</time>
      </trkpt>
      <trkpt lat="54.79733" lon="-5.9283">
        <ele>135.95</ele>
        <time>2021-03-20T20:32:47Z</time>
      </trkpt>
      <trkpt lat="54.79682" lon="-5.92903">
        <ele>136.85</ele>
        <time>2021-03-20T20:32:53Z</time>
      </trkpt>
      <trkpt lat="54.79621" lon="-5.93004">
        <ele>136.15</ele>
        <time>2021-03-20T20:32:59Z</time>
      </trkpt>
      <trkpt lat="54.79497" lon="-5.93231">
        <ele>139.56</ele>
        <time>2021-03-20T20:33:04Z</time>
      </trkpt>
      <trkpt lat="54.79445" lon="-5.93315">
        <ele>135.65</ele>
        <time>2021-03-20T20:33:10Z</time>
      </trkpt>
      <trkpt lat="54.79379" lon="-5.93413">
        <ele>135.5</ele>
        <time>2021-03-20T20:33:16Z</time>
      </trkpt>
      <trkpt lat="54.79308" lon="-5.93502">
        <ele>134.78</ele>
        <time>2021-03-20T20:33:21Z</time>
      </trkpt>
      <trkpt lat="54.79256" lon="-5.9356">
        <ele>133.6</ele>
        <time>2021-03-20T20:33:27Z</time>
      </trkpt>
      <trkpt lat="54.79197" lon="-5.93618">
        <ele>134.57</ele>
        <time>2021-03-20T20:33:33Z</time>
      </trkpt>
      <trkpt lat="54.791" lon="-5.937">
        <ele>133.88</ele>
        <time>2021-03-20T20:33:38Z</time>
      </trkpt>
      <trkpt lat="54.78888" lon="-5.9385">
        <ele>135.04</ele>
        <time>2021-03-20T20:33:44Z</time>
      </trkpt>
      <trkpt lat="54.78775" lon="-5.93957">
        <ele>138.11</ele>
        <time>2021-03-20T20:33:50Z</time>
      </trkpt>
      <trkpt lat="54.78659" lon="-5.94097">
        <ele>137.87</ele>
        <time>2021-03-20T20:33:55Z</time>
      </trkpt>
      <trkpt lat="54.78578" lon="-5.94214">
        <ele>138.18</ele>
        <time>2021-03-20T20:34:01Z</time>
      </trkpt>
      <trkpt lat="54.78532" lon="-5.94292">
        <ele>138.33</ele>
        <time>2021-03-20T20:34:07Z</time>
      </trkpt>
      <trkpt lat="54.78484" lon="-5.94382">
        <ele>138.42</ele>
        <time>2021-03-20T20:34:12Z</time>
      </trkpt>
      <trkpt lat="54.78432" lon="-5.94486">
        <ele>136.1</ele>
        <time>2021-03-20T20:34:18Z</time>
      </trkpt>
      <trkpt lat="54.784" lon="-5.94561">
        <ele>133.32</ele>
        <time>2021-03-20T20:34:23Z</time>
      </trkpt>
      <trkpt lat="54.7834" lon="-5.94718">
        <ele>131</ele>
        <time>2021-03-20T20:34:29Z</time>
      </trkpt>
      <trkpt lat="54.7828" lon="-5.94914">
        <ele>127.17</ele>
        <time>2021-03-20T20:34:35Z</time>
      </trkpt>
      <trkpt lat="54.78256" lon="-5.9501">
        <ele>125.12</ele>
        <time>2021-03-20T20:34:40Z</time>
      </trkpt>
      <trkpt lat="54.78199" lon="-5.95248">
        <ele>119.86</ele>
        <time>2021-03-20T20:34:46Z</time>
      </trkpt>
      <trkpt lat="54.78173" lon="-5.95346">
        <ele>119.65</ele>
        <time>2021-03-20T20:34:52Z</time>
      </trkpt>
      <trkpt lat="54.78149" lon="-5.95418">
        <ele>116.18</ele>
        <time>2021-03-20T20:34:57Z</time>
      </trkpt>
      <trkpt lat="54.78093" lon="-5.95571">
        <ele>109.43</ele>
        <time>2021-03-20T20:35:03Z</time>
      </trkpt>
      <trkpt lat="54.78042" lon="-5.95688">
        <ele>107.13</ele>
        <time>2021-03-20T20:35:09Z</time>
      </trkpt>
      <trkpt lat="54.77987" lon="-5.95791">
        <ele>104.99</ele>
        <time>2021-03-20T20:35:14Z</time>
      </trkpt>
      <trkpt lat="54.77956" lon="-5.95848">
        <ele>105.07</ele>
        <time>2021-03-20T20:35:20Z</time>
      </trkpt>
      <trkpt lat="54.77922" lon="-5.95905">
        <ele>106.07</ele>
        <time>2021-03-20T20:35:26Z</time>
      </trkpt>
      <trkpt lat="54.77856" lon="-5.95996">
        <ele>109.36</ele>
        <time>2021-03-20T20:35:31Z</time>
      </trkpt>
      <trkpt lat="54.77816" lon="-5.96046">
        <ele>108.99</ele>
        <time>2021-03-20T20:35:37Z</time>
      </trkpt>
      <trkpt lat="54.77764" lon="-5.96103">
        <ele>103.96</ele>
        <time>2021-03-20T20:35:43Z</time>
      </trkpt>
      <trkpt lat="54.77713" lon="-5.9615">
        <ele>99.2</ele>
        <time>2021-03-20T20:35:48Z</time>
      </trkpt>
      <trkpt lat="54.77618" lon="-5.96224">
        <ele>95.94</ele>
        <time>2021-03-20T20:35:54Z</time>
      </trkpt>
      <trkpt lat="54.77575" lon="-5.9625">
        <ele>95.01</ele>
        <time>2021-03-20T20:36:00Z</time>
      </trkpt>
      <trkpt lat="54.7753" lon="-5.96273">
        <ele>94.16</ele>
        <time>2021-03-20T20:36:05Z</time>
      </trkpt>
      <trkpt lat="54.77453" lon="-5.96308">
        <ele>92.56</ele>
        <time>2021-03-20T20:36:11Z</time>
      </trkpt>
      <trkpt lat="54.77361" lon="-5.96333">
        <ele>89</ele>
        <time>2021-03-20T20:36:17Z</time>
      </trkpt>
      <trkpt lat="54.77328" lon="-5.96339">
        <ele>90.32</ele>
        <time>2021-03-20T20:36:22Z</time>
      </trkpt>
      <trkpt lat="54.77261" lon="-5.96345">
        <ele>91.88</ele>
        <time>2021-03-20T20:36:28Z</time>
      </trkpt>
      <trkpt lat="54.77261" lon="-5.96345">
        <ele>91.88</ele>
        <time>2021-03-20T20:36:28Z</time>
      </trkpt>
      <trkpt lat="54.77158" lon="-5.96351">
        <ele>93.35</ele>
        <time>2021-03-20T20:36:38Z</time>
      </trkpt>
      <trkpt lat="54.76988" lon="-5.96319">
        <ele>96.51</ele>
        <time>2021-03-20T20:36:47Z</time>
      </trkpt>
      <trkpt lat="54.76944" lon="-5.96303">
        <ele>97.13</ele>
        <time>2021-03-20T20:36:57Z</time>
      </trkpt>
      <trkpt lat="54.76845" lon="-5.9626">
        <ele>102</ele>
        <time>2021-03-20T20:37:06Z</time>
      </trkpt>
      <trkpt lat="54.76775" lon="-5.96222">
        <ele>109.38</ele>
        <time>2021-03-20T20:37:16Z</time>
      </trkpt>
      <trkpt lat="54.76715" lon="-5.96184">
        <ele>114.27</ele>
        <time>2021-03-20T20:37:25Z</time>
      </trkpt>
      <trkpt lat="54.76536" lon="-5.96052">
        <ele>115</ele>
        <time>2021-03-20T20:37:35Z</time>
      </trkpt>
      <trkpt lat="54.76412" lon="-5.95986">
        <ele>119.76</ele>
        <time>2021-03-20T20:37:44Z</time>
      </trkpt>
      <trkpt lat="54.7627" lon="-5.95942">
        <ele>123.62</ele>
        <time>2021-03-20T20:37:54Z</time>
      </trkpt>
      <trkpt lat="54.76176" lon="-5.9593">
        <ele>123.68</ele>
        <time>2021-03-20T20:38:04Z</time>
      </trkpt>
      <trkpt lat="54.7603" lon="-5.9593">
        <ele>126.54</ele>
        <time>2021-03-20T20:38:13Z</time>
      </trkpt>
      <trkpt lat="54.75798" lon="-5.95941">
        <ele>132.71</ele>
        <time>2021-03-20T20:38:23Z</time>
      </trkpt>
      <trkpt lat="54.75614" lon="-5.95959">
        <ele>130.47</ele>
        <time>2021-03-20T20:38:32Z</time>
      </trkpt>
      <trkpt lat="54.75535" lon="-5.95963">
        <ele>129.33</ele>
        <time>2021-03-20T20:38:42Z</time>
      </trkpt>
      <trkpt lat="54.754" lon="-5.95976">
        <ele>123.77</ele>
        <time>2021-03-20T20:38:51Z</time>
      </trkpt>
      <trkpt lat="54.75233" lon="-5.96003">
        <ele>118.54</ele>
        <time>2021-03-20T20:39:01Z</time>
      </trkpt>
      <trkpt lat="54.74962" lon="-5.96059">
        <ele>120.14</ele>
        <time>2021-03-20T20:39:10Z</time>
      </trkpt>
      <trkpt lat="54.74315" lon="-5.96182">
        <ele>122.43</ele>
        <time>2021-03-20T20:39:20Z</time>
      </trkpt>
      <trkpt lat="54.74305" lon="-5.96162">
        <ele>123</ele>
        <time>2021-03-20T20:39:25Z</time>
      </trkpt>
      <trkpt lat="54.743" lon="-5.96137">
        <ele>123.05</ele>
        <time>2021-03-20T20:39:30Z</time>
      </trkpt>
      <trkpt lat="54.74296" lon="-5.96033">
        <ele>124.35</ele>
        <time>2021-03-20T20:39:35Z</time>
      </trkpt>
      <trkpt lat="54.74295" lon="-5.95978">
        <ele>125.37</ele>
        <time>2021-03-20T20:39:40Z</time>
      </trkpt>
      <trkpt lat="54.74299" lon="-5.95924">
        <ele>126.23</ele>
        <time>2021-03-20T20:39:45Z</time>
      </trkpt>
      <trkpt lat="54.74307" lon="-5.95858">
        <ele>127.14</ele>
        <time>2021-03-20T20:39:50Z</time>
      </trkpt>
      <trkpt lat="54.74316" lon="-5.95728">
        <ele>127.92</ele>
        <time>2021-03-20T20:39:55Z</time>
      </trkpt>
      <trkpt lat="54.74314" lon="-5.95706">
        <ele>128</ele>
        <time>2021-03-20T20:40:00Z</time>
      </trkpt>
      <trkpt lat="54.7431" lon="-5.95694">
        <ele>127.99</ele>
        <time>2021-03-20T20:40:05Z</time>
      </trkpt>
      <trkpt lat="54.73887" lon="-5.95057">
        <ele>153.96</ele>
        <time>2021-03-20T20:40:10Z</time>
      </trkpt>
      <trkpt lat="54.7381" lon="-5.94945">
        <ele>158</ele>
        <time>2021-03-20T20:40:15Z</time>
      </trkpt>
      <trkpt lat="54.7366" lon="-5.94758">
        <ele>162.16</ele>
        <time>2021-03-20T20:40:20Z</time>
      </trkpt>
      <trkpt lat="54.73625" lon="-5.94723">
        <ele>163.98</ele>
        <time>2021-03-20T20:40:25Z</time>
      </trkpt>
      <trkpt lat="54.73627" lon="-5.94717">
        <ele>164.09</ele>
        <time>2021-03-20T20:40:25Z</time>
      </trkpt>
      <trkpt lat="54.73341" lon="-5.94293">
        <ele>177.34</ele>
        <time>2021-03-20T20:40:32Z</time>
      </trkpt>
      <trkpt lat="54.73264" lon="-5.94193">
        <ele>177.46</ele>
        <time>2021-03-20T20:40:39Z</time>
      </trkpt>
      <trkpt lat="54.73251" lon="-5.94171">
        <ele>177.15</ele>
        <time>2021-03-20T20:40:46Z</time>
      </trkpt>
      <trkpt lat="54.7324" lon="-5.94138">
        <ele>179.41</ele>
        <time>2021-03-20T20:40:53Z</time>
      </trkpt>
      <trkpt lat="54.73203" lon="-5.94173">
        <ele>180.88</ele>
        <time>2021-03-20T20:41:10Z</time>
      </trkpt>
      <trkpt lat="54.72601" lon="-5.94715">
        <ele>176</ele>
        <time>2021-03-20T20:41:28Z</time>
      </trkpt>
      <trkpt lat="54.72187" lon="-5.95083">
        <ele>174.01</ele>
        <time>2021-03-20T20:41:45Z</time>
      </trkpt>
      <trkpt lat="54.71621" lon="-5.95593">
        <ele>160.03</ele>
        <time>2021-03-20T20:42:02Z</time>
      </trkpt>
      <trkpt lat="54.71567" lon="-5.95647">
        <ele>158.69</ele>
        <time>2021-03-20T20:42:19Z</time>
      </trkpt>
      <trkpt lat="54.71557" lon="-5.95666">
        <ele>158.02</ele>
        <time>2021-03-20T20:42:36Z</time>
      </trkpt>
      <trkpt lat="54.71534" lon="-5.95652">
        <ele>158.52</ele>
        <time>2021-03-20T20:42:47Z</time>
      </trkpt>
      <trkpt lat="54.71507" lon="-5.95642">
        <ele>158.88</ele>
        <time>2021-03-20T20:42:57Z</time>
      </trkpt>
      <trkpt lat="54.71138" lon="-5.95518">
        <ele>151.38</ele>
        <time>2021-03-20T20:43:07Z</time>
      </trkpt>
      <trkpt lat="54.70741" lon="-5.95378">
        <ele>138.07</ele>
        <time>2021-03-20T20:43:18Z</time>
      </trkpt>
      <trkpt lat="54.70615" lon="-5.95328">
        <ele>133.29</ele>
        <time>2021-03-20T20:43:28Z</time>
      </trkpt>
      <trkpt lat="54.70615" lon="-5.95355">
        <ele>132.51</ele>
        <time>2021-03-20T20:43:30Z</time>
      </trkpt>
      <trkpt lat="54.70629" lon="-5.95464">
        <ele>128.13</ele>
        <time>2021-03-20T20:43:32Z</time>
      </trkpt>
      <trkpt lat="54.70633" lon="-5.95549">
        <ele>125.04</ele>
        <time>2021-03-20T20:43:34Z</time>
      </trkpt>
      <trkpt lat="54.70629" lon="-5.95626">
        <ele>123.65</ele>
        <time>2021-03-20T20:43:36Z</time>
      </trkpt>
      <trkpt lat="54.70632" lon="-5.95704">
        <ele>123.74</ele>
        <time>2021-03-20T20:43:38Z</time>
      </trkpt>
      <trkpt lat="54.7063" lon="-5.95807">
        <ele>123</ele>
        <time>2021-03-20T20:43:40Z</time>
      </trkpt>
      <trkpt lat="54.70632" lon="-5.95826">
        <ele>123</ele>
        <time>2021-03-20T20:43:42Z</time>
      </trkpt>
      <trkpt lat="54.70642" lon="-5.9586">
        <ele>122.16</ele>
        <time>2021-03-20T20:43:44Z</time>
      </trkpt>
      <trkpt lat="54.70678" lon="-5.9595">
        <ele>120.19</ele>
        <time>2021-03-20T20:43:46Z</time>
      </trkpt>
      <trkpt lat="54.70686" lon="-5.9598">
        <ele>119.42</ele>
        <time>2021-03-20T20:43:48Z</time>
      </trkpt>
      <trkpt lat="54.70696" lon="-5.96048">
        <ele>118.08</ele>
        <time>2021-03-20T20:43:50Z</time>
      </trkpt>
      <trkpt lat="54.70703" lon="-5.96067">
        <ele>118.7</ele>
        <time>2021-03-20T20:43:52Z</time>
      </trkpt>
      <trkpt lat="54.70711" lon="-5.96084">
        <ele>119.6</ele>
        <time>2021-03-20T20:43:54Z</time>
      </trkpt>
      <trkpt lat="54.70733" lon="-5.96121">
        <ele>120.59</ele>
        <time>2021-03-20T20:43:56Z</time>
      </trkpt>
      <trkpt lat="54.70763" lon="-5.96162">
        <ele>121</ele>
        <time>2021-03-20T20:43:58Z</time>
      </trkpt>
      <trkpt lat="54.70783" lon="-5.96224">
        <ele>121.07</ele>
        <time>2021-03-20T20:44:00Z</time>
      </trkpt>
      <trkpt lat="54.70788" lon="-5.96254">
        <ele>122</ele>
        <time>2021-03-20T20:44:02Z</time>
      </trkpt>
      <trkpt lat="54.70802" lon="-5.9636">
        <ele>123.11</ele>
        <time>2021-03-20T20:44:04Z</time>
      </trkpt>
      <trkpt lat="54.70792" lon="-5.96356">
        <ele>123.28</ele>
        <time>2021-03-20T20:44:12Z</time>
      </trkpt>
      <trkpt lat="54.70417" lon="-5.96303">
        <ele>109.11</ele>
        <time>2021-03-20T20:44:20Z</time>
      </trkpt>
      <trkpt lat="54.70251" lon="-5.9628">
        <ele>103.02</ele>
        <time>2021-03-20T20:44:28Z</time>
      </trkpt>
      <trkpt lat="54.70212" lon="-5.96277">
        <ele>101.61</ele>
        <time>2021-03-20T20:44:36Z</time>
      </trkpt>
      <trkpt lat="54.70316" lon="-5.96573">
        <ele>102.73</ele>
        <time>2021-03-20T20:44:37Z</time>
      </trkpt>
      <trkpt lat="54.70338" lon="-5.9663">
        <ele>101.47</ele>
        <time>2021-03-20T20:44:39Z</time>
      </trkpt>
      <trkpt lat="54.7035" lon="-5.96654">
        <ele>101.58</ele>
        <time>2021-03-20T20:44:41Z</time>
      </trkpt>
      <trkpt lat="54.7038" lon="-5.96699">
        <ele>102.69</ele>
        <time>2021-03-20T20:44:42Z</time>
      </trkpt>
      <trkpt lat="54.70398" lon="-5.96717">
        <ele>103.06</ele>
        <time>2021-03-20T20:44:44Z</time>
      </trkpt>
      <trkpt lat="54.70428" lon="-5.9674">
        <ele>102.38</ele>
        <time>2021-03-20T20:44:46Z</time>
      </trkpt>
      <trkpt lat="54.70445" lon="-5.96748">
        <ele>102.1</ele>
        <time>2021-03-20T20:44:47Z</time>
      </trkpt>
      <trkpt lat="54.70459" lon="-5.96759">
        <ele>102.5</ele>
        <time>2021-03-20T20:44:49Z</time>
      </trkpt>
      <trkpt lat="54.7047" lon="-5.96777">
        <ele>102.9</ele>
        <time>2021-03-20T20:44:51Z</time>
      </trkpt>
      <trkpt lat="54.70471" lon="-5.96799">
        <ele>102.17</ele>
        <time>2021-03-20T20:44:52Z</time>
      </trkpt>
      <trkpt lat="54.70468" lon="-5.96811">
        <ele>101.86</ele>
        <time>2021-03-20T20:44:54Z</time>
      </trkpt>
      <trkpt lat="54.70464" lon="-5.96824">
        <ele>101.69</ele>
        <time>2021-03-20T20:44:55Z</time>
      </trkpt>
      <trkpt lat="54.70459" lon="-5.96833">
        <ele>101.53</ele>
        <time>2021-03-20T20:44:59Z</time>
      </trkpt>
      <trkpt lat="54.70454" lon="-5.96857">
        <ele>101.61</ele>
        <time>2021-03-20T20:45:03Z</time>
      </trkpt>
      <trkpt lat="54.70454" lon="-5.9687">
        <ele>101.67</ele>
        <time>2021-03-20T20:45:06Z</time>
      </trkpt>
      <trkpt lat="54.70474" lon="-5.9694">
        <ele>103.07</ele>
        <time>2021-03-20T20:45:10Z</time>
      </trkpt>
      <trkpt lat="54.70481" lon="-5.96972">
        <ele>104</ele>
        <time>2021-03-20T20:45:13Z</time>
      </trkpt>
      <trkpt lat="54.70484" lon="-5.97018">
        <ele>103.34</ele>
        <time>2021-03-20T20:45:17Z</time>
      </trkpt>
      <trkpt lat="54.70486" lon="-5.97039">
        <ele>103</ele>
        <time>2021-03-20T20:45:20Z</time>
      </trkpt>
      <trkpt lat="54.70491" lon="-5.97057">
        <ele>103</ele>
        <time>2021-03-20T20:45:24Z</time>
      </trkpt>
      <trkpt lat="54.70541" lon="-5.97198">
        <ele>107.47</ele>
        <time>2021-03-20T20:45:27Z</time>
      </trkpt>
      <trkpt lat="54.70697" lon="-5.97688">
        <ele>106.21</ele>
        <time>2021-03-20T20:45:31Z</time>
      </trkpt>
      <trkpt lat="54.70752" lon="-5.97834">
        <ele>106.06</ele>
        <time>2021-03-20T20:45:35Z</time>
      </trkpt>
      <trkpt lat="54.70806" lon="-5.97969">
        <ele>105.14</ele>
        <time>2021-03-20T20:45:38Z</time>
      </trkpt>
      <trkpt lat="54.70844" lon="-5.981">
        <ele>106.16</ele>
        <time>2021-03-20T20:45:42Z</time>
      </trkpt>
      <trkpt lat="54.70879" lon="-5.98239">
        <ele>108.43</ele>
        <time>2021-03-20T20:45:45Z</time>
      </trkpt>
      <trkpt lat="54.70908" lon="-5.98342">
        <ele>109.39</ele>
        <time>2021-03-20T20:45:49Z</time>
      </trkpt>
      <trkpt lat="54.70943" lon="-5.98444">
        <ele>108.97</ele>
        <time>2021-03-20T20:45:52Z</time>
      </trkpt>
      <trkpt lat="54.71085" lon="-5.98769">
        <ele>112.67</ele>
        <time>2021-03-20T20:45:56Z</time>
      </trkpt>
      <trkpt lat="54.70956" lon="-5.98842">
        <ele>110.09</ele>
        <time>2021-03-20T20:46:11Z</time>
      </trkpt>
      <trkpt lat="54.71029" lon="-5.99424">
        <ele>105</ele>
        <time>2021-03-20T20:46:21Z</time>
      </trkpt>
      <trkpt lat="54.71031" lon="-5.9946">
        <ele>105</ele>
        <time>2021-03-20T20:46:31Z</time>
      </trkpt>
      <trkpt lat="54.7103" lon="-5.99478">
        <ele>105</ele>
        <time>2021-03-20T20:46:40Z</time>
      </trkpt>
      <trkpt lat="54.71026" lon="-5.99507">
        <ele>105</ele>
        <time>2021-03-20T20:46:50Z</time>
      </trkpt>
      <trkpt lat="54.71017" lon="-5.99533">
        <ele>105</ele>
        <time>2021-03-20T20:46:59Z</time>
      </trkpt>
      <trkpt lat="54.71008" lon="-5.99551">
        <ele>105</ele>
        <time>2021-03-20T20:47:09Z</time>
      </trkpt>
      <trkpt lat="54.70861" lon="-5.99807">
        <ele>101.99</ele>
        <time>2021-03-20T20:47:18Z</time>
      </trkpt>
      <trkpt lat="54.70847" lon="-5.99835">
        <ele>101.43</ele>
        <time>2021-03-20T20:47:28Z</time>
      </trkpt>
      <trkpt lat="54.70802" lon="-5.9997">
        <ele>99.99</ele>
        <time>2021-03-20T20:47:37Z</time>
      </trkpt>
      <trkpt lat="54.70761" lon="-6.00111">
        <ele>97.01</ele>
        <time>2021-03-20T20:47:47Z</time>
      </trkpt>
      <trkpt lat="54.70693" lon="-6.00314">
        <ele>102.32</ele>
        <time>2021-03-20T20:47:56Z</time>
      </trkpt>
      <trkpt lat="54.70679" lon="-6.00349">
        <ele>104.41</ele>
        <time>2021-03-20T20:48:06Z</time>
      </trkpt>
      <trkpt lat="54.70624" lon="-6.00308">
        <ele>104.23</ele>
        <time>2021-03-20T20:48:11Z</time>
      </trkpt>
      <trkpt lat="54.70584" lon="-6.00283">
        <ele>105.31</ele>
        <time>2021-03-20T20:48:15Z</time>
      </trkpt>
      <trkpt lat="54.70533" lon="-6.00259">
        <ele>105.4</ele>
        <time>2021-03-20T20:48:20Z</time>
      </trkpt>
      <trkpt lat="54.70509" lon="-6.00244">
        <ele>104.56</ele>
        <time>2021-03-20T20:48:24Z</time>
      </trkpt>
      <trkpt lat="54.70457" lon="-6.00182">
        <ele>105.17</ele>
        <time>2021-03-20T20:48:29Z</time>
      </trkpt>
      <trkpt lat="54.7037" lon="-6.0009">
        <ele>107.85</ele>
        <time>2021-03-20T20:48:33Z</time>
      </trkpt>
      <trkpt lat="54.70299" lon="-6.00039">
        <ele>111.23</ele>
        <time>2021-03-20T20:48:38Z</time>
      </trkpt>
      <trkpt lat="54.70272" lon="-6.00033">
        <ele>112.22</ele>
        <time>2021-03-20T20:48:42Z</time>
      </trkpt>
      <trkpt lat="54.70177" lon="-6.00033">
        <ele>114.61</ele>
        <time>2021-03-20T20:48:47Z</time>
      </trkpt>
      <trkpt lat="54.70137" lon="-6.00031">
        <ele>115.06</ele>
        <time>2021-03-20T20:48:52Z</time>
      </trkpt>
      <trkpt lat="54.69938" lon="-6.00014">
        <ele>123.76</ele>
        <time>2021-03-20T20:48:56Z</time>
      </trkpt>
      <trkpt lat="54.6985" lon="-6.00008">
        <ele>131.41</ele>
        <time>2021-03-20T20:49:01Z</time>
      </trkpt>
      <trkpt lat="54.69771" lon="-6.00004">
        <ele>136.23</ele>
        <time>2021-03-20T20:49:05Z</time>
      </trkpt>
      <trkpt lat="54.69666" lon="-6.00003">
        <ele>141.93</ele>
        <time>2021-03-20T20:49:10Z</time>
      </trkpt>
      <trkpt lat="54.69572" lon="-5.99992">
        <ele>142.3</ele>
        <time>2021-03-20T20:49:14Z</time>
      </trkpt>
      <trkpt lat="54.69466" lon="-5.99996">
        <ele>142.12</ele>
        <time>2021-03-20T20:49:19Z</time>
      </trkpt>
      <trkpt lat="54.69451" lon="-6.00001">
        <ele>142</ele>
        <time>2021-03-20T20:49:23Z</time>
      </trkpt>
      <trkpt lat="54.69149" lon="-6.00155">
        <ele>138.35</ele>
        <time>2021-03-20T20:49:28Z</time>
      </trkpt>
      <trkpt lat="54.6914" lon="-6.00156">
        <ele>138.04</ele>
        <time>2021-03-20T20:49:33Z</time>
      </trkpt>
      <trkpt lat="54.69147" lon="-5.9996">
        <ele>139</ele>
        <time>2021-03-20T20:49:46Z</time>
      </trkpt>
      <trkpt lat="54.6913" lon="-5.9996">
        <ele>139</ele>
        <time>2021-03-20T20:49:51Z</time>
      </trkpt>
      <trkpt lat="54.69079" lon="-5.99978">
        <ele>137.86</ele>
        <time>2021-03-20T20:49:57Z</time>
      </trkpt>
      <trkpt lat="54.69046" lon="-5.99998">
        <ele>136.32</ele>
        <time>2021-03-20T20:50:03Z</time>
      </trkpt>
      <trkpt lat="54.69016" lon="-6.00021">
        <ele>132.94</ele>
        <time>2021-03-20T20:50:08Z</time>
      </trkpt>
      <trkpt lat="54.68944" lon="-6.00091">
        <ele>127.73</ele>
        <time>2021-03-20T20:50:14Z</time>
      </trkpt>
      <trkpt lat="54.68913" lon="-6.00122">
        <ele>125.37</ele>
        <time>2021-03-20T20:50:20Z</time>
      </trkpt>
      <trkpt lat="54.68811" lon="-6.00224">
        <ele>120.15</ele>
        <time>2021-03-20T20:50:25Z</time>
      </trkpt>
      <trkpt lat="54.68777" lon="-6.00253">
        <ele>116.89</ele>
        <time>2021-03-20T20:50:31Z</time>
      </trkpt>
      <trkpt lat="54.68745" lon="-6.00274">
        <ele>114.97</ele>
        <time>2021-03-20T20:50:37Z</time>
      </trkpt>
      <trkpt lat="54.68758" lon="-6.00336">
        <ele>113.19</ele>
        <time>2021-03-20T20:50:39Z</time>
      </trkpt>
      <trkpt lat="54.68667" lon="-6.00436">
        <ele>111.98</ele>
        <time>2021-03-20T20:50:47Z</time>
      </trkpt>
      <trkpt lat="54.68639" lon="-6.00462">
        <ele>112.01</ele>
        <time>2021-03-20T20:50:55Z</time>
      </trkpt>
      <trkpt lat="54.6861" lon="-6.00467">
        <ele>110.2</ele>
        <time>2021-03-20T20:51:03Z</time>
      </trkpt>
      <trkpt lat="54.68557" lon="-6.00467">
        <ele>110.2</ele>
        <time>2021-03-20T20:51:11Z</time>
      </trkpt>
      <trkpt lat="54.6843" lon="-6.00476">
        <ele>109.93</ele>
        <time>2021-03-20T20:51:20Z</time>
      </trkpt>
      <trkpt lat="54.68204" lon="-6.00552">
        <ele>113</ele>
        <time>2021-03-20T20:51:28Z</time>
      </trkpt>
      <trkpt lat="54.68049" lon="-6.00608">
        <ele>120.22</ele>
        <time>2021-03-20T20:51:36Z</time>
      </trkpt>
      <trkpt lat="54.68037" lon="-6.00616">
        <ele>120.72</ele>
        <time>2021-03-20T20:51:44Z</time>
      </trkpt>
      <trkpt lat="54.68108" lon="-6.00877">
        <ele>119.1</ele>
        <time>2021-03-20T20:52:06Z</time>
      </trkpt>
      <trkpt lat="54.68084" lon="-6.00886">
        <ele>119.98</ele>
        <time>2021-03-20T20:52:11Z</time>
      </trkpt>
      <trkpt lat="54.67946" lon="-6.00894">
        <ele>120.18</ele>
        <time>2021-03-20T20:52:17Z</time>
      </trkpt>
      <trkpt lat="54.6794" lon="-6.00905">
        <ele>120.79</ele>
        <time>2021-03-20T20:52:22Z</time>
      </trkpt>
      <trkpt lat="54.67895" lon="-6.01249">
        <ele>138.52</ele>
        <time>2021-03-20T20:52:28Z</time>
      </trkpt>
      <trkpt lat="54.67867" lon="-6.0129">
        <ele>140.79</ele>
        <time>2021-03-20T20:52:33Z</time>
      </trkpt>
      <trkpt lat="54.6754" lon="-6.01996">
        <ele>172.4</ele>
        <time>2021-03-20T20:52:39Z</time>
      </trkpt>
      <trkpt lat="54.6739" lon="-6.02314">
        <ele>188.18</ele>
        <time>2021-03-20T20:52:44Z</time>
      </trkpt>
      <trkpt lat="54.67305" lon="-6.02427">
        <ele>191.11</ele>
        <time>2021-03-20T20:52:50Z</time>
      </trkpt>
      <trkpt lat="54.67242" lon="-6.02489">
        <ele>197.61</ele>
        <time>2021-03-20T20:52:55Z</time>
      </trkpt>
      <trkpt lat="54.67233" lon="-6.02496">
        <ele>197.85</ele>
        <time>2021-03-20T20:53:01Z</time>
      </trkpt>
      <trkpt lat="54.67185" lon="-6.02517">
        <ele>202.43</ele>
        <time>2021-03-20T20:53:06Z</time>
      </trkpt>
      <trkpt lat="54.67069" lon="-6.02629">
        <ele>214.2</ele>
        <time>2021-03-20T20:53:12Z</time>
      </trkpt>
      <trkpt lat="54.67001" lon="-6.02675">
        <ele>216.67</ele>
        <time>2021-03-20T20:53:17Z</time>
      </trkpt>
      <trkpt lat="54.66897" lon="-6.02734">
        <ele>226.05</ele>
        <time>2021-03-20T20:53:23Z</time>
      </trkpt>
      <trkpt lat="54.66867" lon="-6.02773">
        <ele>226.48</ele>
        <time>2021-03-20T20:53:28Z</time>
      </trkpt>
      <trkpt lat="54.66843" lon="-6.02814">
        <ele>226.86</ele>
        <time>2021-03-20T20:53:34Z</time>
      </trkpt>
      <trkpt lat="54.66826" lon="-6.02838">
        <ele>228</ele>
        <time>2021-03-20T20:53:39Z</time>
      </trkpt>
      <trkpt lat="54.66813" lon="-6.02904">
        <ele>226.63</ele>
        <time>2021-03-20T20:53:45Z</time>
      </trkpt>
      <trkpt lat="54.66767" lon="-6.03003">
        <ele>221.53</ele>
        <time>2021-03-20T20:53:50Z</time>
      </trkpt>
      <trkpt lat="54.66721" lon="-6.03074">
        <ele>221.53</ele>
        <time>2021-03-20T20:53:56Z</time>
      </trkpt>
      <trkpt lat="54.66673" lon="-6.03138">
        <ele>230.69</ele>
        <time>2021-03-20T20:54:01Z</time>
      </trkpt>
      <trkpt lat="54.66643" lon="-6.03163">
        <ele>234.61</ele>
        <time>2021-03-20T20:54:07Z</time>
      </trkpt>
      <trkpt lat="54.66587" lon="-6.03199">
        <ele>242.08</ele>
        <time>2021-03-20T20:54:12Z</time>
      </trkpt>
      <trkpt lat="54.66564" lon="-6.03212">
        <ele>245.83</ele>
        <time>2021-03-20T20:54:18Z</time>
      </trkpt>
      <trkpt lat="54.66534" lon="-6.03234">
        <ele>249.29</ele>
        <time>2021-03-20T20:54:23Z</time>
      </trkpt>
      <trkpt lat="54.66529" lon="-6.03367">
        <ele>252.82</ele>
        <time>2021-03-20T20:54:27Z</time>
      </trkpt>
      <trkpt lat="54.66519" lon="-6.03517">
        <ele>251.8</ele>
        <time>2021-03-20T20:54:30Z</time>
      </trkpt>
      <trkpt lat="54.66519" lon="-6.03572">
        <ele>251.58</ele>
        <time>2021-03-20T20:54:33Z</time>
      </trkpt>
      <trkpt lat="54.66526" lon="-6.03804">
        <ele>251.53</ele>
        <time>2021-03-20T20:54:36Z</time>
      </trkpt>
      <trkpt lat="54.66526" lon="-6.03936">
        <ele>249.23</ele>
        <time>2021-03-20T20:54:40Z</time>
      </trkpt>
      <trkpt lat="54.66524" lon="-6.03959">
        <ele>248.49</ele>
        <time>2021-03-20T20:54:43Z</time>
      </trkpt>
      <trkpt lat="54.6652" lon="-6.03979">
        <ele>247.89</ele>
        <time>2021-03-20T20:54:46Z</time>
      </trkpt>
      <trkpt lat="54.66512" lon="-6.04">
        <ele>248.25</ele>
        <time>2021-03-20T20:54:50Z</time>
      </trkpt>
      <trkpt lat="54.665" lon="-6.04023">
        <ele>248.34</ele>
        <time>2021-03-20T20:54:53Z</time>
      </trkpt>
      <trkpt lat="54.66487" lon="-6.04042">
        <ele>248.59</ele>
        <time>2021-03-20T20:54:56Z</time>
      </trkpt>
      <trkpt lat="54.6647" lon="-6.04062">
        <ele>248.62</ele>
        <time>2021-03-20T20:54:59Z</time>
      </trkpt>
      <trkpt lat="54.66445" lon="-6.04084">
        <ele>247.96</ele>
        <time>2021-03-20T20:55:03Z</time>
      </trkpt>
      <trkpt lat="54.66263" lon="-6.04222">
        <ele>246.07</ele>
        <time>2021-03-20T20:55:06Z</time>
      </trkpt>
      <trkpt lat="54.66253" lon="-6.04234">
        <ele>246.43</ele>
        <time>2021-03-20T20:55:09Z</time>
      </trkpt>
      <trkpt lat="54.66082" lon="-6.04547">
        <ele>232.85</ele>
        <time>2021-03-20T20:55:12Z</time>
      </trkpt>
      <trkpt lat="54.66049" lon="-6.04622">
        <ele>227.59</ele>
        <time>2021-03-20T20:55:16Z</time>
      </trkpt>
      <trkpt lat="54.65925" lon="-6.04953">
        <ele>205.79</ele>
        <time>2021-03-20T20:55:19Z</time>
      </trkpt>
      <trkpt lat="54.65906" lon="-6.05014">
        <ele>203.3</ele>
        <time>2021-03-20T20:55:22Z</time>
      </trkpt>
      <trkpt lat="54.65894" lon="-6.05047">
        <ele>203</ele>
        <time>2021-03-20T20:55:25Z</time>
      </trkpt>
      <trkpt lat="54.65844" lon="-6.05144">
        <ele>197.61</ele>
        <time>2021-03-20T20:55:29Z</time>
      </trkpt>
      <trkpt lat="54.65754" lon="-6.05304">
        <ele>197.92</ele>
        <time>2021-03-20T20:55:32Z</time>
      </trkpt>
      <trkpt lat="54.65727" lon="-6.05346">
        <ele>198.36</ele>
        <time>2021-03-20T20:55:35Z</time>
      </trkpt>
      <trkpt lat="54.65655" lon="-6.05492">
        <ele>198.69</ele>
        <time>2021-03-20T20:55:38Z</time>
      </trkpt>
      <trkpt lat="54.65625" lon="-6.05581">
        <ele>196.04</ele>
        <time>2021-03-20T20:55:42Z</time>
      </trkpt>
      <trkpt lat="54.65613" lon="-6.05623">
        <ele>195.58</ele>
        <time>2021-03-20T20:55:45Z</time>
      </trkpt>
      <trkpt lat="54.65585" lon="-6.0574">
        <ele>191.96</ele>
        <time>2021-03-20T20:55:48Z</time>
      </trkpt>
      <trkpt lat="54.65496" lon="-6.05959">
        <ele>184.25</ele>
        <time>2021-03-20T20:55:51Z</time>
      </trkpt>
      <trkpt lat="54.65482" lon="-6.0598">
        <ele>183.34</ele>
        <time>2021-03-20T20:55:55Z</time>
      </trkpt>
      <trkpt lat="54.65445" lon="-6.0602">
        <ele>181.3</ele>
        <time>2021-03-20T20:55:58Z</time>
      </trkpt>
      <trkpt lat="54.65356" lon="-6.06114">
        <ele>176.62</ele>
        <time>2021-03-20T20:56:01Z</time>
      </trkpt>
      <trkpt lat="54.65306" lon="-6.06178">
        <ele>174.61</ele>
        <time>2021-03-20T20:56:04Z</time>
      </trkpt>
      <trkpt lat="54.65285" lon="-6.06196">
        <ele>173.95</ele>
        <time>2021-03-20T20:56:08Z</time>
      </trkpt>
      <trkpt lat="54.65221" lon="-6.06242">
        <ele>172.13</ele>
        <time>2021-03-20T20:56:11Z</time>
      </trkpt>
      <trkpt lat="54.65207" lon="-6.06255">
        <ele>170.22</ele>
        <time>2021-03-20T20:56:14Z</time>
      </trkpt>
      <trkpt lat="54.65186" lon="-6.06284">
        <ele>167.48</ele>
        <time>2021-03-20T20:56:17Z</time>
      </trkpt>
      <trkpt lat="54.65147" lon="-6.06358">
        <ele>163.29</ele>
        <time>2021-03-20T20:56:21Z</time>
      </trkpt>
      <trkpt lat="54.65113" lon="-6.06446">
        <ele>163.05</ele>
        <time>2021-03-20T20:56:24Z</time>
      </trkpt>
      <trkpt lat="54.65105" lon="-6.06475">
        <ele>163.54</ele>
        <time>2021-03-20T20:56:27Z</time>
      </trkpt>
      <trkpt lat="54.65097" lon="-6.06576">
        <ele>162.64</ele>
        <time>2021-03-20T20:56:30Z</time>
      </trkpt>
      <trkpt lat="54.6509" lon="-6.06624">
        <ele>161.78</ele>
        <time>2021-03-20T20:56:34Z</time>
      </trkpt>
      <trkpt lat="54.65079" lon="-6.06682">
        <ele>159.91</ele>
        <time>2021-03-20T20:56:37Z</time>
      </trkpt>
      <trkpt lat="54.65062" lon="-6.06821">
        <ele>160.75</ele>
        <time>2021-03-20T20:56:40Z</time>
      </trkpt>
      <trkpt lat="54.65052" lon="-6.06866">
        <ele>163.17</ele>
        <time>2021-03-20T20:56:44Z</time>
      </trkpt>
      <trkpt lat="54.65048" lon="-6.06879">
        <ele>163.64</ele>
        <time>2021-03-20T20:56:47Z</time>
      </trkpt>
      <trkpt lat="54.64998" lon="-6.06959">
        <ele>164.5</ele>
        <time>2021-03-20T20:56:50Z</time>
      </trkpt>
      <trkpt lat="54.6495" lon="-6.07028">
        <ele>165.19</ele>
        <time>2021-03-20T20:56:53Z</time>
      </trkpt>
      <trkpt lat="54.64938" lon="-6.07063">
        <ele>164.93</ele>
        <time>2021-03-20T20:56:57Z</time>
      </trkpt>
      <trkpt lat="54.64903" lon="-6.07188">
        <ele>166.27</ele>
        <time>2021-03-20T20:57:00Z</time>
      </trkpt>
      <trkpt lat="54.64896" lon="-6.07208">
        <ele>166.75</ele>
        <time>2021-03-20T20:57:03Z</time>
      </trkpt>
      <trkpt lat="54.64889" lon="-6.07219">
        <ele>166.99</ele>
        <time>2021-03-20T20:57:06Z</time>
      </trkpt>
      <trkpt lat="54.64696" lon="-6.06799">
        <ele>162.94</ele>
        <time>2021-03-20T20:57:15Z</time>
      </trkpt>
      <trkpt lat="54.64668" lon="-6.06735">
        <ele>163</ele>
        <time>2021-03-20T20:57:23Z</time>
      </trkpt>
      <trkpt lat="54.64111" lon="-6.06782">
        <ele>179</ele>
        <time>2021-03-20T20:57:39Z</time>
      </trkpt>
      <trkpt lat="54.64064" lon="-6.06776">
        <ele>179</ele>
        <time>2021-03-20T20:57:56Z</time>
      </trkpt>
      <trkpt lat="54.64064" lon="-6.06789">
        <ele>179.27</ele>
        <time>2021-03-20T20:57:56Z</time>
      </trkpt>
      <trkpt lat="54.64037" lon="-6.06788">
        <ele>181.36</ele>
        <time>2021-03-20T20:58:06Z</time>
      </trkpt>
      <trkpt lat="54.63728" lon="-6.06814">
        <ele>194.8</ele>
        <time>2021-03-20T20:58:15Z</time>
      </trkpt>
      <trkpt lat="54.63418" lon="-6.06843">
        <ele>213</ele>
        <time>2021-03-20T20:58:25Z</time>
      </trkpt>
      <trkpt lat="54.63347" lon="-6.06846">
        <ele>215.24</ele>
        <time>2021-03-20T20:58:35Z</time>
      </trkpt>
      <trkpt lat="54.6336" lon="-6.06148">
        <ele>211.1</ele>
        <time>2021-03-20T20:58:57Z</time>
      </trkpt>
      <trkpt lat="54.63309" lon="-6.06154">
        <ele>216.64</ele>
        <time>2021-03-20T20:59:04Z</time>
      </trkpt>
      <trkpt lat="54.63213" lon="-6.06171">
        <ele>222.4</ele>
        <time>2021-03-20T20:59:11Z</time>
      </trkpt>
      <trkpt lat="54.63179" lon="-6.06182">
        <ele>224.36</ele>
        <time>2021-03-20T20:59:17Z</time>
      </trkpt>
      <trkpt lat="54.63151" lon="-6.06195">
        <ele>224.41</ele>
        <time>2021-03-20T20:59:24Z</time>
      </trkpt>
      <trkpt lat="54.63026" lon="-6.06265">
        <ele>219.34</ele>
        <time>2021-03-20T20:59:31Z</time>
      </trkpt>
      <trkpt lat="54.62935" lon="-6.06307">
        <ele>214.29</ele>
        <time>2021-03-20T20:59:38Z</time>
      </trkpt>
      <trkpt lat="54.62383" lon="-6.0653">
        <ele>185.79</ele>
        <time>2021-03-20T20:59:45Z</time>
      </trkpt>
      <trkpt lat="54.62183" lon="-6.06607">
        <ele>187.07</ele>
        <time>2021-03-20T20:59:52Z</time>
      </trkpt>
      <trkpt lat="54.61999" lon="-6.06684">
        <ele>182.72</ele>
        <time>2021-03-20T20:59:59Z</time>
      </trkpt>
      <trkpt lat="54.61859" lon="-6.06748">
        <ele>185.15</ele>
        <time>2021-03-20T21:00:06Z</time>
      </trkpt>
      <trkpt lat="54.61696" lon="-6.06825">
        <ele>187.96</ele>
        <time>2021-03-20T21:00:13Z</time>
      </trkpt>
      <trkpt lat="54.61626" lon="-6.06861">
        <ele>193.82</ele>
        <time>2021-03-20T21:00:20Z</time>
      </trkpt>
      <trkpt lat="54.61605" lon="-6.06877">
        <ele>195.9</ele>
        <time>2021-03-20T21:00:26Z</time>
      </trkpt>
      <trkpt lat="54.61334" lon="-6.07172">
        <ele>205.32</ele>
        <time>2021-03-20T21:00:33Z</time>
      </trkpt>
      <trkpt lat="54.61315" lon="-6.07186">
        <ele>207.53</ele>
        <time>2021-03-20T21:00:40Z</time>
      </trkpt>
      <trkpt lat="54.61266" lon="-6.07178">
        <ele>209.46</ele>
        <time>2021-03-20T21:00:47Z</time>
      </trkpt>
      <trkpt lat="54.61258" lon="-6.07178">
        <ele>209.97</ele>
        <time>2021-03-20T21:00:54Z</time>
      </trkpt>
      <trkpt lat="54.61246" lon="-6.07185">
        <ele>210.82</ele>
        <time>2021-03-20T21:01:01Z</time>
      </trkpt>
      <trkpt lat="54.61233" lon="-6.072">
        <ele>211.61</ele>
        <time>2021-03-20T21:01:08Z</time>
      </trkpt>
      <trkpt lat="54.61168" lon="-6.07294">
        <ele>214</ele>
        <time>2021-03-20T21:01:15Z</time>
      </trkpt>
      <trkpt lat="54.61138" lon="-6.07334">
        <ele>214.05</ele>
        <time>2021-03-20T21:01:22Z</time>
      </trkpt>
      <trkpt lat="54.60707" lon="-6.0765">
        <ele>241.61</ele>
        <time>2021-03-20T21:01:29Z</time>
      </trkpt>
      <trkpt lat="54.60627" lon="-6.07712">
        <ele>249.75</ele>
        <time>2021-03-20T21:01:35Z</time>
      </trkpt>
      <trkpt lat="54.60571" lon="-6.07752">
        <ele>251.94</ele>
        <time>2021-03-20T21:01:42Z</time>
      </trkpt>
      <trkpt lat="54.60443" lon="-6.07833">
        <ele>250.02</ele>
        <time>2021-03-20T21:01:49Z</time>
      </trkpt>
      <trkpt lat="54.60183" lon="-6.07967">
        <ele>254.8</ele>
        <time>2021-03-20T21:01:56Z</time>
      </trkpt>
      <trkpt lat="54.60066" lon="-6.08018">
        <ele>256.98</ele>
        <time>2021-03-20T21:02:03Z</time>
      </trkpt>
      <trkpt lat="54.6" lon="-6.08035">
        <ele>260.02</ele>
        <time>2021-03-20T21:02:10Z</time>
      </trkpt>
      <trkpt lat="54.5988" lon="-6.08058">
        <ele>262.34</ele>
        <time>2021-03-20T21:02:17Z</time>
      </trkpt>
      <trkpt lat="54.59723" lon="-6.08084">
        <ele>267.02</ele>
        <time>2021-03-20T21:02:24Z</time>
      </trkpt>
      <trkpt lat="54.59695" lon="-6.08091">
        <ele>266.01</ele>
        <time>2021-03-20T21:02:31Z</time>
      </trkpt>
      <trkpt lat="54.59433" lon="-6.08237">
        <ele>258.57</ele>
        <time>2021-03-20T21:02:38Z</time>
      </trkpt>
      <trkpt lat="54.59377" lon="-6.08265">
        <ele>257.38</ele>
        <time>2021-03-20T21:02:44Z</time>
      </trkpt>
      <trkpt lat="54.59304" lon="-6.08298">
        <ele>254.29</ele>
        <time>2021-03-20T21:02:51Z</time>
      </trkpt>
      <trkpt lat="54.59286" lon="-6.0831">
        <ele>252.4</ele>
        <time>2021-03-20T21:02:58Z</time>
      </trkpt>
      <trkpt lat="54.59268" lon="-6.08326">
        <ele>250.74</ele>
        <time>2021-03-20T21:03:05Z</time>
      </trkpt>
      <trkpt lat="54.59254" lon="-6.08342">
        <ele>249.76</ele>
        <time>2021-03-20T21:03:12Z</time>
      </trkpt>
      <trkpt lat="54.59211" lon="-6.08409">
        <ele>245.94</ele>
        <time>2021-03-20T21:03:19Z</time>
      </trkpt>
      <trkpt lat="54.59139" lon="-6.0855">
        <ele>238.99</ele>
        <time>2021-03-20T21:03:26Z</time>
      </trkpt>
      <trkpt lat="54.58799" lon="-6.09235">
        <ele>215.8</ele>
        <time>2021-03-20T21:03:33Z</time>
      </trkpt>
      <trkpt lat="54.58609" lon="-6.0964">
        <ele>210.93</ele>
        <time>2021-03-20T21:03:40Z</time>
      </trkpt>
      <trkpt lat="54.58518" lon="-6.09859">
        <ele>204.73</ele>
        <time>2021-03-20T21:03:47Z</time>
      </trkpt>
      <trkpt lat="54.58452" lon="-6.10001">
        <ele>209.18</ele>
        <time>2021-03-20T21:03:53Z</time>
      </trkpt>
      <trkpt lat="54.58447" lon="-6.10007">
        <ele>209.76</ele>
        <time>2021-03-20T21:04:00Z</time>
      </trkpt>
      <trkpt lat="54.58448" lon="-6.1002">
        <ele>209.63</ele>
        <time>2021-03-20T21:04:01Z</time>
      </trkpt>
      <trkpt lat="54.5844" lon="-6.10027">
        <ele>210.15</ele>
        <time>2021-03-20T21:04:09Z</time>
      </trkpt>
      <trkpt lat="54.58097" lon="-6.10752">
        <ele>208.45</ele>
        <time>2021-03-20T21:04:18Z</time>
      </trkpt>
      <trkpt lat="54.58081" lon="-6.1079">
        <ele>206.53</ele>
        <time>2021-03-20T21:04:26Z</time>
      </trkpt>
      <trkpt lat="54.58077" lon="-6.10809">
        <ele>204.8</ele>
        <time>2021-03-20T21:04:34Z</time>
      </trkpt>
      <trkpt lat="54.58062" lon="-6.10956">
        <ele>201.57</ele>
        <time>2021-03-20T21:04:43Z</time>
      </trkpt>
      <trkpt lat="54.58047" lon="-6.11122">
        <ele>196.46</ele>
        <time>2021-03-20T21:04:51Z</time>
      </trkpt>
      <trkpt lat="54.57979" lon="-6.11805">
        <ele>180.26</ele>
        <time>2021-03-20T21:05:00Z</time>
      </trkpt>
      <trkpt lat="54.57972" lon="-6.11829">
        <ele>179.99</ele>
        <time>2021-03-20T21:05:08Z</time>
      </trkpt>
      <trkpt lat="54.57966" lon="-6.11839">
        <ele>179.6</ele>
        <time>2021-03-20T21:05:17Z</time>
      </trkpt>
      <trkpt lat="54.57958" lon="-6.11847">
        <ele>179.24</ele>
        <time>2021-03-20T21:05:25Z</time>
      </trkpt>
      <trkpt lat="54.57796" lon="-6.11964">
        <ele>172.33</ele>
        <time>2021-03-20T21:05:33Z</time>
      </trkpt>
      <trkpt lat="54.57719" lon="-6.12016">
        <ele>168.25</ele>
        <time>2021-03-20T21:05:42Z</time>
      </trkpt>
      <trkpt lat="54.57569" lon="-6.12102">
        <ele>156.49</ele>
        <time>2021-03-20T21:05:50Z</time>
      </trkpt>
      <trkpt lat="54.57192" lon="-6.12308">
        <ele>140.9</ele>
        <time>2021-03-20T21:05:59Z</time>
      </trkpt>
      <trkpt lat="54.5708" lon="-6.12373">
        <ele>135.87</ele>
        <time>2021-03-20T21:06:07Z</time>
      </trkpt>
      <trkpt lat="54.56907" lon="-6.12472">
        <ele>133</ele>
        <time>2021-03-20T21:06:15Z</time>
      </trkpt>
      <trkpt lat="54.56903" lon="-6.12467">
        <ele>133.1</ele>
        <time>2021-03-20T21:06:16Z</time>
      </trkpt>
      <trkpt lat="54.56884" lon="-6.12493">
        <ele>132.87</ele>
        <time>2021-03-20T21:06:20Z</time>
      </trkpt>
      <trkpt lat="54.5685" lon="-6.12526">
        <ele>131.05</ele>
        <time>2021-03-20T21:06:23Z</time>
      </trkpt>
      <trkpt lat="54.56531" lon="-6.12819">
        <ele>129.48</ele>
        <time>2021-03-20T21:06:27Z</time>
      </trkpt>
      <trkpt lat="54.56514" lon="-6.1284">
        <ele>128.99</ele>
        <time>2021-03-20T21:06:31Z</time>
      </trkpt>
      <trkpt lat="54.56426" lon="-6.12961">
        <ele>128.41</ele>
        <time>2021-03-20T21:06:35Z</time>
      </trkpt>
      <trkpt lat="54.56371" lon="-6.13041">
        <ele>127.35</ele>
        <time>2021-03-20T21:06:38Z</time>
      </trkpt>
      <trkpt lat="54.5636" lon="-6.13061">
        <ele>127.19</ele>
        <time>2021-03-20T21:06:42Z</time>
      </trkpt>
      <trkpt lat="54.56342" lon="-6.13075">
        <ele>127.68</ele>
        <time>2021-03-20T21:06:46Z</time>
      </trkpt>
      <trkpt lat="54.56325" lon="-6.13095">
        <ele>128</ele>
        <time>2021-03-20T21:06:50Z</time>
      </trkpt>
      <trkpt lat="54.56288" lon="-6.13128">
        <ele>127.63</ele>
        <time>2021-03-20T21:06:53Z</time>
      </trkpt>
      <trkpt lat="54.56211" lon="-6.13179">
        <ele>125.18</ele>
        <time>2021-03-20T21:06:57Z</time>
      </trkpt>
      <trkpt lat="54.56066" lon="-6.13281">
        <ele>125.7</ele>
        <time>2021-03-20T21:07:01Z</time>
      </trkpt>
      <trkpt lat="54.55996" lon="-6.13332">
        <ele>126.14</ele>
        <time>2021-03-20T21:07:05Z</time>
      </trkpt>
      <trkpt lat="54.55951" lon="-6.13367">
        <ele>127.5</ele>
        <time>2021-03-20T21:07:08Z</time>
      </trkpt>
      <trkpt lat="54.55904" lon="-6.13396">
        <ele>129.21</ele>
        <time>2021-03-20T21:07:12Z</time>
      </trkpt>
      <trkpt lat="54.55883" lon="-6.13405">
        <ele>129.54</ele>
        <time>2021-03-20T21:07:16Z</time>
      </trkpt>
      <trkpt lat="54.55802" lon="-6.13421">
        <ele>133.12</ele>
        <time>2021-03-20T21:07:19Z</time>
      </trkpt>
      <trkpt lat="54.55739" lon="-6.13438">
        <ele>135.81</ele>
        <time>2021-03-20T21:07:23Z</time>
      </trkpt>
      <trkpt lat="54.55665" lon="-6.13448">
        <ele>139.95</ele>
        <time>2021-03-20T21:07:27Z</time>
      </trkpt>
      <trkpt lat="54.5565" lon="-6.13455">
        <ele>139.99</ele>
        <time>2021-03-20T21:07:31Z</time>
      </trkpt>
      <trkpt lat="54.55572" lon="-6.13517">
        <ele>135</ele>
        <time>2021-03-20T21:07:34Z</time>
      </trkpt>
      <trkpt lat="54.55542" lon="-6.13526">
        <ele>134.59</ele>
        <time>2021-03-20T21:07:38Z</time>
      </trkpt>
      <trkpt lat="54.55449" lon="-6.13514">
        <ele>136.25</ele>
        <time>2021-03-20T21:07:42Z</time>
      </trkpt>
      <trkpt lat="54.55437" lon="-6.13509">
        <ele>136.23</ele>
        <time>2021-03-20T21:07:46Z</time>
      </trkpt>
      <trkpt lat="54.55394" lon="-6.13474">
        <ele>136</ele>
        <time>2021-03-20T21:07:49Z</time>
      </trkpt>
      <trkpt lat="54.55374" lon="-6.13405">
        <ele>136.54</ele>
        <time>2021-03-20T21:07:53Z</time>
      </trkpt>
      <trkpt lat="54.5536" lon="-6.13371">
        <ele>137.04</ele>
        <time>2021-03-20T21:07:57Z</time>
      </trkpt>
      <trkpt lat="54.55273" lon="-6.13172">
        <ele>143.96</ele>
        <time>2021-03-20T21:08:00Z</time>
      </trkpt>
      <trkpt lat="54.55104" lon="-6.13322">
        <ele>147.91</ele>
        <time>2021-03-20T21:08:05Z</time>
      </trkpt>
      <trkpt lat="54.55049" lon="-6.13365">
        <ele>150.38</ele>
        <time>2021-03-20T21:08:10Z</time>
      </trkpt>
      <trkpt lat="54.54784" lon="-6.13544">
        <ele>139.41</ele>
        <time>2021-03-20T21:08:15Z</time>
      </trkpt>
      <trkpt lat="54.54698" lon="-6.13609">
        <ele>136</ele>
        <time>2021-03-20T21:08:20Z</time>
      </trkpt>
      <trkpt lat="54.54476" lon="-6.13888">
        <ele>119.45</ele>
        <time>2021-03-20T21:08:25Z</time>
      </trkpt>
      <trkpt lat="54.5442" lon="-6.13954">
        <ele>125.17</ele>
        <time>2021-03-20T21:08:30Z</time>
      </trkpt>
      <trkpt lat="54.54351" lon="-6.1405">
        <ele>125</ele>
        <time>2021-03-20T21:08:34Z</time>
      </trkpt>
      <trkpt lat="54.54329" lon="-6.14064">
        <ele>125.04</ele>
        <time>2021-03-20T21:08:39Z</time>
      </trkpt>
      <trkpt lat="54.54269" lon="-6.14091">
        <ele>130.45</ele>
        <time>2021-03-20T21:08:44Z</time>
      </trkpt>
      <trkpt lat="54.54202" lon="-6.14117">
        <ele>133.8</ele>
        <time>2021-03-20T21:08:49Z</time>
      </trkpt>
      <trkpt lat="54.54123" lon="-6.14142">
        <ele>132.52</ele>
        <time>2021-03-20T21:08:54Z</time>
      </trkpt>
      <trkpt lat="54.53978" lon="-6.142">
        <ele>130</ele>
        <time>2021-03-20T21:08:59Z</time>
      </trkpt>
      <trkpt lat="54.53967" lon="-6.14207">
        <ele>129.79</ele>
        <time>2021-03-20T21:09:04Z</time>
      </trkpt>
      <trkpt lat="54.53941" lon="-6.1423">
        <ele>128.61</ele>
        <time>2021-03-20T21:09:09Z</time>
      </trkpt>
      <trkpt lat="54.5392" lon="-6.14254">
        <ele>126.97</ele>
        <time>2021-03-20T21:09:13Z</time>
      </trkpt>
      <trkpt lat="54.53785" lon="-6.14421">
        <ele>104.39</ele>
        <time>2021-03-20T21:09:18Z</time>
      </trkpt>
      <trkpt lat="54.5374" lon="-6.1447">
        <ele>100.71</ele>
        <time>2021-03-20T21:09:23Z</time>
      </trkpt>
      <trkpt lat="54.5368" lon="-6.14544">
        <ele>100</ele>
        <time>2021-03-20T21:09:28Z</time>
      </trkpt>
      <trkpt lat="54.5363" lon="-6.14603">
        <ele>100</ele>
        <time>2021-03-20T21:09:33Z</time>
      </trkpt>
      <trkpt lat="54.53525" lon="-6.14703">
        <ele>97.22</ele>
        <time>2021-03-20T21:09:38Z</time>
      </trkpt>
      <trkpt lat="54.53477" lon="-6.14735">
        <ele>95.82</ele>
        <time>2021-03-20T21:09:43Z</time>
      </trkpt>
      <trkpt lat="54.5338" lon="-6.14823">
        <ele>90.68</ele>
        <time>2021-03-20T21:09:47Z</time>
      </trkpt>
      <trkpt lat="54.53358" lon="-6.14847">
        <ele>90</ele>
        <time>2021-03-20T21:09:52Z</time>
      </trkpt>
      <trkpt lat="54.53293" lon="-6.14905">
        <ele>89.15</ele>
        <time>2021-03-20T21:09:57Z</time>
      </trkpt>
      <trkpt lat="54.5323" lon="-6.14949">
        <ele>84.53</ele>
        <time>2021-03-20T21:10:02Z</time>
      </trkpt>
      <trkpt lat="54.532" lon="-6.14965">
        <ele>83.8</ele>
        <time>2021-03-20T21:10:07Z</time>
      </trkpt>
      <trkpt lat="54.53192" lon="-6.14967">
        <ele>83.82</ele>
        <time>2021-03-20T21:10:12Z</time>
      </trkpt>
      <trkpt lat="54.53038" lon="-6.14957">
        <ele>77.73</ele>
        <time>2021-03-20T21:10:17Z</time>
      </trkpt>
      <trkpt lat="54.52939" lon="-6.14947">
        <ele>82.58</ele>
        <time>2021-03-20T21:10:22Z</time>
      </trkpt>
      <trkpt lat="54.52933" lon="-6.14968">
        <ele>83.19</ele>
        <time>2021-03-20T21:10:24Z</time>
      </trkpt>
      <trkpt lat="54.52955" lon="-6.15272">
        <ele>76.13</ele>
        <time>2021-03-20T21:10:27Z</time>
      </trkpt>
      <trkpt lat="54.52957" lon="-6.15346">
        <ele>78.38</ele>
        <time>2021-03-20T21:10:30Z</time>
      </trkpt>
      <trkpt lat="54.52959" lon="-6.15541">
        <ele>77.49</ele>
        <time>2021-03-20T21:10:32Z</time>
      </trkpt>
      <trkpt lat="54.52957" lon="-6.1558">
        <ele>78.42</ele>
        <time>2021-03-20T21:10:35Z</time>
      </trkpt>
      <trkpt lat="54.52945" lon="-6.15698">
        <ele>78.06</ele>
        <time>2021-03-20T21:10:38Z</time>
      </trkpt>
      <trkpt lat="54.52944" lon="-6.15745">
        <ele>77.18</ele>
        <time>2021-03-20T21:10:41Z</time>
      </trkpt>
      <trkpt lat="54.52946" lon="-6.15774">
        <ele>77.06</ele>
        <time>2021-03-20T21:10:43Z</time>
      </trkpt>
      <trkpt lat="54.52963" lon="-6.15929">
        <ele>75.68</ele>
        <time>2021-03-20T21:10:46Z</time>
      </trkpt>
      <trkpt lat="54.52963" lon="-6.15965">
        <ele>74.91</ele>
        <time>2021-03-20T21:10:49Z</time>
      </trkpt>
      <trkpt lat="54.52954" lon="-6.16102">
        <ele>72.34</ele>
        <time>2021-03-20T21:10:52Z</time>
      </trkpt>
      <trkpt lat="54.52954" lon="-6.16159">
        <ele>72.36</ele>
        <time>2021-03-20T21:10:54Z</time>
      </trkpt>
      <trkpt lat="54.5294" lon="-6.16169">
        <ele>71.81</ele>
        <time>2021-03-20T21:10:58Z</time>
      </trkpt>
      <trkpt lat="54.529" lon="-6.16204">
        <ele>69.78</ele>
        <time>2021-03-20T21:11:02Z</time>
      </trkpt>
      <trkpt lat="54.52833" lon="-6.16274">
        <ele>68.01</ele>
        <time>2021-03-20T21:11:06Z</time>
      </trkpt>
      <trkpt lat="54.52736" lon="-6.16397">
        <ele>75.22</ele>
        <time>2021-03-20T21:11:10Z</time>
      </trkpt>
      <trkpt lat="54.5257" lon="-6.16588">
        <ele>77.58</ele>
        <time>2021-03-20T21:11:14Z</time>
      </trkpt>
      <trkpt lat="54.52471" lon="-6.16711">
        <ele>80.65</ele>
        <time>2021-03-20T21:11:18Z</time>
      </trkpt>
      <trkpt lat="54.52448" lon="-6.16737">
        <ele>82.38</ele>
        <time>2021-03-20T21:11:22Z</time>
      </trkpt>
      <trkpt lat="54.52418" lon="-6.16762">
        <ele>83.97</ele>
        <time>2021-03-20T21:11:25Z</time>
      </trkpt>
      <trkpt lat="54.52312" lon="-6.16835">
        <ele>90.85</ele>
        <time>2021-03-20T21:11:29Z</time>
      </trkpt>
      <trkpt lat="54.52259" lon="-6.16866">
        <ele>92</ele>
        <time>2021-03-20T21:11:33Z</time>
      </trkpt>
      <trkpt lat="54.52177" lon="-6.16908">
        <ele>93.75</ele>
        <time>2021-03-20T21:11:37Z</time>
      </trkpt>
      <trkpt lat="54.52147" lon="-6.16915">
        <ele>94.69</ele>
        <time>2021-03-20T21:11:41Z</time>
      </trkpt>
      <trkpt lat="54.52081" lon="-6.16917">
        <ele>99.07</ele>
        <time>2021-03-20T21:11:45Z</time>
      </trkpt>
      <trkpt lat="54.51958" lon="-6.16938">
        <ele>100</ele>
        <time>2021-03-20T21:11:49Z</time>
      </trkpt>
      <trkpt lat="54.51846" lon="-6.16949">
        <ele>102.83</ele>
        <time>2021-03-20T21:11:53Z</time>
      </trkpt>
      <trkpt lat="54.51651" lon="-6.16896">
        <ele>99.11</ele>
        <time>2021-03-20T21:11:57Z</time>
      </trkpt>
      <trkpt lat="54.51623" lon="-6.16891">
        <ele>98.45</ele>
        <time>2021-03-20T21:12:01Z</time>
      </trkpt>
      <trkpt lat="54.51599" lon="-6.1689">
        <ele>98.05</ele>
        <time>2021-03-20T21:12:04Z</time>
      </trkpt>
      <trkpt lat="54.51576" lon="-6.16894">
        <ele>98.13</ele>
        <time>2021-03-20T21:12:08Z</time>
      </trkpt>
      <trkpt lat="54.51525" lon="-6.16907">
        <ele>97.46</ele>
        <time>2021-03-20T21:12:12Z</time>
      </trkpt>
      <trkpt lat="54.51511" lon="-6.16906">
        <ele>96.43</ele>
        <time>2021-03-20T21:12:16Z</time>
      </trkpt>
      <trkpt lat="54.51502" lon="-6.16902">
        <ele>95.59</ele>
        <time>2021-03-20T21:12:20Z</time>
      </trkpt>
      <trkpt lat="54.51448" lon="-6.16807">
        <ele>94</ele>
        <time>2021-03-20T21:12:24Z</time>
      </trkpt>
      <trkpt lat="54.51403" lon="-6.1685">
        <ele>93.83</ele>
        <time>2021-03-20T21:12:31Z</time>
      </trkpt>
      <trkpt lat="54.5139" lon="-6.16872">
        <ele>93.07</ele>
        <time>2021-03-20T21:12:37Z</time>
      </trkpt>
      <trkpt lat="54.5127" lon="-6.17142">
        <ele>91.72</ele>
        <time>2021-03-20T21:12:44Z</time>
      </trkpt>
      <trkpt lat="54.51205" lon="-6.173">
        <ele>90.47</ele>
        <time>2021-03-20T21:12:51Z</time>
      </trkpt>
      <trkpt lat="54.51168" lon="-6.17379">
        <ele>90</ele>
        <time>2021-03-20T21:12:57Z</time>
      </trkpt>
      <trkpt lat="54.51078" lon="-6.17535">
        <ele>92.61</ele>
        <time>2021-03-20T21:13:04Z</time>
      </trkpt>
      <trkpt lat="54.51028" lon="-6.17644">
        <ele>89.04</ele>
        <time>2021-03-20T21:13:11Z</time>
      </trkpt>
      <trkpt lat="54.51001" lon="-6.17698">
        <ele>89.96</ele>
        <time>2021-03-20T21:13:17Z</time>
      </trkpt>
      <trkpt lat="54.50877" lon="-6.17907">
        <ele>85.65</ele>
        <time>2021-03-20T21:13:24Z</time>
      </trkpt>
      <trkpt lat="54.50866" lon="-6.17932">
        <ele>86</ele>
        <time>2021-03-20T21:13:31Z</time>
      </trkpt>
      <trkpt lat="54.50857" lon="-6.17959">
        <ele>84.85</ele>
        <time>2021-03-20T21:13:37Z</time>
      </trkpt>
      <trkpt lat="54.50815" lon="-6.18135">
        <ele>79.32</ele>
        <time>2021-03-20T21:13:44Z</time>
      </trkpt>
      <trkpt lat="54.50793" lon="-6.18205">
        <ele>79</ele>
        <time>2021-03-20T21:13:51Z</time>
      </trkpt>
      <trkpt lat="54.50772" lon="-6.18263">
        <ele>80</ele>
        <time>2021-03-20T21:13:57Z</time>
      </trkpt>
      <trkpt lat="54.50748" lon="-6.18322">
        <ele>78.92</ele>
        <time>2021-03-20T21:14:04Z</time>
      </trkpt>
      <trkpt lat="54.50657" lon="-6.18509">
        <ele>81.57</ele>
        <time>2021-03-20T21:14:11Z</time>
      </trkpt>
      <trkpt lat="54.50581" lon="-6.18699">
        <ele>83.07</ele>
        <time>2021-03-20T21:14:17Z</time>
      </trkpt>
      <trkpt lat="54.50496" lon="-6.1889">
        <ele>87.14</ele>
        <time>2021-03-20T21:14:24Z</time>
      </trkpt>
      <trkpt lat="54.50489" lon="-6.18908">
        <ele>87.41</ele>
        <time>2021-03-20T21:14:31Z</time>
      </trkpt>
      <trkpt lat="54.50452" lon="-6.19029">
        <ele>90</ele>
        <time>2021-03-20T21:14:37Z</time>
      </trkpt>
      <trkpt lat="54.50342" lon="-6.1903">
        <ele>88.31</ele>
        <time>2021-03-20T21:14:40Z</time>
      </trkpt>
      <trkpt lat="54.50322" lon="-6.19022">
        <ele>87.39</ele>
        <time>2021-03-20T21:14:42Z</time>
      </trkpt>
      <trkpt lat="54.50301" lon="-6.19007">
        <ele>86.2</ele>
        <time>2021-03-20T21:14:44Z</time>
      </trkpt>
      <trkpt lat="54.50219" lon="-6.18928">
        <ele>85.05</ele>
        <time>2021-03-20T21:14:46Z</time>
      </trkpt>
      <trkpt lat="54.50169" lon="-6.18883">
        <ele>84</ele>
        <time>2021-03-20T21:14:49Z</time>
      </trkpt>
      <trkpt lat="54.50137" lon="-6.18866">
        <ele>82.61</ele>
        <time>2021-03-20T21:14:51Z</time>
      </trkpt>
      <trkpt lat="54.50108" lon="-6.18863">
        <ele>77.19</ele>
        <time>2021-03-20T21:14:53Z</time>
      </trkpt>
      <trkpt lat="54.50074" lon="-6.18869">
        <ele>69.44</ele>
        <time>2021-03-20T21:14:55Z</time>
      </trkpt>
      <trkpt lat="54.50026" lon="-6.1886">
        <ele>65.06</ele>
        <time>2021-03-20T21:14:58Z</time>
      </trkpt>
      <trkpt lat="54.50011" lon="-6.1886">
        <ele>64.57</ele>
        <time>2021-03-20T21:15:00Z</time>
      </trkpt>
      <trkpt lat="54.49983" lon="-6.18869">
        <ele>64.01</ele>
        <time>2021-03-20T21:15:02Z</time>
      </trkpt>
      <trkpt lat="54.4986" lon="-6.18948">
        <ele>56.71</ele>
        <time>2021-03-20T21:15:04Z</time>
      </trkpt>
      <trkpt lat="54.49824" lon="-6.18976">
        <ele>50.66</ele>
        <time>2021-03-20T21:15:06Z</time>
      </trkpt>
      <trkpt lat="54.49813" lon="-6.18979">
        <ele>49</ele>
        <time>2021-03-20T21:15:09Z</time>
      </trkpt>
      <trkpt lat="54.49784" lon="-6.18969">
        <ele>47.32</ele>
        <time>2021-03-20T21:15:11Z</time>
      </trkpt>
      <trkpt lat="54.4977" lon="-6.18967">
        <ele>46.64</ele>
        <time>2021-03-20T21:15:13Z</time>
      </trkpt>
      <trkpt lat="54.49761" lon="-6.18969">
        <ele>45.97</ele>
        <time>2021-03-20T21:15:15Z</time>
      </trkpt>
      <trkpt lat="54.49733" lon="-6.1899">
        <ele>44.14</ele>
        <time>2021-03-20T21:15:18Z</time>
      </trkpt>
      <trkpt lat="54.49723" lon="-6.18995">
        <ele>44.01</ele>
        <time>2021-03-20T21:15:20Z</time>
      </trkpt>
      <trkpt lat="54.49644" lon="-6.19002">
        <ele>39.28</ele>
        <time>2021-03-20T21:15:22Z</time>
      </trkpt>
      <trkpt lat="54.49632" lon="-6.19005">
        <ele>39.42</ele>
        <time>2021-03-20T21:15:24Z</time>
      </trkpt>
      <trkpt lat="54.49622" lon="-6.19012">
        <ele>40.04</ele>
        <time>2021-03-20T21:15:27Z</time>
      </trkpt>
      <trkpt lat="54.49614" lon="-6.19021">
        <ele>40.64</ele>
        <time>2021-03-20T21:15:29Z</time>
      </trkpt>
      <trkpt lat="54.49608" lon="-6.19033">
        <ele>41.02</ele>
        <time>2021-03-20T21:15:31Z</time>
      </trkpt>
      <trkpt lat="54.49602" lon="-6.19051">
        <ele>41.28</ele>
        <time>2021-03-20T21:15:33Z</time>
      </trkpt>
      <trkpt lat="54.49589" lon="-6.19106">
        <ele>43.82</ele>
        <time>2021-03-20T21:15:36Z</time>
      </trkpt>
      <trkpt lat="54.49584" lon="-6.19123">
        <ele>44.45</ele>
        <time>2021-03-20T21:15:38Z</time>
      </trkpt>
      <trkpt lat="54.4956" lon="-6.19172">
        <ele>45.35</ele>
        <time>2021-03-20T21:15:40Z</time>
      </trkpt>
      <trkpt lat="54.49536" lon="-6.19213">
        <ele>46</ele>
        <time>2021-03-20T21:15:42Z</time>
      </trkpt>
      <trkpt lat="54.49527" lon="-6.19222">
        <ele>45.98</ele>
        <time>2021-03-20T21:15:45Z</time>
      </trkpt>
      <trkpt lat="54.49501" lon="-6.19241">
        <ele>45.69</ele>
        <time>2021-03-20T21:15:47Z</time>
      </trkpt>
      <trkpt lat="54.49485" lon="-6.19257">
        <ele>45.45</ele>
        <time>2021-03-20T21:15:49Z</time>
      </trkpt>
      <trkpt lat="54.49474" lon="-6.19282">
        <ele>44.93</ele>
        <time>2021-03-20T21:15:51Z</time>
      </trkpt>
      <trkpt lat="54.49465" lon="-6.19291">
        <ele>44.53</ele>
        <time>2021-03-20T21:15:54Z</time>
      </trkpt>
      <trkpt lat="54.49454" lon="-6.19296">
        <ele>44.33</ele>
        <time>2021-03-20T21:15:56Z</time>
      </trkpt>
      <trkpt lat="54.49436" lon="-6.1931">
        <ele>43.83</ele>
        <time>2021-03-20T21:15:58Z</time>
      </trkpt>
      <trkpt lat="54.49393" lon="-6.19355">
        <ele>40.41</ele>
        <time>2021-03-20T21:16:00Z</time>
      </trkpt>
      <trkpt lat="54.49314" lon="-6.19446">
        <ele>37.46</ele>
        <time>2021-03-20T21:16:03Z</time>
      </trkpt>
      <trkpt lat="54.49228" lon="-6.19354">
        <ele>37.54</ele>
        <time>2021-03-20T21:16:06Z</time>
      </trkpt>
      <trkpt lat="54.49191" lon="-6.19305">
        <ele>39.09</ele>
        <time>2021-03-20T21:16:09Z</time>
      </trkpt>
      <trkpt lat="54.49132" lon="-6.19237">
        <ele>39.29</ele>
        <time>2021-03-20T21:16:12Z</time>
      </trkpt>
      <trkpt lat="54.49018" lon="-6.1919">
        <ele>37.51</ele>
        <time>2021-03-20T21:16:15Z</time>
      </trkpt>
      <trkpt lat="54.48499" lon="-6.18967">
        <ele>33.01</ele>
        <time>2021-03-20T21:16:18Z</time>
      </trkpt>
      <trkpt lat="54.48422" lon="-6.18936">
        <ele>33.17</ele>
        <time>2021-03-20T21:16:21Z</time>
      </trkpt>
      <trkpt lat="54.48403" lon="-6.18922">
        <ele>32.9</ele>
        <time>2021-03-20T21:16:25Z</time>
      </trkpt>
      <trkpt lat="54.48336" lon="-6.18853">
        <ele>32.38</ele>
        <time>2021-03-20T21:16:28Z</time>
      </trkpt>
      <trkpt lat="54.48324" lon="-6.18845">
        <ele>32.4</ele>
        <time>2021-03-20T21:16:31Z</time>
      </trkpt>
      <trkpt lat="54.48272" lon="-6.18824">
        <ele>31.34</ele>
        <time>2021-03-20T21:16:34Z</time>
      </trkpt>
      <trkpt lat="54.48241" lon="-6.18803">
        <ele>32.08</ele>
        <time>2021-03-20T21:16:37Z</time>
      </trkpt>
      <trkpt lat="54.48233" lon="-6.18795">
        <ele>32.37</ele>
        <time>2021-03-20T21:16:40Z</time>
      </trkpt>
      <trkpt lat="54.48219" lon="-6.18771">
        <ele>33</ele>
        <time>2021-03-20T21:16:43Z</time>
      </trkpt>
      <trkpt lat="54.48184" lon="-6.18681">
        <ele>34.39</ele>
        <time>2021-03-20T21:16:47Z</time>
      </trkpt>
      <trkpt lat="54.48128" lon="-6.18563">
        <ele>34</ele>
        <time>2021-03-20T21:16:50Z</time>
      </trkpt>
      <trkpt lat="54.48114" lon="-6.18518">
        <ele>33.65</ele>
        <time>2021-03-20T21:16:53Z</time>
      </trkpt>
      <trkpt lat="54.48111" lon="-6.18497">
        <ele>33.02</ele>
        <time>2021-03-20T21:16:56Z</time>
      </trkpt>
      <trkpt lat="54.4811" lon="-6.18411">
        <ele>33.25</ele>
        <time>2021-03-20T21:16:59Z</time>
      </trkpt>
      <trkpt lat="54.48105" lon="-6.18385">
        <ele>34.21</ele>
        <time>2021-03-20T21:17:02Z</time>
      </trkpt>
      <trkpt lat="54.48099" lon="-6.18369">
        <ele>34.43</ele>
        <time>2021-03-20T21:17:05Z</time>
      </trkpt>
      <trkpt lat="54.48064" lon="-6.18328">
        <ele>35</ele>
        <time>2021-03-20T21:17:09Z</time>
      </trkpt>
      <trkpt lat="54.48051" lon="-6.18317">
        <ele>34.93</ele>
        <time>2021-03-20T21:17:12Z</time>
      </trkpt>
      <trkpt lat="54.48039" lon="-6.18309">
        <ele>34.92</ele>
        <time>2021-03-20T21:17:15Z</time>
      </trkpt>
      <trkpt lat="54.47987" lon="-6.18284">
        <ele>34.28</ele>
        <time>2021-03-20T21:17:18Z</time>
      </trkpt>
      <trkpt lat="54.47976" lon="-6.18276">
        <ele>34.12</ele>
        <time>2021-03-20T21:17:21Z</time>
      </trkpt>
      <trkpt lat="54.47966" lon="-6.18265">
        <ele>33.78</ele>
        <time>2021-03-20T21:17:24Z</time>
      </trkpt>
      <trkpt lat="54.47957" lon="-6.18248">
        <ele>33.47</ele>
        <time>2021-03-20T21:17:27Z</time>
      </trkpt>
      <trkpt lat="54.47937" lon="-6.18199">
        <ele>33.74</ele>
        <time>2021-03-20T21:17:31Z</time>
      </trkpt>
      <trkpt lat="54.47835" lon="-6.17965">
        <ele>32.78</ele>
        <time>2021-03-20T21:17:34Z</time>
      </trkpt>
      <trkpt lat="54.47817" lon="-6.17925">
        <ele>31.39</ele>
        <time>2021-03-20T21:17:37Z</time>
      </trkpt>
      <trkpt lat="54.47788" lon="-6.17871">
        <ele>31.63</ele>
        <time>2021-03-20T21:17:40Z</time>
      </trkpt>
      <trkpt lat="54.47774" lon="-6.17838">
        <ele>31.41</ele>
        <time>2021-03-20T21:17:43Z</time>
      </trkpt>
      <trkpt lat="54.47768" lon="-6.1782">
        <ele>31.53</ele>
        <time>2021-03-20T21:17:46Z</time>
      </trkpt>
      <trkpt lat="54.47765" lon="-6.17804">
        <ele>31.4</ele>
        <time>2021-03-20T21:17:49Z</time>
      </trkpt>
      <trkpt lat="54.47756" lon="-6.177">
        <ele>30</ele>
        <time>2021-03-20T21:17:53Z</time>
      </trkpt>
      <trkpt lat="54.47754" lon="-6.17644">
        <ele>29.05</ele>
        <time>2021-03-20T21:17:56Z</time>
      </trkpt>
      <trkpt lat="54.4772" lon="-6.1744">
        <ele>30</ele>
        <time>2021-03-20T21:17:59Z</time>
      </trkpt>
      <trkpt lat="54.47716" lon="-6.17442">
        <ele>30</ele>
        <time>2021-03-20T21:18:02Z</time>
      </trkpt>
      <trkpt lat="54.47675" lon="-6.17519">
        <ele>29.9</ele>
        <time>2021-03-20T21:18:06Z</time>
      </trkpt>
      <trkpt lat="54.47534" lon="-6.17816">
        <ele>30</ele>
        <time>2021-03-20T21:18:09Z</time>
      </trkpt>
      <trkpt lat="54.47505" lon="-6.17889">
        <ele>31</ele>
        <time>2021-03-20T21:18:12Z</time>
      </trkpt>
      <trkpt lat="54.47471" lon="-6.18001">
        <ele>33.01</ele>
        <time>2021-03-20T21:18:16Z</time>
      </trkpt>
      <trkpt lat="54.4745" lon="-6.18059">
        <ele>33.64</ele>
        <time>2021-03-20T21:18:19Z</time>
      </trkpt>
      <trkpt lat="54.47413" lon="-6.18143">
        <ele>36.14</ele>
        <time>2021-03-20T21:18:22Z</time>
      </trkpt>
      <trkpt lat="54.47343" lon="-6.18295">
        <ele>35.79</ele>
        <time>2021-03-20T21:18:25Z</time>
      </trkpt>
      <trkpt lat="54.47316" lon="-6.18346">
        <ele>36.46</ele>
        <time>2021-03-20T21:18:29Z</time>
      </trkpt>
      <trkpt lat="54.47271" lon="-6.18418">
        <ele>34.97</ele>
        <time>2021-03-20T21:18:32Z</time>
      </trkpt>
      <trkpt lat="54.47215" lon="-6.18486">
        <ele>35</ele>
        <time>2021-03-20T21:18:35Z</time>
      </trkpt>
      <trkpt lat="54.47172" lon="-6.18529">
        <ele>35</ele>
        <time>2021-03-20T21:18:39Z</time>
      </trkpt>
      <trkpt lat="54.47138" lon="-6.18558">
        <ele>34.97</ele>
        <time>2021-03-20T21:18:42Z</time>
      </trkpt>
      <trkpt lat="54.47122" lon="-6.18567">
        <ele>34.64</ele>
        <time>2021-03-20T21:18:45Z</time>
      </trkpt>
      <trkpt lat="54.47064" lon="-6.18589">
        <ele>34</ele>
        <time>2021-03-20T21:18:49Z</time>
      </trkpt>
      <trkpt lat="54.47035" lon="-6.18592">
        <ele>34</ele>
        <time>2021-03-20T21:18:52Z</time>
      </trkpt>
      <trkpt lat="54.46984" lon="-6.18571">
        <ele>34.55</ele>
        <time>2021-03-20T21:18:55Z</time>
      </trkpt>
      <trkpt lat="54.46982" lon="-6.18591">
        <ele>35.17</ele>
        <time>2021-03-20T21:19:00Z</time>
      </trkpt>
      <trkpt lat="54.46984" lon="-6.18604">
        <ele>35.43</ele>
        <time>2021-03-20T21:19:04Z</time>
      </trkpt>
      <trkpt lat="54.47019" lon="-6.18773">
        <ele>31.95</ele>
        <time>2021-03-20T21:19:08Z</time>
      </trkpt>
      <trkpt lat="54.47021" lon="-6.18802">
        <ele>31.53</ele>
        <time>2021-03-20T21:19:12Z</time>
      </trkpt>
      <trkpt lat="54.47019" lon="-6.18892">
        <ele>31.38</ele>
        <time>2021-03-20T21:19:16Z</time>
      </trkpt>
      <trkpt lat="54.4702" lon="-6.18951">
        <ele>32.06</ele>
        <time>2021-03-20T21:19:21Z</time>
      </trkpt>
      <trkpt lat="54.47035" lon="-6.19117">
        <ele>31.26</ele>
        <time>2021-03-20T21:19:25Z</time>
      </trkpt>
      <trkpt lat="54.4706" lon="-6.19341">
        <ele>32.16</ele>
        <time>2021-03-20T21:19:29Z</time>
      </trkpt>
      <trkpt lat="54.47079" lon="-6.19458">
        <ele>34.32</ele>
        <time>2021-03-20T21:19:33Z</time>
      </trkpt>
      <trkpt lat="54.47087" lon="-6.19521">
        <ele>34.13</ele>
        <time>2021-03-20T21:19:37Z</time>
      </trkpt>
      <trkpt lat="54.47093" lon="-6.1959">
        <ele>33</ele>
        <time>2021-03-20T21:19:41Z</time>
      </trkpt>
      <trkpt lat="54.47109" lon="-6.19842">
        <ele>32.28</ele>
        <time>2021-03-20T21:19:46Z</time>
      </trkpt>
      <trkpt lat="54.47117" lon="-6.20026">
        <ele>33</ele>
        <time>2021-03-20T21:19:50Z</time>
      </trkpt>
      <trkpt lat="54.47096" lon="-6.20403">
        <ele>32.48</ele>
        <time>2021-03-20T21:19:54Z</time>
      </trkpt>
      <trkpt lat="54.47033" lon="-6.20391">
        <ele>32.1</ele>
        <time>2021-03-20T21:19:59Z</time>
      </trkpt>
      <trkpt lat="54.47" lon="-6.20391">
        <ele>31.91</ele>
        <time>2021-03-20T21:20:05Z</time>
      </trkpt>
      <trkpt lat="54.46964" lon="-6.20396">
        <ele>31.3</ele>
        <time>2021-03-20T21:20:10Z</time>
      </trkpt>
      <trkpt lat="54.46787" lon="-6.20419">
        <ele>33.65</ele>
        <time>2021-03-20T21:20:16Z</time>
      </trkpt>
      <trkpt lat="54.46681" lon="-6.20428">
        <ele>34</ele>
        <time>2021-03-20T21:20:21Z</time>
      </trkpt>
      <trkpt lat="54.46619" lon="-6.20458">
        <ele>36.06</ele>
        <time>2021-03-20T21:20:27Z</time>
      </trkpt>
      <trkpt lat="54.46393" lon="-6.20525">
        <ele>43.72</ele>
        <time>2021-03-20T21:20:32Z</time>
      </trkpt>
      <trkpt lat="54.46287" lon="-6.20598">
        <ele>46.19</ele>
        <time>2021-03-20T21:20:38Z</time>
      </trkpt>
      <trkpt lat="54.46119" lon="-6.20703">
        <ele>54.72</ele>
        <time>2021-03-20T21:20:43Z</time>
      </trkpt>
      <trkpt lat="54.45879" lon="-6.20743">
        <ele>53.5</ele>
        <time>2021-03-20T21:20:49Z</time>
      </trkpt>
      <trkpt lat="54.45792" lon="-6.20735">
        <ele>51</ele>
        <time>2021-03-20T21:20:54Z</time>
      </trkpt>
      <trkpt lat="54.45691" lon="-6.20743">
        <ele>51.03</ele>
        <time>2021-03-20T21:20:59Z</time>
      </trkpt>
      <trkpt lat="54.4558" lon="-6.20749">
        <ele>54.3</ele>
        <time>2021-03-20T21:21:05Z</time>
      </trkpt>
      <trkpt lat="54.45519" lon="-6.20748">
        <ele>59.62</ele>
        <time>2021-03-20T21:21:10Z</time>
      </trkpt>
      <trkpt lat="54.45484" lon="-6.20743">
        <ele>62.4</ele>
        <time>2021-03-20T21:21:16Z</time>
      </trkpt>
      <trkpt lat="54.45461" lon="-6.20736">
        <ele>64.77</ele>
        <time>2021-03-20T21:21:21Z</time>
      </trkpt>
      <trkpt lat="54.45442" lon="-6.20727">
        <ele>67.06</ele>
        <time>2021-03-20T21:21:27Z</time>
      </trkpt>
      <trkpt lat="54.45424" lon="-6.20715">
        <ele>69.4</ele>
        <time>2021-03-20T21:21:32Z</time>
      </trkpt>
      <trkpt lat="54.45376" lon="-6.20674">
        <ele>75.43</ele>
        <time>2021-03-20T21:21:38Z</time>
      </trkpt>
      <trkpt lat="54.45365" lon="-6.20662">
        <ele>76.72</ele>
        <time>2021-03-20T21:21:43Z</time>
      </trkpt>
      <trkpt lat="54.45355" lon="-6.20647">
        <ele>77.21</ele>
        <time>2021-03-20T21:21:49Z</time>
      </trkpt>
      <trkpt lat="54.45318" lon="-6.20579">
        <ele>80.76</ele>
        <time>2021-03-20T21:21:54Z</time>
      </trkpt>
      <trkpt lat="54.45287" lon="-6.20498">
        <ele>85.65</ele>
        <time>2021-03-20T21:21:59Z</time>
      </trkpt>
      <trkpt lat="54.45278" lon="-6.20483">
        <ele>85.99</ele>
        <time>2021-03-20T21:22:05Z</time>
      </trkpt>
      <trkpt lat="54.45269" lon="-6.20472">
        <ele>86.63</ele>
        <time>2021-03-20T21:22:10Z</time>
      </trkpt>
      <trkpt lat="54.45246" lon="-6.20457">
        <ele>88.72</ele>
        <time>2021-03-20T21:22:16Z</time>
      </trkpt>
      <trkpt lat="54.45217" lon="-6.20453">
        <ele>89.7</ele>
        <time>2021-03-20T21:22:21Z</time>
      </trkpt>
      <trkpt lat="54.45187" lon="-6.20455">
        <ele>90.24</ele>
        <time>2021-03-20T21:22:27Z</time>
      </trkpt>
      <trkpt lat="54.45087" lon="-6.20454">
        <ele>96.09</ele>
        <time>2021-03-20T21:22:32Z</time>
      </trkpt>
      <trkpt lat="54.45049" lon="-6.20374">
        <ele>94</ele>
        <time>2021-03-20T21:22:37Z</time>
      </trkpt>
      <trkpt lat="54.45021" lon="-6.20306">
        <ele>94.24</ele>
        <time>2021-03-20T21:22:41Z</time>
      </trkpt>
      <trkpt lat="54.44991" lon="-6.20237">
        <ele>95.17</ele>
        <time>2021-03-20T21:22:46Z</time>
      </trkpt>
      <trkpt lat="54.44963" lon="-6.20177">
        <ele>96.63</ele>
        <time>2021-03-20T21:22:50Z</time>
      </trkpt>
      <trkpt lat="54.44939" lon="-6.20113">
        <ele>97.77</ele>
        <time>2021-03-20T21:22:55Z</time>
      </trkpt>
      <trkpt lat="54.44898" lon="-6.19965">
        <ele>100.43</ele>
        <time>2021-03-20T21:22:59Z</time>
      </trkpt>
      <trkpt lat="54.44882" lon="-6.19869">
        <ele>100</ele>
        <time>2021-03-20T21:23:04Z</time>
      </trkpt>
      <trkpt lat="54.44869" lon="-6.19829">
        <ele>100</ele>
        <time>2021-03-20T21:23:08Z</time>
      </trkpt>
      <trkpt lat="54.44838" lon="-6.19758">
        <ele>101</ele>
        <time>2021-03-20T21:23:13Z</time>
      </trkpt>
      <trkpt lat="54.44835" lon="-6.1974">
        <ele>101.36</ele>
        <time>2021-03-20T21:23:17Z</time>
      </trkpt>
      <trkpt lat="54.44832" lon="-6.19682">
        <ele>102.11</ele>
        <time>2021-03-20T21:23:22Z</time>
      </trkpt>
      <trkpt lat="54.44829" lon="-6.19656">
        <ele>102.96</ele>
        <time>2021-03-20T21:23:26Z</time>
      </trkpt>
      <trkpt lat="54.44824" lon="-6.19633">
        <ele>104.76</ele>
        <time>2021-03-20T21:23:31Z</time>
      </trkpt>
      <trkpt lat="54.44812" lon="-6.19606">
        <ele>108.28</ele>
        <time>2021-03-20T21:23:35Z</time>
      </trkpt>
      <trkpt lat="54.44743" lon="-6.1949">
        <ele>123.25</ele>
        <time>2021-03-20T21:23:40Z</time>
      </trkpt>
      <trkpt lat="54.44532" lon="-6.19222">
        <ele>123</ele>
        <time>2021-03-20T21:23:44Z</time>
      </trkpt>
      <trkpt lat="54.44497" lon="-6.19155">
        <ele>121.9</ele>
        <time>2021-03-20T21:23:49Z</time>
      </trkpt>
      <trkpt lat="54.44482" lon="-6.1908">
        <ele>121.43</ele>
        <time>2021-03-20T21:23:53Z</time>
      </trkpt>
      <trkpt lat="54.44473" lon="-6.19059">
        <ele>121.88</ele>
        <time>2021-03-20T21:23:58Z</time>
      </trkpt>
      <trkpt lat="54.44436" lon="-6.18988">
        <ele>122</ele>
        <time>2021-03-20T21:24:02Z</time>
      </trkpt>
      <trkpt lat="54.44419" lon="-6.18945">
        <ele>122</ele>
        <time>2021-03-20T21:24:07Z</time>
      </trkpt>
      <trkpt lat="54.44393" lon="-6.18867">
        <ele>123.58</ele>
        <time>2021-03-20T21:24:11Z</time>
      </trkpt>
      <trkpt lat="54.44329" lon="-6.18714">
        <ele>126.83</ele>
        <time>2021-03-20T21:24:16Z</time>
      </trkpt>
      <trkpt lat="54.44239" lon="-6.18592">
        <ele>120.8</ele>
        <time>2021-03-20T21:24:20Z</time>
      </trkpt>
      <trkpt lat="54.44118" lon="-6.18413">
        <ele>113.87</ele>
        <time>2021-03-20T21:24:25Z</time>
      </trkpt>
      <trkpt lat="54.4408" lon="-6.18367">
        <ele>110.21</ele>
        <time>2021-03-20T21:24:29Z</time>
      </trkpt>
      <trkpt lat="54.44074" lon="-6.18321">
        <ele>106.88</ele>
        <time>2021-03-20T21:24:34Z</time>
      </trkpt>
      <trkpt lat="54.44065" lon="-6.1828">
        <ele>104.46</ele>
        <time>2021-03-20T21:24:38Z</time>
      </trkpt>
      <trkpt lat="54.44057" lon="-6.18222">
        <ele>104.02</ele>
        <time>2021-03-20T21:24:43Z</time>
      </trkpt>
      <trkpt lat="54.44036" lon="-6.18227">
        <ele>103.29</ele>
        <time>2021-03-20T21:24:46Z</time>
      </trkpt>
      <trkpt lat="54.44011" lon="-6.18246">
        <ele>102.47</ele>
        <time>2021-03-20T21:24:49Z</time>
      </trkpt>
      <trkpt lat="54.43945" lon="-6.18252">
        <ele>101.85</ele>
        <time>2021-03-20T21:24:51Z</time>
      </trkpt>
      <trkpt lat="54.43916" lon="-6.18259">
        <ele>101.37</ele>
        <time>2021-03-20T21:24:54Z</time>
      </trkpt>
      <trkpt lat="54.43895" lon="-6.18233">
        <ele>101.97</ele>
        <time>2021-03-20T21:24:59Z</time>
      </trkpt>
      <trkpt lat="54.43873" lon="-6.18166">
        <ele>105.58</ele>
        <time>2021-03-20T21:25:03Z</time>
      </trkpt>
      <trkpt lat="54.43836" lon="-6.18104">
        <ele>109.85</ele>
        <time>2021-03-20T21:25:08Z</time>
      </trkpt>
      <trkpt lat="54.43777" lon="-6.17986">
        <ele>115.06</ele>
        <time>2021-03-20T21:25:12Z</time>
      </trkpt>
      <trkpt lat="54.43577" lon="-6.17638">
        <ele>126.22</ele>
        <time>2021-03-20T21:25:17Z</time>
      </trkpt>
      <trkpt lat="54.43544" lon="-6.17587">
        <ele>128.62</ele>
        <time>2021-03-20T21:25:21Z</time>
      </trkpt>
      <trkpt lat="54.43528" lon="-6.17567">
        <ele>131.14</ele>
        <time>2021-03-20T21:25:26Z</time>
      </trkpt>
      <trkpt lat="54.43503" lon="-6.1753">
        <ele>133.81</ele>
        <time>2021-03-20T21:25:30Z</time>
      </trkpt>
      <trkpt lat="54.43475" lon="-6.17473">
        <ele>135.05</ele>
        <time>2021-03-20T21:25:35Z</time>
      </trkpt>
      <trkpt lat="54.4346" lon="-6.17449">
        <ele>135.82</ele>
        <time>2021-03-20T21:25:39Z</time>
      </trkpt>
      <trkpt lat="54.43408" lon="-6.17378">
        <ele>132.29</ele>
        <time>2021-03-20T21:25:44Z</time>
      </trkpt>
      <trkpt lat="54.43392" lon="-6.17363">
        <ele>130.37</ele>
        <time>2021-03-20T21:25:48Z</time>
      </trkpt>
      <trkpt lat="54.43323" lon="-6.17318">
        <ele>124.21</ele>
        <time>2021-03-20T21:25:53Z</time>
      </trkpt>
      <trkpt lat="54.4329" lon="-6.17314">
        <ele>119.26</ele>
        <time>2021-03-20T21:25:57Z</time>
      </trkpt>
      <trkpt lat="54.43198" lon="-6.17365">
        <ele>111.13</ele>
        <time>2021-03-20T21:26:02Z</time>
      </trkpt>
      <trkpt lat="54.43158" lon="-6.17378">
        <ele>111.19</ele>
        <time>2021-03-20T21:26:06Z</time>
      </trkpt>
      <trkpt lat="54.43118" lon="-6.17361">
        <ele>110.25</ele>
        <time>2021-03-20T21:26:11Z</time>
      </trkpt>
      <trkpt lat="54.43086" lon="-6.17316">
        <ele>105.29</ele>
        <time>2021-03-20T21:26:15Z</time>
      </trkpt>
      <trkpt lat="54.43057" lon="-6.17238">
        <ele>102.63</ele>
        <time>2021-03-20T21:26:20Z</time>
      </trkpt>
      <trkpt lat="54.43016" lon="-6.17151">
        <ele>97.82</ele>
        <time>2021-03-20T21:26:25Z</time>
      </trkpt>
      <trkpt lat="54.43" lon="-6.17093">
        <ele>96.01</ele>
        <time>2021-03-20T21:26:29Z</time>
      </trkpt>
      <trkpt lat="54.4299" lon="-6.17037">
        <ele>96.35</ele>
        <time>2021-03-20T21:26:34Z</time>
      </trkpt>
      <trkpt lat="54.42977" lon="-6.17006">
        <ele>96.05</ele>
        <time>2021-03-20T21:26:38Z</time>
      </trkpt>
      <trkpt lat="54.42955" lon="-6.16975">
        <ele>94.49</ele>
        <time>2021-03-20T21:26:43Z</time>
      </trkpt>
      <trkpt lat="54.42894" lon="-6.16898">
        <ele>90.74</ele>
        <time>2021-03-20T21:26:47Z</time>
      </trkpt>
      <trkpt lat="54.42855" lon="-6.16827">
        <ele>90.36</ele>
        <time>2021-03-20T21:26:52Z</time>
      </trkpt>
      <trkpt lat="54.42837" lon="-6.16803">
        <ele>89.33</ele>
        <time>2021-03-20T21:26:56Z</time>
      </trkpt>
      <trkpt lat="54.42802" lon="-6.16768">
        <ele>87.77</ele>
        <time>2021-03-20T21:27:01Z</time>
      </trkpt>
      <trkpt lat="54.42784" lon="-6.16745">
        <ele>86.62</ele>
        <time>2021-03-20T21:27:05Z</time>
      </trkpt>
      <trkpt lat="54.42757" lon="-6.16719">
        <ele>85.53</ele>
        <time>2021-03-20T21:27:10Z</time>
      </trkpt>
      <trkpt lat="54.42742" lon="-6.16709">
        <ele>84.3</ele>
        <time>2021-03-20T21:27:14Z</time>
      </trkpt>
      <trkpt lat="54.42685" lon="-6.16705">
        <ele>82.94</ele>
        <time>2021-03-20T21:27:19Z</time>
      </trkpt>
      <trkpt lat="54.42632" lon="-6.16684">
        <ele>85.34</ele>
        <time>2021-03-20T21:27:23Z</time>
      </trkpt>
      <trkpt lat="54.42619" lon="-6.16674">
        <ele>86.24</ele>
        <time>2021-03-20T21:27:28Z</time>
      </trkpt>
      <trkpt lat="54.42602" lon="-6.16657">
        <ele>87.43</ele>
        <time>2021-03-20T21:27:32Z</time>
      </trkpt>
      <trkpt lat="54.42586" lon="-6.16637">
        <ele>88.87</ele>
        <time>2021-03-20T21:27:37Z</time>
      </trkpt>
      <trkpt lat="54.42578" lon="-6.16618">
        <ele>90.05</ele>
        <time>2021-03-20T21:27:41Z</time>
      </trkpt>
      <trkpt lat="54.42545" lon="-6.16599">
        <ele>94.43</ele>
        <time>2021-03-20T21:27:46Z</time>
      </trkpt>
      <trkpt lat="54.42451" lon="-6.16566">
        <ele>105.96</ele>
        <time>2021-03-20T21:27:50Z</time>
      </trkpt>
      <trkpt lat="54.42136" lon="-6.16658">
        <ele>103</ele>
        <time>2021-03-20T21:27:55Z</time>
      </trkpt>
      <trkpt lat="54.42078" lon="-6.16688">
        <ele>104.95</ele>
        <time>2021-03-20T21:28:00Z</time>
      </trkpt>
      <trkpt lat="54.41962" lon="-6.16762">
        <ele>102.8</ele>
        <time>2021-03-20T21:28:04Z</time>
      </trkpt>
      <trkpt lat="54.41885" lon="-6.16776">
        <ele>96.25</ele>
        <time>2021-03-20T21:28:09Z</time>
      </trkpt>
      <trkpt lat="54.41844" lon="-6.16786">
        <ele>91.18</ele>
        <time>2021-03-20T21:28:13Z</time>
      </trkpt>
      <trkpt lat="54.41746" lon="-6.16775">
        <ele>76.59</ele>
        <time>2021-03-20T21:28:18Z</time>
      </trkpt>
      <trkpt lat="54.41645" lon="-6.16782">
        <ele>68.08</ele>
        <time>2021-03-20T21:28:22Z</time>
      </trkpt>
      <trkpt lat="54.41588" lon="-6.16581">
        <ele>67.74</ele>
        <time>2021-03-20T21:28:34Z</time>
      </trkpt>
      <trkpt lat="54.4152" lon="-6.16305">
        <ele>67.99</ele>
        <time>2021-03-20T21:28:45Z</time>
      </trkpt>
      <trkpt lat="54.41491" lon="-6.16177">
        <ele>69.38</ele>
        <time>2021-03-20T21:28:57Z</time>
      </trkpt>
      <trkpt lat="54.41539" lon="-6.16143">
        <ele>70.94</ele>
        <time>2021-03-20T21:28:59Z</time>
      </trkpt>
      <trkpt lat="54.41546" lon="-6.16133">
        <ele>70.97</ele>
        <time>2021-03-20T21:29:01Z</time>
      </trkpt>
      <trkpt lat="54.41552" lon="-6.16118">
        <ele>71.1</ele>
        <time>2021-03-20T21:29:03Z</time>
      </trkpt>
      <trkpt lat="54.41556" lon="-6.16099">
        <ele>71.37</ele>
        <time>2021-03-20T21:29:05Z</time>
      </trkpt>
      <trkpt lat="54.41557" lon="-6.16079">
        <ele>72.04</ele>
        <time>2021-03-20T21:29:07Z</time>
      </trkpt>
      <trkpt lat="54.41554" lon="-6.16058">
        <ele>73.02</ele>
        <time>2021-03-20T21:29:09Z</time>
      </trkpt>
      <trkpt lat="54.41545" lon="-6.16039">
        <ele>73.75</ele>
        <time>2021-03-20T21:29:11Z</time>
      </trkpt>
      <trkpt lat="54.41529" lon="-6.1601">
        <ele>74.3</ele>
        <time>2021-03-20T21:29:13Z</time>
      </trkpt>
      <trkpt lat="54.41525" lon="-6.15979">
        <ele>74.19</ele>
        <time>2021-03-20T21:29:15Z</time>
      </trkpt>
      <trkpt lat="54.41526" lon="-6.15966">
        <ele>74.34</ele>
        <time>2021-03-20T21:29:17Z</time>
      </trkpt>
      <trkpt lat="54.41531" lon="-6.15952">
        <ele>74.54</ele>
        <time>2021-03-20T21:29:19Z</time>
      </trkpt>
      <trkpt lat="54.41557" lon="-6.15902">
        <ele>74.2</ele>
        <time>2021-03-20T21:29:21Z</time>
      </trkpt>
      <trkpt lat="54.41583" lon="-6.15847">
        <ele>70.24</ele>
        <time>2021-03-20T21:29:22Z</time>
      </trkpt>
      <trkpt lat="54.41623" lon="-6.15765">
        <ele>69.71</ele>
        <time>2021-03-20T21:29:24Z</time>
      </trkpt>
      <trkpt lat="54.4161" lon="-6.15747">
        <ele>72.51</ele>
        <time>2021-03-20T21:29:29Z</time>
      </trkpt>
      <trkpt lat="54.41562" lon="-6.15844">
        <ele>76.29</ele>
        <time>2021-03-20T21:29:33Z</time>
      </trkpt>
      <trkpt lat="54.41518" lon="-6.15922">
        <ele>77.98</ele>
        <time>2021-03-20T21:29:37Z</time>
      </trkpt>
      <trkpt lat="54.4147" lon="-6.15998">
        <ele>77.37</ele>
        <time>2021-03-20T21:29:41Z</time>
      </trkpt>
      <trkpt lat="54.41409" lon="-6.16081">
        <ele>75.78</ele>
        <time>2021-03-20T21:29:46Z</time>
      </trkpt>
      <trkpt lat="54.41334" lon="-6.16168">
        <ele>84.01</ele>
        <time>2021-03-20T21:29:50Z</time>
      </trkpt>
      <trkpt lat="54.41282" lon="-6.16217">
        <ele>81.27</ele>
        <time>2021-03-20T21:29:54Z</time>
      </trkpt>
      <trkpt lat="54.41205" lon="-6.16282">
        <ele>81.64</ele>
        <time>2021-03-20T21:29:58Z</time>
      </trkpt>
      <trkpt lat="54.41144" lon="-6.16328">
        <ele>83.58</ele>
        <time>2021-03-20T21:30:03Z</time>
      </trkpt>
      <trkpt lat="54.41051" lon="-6.1638">
        <ele>84.61</ele>
        <time>2021-03-20T21:30:07Z</time>
      </trkpt>
      <trkpt lat="54.40813" lon="-6.1648">
        <ele>94.83</ele>
        <time>2021-03-20T21:30:11Z</time>
      </trkpt>
      <trkpt lat="54.40739" lon="-6.16517">
        <ele>95.22</ele>
        <time>2021-03-20T21:30:15Z</time>
      </trkpt>
      <trkpt lat="54.4069" lon="-6.16551">
        <ele>95.25</ele>
        <time>2021-03-20T21:30:20Z</time>
      </trkpt>
      <trkpt lat="54.40641" lon="-6.16591">
        <ele>90.96</ele>
        <time>2021-03-20T21:30:24Z</time>
      </trkpt>
      <trkpt lat="54.40598" lon="-6.1663">
        <ele>91.13</ele>
        <time>2021-03-20T21:30:28Z</time>
      </trkpt>
      <trkpt lat="54.40529" lon="-6.16708">
        <ele>86.64</ele>
        <time>2021-03-20T21:30:32Z</time>
      </trkpt>
      <trkpt lat="54.4048" lon="-6.16774">
        <ele>87.87</ele>
        <time>2021-03-20T21:30:36Z</time>
      </trkpt>
      <trkpt lat="54.40445" lon="-6.1683">
        <ele>87.01</ele>
        <time>2021-03-20T21:30:41Z</time>
      </trkpt>
      <trkpt lat="54.40362" lon="-6.16968">
        <ele>84.16</ele>
        <time>2021-03-20T21:30:45Z</time>
      </trkpt>
      <trkpt lat="54.40298" lon="-6.17071">
        <ele>87.29</ele>
        <time>2021-03-20T21:30:49Z</time>
      </trkpt>
      <trkpt lat="54.40238" lon="-6.17144">
        <ele>84.84</ele>
        <time>2021-03-20T21:30:53Z</time>
      </trkpt>
      <trkpt lat="54.40013" lon="-6.17388">
        <ele>91.46</ele>
        <time>2021-03-20T21:30:58Z</time>
      </trkpt>
      <trkpt lat="54.39969" lon="-6.17427">
        <ele>91.48</ele>
        <time>2021-03-20T21:31:02Z</time>
      </trkpt>
      <trkpt lat="54.39941" lon="-6.17458">
        <ele>93.54</ele>
        <time>2021-03-20T21:31:06Z</time>
      </trkpt>
      <trkpt lat="54.39888" lon="-6.17495">
        <ele>94</ele>
        <time>2021-03-20T21:31:10Z</time>
      </trkpt>
      <trkpt lat="54.39814" lon="-6.17534">
        <ele>96.77</ele>
        <time>2021-03-20T21:31:15Z</time>
      </trkpt>
      <trkpt lat="54.39725" lon="-6.17561">
        <ele>98.47</ele>
        <time>2021-03-20T21:31:19Z</time>
      </trkpt>
      <trkpt lat="54.39645" lon="-6.17569">
        <ele>97.41</ele>
        <time>2021-03-20T21:31:23Z</time>
      </trkpt>
      <trkpt lat="54.39479" lon="-6.1756">
        <ele>96.36</ele>
        <time>2021-03-20T21:31:27Z</time>
      </trkpt>
      <trkpt lat="54.39422" lon="-6.17563">
        <ele>93.58</ele>
        <time>2021-03-20T21:31:32Z</time>
      </trkpt>
      <trkpt lat="54.39354" lon="-6.17571">
        <ele>91.55</ele>
        <time>2021-03-20T21:31:36Z</time>
      </trkpt>
      <trkpt lat="54.39325" lon="-6.17577">
        <ele>91.46</ele>
        <time>2021-03-20T21:31:40Z</time>
      </trkpt>
      <trkpt lat="54.39314" lon="-6.17477">
        <ele>90.29</ele>
        <time>2021-03-20T21:31:42Z</time>
      </trkpt>
      <trkpt lat="54.39308" lon="-6.17452">
        <ele>90.09</ele>
        <time>2021-03-20T21:31:43Z</time>
      </trkpt>
      <trkpt lat="54.39301" lon="-6.17431">
        <ele>89.82</ele>
        <time>2021-03-20T21:31:45Z</time>
      </trkpt>
      <trkpt lat="54.39287" lon="-6.17405">
        <ele>89.76</ele>
        <time>2021-03-20T21:31:47Z</time>
      </trkpt>
      <trkpt lat="54.39261" lon="-6.17366">
        <ele>89.89</ele>
        <time>2021-03-20T21:31:48Z</time>
      </trkpt>
      <trkpt lat="54.39236" lon="-6.17322">
        <ele>89.96</ele>
        <time>2021-03-20T21:31:50Z</time>
      </trkpt>
      <trkpt lat="54.39217" lon="-6.17285">
        <ele>89.16</ele>
        <time>2021-03-20T21:31:51Z</time>
      </trkpt>
      <trkpt lat="54.39207" lon="-6.1727">
        <ele>88.48</ele>
        <time>2021-03-20T21:31:53Z</time>
      </trkpt>
      <trkpt lat="54.39175" lon="-6.17233">
        <ele>87.21</ele>
        <time>2021-03-20T21:31:55Z</time>
      </trkpt>
      <trkpt lat="54.39163" lon="-6.17224">
        <ele>86.8</ele>
        <time>2021-03-20T21:31:56Z</time>
      </trkpt>
      <trkpt lat="54.39126" lon="-6.17211">
        <ele>85.86</ele>
        <time>2021-03-20T21:31:58Z</time>
      </trkpt>
      <trkpt lat="54.39115" lon="-6.172">
        <ele>85.86</ele>
        <time>2021-03-20T21:32:00Z</time>
      </trkpt>
      <trkpt lat="54.39077" lon="-6.17145">
        <ele>88.88</ele>
        <time>2021-03-20T21:32:01Z</time>
      </trkpt>
      <trkpt lat="54.39051" lon="-6.1709">
        <ele>89.22</ele>
        <time>2021-03-20T21:32:03Z</time>
      </trkpt>
      <trkpt lat="54.39032" lon="-6.17058">
        <ele>89.32</ele>
        <time>2021-03-20T21:32:05Z</time>
      </trkpt>
      <trkpt lat="54.38998" lon="-6.17019">
        <ele>89.68</ele>
        <time>2021-03-20T21:32:06Z</time>
      </trkpt>
      <trkpt lat="54.38986" lon="-6.16973">
        <ele>91.5</ele>
        <time>2021-03-20T21:32:08Z</time>
      </trkpt>
      <trkpt lat="54.38955" lon="-6.17005">
        <ele>91.73</ele>
        <time>2021-03-20T21:32:11Z</time>
      </trkpt>
      <trkpt lat="54.3887" lon="-6.17056">
        <ele>100.39</ele>
        <time>2021-03-20T21:32:13Z</time>
      </trkpt>
      <trkpt lat="54.38707" lon="-6.17176">
        <ele>100.22</ele>
        <time>2021-03-20T21:32:16Z</time>
      </trkpt>
      <trkpt lat="54.38679" lon="-6.17206">
        <ele>99.57</ele>
        <time>2021-03-20T21:32:19Z</time>
      </trkpt>
      <trkpt lat="54.38639" lon="-6.1724">
        <ele>99.17</ele>
        <time>2021-03-20T21:32:21Z</time>
      </trkpt>
      <trkpt lat="54.38608" lon="-6.17269">
        <ele>94.97</ele>
        <time>2021-03-20T21:32:24Z</time>
      </trkpt>
      <trkpt lat="54.3858" lon="-6.1728">
        <ele>92.68</ele>
        <time>2021-03-20T21:32:27Z</time>
      </trkpt>
      <trkpt lat="54.38557" lon="-6.17285">
        <ele>90.7</ele>
        <time>2021-03-20T21:32:30Z</time>
      </trkpt>
      <trkpt lat="54.38516" lon="-6.17289">
        <ele>88.51</ele>
        <time>2021-03-20T21:32:32Z</time>
      </trkpt>
      <trkpt lat="54.385" lon="-6.17292">
        <ele>87.51</ele>
        <time>2021-03-20T21:32:35Z</time>
      </trkpt>
      <trkpt lat="54.38489" lon="-6.17299">
        <ele>87.44</ele>
        <time>2021-03-20T21:32:38Z</time>
      </trkpt>
      <trkpt lat="54.38469" lon="-6.1732">
        <ele>87</ele>
        <time>2021-03-20T21:32:41Z</time>
      </trkpt>
      <trkpt lat="54.3844" lon="-6.17379">
        <ele>85.85</ele>
        <time>2021-03-20T21:32:43Z</time>
      </trkpt>
      <trkpt lat="54.38423" lon="-6.17399">
        <ele>85.14</ele>
        <time>2021-03-20T21:32:46Z</time>
      </trkpt>
      <trkpt lat="54.38413" lon="-6.17408">
        <ele>84.96</ele>
        <time>2021-03-20T21:32:49Z</time>
      </trkpt>
      <trkpt lat="54.38396" lon="-6.17418">
        <ele>85.03</ele>
        <time>2021-03-20T21:32:51Z</time>
      </trkpt>
      <trkpt lat="54.38348" lon="-6.17439">
        <ele>85.42</ele>
        <time>2021-03-20T21:32:54Z</time>
      </trkpt>
      <trkpt lat="54.38334" lon="-6.17448">
        <ele>85.29</ele>
        <time>2021-03-20T21:32:57Z</time>
      </trkpt>
      <trkpt lat="54.38323" lon="-6.17448">
        <ele>85.18</ele>
        <time>2021-03-20T21:33:00Z</time>
      </trkpt>
      <trkpt lat="54.38261" lon="-6.17463">
        <ele>84.06</ele>
        <time>2021-03-20T21:33:02Z</time>
      </trkpt>
      <trkpt lat="54.3822" lon="-6.17479">
        <ele>82.93</ele>
        <time>2021-03-20T21:33:05Z</time>
      </trkpt>
      <trkpt lat="54.38132" lon="-6.17528">
        <ele>81.25</ele>
        <time>2021-03-20T21:33:08Z</time>
      </trkpt>
      <trkpt lat="54.37944" lon="-6.17618">
        <ele>82.74</ele>
        <time>2021-03-20T21:33:11Z</time>
      </trkpt>
      <trkpt lat="54.37914" lon="-6.17632">
        <ele>80.34</ele>
        <time>2021-03-20T21:33:13Z</time>
      </trkpt>
      <trkpt lat="54.37844" lon="-6.17656">
        <ele>81</ele>
        <time>2021-03-20T21:33:16Z</time>
      </trkpt>
      <trkpt lat="54.37832" lon="-6.17668">
        <ele>81.22</ele>
        <time>2021-03-20T21:33:19Z</time>
      </trkpt>
      <trkpt lat="54.37827" lon="-6.17677">
        <ele>82.22</ele>
        <time>2021-03-20T21:33:21Z</time>
      </trkpt>
      <trkpt lat="54.37823" lon="-6.17692">
        <ele>83.57</ele>
        <time>2021-03-20T21:33:24Z</time>
      </trkpt>
      <trkpt lat="54.37811" lon="-6.17751">
        <ele>88.42</ele>
        <time>2021-03-20T21:33:27Z</time>
      </trkpt>
      <trkpt lat="54.37803" lon="-6.17773">
        <ele>90.04</ele>
        <time>2021-03-20T21:33:30Z</time>
      </trkpt>
      <trkpt lat="54.3779" lon="-6.17785">
        <ele>91.01</ele>
        <time>2021-03-20T21:33:32Z</time>
      </trkpt>
      <trkpt lat="54.3776" lon="-6.1779">
        <ele>92.21</ele>
        <time>2021-03-20T21:33:35Z</time>
      </trkpt>
      <trkpt lat="54.37684" lon="-6.17782">
        <ele>92.96</ele>
        <time>2021-03-20T21:33:38Z</time>
      </trkpt>
      <trkpt lat="54.37616" lon="-6.17768">
        <ele>90.52</ele>
        <time>2021-03-20T21:33:41Z</time>
      </trkpt>
      <trkpt lat="54.37529" lon="-6.17769">
        <ele>90.31</ele>
        <time>2021-03-20T21:33:43Z</time>
      </trkpt>
      <trkpt lat="54.37475" lon="-6.17751">
        <ele>93.78</ele>
        <time>2021-03-20T21:33:46Z</time>
      </trkpt>
      <trkpt lat="54.37362" lon="-6.17691">
        <ele>96.12</ele>
        <time>2021-03-20T21:33:49Z</time>
      </trkpt>
      <trkpt lat="54.3732" lon="-6.17675">
        <ele>96.36</ele>
        <time>2021-03-20T21:33:51Z</time>
      </trkpt>
      <trkpt lat="54.37263" lon="-6.17658">
        <ele>94.17</ele>
        <time>2021-03-20T21:33:54Z</time>
      </trkpt>
      <trkpt lat="54.37143" lon="-6.17614">
        <ele>94.94</ele>
        <time>2021-03-20T21:33:57Z</time>
      </trkpt>
      <trkpt lat="54.37091" lon="-6.17611">
        <ele>95.5</ele>
        <time>2021-03-20T21:34:00Z</time>
      </trkpt>
      <trkpt lat="54.37003" lon="-6.17619">
        <ele>93.08</ele>
        <time>2021-03-20T21:34:02Z</time>
      </trkpt>
      <trkpt lat="54.36966" lon="-6.17612">
        <ele>91.81</ele>
        <time>2021-03-20T21:34:05Z</time>
      </trkpt>
      <trkpt lat="54.36851" lon="-6.17567">
        <ele>91.8</ele>
        <time>2021-03-20T21:34:08Z</time>
      </trkpt>
      <trkpt lat="54.3684" lon="-6.17565">
        <ele>91.64</ele>
        <time>2021-03-20T21:34:11Z</time>
      </trkpt>
      <trkpt lat="54.36791" lon="-6.1757">
        <ele>93.32</ele>
        <time>2021-03-20T21:34:13Z</time>
      </trkpt>
      <trkpt lat="54.36773" lon="-6.17569">
        <ele>95.31</ele>
        <time>2021-03-20T21:34:16Z</time>
      </trkpt>
      <trkpt lat="54.3675" lon="-6.17563">
        <ele>96.58</ele>
        <time>2021-03-20T21:34:19Z</time>
      </trkpt>
      <trkpt lat="54.36648" lon="-6.17523">
        <ele>101.47</ele>
        <time>2021-03-20T21:34:22Z</time>
      </trkpt>
      <trkpt lat="54.36636" lon="-6.17515">
        <ele>101.63</ele>
        <time>2021-03-20T21:34:24Z</time>
      </trkpt>
      <trkpt lat="54.36587" lon="-6.17457">
        <ele>105.34</ele>
        <time>2021-03-20T21:34:27Z</time>
      </trkpt>
      <trkpt lat="54.365" lon="-6.17331">
        <ele>103.97</ele>
        <time>2021-03-20T21:34:30Z</time>
      </trkpt>
      <trkpt lat="54.36455" lon="-6.17271">
        <ele>99.69</ele>
        <time>2021-03-20T21:34:32Z</time>
      </trkpt>
      <trkpt lat="54.36436" lon="-6.17231">
        <ele>98.76</ele>
        <time>2021-03-20T21:34:35Z</time>
      </trkpt>
      <trkpt lat="54.36428" lon="-6.17206">
        <ele>98.41</ele>
        <time>2021-03-20T21:34:38Z</time>
      </trkpt>
      <trkpt lat="54.36407" lon="-6.1712">
        <ele>95.85</ele>
        <time>2021-03-20T21:34:41Z</time>
      </trkpt>
      <trkpt lat="54.36387" lon="-6.17056">
        <ele>95.07</ele>
        <time>2021-03-20T21:34:43Z</time>
      </trkpt>
      <trkpt lat="54.36386" lon="-6.17061">
        <ele>95.1</ele>
        <time>2021-03-20T21:34:44Z</time>
      </trkpt>
      <trkpt lat="54.36364" lon="-6.17039">
        <ele>95.91</ele>
        <time>2021-03-20T21:34:46Z</time>
      </trkpt>
      <trkpt lat="54.36356" lon="-6.17035">
        <ele>96.2</ele>
        <time>2021-03-20T21:34:48Z</time>
      </trkpt>
      <trkpt lat="54.36338" lon="-6.17033">
        <ele>96.84</ele>
        <time>2021-03-20T21:34:50Z</time>
      </trkpt>
      <trkpt lat="54.36139" lon="-6.17059">
        <ele>104.99</ele>
        <time>2021-03-20T21:34:53Z</time>
      </trkpt>
      <trkpt lat="54.36085" lon="-6.17064">
        <ele>103.79</ele>
        <time>2021-03-20T21:34:55Z</time>
      </trkpt>
      <trkpt lat="54.36069" lon="-6.17063">
        <ele>103.72</ele>
        <time>2021-03-20T21:34:57Z</time>
      </trkpt>
      <trkpt lat="54.3606" lon="-6.17057">
        <ele>103.94</ele>
        <time>2021-03-20T21:35:00Z</time>
      </trkpt>
      <trkpt lat="54.36054" lon="-6.17051">
        <ele>103.96</ele>
        <time>2021-03-20T21:35:02Z</time>
      </trkpt>
      <trkpt lat="54.35834" lon="-6.17481">
        <ele>93.02</ele>
        <time>2021-03-20T21:35:06Z</time>
      </trkpt>
      <trkpt lat="54.35693" lon="-6.17701">
        <ele>92</ele>
        <time>2021-03-20T21:35:11Z</time>
      </trkpt>
      <trkpt lat="54.35583" lon="-6.17859">
        <ele>93</ele>
        <time>2021-03-20T21:35:16Z</time>
      </trkpt>
      <trkpt lat="54.35384" lon="-6.18154">
        <ele>96</ele>
        <time>2021-03-20T21:35:20Z</time>
      </trkpt>
      <trkpt lat="54.35272" lon="-6.18333">
        <ele>96</ele>
        <time>2021-03-20T21:35:25Z</time>
      </trkpt>
      <trkpt lat="54.35213" lon="-6.18403">
        <ele>94.32</ele>
        <time>2021-03-20T21:35:29Z</time>
      </trkpt>
      <trkpt lat="54.3503" lon="-6.18738">
        <ele>99.51</ele>
        <time>2021-03-20T21:35:34Z</time>
      </trkpt>
      <trkpt lat="54.3489" lon="-6.18982">
        <ele>112.62</ele>
        <time>2021-03-20T21:35:38Z</time>
      </trkpt>
      <trkpt lat="54.34672" lon="-6.19104">
        <ele>105.39</ele>
        <time>2021-03-20T21:35:43Z</time>
      </trkpt>
      <trkpt lat="54.34539" lon="-6.19256">
        <ele>100.86</ele>
        <time>2021-03-20T21:35:47Z</time>
      </trkpt>
      <trkpt lat="54.34304" lon="-6.19703">
        <ele>94.96</ele>
        <time>2021-03-20T21:35:52Z</time>
      </trkpt>
      <trkpt lat="54.34232" lon="-6.20153">
        <ele>87.31</ele>
        <time>2021-03-20T21:35:57Z</time>
      </trkpt>
      <trkpt lat="54.3422" lon="-6.202">
        <ele>87.08</ele>
        <time>2021-03-20T21:36:01Z</time>
      </trkpt>
      <trkpt lat="54.34185" lon="-6.20261">
        <ele>89.48</ele>
        <time>2021-03-20T21:36:06Z</time>
      </trkpt>
      <trkpt lat="54.34129" lon="-6.20322">
        <ele>92</ele>
        <time>2021-03-20T21:36:10Z</time>
      </trkpt>
      <trkpt lat="54.34049" lon="-6.20359">
        <ele>84.8</ele>
        <time>2021-03-20T21:36:15Z</time>
      </trkpt>
      <trkpt lat="54.33957" lon="-6.20385">
        <ele>77.9</ele>
        <time>2021-03-20T21:36:19Z</time>
      </trkpt>
      <trkpt lat="54.33909" lon="-6.20417">
        <ele>74.45</ele>
        <time>2021-03-20T21:36:24Z</time>
      </trkpt>
      <trkpt lat="54.33893" lon="-6.20421">
        <ele>73.29</ele>
        <time>2021-03-20T21:36:29Z</time>
      </trkpt>
      <trkpt lat="54.33867" lon="-6.20411">
        <ele>71.65</ele>
        <time>2021-03-20T21:36:33Z</time>
      </trkpt>
      <trkpt lat="54.33861" lon="-6.20412">
        <ele>71.08</ele>
        <time>2021-03-20T21:36:38Z</time>
      </trkpt>
      <trkpt lat="54.33854" lon="-6.20424">
        <ele>69.77</ele>
        <time>2021-03-20T21:36:42Z</time>
      </trkpt>
      <trkpt lat="54.33852" lon="-6.20435">
        <ele>69.25</ele>
        <time>2021-03-20T21:36:47Z</time>
      </trkpt>
      <trkpt lat="54.33856" lon="-6.20543">
        <ele>67.61</ele>
        <time>2021-03-20T21:36:51Z</time>
      </trkpt>
      <trkpt lat="54.33877" lon="-6.20673">
        <ele>69.93</ele>
        <time>2021-03-20T21:36:56Z</time>
      </trkpt>
      <trkpt lat="54.33877" lon="-6.2069">
        <ele>69.28</ele>
        <time>2021-03-20T21:37:01Z</time>
      </trkpt>
      <trkpt lat="54.33874" lon="-6.20696">
        <ele>68.96</ele>
        <time>2021-03-20T21:37:05Z</time>
      </trkpt>
      <trkpt lat="54.33871" lon="-6.207">
        <ele>68.72</ele>
        <time>2021-03-20T21:37:10Z</time>
      </trkpt>
      <trkpt lat="54.33835" lon="-6.20722">
        <ele>70.87</ele>
        <time>2021-03-20T21:37:14Z</time>
      </trkpt>
      <trkpt lat="54.33828" lon="-6.20729">
        <ele>71.58</ele>
        <time>2021-03-20T21:37:19Z</time>
      </trkpt>
      <trkpt lat="54.33821" lon="-6.20745">
        <ele>72.07</ele>
        <time>2021-03-20T21:37:23Z</time>
      </trkpt>
      <trkpt lat="54.3381" lon="-6.2076">
        <ele>73.6</ele>
        <time>2021-03-20T21:37:28Z</time>
      </trkpt>
      <trkpt lat="54.33798" lon="-6.20774">
        <ele>74.93</ele>
        <time>2021-03-20T21:37:33Z</time>
      </trkpt>
      <trkpt lat="54.33676" lon="-6.20868">
        <ele>75</ele>
        <time>2021-03-20T21:37:37Z</time>
      </trkpt>
      <trkpt lat="54.33665" lon="-6.20883">
        <ele>74.93</ele>
        <time>2021-03-20T21:37:42Z</time>
      </trkpt>
      <trkpt lat="54.33639" lon="-6.20933">
        <ele>73</ele>
        <time>2021-03-20T21:37:46Z</time>
      </trkpt>
      <trkpt lat="54.3363" lon="-6.20942">
        <ele>73</ele>
        <time>2021-03-20T21:37:51Z</time>
      </trkpt>
      <trkpt lat="54.33607" lon="-6.20954">
        <ele>73.35</ele>
        <time>2021-03-20T21:37:55Z</time>
      </trkpt>
      <trkpt lat="54.33581" lon="-6.20961">
        <ele>73.68</ele>
        <time>2021-03-20T21:38:00Z</time>
      </trkpt>
      <trkpt lat="54.33573" lon="-6.2097">
        <ele>74.28</ele>
        <time>2021-03-20T21:38:04Z</time>
      </trkpt>
      <trkpt lat="54.33506" lon="-6.21072">
        <ele>70.56</ele>
        <time>2021-03-20T21:38:09Z</time>
      </trkpt>
      <trkpt lat="54.33435" lon="-6.21153">
        <ele>72.15</ele>
        <time>2021-03-20T21:38:14Z</time>
      </trkpt>
      <trkpt lat="54.33282" lon="-6.21281">
        <ele>73.37</ele>
        <time>2021-03-20T21:38:18Z</time>
      </trkpt>
      <trkpt lat="54.33248" lon="-6.2132">
        <ele>73.6</ele>
        <time>2021-03-20T21:38:23Z</time>
      </trkpt>
      <trkpt lat="54.3316" lon="-6.21458">
        <ele>70.51</ele>
        <time>2021-03-20T21:38:27Z</time>
      </trkpt>
      <trkpt lat="54.33073" lon="-6.21631">
        <ele>70.45</ele>
        <time>2021-03-20T21:38:32Z</time>
      </trkpt>
      <trkpt lat="54.3304" lon="-6.2175">
        <ele>70.85</ele>
        <time>2021-03-20T21:38:36Z</time>
      </trkpt>
      <trkpt lat="54.32977" lon="-6.21895">
        <ele>69.04</ele>
        <time>2021-03-20T21:38:41Z</time>
      </trkpt>
      <trkpt lat="54.32815" lon="-6.22208">
        <ele>69.35</ele>
        <time>2021-03-20T21:38:46Z</time>
      </trkpt>
      <trkpt lat="54.328" lon="-6.22234">
        <ele>69.42</ele>
        <time>2021-03-20T21:38:50Z</time>
      </trkpt>
      <trkpt lat="54.32783" lon="-6.22252">
        <ele>70.04</ele>
        <time>2021-03-20T21:38:55Z</time>
      </trkpt>
      <trkpt lat="54.32754" lon="-6.2227">
        <ele>70.7</ele>
        <time>2021-03-20T21:38:59Z</time>
      </trkpt>
      <trkpt lat="54.32564" lon="-6.22375">
        <ele>82.75</ele>
        <time>2021-03-20T21:39:04Z</time>
      </trkpt>
      <trkpt lat="54.32483" lon="-6.22405">
        <ele>87.44</ele>
        <time>2021-03-20T21:39:08Z</time>
      </trkpt>
      <trkpt lat="54.32413" lon="-6.2246">
        <ele>84.7</ele>
        <time>2021-03-20T21:39:13Z</time>
      </trkpt>
      <trkpt lat="54.32363" lon="-6.2253">
        <ele>82.1</ele>
        <time>2021-03-20T21:39:18Z</time>
      </trkpt>
      <trkpt lat="54.3234" lon="-6.22548">
        <ele>80.31</ele>
        <time>2021-03-20T21:39:22Z</time>
      </trkpt>
      <trkpt lat="54.32321" lon="-6.22559">
        <ele>79.74</ele>
        <time>2021-03-20T21:39:27Z</time>
      </trkpt>
      <trkpt lat="54.32303" lon="-6.22575">
        <ele>80.36</ele>
        <time>2021-03-20T21:39:31Z</time>
      </trkpt>
      <trkpt lat="54.3229" lon="-6.22595">
        <ele>81.42</ele>
        <time>2021-03-20T21:39:36Z</time>
      </trkpt>
      <trkpt lat="54.32276" lon="-6.22632">
        <ele>82.76</ele>
        <time>2021-03-20T21:39:40Z</time>
      </trkpt>
      <trkpt lat="54.32243" lon="-6.22742">
        <ele>82.44</ele>
        <time>2021-03-20T21:39:45Z</time>
      </trkpt>
      <trkpt lat="54.32226" lon="-6.22812">
        <ele>83</ele>
        <time>2021-03-20T21:39:49Z</time>
      </trkpt>
      <trkpt lat="54.322" lon="-6.22896">
        <ele>83.67</ele>
        <time>2021-03-20T21:39:54Z</time>
      </trkpt>
      <trkpt lat="54.32176" lon="-6.22987">
        <ele>85</ele>
        <time>2021-03-20T21:39:59Z</time>
      </trkpt>
      <trkpt lat="54.32101" lon="-6.22912">
        <ele>84.56</ele>
        <time>2021-03-20T21:40:00Z</time>
      </trkpt>
      <trkpt lat="54.3203" lon="-6.22854">
        <ele>84.82</ele>
        <time>2021-03-20T21:40:02Z</time>
      </trkpt>
      <trkpt lat="54.32006" lon="-6.22843">
        <ele>84.35</ele>
        <time>2021-03-20T21:40:03Z</time>
      </trkpt>
      <trkpt lat="54.31984" lon="-6.22837">
        <ele>84.11</ele>
        <time>2021-03-20T21:40:05Z</time>
      </trkpt>
      <trkpt lat="54.31903" lon="-6.22822">
        <ele>81</ele>
        <time>2021-03-20T21:40:06Z</time>
      </trkpt>
      <trkpt lat="54.31889" lon="-6.22814">
        <ele>81.01</ele>
        <time>2021-03-20T21:40:08Z</time>
      </trkpt>
      <trkpt lat="54.3188" lon="-6.22805">
        <ele>81.64</ele>
        <time>2021-03-20T21:40:09Z</time>
      </trkpt>
      <trkpt lat="54.31873" lon="-6.22795">
        <ele>82.11</ele>
        <time>2021-03-20T21:40:11Z</time>
      </trkpt>
      <trkpt lat="54.3187" lon="-6.22782">
        <ele>82.37</ele>
        <time>2021-03-20T21:40:12Z</time>
      </trkpt>
      <trkpt lat="54.31869" lon="-6.2274">
        <ele>82.11</ele>
        <time>2021-03-20T21:40:14Z</time>
      </trkpt>
      <trkpt lat="54.31866" lon="-6.22719">
        <ele>81.53</ele>
        <time>2021-03-20T21:40:16Z</time>
      </trkpt>
      <trkpt lat="54.31861" lon="-6.22698">
        <ele>81.13</ele>
        <time>2021-03-20T21:40:17Z</time>
      </trkpt>
      <trkpt lat="54.31853" lon="-6.22672">
        <ele>81.11</ele>
        <time>2021-03-20T21:40:19Z</time>
      </trkpt>
      <trkpt lat="54.31844" lon="-6.22653">
        <ele>81.81</ele>
        <time>2021-03-20T21:40:20Z</time>
      </trkpt>
      <trkpt lat="54.31834" lon="-6.22632">
        <ele>82.93</ele>
        <time>2021-03-20T21:40:22Z</time>
      </trkpt>
      <trkpt lat="54.31819" lon="-6.22611">
        <ele>84.52</ele>
        <time>2021-03-20T21:40:23Z</time>
      </trkpt>
      <trkpt lat="54.31806" lon="-6.2258">
        <ele>85.87</ele>
        <time>2021-03-20T21:40:26Z</time>
      </trkpt>
      <trkpt lat="54.31768" lon="-6.22515">
        <ele>86.83</ele>
        <time>2021-03-20T21:40:28Z</time>
      </trkpt>
      <trkpt lat="54.31748" lon="-6.22487">
        <ele>86.9</ele>
        <time>2021-03-20T21:40:31Z</time>
      </trkpt>
      <trkpt lat="54.31732" lon="-6.22472">
        <ele>87.47</ele>
        <time>2021-03-20T21:40:33Z</time>
      </trkpt>
      <trkpt lat="54.31716" lon="-6.22459">
        <ele>88.02</ele>
        <time>2021-03-20T21:40:36Z</time>
      </trkpt>
      <trkpt lat="54.31642" lon="-6.22417">
        <ele>89.9</ele>
        <time>2021-03-20T21:40:38Z</time>
      </trkpt>
      <trkpt lat="54.31551" lon="-6.22354">
        <ele>88.53</ele>
        <time>2021-03-20T21:40:41Z</time>
      </trkpt>
      <trkpt lat="54.315" lon="-6.22305">
        <ele>90.01</ele>
        <time>2021-03-20T21:40:43Z</time>
      </trkpt>
      <trkpt lat="54.31462" lon="-6.22259">
        <ele>92.77</ele>
        <time>2021-03-20T21:40:46Z</time>
      </trkpt>
      <trkpt lat="54.31424" lon="-6.22227">
        <ele>94.5</ele>
        <time>2021-03-20T21:40:48Z</time>
      </trkpt>
      <trkpt lat="54.31392" lon="-6.22206">
        <ele>95</ele>
        <time>2021-03-20T21:40:51Z</time>
      </trkpt>
      <trkpt lat="54.31332" lon="-6.22186">
        <ele>96.31</ele>
        <time>2021-03-20T21:40:53Z</time>
      </trkpt>
      <trkpt lat="54.31284" lon="-6.22163">
        <ele>98.54</ele>
        <time>2021-03-20T21:40:56Z</time>
      </trkpt>
      <trkpt lat="54.31277" lon="-6.22173">
        <ele>98.77</ele>
        <time>2021-03-20T21:40:58Z</time>
      </trkpt>
      <trkpt lat="54.31267" lon="-6.22175">
        <ele>99.09</ele>
        <time>2021-03-20T21:41:00Z</time>
      </trkpt>
      <trkpt lat="54.31239" lon="-6.22154">
        <ele>100.41</ele>
        <time>2021-03-20T21:41:03Z</time>
      </trkpt>
      <trkpt lat="54.31184" lon="-6.22119">
        <ele>102.66</ele>
        <time>2021-03-20T21:41:05Z</time>
      </trkpt>
      <trkpt lat="54.31127" lon="-6.22097">
        <ele>104.14</ele>
        <time>2021-03-20T21:41:07Z</time>
      </trkpt>
      <trkpt lat="54.31096" lon="-6.22089">
        <ele>106.23</ele>
        <time>2021-03-20T21:41:09Z</time>
      </trkpt>
      <trkpt lat="54.31057" lon="-6.22074">
        <ele>107.26</ele>
        <time>2021-03-20T21:41:11Z</time>
      </trkpt>
      <trkpt lat="54.30975" lon="-6.2203">
        <ele>109.06</ele>
        <time>2021-03-20T21:41:14Z</time>
      </trkpt>
      <trkpt lat="54.30896" lon="-6.21979">
        <ele>110.69</ele>
        <time>2021-03-20T21:41:16Z</time>
      </trkpt>
      <trkpt lat="54.3088" lon="-6.2197">
        <ele>111.59</ele>
        <time>2021-03-20T21:41:18Z</time>
      </trkpt>
      <trkpt lat="54.3082" lon="-6.21949">
        <ele>114.33</ele>
        <time>2021-03-20T21:41:20Z</time>
      </trkpt>
      <trkpt lat="54.30798" lon="-6.21935">
        <ele>115</ele>
        <time>2021-03-20T21:41:22Z</time>
      </trkpt>
      <trkpt lat="54.30784" lon="-6.2192">
        <ele>115</ele>
        <time>2021-03-20T21:41:25Z</time>
      </trkpt>
      <trkpt lat="54.30729" lon="-6.21999">
        <ele>113.25</ele>
        <time>2021-03-20T21:41:27Z</time>
      </trkpt>
      <trkpt lat="54.30653" lon="-6.22183">
        <ele>118.09</ele>
        <time>2021-03-20T21:41:30Z</time>
      </trkpt>
      <trkpt lat="54.30641" lon="-6.22219">
        <ele>118.07</ele>
        <time>2021-03-20T21:41:32Z</time>
      </trkpt>
      <trkpt lat="54.30619" lon="-6.223">
        <ele>120.78</ele>
        <time>2021-03-20T21:41:35Z</time>
      </trkpt>
      <trkpt lat="54.30595" lon="-6.22378">
        <ele>119.4</ele>
        <time>2021-03-20T21:41:37Z</time>
      </trkpt>
      <trkpt lat="54.30474" lon="-6.22721">
        <ele>128</ele>
        <time>2021-03-20T21:41:40Z</time>
      </trkpt>
      <trkpt lat="54.30432" lon="-6.22877">
        <ele>133.01</ele>
        <time>2021-03-20T21:41:42Z</time>
      </trkpt>
      <trkpt lat="54.30409" lon="-6.22949">
        <ele>138.31</ele>
        <time>2021-03-20T21:41:45Z</time>
      </trkpt>
      <trkpt lat="54.30381" lon="-6.23018">
        <ele>140.82</ele>
        <time>2021-03-20T21:41:47Z</time>
      </trkpt>
      <trkpt lat="54.30302" lon="-6.23181">
        <ele>144.37</ele>
        <time>2021-03-20T21:41:50Z</time>
      </trkpt>
      <trkpt lat="54.30264" lon="-6.23264">
        <ele>145</ele>
        <time>2021-03-20T21:41:52Z</time>
      </trkpt>
      <trkpt lat="54.30168" lon="-6.23446">
        <ele>155.03</ele>
        <time>2021-03-20T21:41:55Z</time>
      </trkpt>
      <trkpt lat="54.30153" lon="-6.23471">
        <ele>157.88</ele>
        <time>2021-03-20T21:41:57Z</time>
      </trkpt>
      <trkpt lat="54.30117" lon="-6.23509">
        <ele>161.61</ele>
        <time>2021-03-20T21:42:00Z</time>
      </trkpt>
      <trkpt lat="54.30079" lon="-6.23541">
        <ele>165.4</ele>
        <time>2021-03-20T21:42:02Z</time>
      </trkpt>
      <trkpt lat="54.30037" lon="-6.23587">
        <ele>171.09</ele>
        <time>2021-03-20T21:42:05Z</time>
      </trkpt>
      <trkpt lat="54.30008" lon="-6.23629">
        <ele>173.65</ele>
        <time>2021-03-20T21:42:07Z</time>
      </trkpt>
      <trkpt lat="54.29997" lon="-6.23643">
        <ele>174.27</ele>
        <time>2021-03-20T21:42:10Z</time>
      </trkpt>
      <trkpt lat="54.29982" lon="-6.23655">
        <ele>175.21</ele>
        <time>2021-03-20T21:42:13Z</time>
      </trkpt>
      <trkpt lat="54.29966" lon="-6.23664">
        <ele>176.09</ele>
        <time>2021-03-20T21:42:15Z</time>
      </trkpt>
      <trkpt lat="54.2992" lon="-6.23683">
        <ele>177.58</ele>
        <time>2021-03-20T21:42:18Z</time>
      </trkpt>
      <trkpt lat="54.29782" lon="-6.23735">
        <ele>180.47</ele>
        <time>2021-03-20T21:42:20Z</time>
      </trkpt>
      <trkpt lat="54.29733" lon="-6.23747">
        <ele>181.84</ele>
        <time>2021-03-20T21:42:23Z</time>
      </trkpt>
      <trkpt lat="54.29707" lon="-6.23756">
        <ele>182.23</ele>
        <time>2021-03-20T21:42:25Z</time>
      </trkpt>
      <trkpt lat="54.29679" lon="-6.2377">
        <ele>181.58</ele>
        <time>2021-03-20T21:42:28Z</time>
      </trkpt>
      <trkpt lat="54.29621" lon="-6.23803">
        <ele>177.29</ele>
        <time>2021-03-20T21:42:30Z</time>
      </trkpt>
      <trkpt lat="54.2954" lon="-6.23862">
        <ele>174.45</ele>
        <time>2021-03-20T21:42:33Z</time>
      </trkpt>
      <trkpt lat="54.29499" lon="-6.2388">
        <ele>174</ele>
        <time>2021-03-20T21:42:35Z</time>
      </trkpt>
      <trkpt lat="54.29379" lon="-6.2392">
        <ele>172.51</ele>
        <time>2021-03-20T21:42:38Z</time>
      </trkpt>
      <trkpt lat="54.29335" lon="-6.23945">
        <ele>170.06</ele>
        <time>2021-03-20T21:42:40Z</time>
      </trkpt>
      <trkpt lat="54.29311" lon="-6.23968">
        <ele>168.36</ele>
        <time>2021-03-20T21:42:43Z</time>
      </trkpt>
      <trkpt lat="54.2924" lon="-6.24062">
        <ele>170.64</ele>
        <time>2021-03-20T21:42:45Z</time>
      </trkpt>
      <trkpt lat="54.29219" lon="-6.24086">
        <ele>171.11</ele>
        <time>2021-03-20T21:42:48Z</time>
      </trkpt>
      <trkpt lat="54.29186" lon="-6.24118">
        <ele>172.07</ele>
        <time>2021-03-20T21:42:50Z</time>
      </trkpt>
      <trkpt lat="54.29154" lon="-6.24137">
        <ele>172.48</ele>
        <time>2021-03-20T21:42:53Z</time>
      </trkpt>
      <trkpt lat="54.29125" lon="-6.24164">
        <ele>172</ele>
        <time>2021-03-20T21:42:55Z</time>
      </trkpt>
      <trkpt lat="54.29077" lon="-6.24248">
        <ele>171.99</ele>
        <time>2021-03-20T21:42:58Z</time>
      </trkpt>
      <trkpt lat="54.29062" lon="-6.24269">
        <ele>172</ele>
        <time>2021-03-20T21:43:00Z</time>
      </trkpt>
      <trkpt lat="54.29036" lon="-6.24298">
        <ele>171.08</ele>
        <time>2021-03-20T21:43:03Z</time>
      </trkpt>
      <trkpt lat="54.29019" lon="-6.24313">
        <ele>171</ele>
        <time>2021-03-20T21:43:05Z</time>
      </trkpt>
      <trkpt lat="54.28891" lon="-6.24406">
        <ele>160.96</ele>
        <time>2021-03-20T21:43:08Z</time>
      </trkpt>
      <trkpt lat="54.28799" lon="-6.24457">
        <ele>152.33</ele>
        <time>2021-03-20T21:43:10Z</time>
      </trkpt>
      <trkpt lat="54.2875" lon="-6.2449">
        <ele>149.33</ele>
        <time>2021-03-20T21:43:13Z</time>
      </trkpt>
      <trkpt lat="54.28739" lon="-6.245">
        <ele>148.24</ele>
        <time>2021-03-20T21:43:16Z</time>
      </trkpt>
      <trkpt lat="54.28655" lon="-6.24599">
        <ele>141.6</ele>
        <time>2021-03-20T21:43:18Z</time>
      </trkpt>
      <trkpt lat="54.28562" lon="-6.24703">
        <ele>141.76</ele>
        <time>2021-03-20T21:43:21Z</time>
      </trkpt>
      <trkpt lat="54.28547" lon="-6.24716">
        <ele>142.3</ele>
        <time>2021-03-20T21:43:23Z</time>
      </trkpt>
      <trkpt lat="54.28497" lon="-6.24747">
        <ele>143.11</ele>
        <time>2021-03-20T21:43:26Z</time>
      </trkpt>
      <trkpt lat="54.28418" lon="-6.24807">
        <ele>141</ele>
        <time>2021-03-20T21:43:28Z</time>
      </trkpt>
      <trkpt lat="54.28386" lon="-6.24827">
        <ele>141</ele>
        <time>2021-03-20T21:43:31Z</time>
      </trkpt>
      <trkpt lat="54.28306" lon="-6.2485">
        <ele>140</ele>
        <time>2021-03-20T21:43:33Z</time>
      </trkpt>
      <trkpt lat="54.28263" lon="-6.24853">
        <ele>139</ele>
        <time>2021-03-20T21:43:36Z</time>
      </trkpt>
      <trkpt lat="54.2822" lon="-6.2485">
        <ele>140.71</ele>
        <time>2021-03-20T21:43:38Z</time>
      </trkpt>
      <trkpt lat="54.28198" lon="-6.24852">
        <ele>142.4</ele>
        <time>2021-03-20T21:43:41Z</time>
      </trkpt>
      <trkpt lat="54.2817" lon="-6.24859">
        <ele>143.8</ele>
        <time>2021-03-20T21:43:43Z</time>
      </trkpt>
      <trkpt lat="54.28097" lon="-6.24915">
        <ele>144.97</ele>
        <time>2021-03-20T21:43:46Z</time>
      </trkpt>
      <trkpt lat="54.28034" lon="-6.24958">
        <ele>143.1</ele>
        <time>2021-03-20T21:43:48Z</time>
      </trkpt>
      <trkpt lat="54.27987" lon="-6.24995">
        <ele>141</ele>
        <time>2021-03-20T21:43:51Z</time>
      </trkpt>
      <trkpt lat="54.27973" lon="-6.25004">
        <ele>140.87</ele>
        <time>2021-03-20T21:43:53Z</time>
      </trkpt>
      <trkpt lat="54.27855" lon="-6.25043">
        <ele>129.48</ele>
        <time>2021-03-20T21:43:56Z</time>
      </trkpt>
      <trkpt lat="54.27836" lon="-6.25057">
        <ele>128.16</ele>
        <time>2021-03-20T21:43:58Z</time>
      </trkpt>
      <trkpt lat="54.27737" lon="-6.25189">
        <ele>120.04</ele>
        <time>2021-03-20T21:44:01Z</time>
      </trkpt>
      <trkpt lat="54.2773" lon="-6.25196">
        <ele>120.44</ele>
        <time>2021-03-20T21:44:03Z</time>
      </trkpt>
      <trkpt lat="54.2768" lon="-6.25222">
        <ele>123.06</ele>
        <time>2021-03-20T21:44:06Z</time>
      </trkpt>
      <trkpt lat="54.27606" lon="-6.25238">
        <ele>125.36</ele>
        <time>2021-03-20T21:44:08Z</time>
      </trkpt>
      <trkpt lat="54.27583" lon="-6.25249">
        <ele>124.98</ele>
        <time>2021-03-20T21:44:11Z</time>
      </trkpt>
      <trkpt lat="54.27573" lon="-6.25259">
        <ele>124.61</ele>
        <time>2021-03-20T21:44:14Z</time>
      </trkpt>
      <trkpt lat="54.27561" lon="-6.25275">
        <ele>124.2</ele>
        <time>2021-03-20T21:44:16Z</time>
      </trkpt>
      <trkpt lat="54.27546" lon="-6.25304">
        <ele>122.69</ele>
        <time>2021-03-20T21:44:19Z</time>
      </trkpt>
      <trkpt lat="54.27518" lon="-6.25374">
        <ele>121.37</ele>
        <time>2021-03-20T21:44:21Z</time>
      </trkpt>
      <trkpt lat="54.27456" lon="-6.25539">
        <ele>123.8</ele>
        <time>2021-03-20T21:44:24Z</time>
      </trkpt>
      <trkpt lat="54.27451" lon="-6.25558">
        <ele>124.25</ele>
        <time>2021-03-20T21:44:26Z</time>
      </trkpt>
      <trkpt lat="54.27435" lon="-6.25661">
        <ele>123.65</ele>
        <time>2021-03-20T21:44:29Z</time>
      </trkpt>
      <trkpt lat="54.27426" lon="-6.257">
        <ele>124.34</ele>
        <time>2021-03-20T21:44:31Z</time>
      </trkpt>
      <trkpt lat="54.27389" lon="-6.25838">
        <ele>124</ele>
        <time>2021-03-20T21:44:34Z</time>
      </trkpt>
      <trkpt lat="54.27382" lon="-6.25874">
        <ele>124</ele>
        <time>2021-03-20T21:44:36Z</time>
      </trkpt>
      <trkpt lat="54.27373" lon="-6.25978">
        <ele>127.54</ele>
        <time>2021-03-20T21:44:39Z</time>
      </trkpt>
      <trkpt lat="54.27366" lon="-6.26232">
        <ele>130.83</ele>
        <time>2021-03-20T21:44:41Z</time>
      </trkpt>
      <trkpt lat="54.27363" lon="-6.26264">
        <ele>131.18</ele>
        <time>2021-03-20T21:44:44Z</time>
      </trkpt>
      <trkpt lat="54.27357" lon="-6.26292">
        <ele>130.01</ele>
        <time>2021-03-20T21:44:46Z</time>
      </trkpt>
      <trkpt lat="54.27347" lon="-6.26322">
        <ele>127.87</ele>
        <time>2021-03-20T21:44:49Z</time>
      </trkpt>
      <trkpt lat="54.27332" lon="-6.26356">
        <ele>124.29</ele>
        <time>2021-03-20T21:44:51Z</time>
      </trkpt>
      <trkpt lat="54.27309" lon="-6.26395">
        <ele>121.27</ele>
        <time>2021-03-20T21:44:54Z</time>
      </trkpt>
      <trkpt lat="54.27272" lon="-6.2645">
        <ele>118.72</ele>
        <time>2021-03-20T21:44:56Z</time>
      </trkpt>
      <trkpt lat="54.27262" lon="-6.2647">
        <ele>118.25</ele>
        <time>2021-03-20T21:44:59Z</time>
      </trkpt>
      <trkpt lat="54.27255" lon="-6.26493">
        <ele>117.51</ele>
        <time>2021-03-20T21:45:01Z</time>
      </trkpt>
      <trkpt lat="54.27251" lon="-6.2651">
        <ele>116.78</ele>
        <time>2021-03-20T21:45:04Z</time>
      </trkpt>
      <trkpt lat="54.27236" lon="-6.26633">
        <ele>109.74</ele>
        <time>2021-03-20T21:45:06Z</time>
      </trkpt>
      <trkpt lat="54.27221" lon="-6.26783">
        <ele>104.82</ele>
        <time>2021-03-20T21:45:09Z</time>
      </trkpt>
      <trkpt lat="54.27214" lon="-6.26861">
        <ele>104.42</ele>
        <time>2021-03-20T21:45:11Z</time>
      </trkpt>
      <trkpt lat="54.27209" lon="-6.26901">
        <ele>104.29</ele>
        <time>2021-03-20T21:45:14Z</time>
      </trkpt>
      <trkpt lat="54.27198" lon="-6.26927">
        <ele>103.33</ele>
        <time>2021-03-20T21:45:17Z</time>
      </trkpt>
      <trkpt lat="54.27186" lon="-6.26943">
        <ele>101.54</ele>
        <time>2021-03-20T21:45:19Z</time>
      </trkpt>
      <trkpt lat="54.27098" lon="-6.27036">
        <ele>90.12</ele>
        <time>2021-03-20T21:45:22Z</time>
      </trkpt>
      <trkpt lat="54.27073" lon="-6.27058">
        <ele>87.81</ele>
        <time>2021-03-20T21:45:24Z</time>
      </trkpt>
      <trkpt lat="54.26763" lon="-6.27294">
        <ele>81.17</ele>
        <time>2021-03-20T21:45:27Z</time>
      </trkpt>
      <trkpt lat="54.26663" lon="-6.27375">
        <ele>82.44</ele>
        <time>2021-03-20T21:45:29Z</time>
      </trkpt>
      <trkpt lat="54.2652" lon="-6.2748">
        <ele>75.28</ele>
        <time>2021-03-20T21:45:32Z</time>
      </trkpt>
      <trkpt lat="54.26451" lon="-6.27497">
        <ele>77.75</ele>
        <time>2021-03-20T21:45:34Z</time>
      </trkpt>
      <trkpt lat="54.26438" lon="-6.27503">
        <ele>78.71</ele>
        <time>2021-03-20T21:45:37Z</time>
      </trkpt>
      <trkpt lat="54.26424" lon="-6.27514">
        <ele>80.2</ele>
        <time>2021-03-20T21:45:39Z</time>
      </trkpt>
      <trkpt lat="54.26342" lon="-6.276">
        <ele>84.69</ele>
        <time>2021-03-20T21:45:42Z</time>
      </trkpt>
      <trkpt lat="54.26309" lon="-6.2764">
        <ele>83</ele>
        <time>2021-03-20T21:45:44Z</time>
      </trkpt>
      <trkpt lat="54.26296" lon="-6.27657">
        <ele>83.65</ele>
        <time>2021-03-20T21:45:47Z</time>
      </trkpt>
      <trkpt lat="54.26286" lon="-6.27678">
        <ele>84.03</ele>
        <time>2021-03-20T21:45:49Z</time>
      </trkpt>
      <trkpt lat="54.26274" lon="-6.27715">
        <ele>84.26</ele>
        <time>2021-03-20T21:45:52Z</time>
      </trkpt>
      <trkpt lat="54.2627" lon="-6.27725">
        <ele>84.45</ele>
        <time>2021-03-20T21:45:54Z</time>
      </trkpt>
      <trkpt lat="54.26265" lon="-6.27732">
        <ele>84.58</ele>
        <time>2021-03-20T21:45:57Z</time>
      </trkpt>
      <trkpt lat="54.26257" lon="-6.27738">
        <ele>84.98</ele>
        <time>2021-03-20T21:45:59Z</time>
      </trkpt>
      <trkpt lat="54.26159" lon="-6.27778">
        <ele>84.69</ele>
        <time>2021-03-20T21:46:02Z</time>
      </trkpt>
      <trkpt lat="54.26062" lon="-6.27828">
        <ele>76.45</ele>
        <time>2021-03-20T21:46:04Z</time>
      </trkpt>
      <trkpt lat="54.26053" lon="-6.27831">
        <ele>76</ele>
        <time>2021-03-20T21:46:07Z</time>
      </trkpt>
      <trkpt lat="54.26046" lon="-6.27829">
        <ele>75.79</ele>
        <time>2021-03-20T21:46:09Z</time>
      </trkpt>
      <trkpt lat="54.26038" lon="-6.27824">
        <ele>75.71</ele>
        <time>2021-03-20T21:46:12Z</time>
      </trkpt>
      <trkpt lat="54.25988" lon="-6.27772">
        <ele>74.75</ele>
        <time>2021-03-20T21:46:15Z</time>
      </trkpt>
      <trkpt lat="54.2598" lon="-6.27767">
        <ele>74.67</ele>
        <time>2021-03-20T21:46:17Z</time>
      </trkpt>
      <trkpt lat="54.25974" lon="-6.27766">
        <ele>74.49</ele>
        <time>2021-03-20T21:46:20Z</time>
      </trkpt>
      <trkpt lat="54.25968" lon="-6.27769">
        <ele>74.27</ele>
        <time>2021-03-20T21:46:22Z</time>
      </trkpt>
      <trkpt lat="54.25964" lon="-6.27776">
        <ele>74.04</ele>
        <time>2021-03-20T21:46:25Z</time>
      </trkpt>
      <trkpt lat="54.25951" lon="-6.27806">
        <ele>75.01</ele>
        <time>2021-03-20T21:46:27Z</time>
      </trkpt>
      <trkpt lat="54.25925" lon="-6.27879">
        <ele>79.06</ele>
        <time>2021-03-20T21:46:30Z</time>
      </trkpt>
      <trkpt lat="54.25895" lon="-6.27956">
        <ele>83.02</ele>
        <time>2021-03-20T21:46:32Z</time>
      </trkpt>
      <trkpt lat="54.2589" lon="-6.27964">
        <ele>83.62</ele>
        <time>2021-03-20T21:46:35Z</time>
      </trkpt>
      <trkpt lat="54.2588" lon="-6.27972">
        <ele>84.61</ele>
        <time>2021-03-20T21:46:37Z</time>
      </trkpt>
      <trkpt lat="54.25832" lon="-6.27997">
        <ele>86.88</ele>
        <time>2021-03-20T21:46:40Z</time>
      </trkpt>
      <trkpt lat="54.25729" lon="-6.28045">
        <ele>86.69</ele>
        <time>2021-03-20T21:46:42Z</time>
      </trkpt>
      <trkpt lat="54.25715" lon="-6.28055">
        <ele>86.71</ele>
        <time>2021-03-20T21:46:45Z</time>
      </trkpt>
      <trkpt lat="54.25711" lon="-6.28059">
        <ele>86.74</ele>
        <time>2021-03-20T21:46:47Z</time>
      </trkpt>
      <trkpt lat="54.25697" lon="-6.28099">
        <ele>87.6</ele>
        <time>2021-03-20T21:46:50Z</time>
      </trkpt>
      <trkpt lat="54.25688" lon="-6.2815">
        <ele>87.05</ele>
        <time>2021-03-20T21:46:52Z</time>
      </trkpt>
      <trkpt lat="54.25688" lon="-6.28174">
        <ele>86.75</ele>
        <time>2021-03-20T21:46:55Z</time>
      </trkpt>
      <trkpt lat="54.25706" lon="-6.28387">
        <ele>84.82</ele>
        <time>2021-03-20T21:46:57Z</time>
      </trkpt>
      <trkpt lat="54.25705" lon="-6.28405">
        <ele>84.54</ele>
        <time>2021-03-20T21:47:00Z</time>
      </trkpt>
      <trkpt lat="54.25689" lon="-6.28496">
        <ele>80.37</ele>
        <time>2021-03-20T21:47:02Z</time>
      </trkpt>
      <trkpt lat="54.25684" lon="-6.28511">
        <ele>78.71</ele>
        <time>2021-03-20T21:47:05Z</time>
      </trkpt>
      <trkpt lat="54.25678" lon="-6.28522">
        <ele>77</ele>
        <time>2021-03-20T21:47:07Z</time>
      </trkpt>
      <trkpt lat="54.25586" lon="-6.28648">
        <ele>70.59</ele>
        <time>2021-03-20T21:47:10Z</time>
      </trkpt>
      <trkpt lat="54.25468" lon="-6.28806">
        <ele>80.45</ele>
        <time>2021-03-20T21:47:12Z</time>
      </trkpt>
      <trkpt lat="54.25452" lon="-6.28836">
        <ele>82.04</ele>
        <time>2021-03-20T21:47:15Z</time>
      </trkpt>
      <trkpt lat="54.25408" lon="-6.28941">
        <ele>79.39</ele>
        <time>2021-03-20T21:47:18Z</time>
      </trkpt>
      <trkpt lat="54.25363" lon="-6.29027">
        <ele>78.9</ele>
        <time>2021-03-20T21:47:20Z</time>
      </trkpt>
      <trkpt lat="54.25322" lon="-6.29097">
        <ele>78.32</ele>
        <time>2021-03-20T21:47:23Z</time>
      </trkpt>
      <trkpt lat="54.25308" lon="-6.29116">
        <ele>78.65</ele>
        <time>2021-03-20T21:47:25Z</time>
      </trkpt>
      <trkpt lat="54.25292" lon="-6.29133">
        <ele>78.7</ele>
        <time>2021-03-20T21:47:28Z</time>
      </trkpt>
      <trkpt lat="54.25235" lon="-6.2918">
        <ele>80.75</ele>
        <time>2021-03-20T21:47:30Z</time>
      </trkpt>
      <trkpt lat="54.2522" lon="-6.29195">
        <ele>81.1</ele>
        <time>2021-03-20T21:47:33Z</time>
      </trkpt>
      <trkpt lat="54.25209" lon="-6.29208">
        <ele>81.47</ele>
        <time>2021-03-20T21:47:35Z</time>
      </trkpt>
      <trkpt lat="54.25199" lon="-6.29227">
        <ele>82.02</ele>
        <time>2021-03-20T21:47:38Z</time>
      </trkpt>
      <trkpt lat="54.25165" lon="-6.29327">
        <ele>86.84</ele>
        <time>2021-03-20T21:47:40Z</time>
      </trkpt>
      <trkpt lat="54.25153" lon="-6.29372">
        <ele>87</ele>
        <time>2021-03-20T21:47:43Z</time>
      </trkpt>
      <trkpt lat="54.25147" lon="-6.29387">
        <ele>87</ele>
        <time>2021-03-20T21:47:45Z</time>
      </trkpt>
      <trkpt lat="54.25142" lon="-6.29394">
        <ele>86.81</ele>
        <time>2021-03-20T21:47:48Z</time>
      </trkpt>
      <trkpt lat="54.25135" lon="-6.29398">
        <ele>86.67</ele>
        <time>2021-03-20T21:47:50Z</time>
      </trkpt>
      <trkpt lat="54.2508" lon="-6.29412">
        <ele>88.24</ele>
        <time>2021-03-20T21:47:53Z</time>
      </trkpt>
      <trkpt lat="54.25064" lon="-6.29421">
        <ele>89.39</ele>
        <time>2021-03-20T21:47:55Z</time>
      </trkpt>
      <trkpt lat="54.25051" lon="-6.29434">
        <ele>89.85</ele>
        <time>2021-03-20T21:47:58Z</time>
      </trkpt>
      <trkpt lat="54.25041" lon="-6.29449">
        <ele>89.57</ele>
        <time>2021-03-20T21:48:00Z</time>
      </trkpt>
      <trkpt lat="54.2501" lon="-6.29511">
        <ele>90.41</ele>
        <time>2021-03-20T21:48:03Z</time>
      </trkpt>
      <trkpt lat="54.24995" lon="-6.29538">
        <ele>90.8</ele>
        <time>2021-03-20T21:48:05Z</time>
      </trkpt>
      <trkpt lat="54.24979" lon="-6.29561">
        <ele>90.43</ele>
        <time>2021-03-20T21:48:08Z</time>
      </trkpt>
      <trkpt lat="54.24833" lon="-6.29738">
        <ele>96.55</ele>
        <time>2021-03-20T21:48:10Z</time>
      </trkpt>
      <trkpt lat="54.24798" lon="-6.29764">
        <ele>95.87</ele>
        <time>2021-03-20T21:48:13Z</time>
      </trkpt>
      <trkpt lat="54.24782" lon="-6.29772">
        <ele>95.83</ele>
        <time>2021-03-20T21:48:16Z</time>
      </trkpt>
      <trkpt lat="54.2476" lon="-6.29776">
        <ele>94.64</ele>
        <time>2021-03-20T21:48:18Z</time>
      </trkpt>
      <trkpt lat="54.24644" lon="-6.29777">
        <ele>91.64</ele>
        <time>2021-03-20T21:48:21Z</time>
      </trkpt>
      <trkpt lat="54.24624" lon="-6.29783">
        <ele>92.44</ele>
        <time>2021-03-20T21:48:23Z</time>
      </trkpt>
      <trkpt lat="54.24587" lon="-6.29819">
        <ele>95.06</ele>
        <time>2021-03-20T21:48:26Z</time>
      </trkpt>
      <trkpt lat="54.2452" lon="-6.29896">
        <ele>93.96</ele>
        <time>2021-03-20T21:48:28Z</time>
      </trkpt>
      <trkpt lat="54.24481" lon="-6.29933">
        <ele>91.71</ele>
        <time>2021-03-20T21:48:31Z</time>
      </trkpt>
      <trkpt lat="54.24373" lon="-6.3002">
        <ele>88.87</ele>
        <time>2021-03-20T21:48:33Z</time>
      </trkpt>
      <trkpt lat="54.24328" lon="-6.3005">
        <ele>83.79</ele>
        <time>2021-03-20T21:48:36Z</time>
      </trkpt>
      <trkpt lat="54.24283" lon="-6.30063">
        <ele>81.1</ele>
        <time>2021-03-20T21:48:38Z</time>
      </trkpt>
      <trkpt lat="54.24201" lon="-6.30081">
        <ele>81.83</ele>
        <time>2021-03-20T21:48:41Z</time>
      </trkpt>
      <trkpt lat="54.2419" lon="-6.30078">
        <ele>81.73</ele>
        <time>2021-03-20T21:48:43Z</time>
      </trkpt>
      <trkpt lat="54.24134" lon="-6.30049">
        <ele>83.32</ele>
        <time>2021-03-20T21:48:46Z</time>
      </trkpt>
      <trkpt lat="54.24099" lon="-6.30048">
        <ele>84.19</ele>
        <time>2021-03-20T21:48:48Z</time>
      </trkpt>
      <trkpt lat="54.2407" lon="-6.30053">
        <ele>83.78</ele>
        <time>2021-03-20T21:48:51Z</time>
      </trkpt>
      <trkpt lat="54.2405" lon="-6.30057">
        <ele>84.53</ele>
        <time>2021-03-20T21:48:53Z</time>
      </trkpt>
      <trkpt lat="54.23941" lon="-6.30091">
        <ele>96.53</ele>
        <time>2021-03-20T21:48:56Z</time>
      </trkpt>
      <trkpt lat="54.23893" lon="-6.3012">
        <ele>101</ele>
        <time>2021-03-20T21:48:58Z</time>
      </trkpt>
      <trkpt lat="54.23877" lon="-6.30127">
        <ele>100.76</ele>
        <time>2021-03-20T21:49:01Z</time>
      </trkpt>
      <trkpt lat="54.23859" lon="-6.30133">
        <ele>100.27</ele>
        <time>2021-03-20T21:49:03Z</time>
      </trkpt>
      <trkpt lat="54.23822" lon="-6.30137">
        <ele>100.47</ele>
        <time>2021-03-20T21:49:06Z</time>
      </trkpt>
      <trkpt lat="54.238" lon="-6.30142">
        <ele>100.03</ele>
        <time>2021-03-20T21:49:08Z</time>
      </trkpt>
      <trkpt lat="54.2378" lon="-6.30149">
        <ele>99.78</ele>
        <time>2021-03-20T21:49:11Z</time>
      </trkpt>
      <trkpt lat="54.23766" lon="-6.30157">
        <ele>99.03</ele>
        <time>2021-03-20T21:49:14Z</time>
      </trkpt>
      <trkpt lat="54.23687" lon="-6.30227">
        <ele>95.4</ele>
        <time>2021-03-20T21:49:16Z</time>
      </trkpt>
      <trkpt lat="54.23664" lon="-6.3025">
        <ele>94.78</ele>
        <time>2021-03-20T21:49:19Z</time>
      </trkpt>
      <trkpt lat="54.23652" lon="-6.30265">
        <ele>93.92</ele>
        <time>2021-03-20T21:49:21Z</time>
      </trkpt>
      <trkpt lat="54.23643" lon="-6.30282">
        <ele>92.94</ele>
        <time>2021-03-20T21:49:24Z</time>
      </trkpt>
      <trkpt lat="54.23635" lon="-6.30303">
        <ele>90.64</ele>
        <time>2021-03-20T21:49:26Z</time>
      </trkpt>
      <trkpt lat="54.2363" lon="-6.30322">
        <ele>88.73</ele>
        <time>2021-03-20T21:49:29Z</time>
      </trkpt>
      <trkpt lat="54.23613" lon="-6.30421">
        <ele>84.06</ele>
        <time>2021-03-20T21:49:31Z</time>
      </trkpt>
      <trkpt lat="54.23607" lon="-6.30446">
        <ele>83.8</ele>
        <time>2021-03-20T21:49:34Z</time>
      </trkpt>
      <trkpt lat="54.23599" lon="-6.30469">
        <ele>82.65</ele>
        <time>2021-03-20T21:49:36Z</time>
      </trkpt>
      <trkpt lat="54.23591" lon="-6.30483">
        <ele>82.26</ele>
        <time>2021-03-20T21:49:39Z</time>
      </trkpt>
      <trkpt lat="54.23574" lon="-6.30503">
        <ele>81.75</ele>
        <time>2021-03-20T21:49:41Z</time>
      </trkpt>
      <trkpt lat="54.23543" lon="-6.30536">
        <ele>81</ele>
        <time>2021-03-20T21:49:44Z</time>
      </trkpt>
      <trkpt lat="54.23534" lon="-6.3054">
        <ele>81</ele>
        <time>2021-03-20T21:49:46Z</time>
      </trkpt>
      <trkpt lat="54.23512" lon="-6.30543">
        <ele>81.57</ele>
        <time>2021-03-20T21:49:49Z</time>
      </trkpt>
      <trkpt lat="54.2349" lon="-6.30536">
        <ele>82.11</ele>
        <time>2021-03-20T21:49:51Z</time>
      </trkpt>
      <trkpt lat="54.23481" lon="-6.30528">
        <ele>82</ele>
        <time>2021-03-20T21:49:54Z</time>
      </trkpt>
      <trkpt lat="54.23472" lon="-6.30516">
        <ele>81.13</ele>
        <time>2021-03-20T21:49:56Z</time>
      </trkpt>
      <trkpt lat="54.23424" lon="-6.30439">
        <ele>80.05</ele>
        <time>2021-03-20T21:49:59Z</time>
      </trkpt>
      <trkpt lat="54.23415" lon="-6.30431">
        <ele>80</ele>
        <time>2021-03-20T21:50:01Z</time>
      </trkpt>
      <trkpt lat="54.23402" lon="-6.30424">
        <ele>80</ele>
        <time>2021-03-20T21:50:04Z</time>
      </trkpt>
      <trkpt lat="54.23367" lon="-6.3042">
        <ele>79.2</ele>
        <time>2021-03-20T21:50:06Z</time>
      </trkpt>
      <trkpt lat="54.23327" lon="-6.30426">
        <ele>78.75</ele>
        <time>2021-03-20T21:50:09Z</time>
      </trkpt>
      <trkpt lat="54.23309" lon="-6.30433">
        <ele>78.11</ele>
        <time>2021-03-20T21:50:11Z</time>
      </trkpt>
      <trkpt lat="54.23291" lon="-6.30445">
        <ele>76.97</ele>
        <time>2021-03-20T21:50:14Z</time>
      </trkpt>
      <trkpt lat="54.23249" lon="-6.3048">
        <ele>74.99</ele>
        <time>2021-03-20T21:50:17Z</time>
      </trkpt>
      <trkpt lat="54.23198" lon="-6.30531">
        <ele>72.13</ele>
        <time>2021-03-20T21:50:19Z</time>
      </trkpt>
      <trkpt lat="54.23176" lon="-6.30543">
        <ele>71.65</ele>
        <time>2021-03-20T21:50:22Z</time>
      </trkpt>
      <trkpt lat="54.23134" lon="-6.30547">
        <ele>70.13</ele>
        <time>2021-03-20T21:50:24Z</time>
      </trkpt>
      <trkpt lat="54.23113" lon="-6.30557">
        <ele>69.01</ele>
        <time>2021-03-20T21:50:27Z</time>
      </trkpt>
      <trkpt lat="54.23101" lon="-6.30568">
        <ele>68.16</ele>
        <time>2021-03-20T21:50:29Z</time>
      </trkpt>
      <trkpt lat="54.23089" lon="-6.30584">
        <ele>67.17</ele>
        <time>2021-03-20T21:50:32Z</time>
      </trkpt>
      <trkpt lat="54.2306" lon="-6.30638">
        <ele>65</ele>
        <time>2021-03-20T21:50:34Z</time>
      </trkpt>
      <trkpt lat="54.23048" lon="-6.30656">
        <ele>64.74</ele>
        <time>2021-03-20T21:50:37Z</time>
      </trkpt>
      <trkpt lat="54.2304" lon="-6.30709">
        <ele>64.57</ele>
        <time>2021-03-20T21:50:39Z</time>
      </trkpt>
      <trkpt lat="54.23024" lon="-6.30824">
        <ele>65</ele>
        <time>2021-03-20T21:50:42Z</time>
      </trkpt>
      <trkpt lat="54.23" lon="-6.3092">
        <ele>62.98</ele>
        <time>2021-03-20T21:50:44Z</time>
      </trkpt>
      <trkpt lat="54.2299" lon="-6.30968">
        <ele>61.8</ele>
        <time>2021-03-20T21:50:47Z</time>
      </trkpt>
      <trkpt lat="54.22987" lon="-6.31003">
        <ele>60.89</ele>
        <time>2021-03-20T21:50:49Z</time>
      </trkpt>
      <trkpt lat="54.22988" lon="-6.31021">
        <ele>60.26</ele>
        <time>2021-03-20T21:50:52Z</time>
      </trkpt>
      <trkpt lat="54.22992" lon="-6.31097">
        <ele>57.8</ele>
        <time>2021-03-20T21:50:54Z</time>
      </trkpt>
      <trkpt lat="54.2299" lon="-6.31116">
        <ele>56.96</ele>
        <time>2021-03-20T21:50:57Z</time>
      </trkpt>
      <trkpt lat="54.22974" lon="-6.31176">
        <ele>52.28</ele>
        <time>2021-03-20T21:50:59Z</time>
      </trkpt>
      <trkpt lat="54.22966" lon="-6.31197">
        <ele>50.85</ele>
        <time>2021-03-20T21:51:02Z</time>
      </trkpt>
      <trkpt lat="54.22895" lon="-6.31328">
        <ele>49.93</ele>
        <time>2021-03-20T21:51:04Z</time>
      </trkpt>
      <trkpt lat="54.22864" lon="-6.3136">
        <ele>49.96</ele>
        <time>2021-03-20T21:51:07Z</time>
      </trkpt>
      <trkpt lat="54.22832" lon="-6.31381">
        <ele>50.33</ele>
        <time>2021-03-20T21:51:09Z</time>
      </trkpt>
      <trkpt lat="54.22802" lon="-6.3142">
        <ele>49.9</ele>
        <time>2021-03-20T21:51:12Z</time>
      </trkpt>
      <trkpt lat="54.22759" lon="-6.31468">
        <ele>49.55</ele>
        <time>2021-03-20T21:51:15Z</time>
      </trkpt>
      <trkpt lat="54.22747" lon="-6.31487">
        <ele>49.43</ele>
        <time>2021-03-20T21:51:17Z</time>
      </trkpt>
      <trkpt lat="54.2273" lon="-6.31527">
        <ele>46.47</ele>
        <time>2021-03-20T21:51:20Z</time>
      </trkpt>
      <trkpt lat="54.22706" lon="-6.31581">
        <ele>43.86</ele>
        <time>2021-03-20T21:51:22Z</time>
      </trkpt>
      <trkpt lat="54.22536" lon="-6.31939">
        <ele>38.91</ele>
        <time>2021-03-20T21:51:25Z</time>
      </trkpt>
      <trkpt lat="54.22527" lon="-6.31961">
        <ele>38.47</ele>
        <time>2021-03-20T21:51:27Z</time>
      </trkpt>
      <trkpt lat="54.2252" lon="-6.31984">
        <ele>38.49</ele>
        <time>2021-03-20T21:51:30Z</time>
      </trkpt>
      <trkpt lat="54.22516" lon="-6.32033">
        <ele>39.45</ele>
        <time>2021-03-20T21:51:32Z</time>
      </trkpt>
      <trkpt lat="54.22522" lon="-6.32206">
        <ele>43.35</ele>
        <time>2021-03-20T21:51:35Z</time>
      </trkpt>
      <trkpt lat="54.22519" lon="-6.32224">
        <ele>42.96</ele>
        <time>2021-03-20T21:51:37Z</time>
      </trkpt>
      <trkpt lat="54.22521" lon="-6.32258">
        <ele>40.7</ele>
        <time>2021-03-20T21:51:39Z</time>
      </trkpt>
      <trkpt lat="54.22535" lon="-6.32375">
        <ele>38.25</ele>
        <time>2021-03-20T21:51:41Z</time>
      </trkpt>
      <trkpt lat="54.22536" lon="-6.32395">
        <ele>38.52</ele>
        <time>2021-03-20T21:51:43Z</time>
      </trkpt>
      <trkpt lat="54.22534" lon="-6.32445">
        <ele>39.22</ele>
        <time>2021-03-20T21:51:44Z</time>
      </trkpt>
      <trkpt lat="54.22535" lon="-6.32466">
        <ele>38.49</ele>
        <time>2021-03-20T21:51:46Z</time>
      </trkpt>
      <trkpt lat="54.22538" lon="-6.32486">
        <ele>38.06</ele>
        <time>2021-03-20T21:51:48Z</time>
      </trkpt>
      <trkpt lat="54.22569" lon="-6.32585">
        <ele>36.93</ele>
        <time>2021-03-20T21:51:50Z</time>
      </trkpt>
      <trkpt lat="54.22573" lon="-6.32608">
        <ele>37.22</ele>
        <time>2021-03-20T21:51:52Z</time>
      </trkpt>
      <trkpt lat="54.22576" lon="-6.32645">
        <ele>37.5</ele>
        <time>2021-03-20T21:51:54Z</time>
      </trkpt>
      <trkpt lat="54.2259" lon="-6.32732">
        <ele>38.65</ele>
        <time>2021-03-20T21:51:56Z</time>
      </trkpt>
      <trkpt lat="54.22594" lon="-6.32751">
        <ele>39.8</ele>
        <time>2021-03-20T21:51:58Z</time>
      </trkpt>
      <trkpt lat="54.22598" lon="-6.32765">
        <ele>40.6</ele>
        <time>2021-03-20T21:52:00Z</time>
      </trkpt>
      <trkpt lat="54.22612" lon="-6.32792">
        <ele>43.03</ele>
        <time>2021-03-20T21:52:02Z</time>
      </trkpt>
      <trkpt lat="54.2262" lon="-6.32811">
        <ele>44.59</ele>
        <time>2021-03-20T21:52:04Z</time>
      </trkpt>
      <trkpt lat="54.22627" lon="-6.32837">
        <ele>46.28</ele>
        <time>2021-03-20T21:52:06Z</time>
      </trkpt>
      <trkpt lat="54.22639" lon="-6.3289">
        <ele>49.03</ele>
        <time>2021-03-20T21:52:08Z</time>
      </trkpt>
      <trkpt lat="54.22641" lon="-6.32917">
        <ele>50.3</ele>
        <time>2021-03-20T21:52:09Z</time>
      </trkpt>
      <trkpt lat="54.22637" lon="-6.33004">
        <ele>53.99</ele>
        <time>2021-03-20T21:52:11Z</time>
      </trkpt>
      <trkpt lat="54.22638" lon="-6.33031">
        <ele>55.01</ele>
        <time>2021-03-20T21:52:13Z</time>
      </trkpt>
      <trkpt lat="54.22643" lon="-6.33074">
        <ele>55.68</ele>
        <time>2021-03-20T21:52:15Z</time>
      </trkpt>
      <trkpt lat="54.22659" lon="-6.33167">
        <ele>57.46</ele>
        <time>2021-03-20T21:52:17Z</time>
      </trkpt>
      <trkpt lat="54.22659" lon="-6.33197">
        <ele>56.47</ele>
        <time>2021-03-20T21:52:19Z</time>
      </trkpt>
      <trkpt lat="54.22657" lon="-6.33212">
        <ele>56.27</ele>
        <time>2021-03-20T21:52:21Z</time>
      </trkpt>
      <trkpt lat="54.22622" lon="-6.33323">
        <ele>55.79</ele>
        <time>2021-03-20T21:52:23Z</time>
      </trkpt>
      <trkpt lat="54.22603" lon="-6.33374">
        <ele>54.12</ele>
        <time>2021-03-20T21:52:25Z</time>
      </trkpt>
      <trkpt lat="54.22601" lon="-6.33389">
        <ele>53.92</ele>
        <time>2021-03-20T21:52:27Z</time>
      </trkpt>
      <trkpt lat="54.22599" lon="-6.3344">
        <ele>55.14</ele>
        <time>2021-03-20T21:52:29Z</time>
      </trkpt>
      <trkpt lat="54.22594" lon="-6.33475">
        <ele>55.97</ele>
        <time>2021-03-20T21:52:31Z</time>
      </trkpt>
      <trkpt lat="54.22567" lon="-6.33535">
        <ele>55.29</ele>
        <time>2021-03-20T21:52:33Z</time>
      </trkpt>
      <trkpt lat="54.22561" lon="-6.33554">
        <ele>54.76</ele>
        <time>2021-03-20T21:52:34Z</time>
      </trkpt>
      <trkpt lat="54.22556" lon="-6.33584">
        <ele>54.13</ele>
        <time>2021-03-20T21:52:36Z</time>
      </trkpt>
      <trkpt lat="54.22542" lon="-6.33632">
        <ele>54.29</ele>
        <time>2021-03-20T21:52:38Z</time>
      </trkpt>
      <trkpt lat="54.225" lon="-6.33768">
        <ele>56</ele>
        <time>2021-03-20T21:52:40Z</time>
      </trkpt>
      <trkpt lat="54.22477" lon="-6.33848">
        <ele>55.73</ele>
        <time>2021-03-20T21:52:42Z</time>
      </trkpt>
      <trkpt lat="54.22471" lon="-6.33865">
        <ele>54.77</ele>
        <time>2021-03-20T21:52:44Z</time>
      </trkpt>
      <trkpt lat="54.22362" lon="-6.33967">
        <ele>48.38</ele>
        <time>2021-03-20T21:52:46Z</time>
      </trkpt>
      <trkpt lat="54.22203" lon="-6.34102">
        <ele>36.66</ele>
        <time>2021-03-20T21:52:48Z</time>
      </trkpt>
      <trkpt lat="54.22184" lon="-6.34121">
        <ele>35.74</ele>
        <time>2021-03-20T21:52:50Z</time>
      </trkpt>
      <trkpt lat="54.22137" lon="-6.34184">
        <ele>30.74</ele>
        <time>2021-03-20T21:52:52Z</time>
      </trkpt>
      <trkpt lat="54.22119" lon="-6.34211">
        <ele>29.42</ele>
        <time>2021-03-20T21:52:54Z</time>
      </trkpt>
      <trkpt lat="54.22139" lon="-6.34228">
        <ele>29</ele>
        <time>2021-03-20T21:52:55Z</time>
      </trkpt>
      <trkpt lat="54.22138" lon="-6.34256">
        <ele>29</ele>
        <time>2021-03-20T21:52:57Z</time>
      </trkpt>
      <trkpt lat="54.22133" lon="-6.34285">
        <ele>28.74</ele>
        <time>2021-03-20T21:52:59Z</time>
      </trkpt>
      <trkpt lat="54.22123" lon="-6.34322">
        <ele>28</ele>
        <time>2021-03-20T21:53:01Z</time>
      </trkpt>
      <trkpt lat="54.22058" lon="-6.34513">
        <ele>27.58</ele>
        <time>2021-03-20T21:53:03Z</time>
      </trkpt>
      <trkpt lat="54.22048" lon="-6.34554">
        <ele>27.13</ele>
        <time>2021-03-20T21:53:05Z</time>
      </trkpt>
      <trkpt lat="54.22044" lon="-6.34584">
        <ele>25.73</ele>
        <time>2021-03-20T21:53:07Z</time>
      </trkpt>
      <trkpt lat="54.22038" lon="-6.34723">
        <ele>22.11</ele>
        <time>2021-03-20T21:53:09Z</time>
      </trkpt>
      <trkpt lat="54.22027" lon="-6.34828">
        <ele>23.69</ele>
        <time>2021-03-20T21:53:11Z</time>
      </trkpt>
      <trkpt lat="54.22023" lon="-6.34845">
        <ele>24.38</ele>
        <time>2021-03-20T21:53:13Z</time>
      </trkpt>
      <trkpt lat="54.22011" lon="-6.34869">
        <ele>24.68</ele>
        <time>2021-03-20T21:53:15Z</time>
      </trkpt>
      <trkpt lat="54.21964" lon="-6.34926">
        <ele>23.95</ele>
        <time>2021-03-20T21:53:17Z</time>
      </trkpt>
      <trkpt lat="54.21926" lon="-6.3495">
        <ele>22.94</ele>
        <time>2021-03-20T21:53:19Z</time>
      </trkpt>
      <trkpt lat="54.21922" lon="-6.34958">
        <ele>22.69</ele>
        <time>2021-03-20T21:53:20Z</time>
      </trkpt>
      <trkpt lat="54.21921" lon="-6.34986">
        <ele>22.3</ele>
        <time>2021-03-20T21:53:22Z</time>
      </trkpt>
      <trkpt lat="54.21936" lon="-6.35054">
        <ele>17.13</ele>
        <time>2021-03-20T21:53:24Z</time>
      </trkpt>
      <trkpt lat="54.21941" lon="-6.35084">
        <ele>14.99</ele>
        <time>2021-03-20T21:53:26Z</time>
      </trkpt>
      <trkpt lat="54.2194" lon="-6.35118">
        <ele>13.37</ele>
        <time>2021-03-20T21:53:28Z</time>
      </trkpt>
      <trkpt lat="54.21937" lon="-6.35167">
        <ele>14.02</ele>
        <time>2021-03-20T21:53:30Z</time>
      </trkpt>
      <trkpt lat="54.21916" lon="-6.35303">
        <ele>16.86</ele>
        <time>2021-03-20T21:53:32Z</time>
      </trkpt>
      <trkpt lat="54.219" lon="-6.35375">
        <ele>14.02</ele>
        <time>2021-03-20T21:53:34Z</time>
      </trkpt>
      <trkpt lat="54.21901" lon="-6.35393">
        <ele>13.7</ele>
        <time>2021-03-20T21:53:36Z</time>
      </trkpt>
      <trkpt lat="54.21904" lon="-6.35412">
        <ele>13.28</ele>
        <time>2021-03-20T21:53:38Z</time>
      </trkpt>
      <trkpt lat="54.2193" lon="-6.35489">
        <ele>13.19</ele>
        <time>2021-03-20T21:53:40Z</time>
      </trkpt>
      <trkpt lat="54.21916" lon="-6.35559">
        <ele>11.01</ele>
        <time>2021-03-20T21:53:45Z</time>
      </trkpt>
      <trkpt lat="54.21891" lon="-6.35652">
        <ele>11</ele>
        <time>2021-03-20T21:53:49Z</time>
      </trkpt>
      <trkpt lat="54.21878" lon="-6.35681">
        <ele>14.16</ele>
        <time>2021-03-20T21:53:53Z</time>
      </trkpt>
      <trkpt lat="54.21859" lon="-6.35717">
        <ele>20.11</ele>
        <time>2021-03-20T21:53:58Z</time>
      </trkpt>
      <trkpt lat="54.21837" lon="-6.35686">
        <ele>20.32</ele>
        <time>2021-03-20T21:54:03Z</time>
      </trkpt>
      <trkpt lat="54.21792" lon="-6.35631">
        <ele>19.73</ele>
        <time>2021-03-20T21:54:08Z</time>
      </trkpt>
      <trkpt lat="54.2176" lon="-6.35597">
        <ele>18.85</ele>
        <time>2021-03-20T21:54:14Z</time>
      </trkpt>
      <trkpt lat="54.21708" lon="-6.35554">
        <ele>20.82</ele>
        <time>2021-03-20T21:54:19Z</time>
      </trkpt>
      <trkpt lat="54.21658" lon="-6.35523">
        <ele>21.99</ele>
        <time>2021-03-20T21:54:24Z</time>
      </trkpt>
      <trkpt lat="54.21591" lon="-6.35496">
        <ele>22.29</ele>
        <time>2021-03-20T21:54:29Z</time>
      </trkpt>
      <trkpt lat="54.21531" lon="-6.35483">
        <ele>21.69</ele>
        <time>2021-03-20T21:54:34Z</time>
      </trkpt>
      <trkpt lat="54.21488" lon="-6.35479">
        <ele>20.07</ele>
        <time>2021-03-20T21:54:40Z</time>
      </trkpt>
      <trkpt lat="54.21396" lon="-6.35486">
        <ele>18.15</ele>
        <time>2021-03-20T21:54:45Z</time>
      </trkpt>
      <trkpt lat="54.20805" lon="-6.35597">
        <ele>11.5</ele>
        <time>2021-03-20T21:54:50Z</time>
      </trkpt>
      <trkpt lat="54.20702" lon="-6.35612">
        <ele>13.07</ele>
        <time>2021-03-20T21:54:55Z</time>
      </trkpt>
      <trkpt lat="54.20579" lon="-6.35635">
        <ele>11.84</ele>
        <time>2021-03-20T21:55:00Z</time>
      </trkpt>
      <trkpt lat="54.20515" lon="-6.35642">
        <ele>11</ele>
        <time>2021-03-20T21:55:06Z</time>
      </trkpt>
      <trkpt lat="54.20493" lon="-6.35642">
        <ele>10.75</ele>
        <time>2021-03-20T21:55:11Z</time>
      </trkpt>
      <trkpt lat="54.20465" lon="-6.35641">
        <ele>9.75</ele>
        <time>2021-03-20T21:55:16Z</time>
      </trkpt>
      <trkpt lat="54.20415" lon="-6.35628">
        <ele>10.62</ele>
        <time>2021-03-20T21:55:21Z</time>
      </trkpt>
      <trkpt lat="54.20333" lon="-6.35591">
        <ele>10</ele>
        <time>2021-03-20T21:55:27Z</time>
      </trkpt>
      <trkpt lat="54.20334" lon="-6.35575">
        <ele>9.69</ele>
        <time>2021-03-20T21:55:28Z</time>
      </trkpt>
      <trkpt lat="54.20332" lon="-6.3556">
        <ele>9.19</ele>
        <time>2021-03-20T21:55:29Z</time>
      </trkpt>
      <trkpt lat="54.20328" lon="-6.35546">
        <ele>9.2</ele>
        <time>2021-03-20T21:55:30Z</time>
      </trkpt>
      <trkpt lat="54.20321" lon="-6.35536">
        <ele>9.45</ele>
        <time>2021-03-20T21:55:31Z</time>
      </trkpt>
      <trkpt lat="54.20313" lon="-6.3553">
        <ele>9.75</ele>
        <time>2021-03-20T21:55:32Z</time>
      </trkpt>
      <trkpt lat="54.20305" lon="-6.35528">
        <ele>9.98</ele>
        <time>2021-03-20T21:55:33Z</time>
      </trkpt>
      <trkpt lat="54.20298" lon="-6.3553">
        <ele>9.72</ele>
        <time>2021-03-20T21:55:35Z</time>
      </trkpt>
      <trkpt lat="54.20291" lon="-6.35534">
        <ele>9.47</ele>
        <time>2021-03-20T21:55:36Z</time>
      </trkpt>
      <trkpt lat="54.20285" lon="-6.35542">
        <ele>9.26</ele>
        <time>2021-03-20T21:55:37Z</time>
      </trkpt>
      <trkpt lat="54.20281" lon="-6.35552">
        <ele>9.1</ele>
        <time>2021-03-20T21:55:38Z</time>
      </trkpt>
      <trkpt lat="54.20278" lon="-6.35564">
        <ele>8.71</ele>
        <time>2021-03-20T21:55:39Z</time>
      </trkpt>
      <trkpt lat="54.20276" lon="-6.35576">
        <ele>8.27</ele>
        <time>2021-03-20T21:55:40Z</time>
      </trkpt>
      <trkpt lat="54.20277" lon="-6.3559">
        <ele>8.02</ele>
        <time>2021-03-20T21:55:41Z</time>
      </trkpt>
      <trkpt lat="54.2028" lon="-6.35602">
        <ele>8.18</ele>
        <time>2021-03-20T21:55:43Z</time>
      </trkpt>
      <trkpt lat="54.20285" lon="-6.35612">
        <ele>8.52</ele>
        <time>2021-03-20T21:55:44Z</time>
      </trkpt>
      <trkpt lat="54.20291" lon="-6.3562">
        <ele>8.96</ele>
        <time>2021-03-20T21:55:45Z</time>
      </trkpt>
      <trkpt lat="54.20201" lon="-6.35862">
        <ele>13.81</ele>
        <time>2021-03-20T21:55:46Z</time>
      </trkpt>
      <trkpt lat="54.20179" lon="-6.35928">
        <ele>18.73</ele>
        <time>2021-03-20T21:55:47Z</time>
      </trkpt>
      <trkpt lat="54.20171" lon="-6.35956">
        <ele>19.9</ele>
        <time>2021-03-20T21:55:48Z</time>
      </trkpt>
      <trkpt lat="54.20167" lon="-6.35952">
        <ele>19.99</ele>
        <time>2021-03-20T21:55:54Z</time>
      </trkpt>
      <trkpt lat="54.20155" lon="-6.35949">
        <ele>20.34</ele>
        <time>2021-03-20T21:55:59Z</time>
      </trkpt>
      <trkpt lat="54.20148" lon="-6.35952">
        <ele>20.47</ele>
        <time>2021-03-20T21:56:04Z</time>
      </trkpt>
      <trkpt lat="54.20131" lon="-6.35976">
        <ele>19.45</ele>
        <time>2021-03-20T21:56:10Z</time>
      </trkpt>
      <trkpt lat="54.20119" lon="-6.35988">
        <ele>18.55</ele>
        <time>2021-03-20T21:56:15Z</time>
      </trkpt>
      <trkpt lat="54.20005" lon="-6.36043">
        <ele>20.78</ele>
        <time>2021-03-20T21:56:21Z</time>
      </trkpt>
      <trkpt lat="54.19937" lon="-6.36066">
        <ele>24.99</ele>
        <time>2021-03-20T21:56:26Z</time>
      </trkpt>
      <trkpt lat="54.19805" lon="-6.36089">
        <ele>28.03</ele>
        <time>2021-03-20T21:56:31Z</time>
      </trkpt>
      <trkpt lat="54.19655" lon="-6.36106">
        <ele>24.07</ele>
        <time>2021-03-20T21:56:37Z</time>
      </trkpt>
      <trkpt lat="54.19438" lon="-6.36122">
        <ele>40.56</ele>
        <time>2021-03-20T21:56:42Z</time>
      </trkpt>
      <trkpt lat="54.19353" lon="-6.36125">
        <ele>55.51</ele>
        <time>2021-03-20T21:56:47Z</time>
      </trkpt>
      <trkpt lat="54.19294" lon="-6.36124">
        <ele>56.85</ele>
        <time>2021-03-20T21:56:53Z</time>
      </trkpt>
      <trkpt lat="54.1917" lon="-6.36115">
        <ele>55.03</ele>
        <time>2021-03-20T21:56:58Z</time>
      </trkpt>
      <trkpt lat="54.18983" lon="-6.36112">
        <ele>65.64</ele>
        <time>2021-03-20T21:57:04Z</time>
      </trkpt>
      <trkpt lat="54.18797" lon="-6.361">
        <ele>64</ele>
        <time>2021-03-20T21:57:09Z</time>
      </trkpt>
      <trkpt lat="54.18602" lon="-6.36078">
        <ele>59.43</ele>
        <time>2021-03-20T21:57:14Z</time>
      </trkpt>
      <trkpt lat="54.18289" lon="-6.36038">
        <ele>64.71</ele>
        <time>2021-03-20T21:57:20Z</time>
      </trkpt>
      <trkpt lat="54.18206" lon="-6.36021">
        <ele>66.29</ele>
        <time>2021-03-20T21:57:25Z</time>
      </trkpt>
      <trkpt lat="54.18035" lon="-6.35972">
        <ele>77.24</ele>
        <time>2021-03-20T21:57:31Z</time>
      </trkpt>
      <trkpt lat="54.17992" lon="-6.35962">
        <ele>80.49</ele>
        <time>2021-03-20T21:57:36Z</time>
      </trkpt>
      <trkpt lat="54.17952" lon="-6.35956">
        <ele>83.15</ele>
        <time>2021-03-20T21:57:41Z</time>
      </trkpt>
      <trkpt lat="54.17867" lon="-6.35951">
        <ele>86.8</ele>
        <time>2021-03-20T21:57:47Z</time>
      </trkpt>
      <trkpt lat="54.1783" lon="-6.35954">
        <ele>86.7</ele>
        <time>2021-03-20T21:57:52Z</time>
      </trkpt>
      <trkpt lat="54.17623" lon="-6.35988">
        <ele>89.18</ele>
        <time>2021-03-20T21:57:57Z</time>
      </trkpt>
      <trkpt lat="54.17146" lon="-6.36082">
        <ele>96.14</ele>
        <time>2021-03-20T21:58:03Z</time>
      </trkpt>
      <trkpt lat="54.17096" lon="-6.36088">
        <ele>95.18</ele>
        <time>2021-03-20T21:58:08Z</time>
      </trkpt>
      <trkpt lat="54.17027" lon="-6.36093">
        <ele>96.35</ele>
        <time>2021-03-20T21:58:14Z</time>
      </trkpt>
      <trkpt lat="54.16923" lon="-6.36092">
        <ele>94.24</ele>
        <time>2021-03-20T21:58:19Z</time>
      </trkpt>
      <trkpt lat="54.1688" lon="-6.36089">
        <ele>95.46</ele>
        <time>2021-03-20T21:58:24Z</time>
      </trkpt>
      <trkpt lat="54.16772" lon="-6.36071">
        <ele>91.75</ele>
        <time>2021-03-20T21:58:30Z</time>
      </trkpt>
      <trkpt lat="54.16451" lon="-6.35995">
        <ele>95.42</ele>
        <time>2021-03-20T21:58:35Z</time>
      </trkpt>
      <trkpt lat="54.16406" lon="-6.35982">
        <ele>95.82</ele>
        <time>2021-03-20T21:58:40Z</time>
      </trkpt>
      <trkpt lat="54.1636" lon="-6.35965">
        <ele>98.48</ele>
        <time>2021-03-20T21:58:46Z</time>
      </trkpt>
      <trkpt lat="54.16253" lon="-6.3592">
        <ele>96.82</ele>
        <time>2021-03-20T21:58:51Z</time>
      </trkpt>
      <trkpt lat="54.16203" lon="-6.35893">
        <ele>96.43</ele>
        <time>2021-03-20T21:58:57Z</time>
      </trkpt>
      <trkpt lat="54.16163" lon="-6.35868">
        <ele>97</ele>
        <time>2021-03-20T21:59:02Z</time>
      </trkpt>
      <trkpt lat="54.1609" lon="-6.35811">
        <ele>98.69</ele>
        <time>2021-03-20T21:59:07Z</time>
      </trkpt>
      <trkpt lat="54.16047" lon="-6.35771">
        <ele>100.06</ele>
        <time>2021-03-20T21:59:13Z</time>
      </trkpt>
      <trkpt lat="54.16005" lon="-6.35727">
        <ele>100.8</ele>
        <time>2021-03-20T21:59:18Z</time>
      </trkpt>
      <trkpt lat="54.15959" lon="-6.35671">
        <ele>104.36</ele>
        <time>2021-03-20T21:59:24Z</time>
      </trkpt>
      <trkpt lat="54.15913" lon="-6.35609">
        <ele>103.33</ele>
        <time>2021-03-20T21:59:29Z</time>
      </trkpt>
      <trkpt lat="54.15707" lon="-6.3531">
        <ele>102</ele>
        <time>2021-03-20T21:59:34Z</time>
      </trkpt>
      <trkpt lat="54.15612" lon="-6.35175">
        <ele>100.67</ele>
        <time>2021-03-20T21:59:40Z</time>
      </trkpt>
      <trkpt lat="54.1555" lon="-6.35093">
        <ele>102.65</ele>
        <time>2021-03-20T21:59:45Z</time>
      </trkpt>
      <trkpt lat="54.15478" lon="-6.35006">
        <ele>110.77</ele>
        <time>2021-03-20T21:59:50Z</time>
      </trkpt>
      <trkpt lat="54.15405" lon="-6.34925">
        <ele>119.32</ele>
        <time>2021-03-20T21:59:56Z</time>
      </trkpt>
      <trkpt lat="54.15275" lon="-6.34791">
        <ele>120.06</ele>
        <time>2021-03-20T22:00:01Z</time>
      </trkpt>
      <trkpt lat="54.15094" lon="-6.34611">
        <ele>110.23</ele>
        <time>2021-03-20T22:00:07Z</time>
      </trkpt>
      <trkpt lat="54.14979" lon="-6.34505">
        <ele>116.61</ele>
        <time>2021-03-20T22:00:12Z</time>
      </trkpt>
      <trkpt lat="54.14939" lon="-6.34472">
        <ele>118.54</ele>
        <time>2021-03-20T22:00:17Z</time>
      </trkpt>
      <trkpt lat="54.14863" lon="-6.34421">
        <ele>120.32</ele>
        <time>2021-03-20T22:00:23Z</time>
      </trkpt>
      <trkpt lat="54.14825" lon="-6.344">
        <ele>122.42</ele>
        <time>2021-03-20T22:00:28Z</time>
      </trkpt>
      <trkpt lat="54.14762" lon="-6.34371">
        <ele>125.26</ele>
        <time>2021-03-20T22:00:34Z</time>
      </trkpt>
      <trkpt lat="54.14719" lon="-6.34355">
        <ele>125.37</ele>
        <time>2021-03-20T22:00:39Z</time>
      </trkpt>
      <trkpt lat="54.14665" lon="-6.34341">
        <ele>128.34</ele>
        <time>2021-03-20T22:00:44Z</time>
      </trkpt>
      <trkpt lat="54.14486" lon="-6.34309">
        <ele>134.6</ele>
        <time>2021-03-20T22:00:50Z</time>
      </trkpt>
      <trkpt lat="54.14272" lon="-6.34274">
        <ele>136.77</ele>
        <time>2021-03-20T22:00:55Z</time>
      </trkpt>
      <trkpt lat="54.14202" lon="-6.34266">
        <ele>139.49</ele>
        <time>2021-03-20T22:01:00Z</time>
      </trkpt>
      <trkpt lat="54.14097" lon="-6.34253">
        <ele>141.65</ele>
        <time>2021-03-20T22:01:03Z</time>
      </trkpt>
      <trkpt lat="54.14048" lon="-6.34252">
        <ele>142.07</ele>
        <time>2021-03-20T22:01:05Z</time>
      </trkpt>
      <trkpt lat="54.14" lon="-6.34257">
        <ele>145.02</ele>
        <time>2021-03-20T22:01:08Z</time>
      </trkpt>
      <trkpt lat="54.1392" lon="-6.34273">
        <ele>145.12</ele>
        <time>2021-03-20T22:01:10Z</time>
      </trkpt>
      <trkpt lat="54.13851" lon="-6.34301">
        <ele>139.81</ele>
        <time>2021-03-20T22:01:13Z</time>
      </trkpt>
      <trkpt lat="54.13836" lon="-6.34301">
        <ele>138.14</ele>
        <time>2021-03-20T22:01:15Z</time>
      </trkpt>
      <trkpt lat="54.13825" lon="-6.34294">
        <ele>136.53</ele>
        <time>2021-03-20T22:01:18Z</time>
      </trkpt>
      <trkpt lat="54.13824" lon="-6.34286">
        <ele>136.14</ele>
        <time>2021-03-20T22:01:24Z</time>
      </trkpt>
      <trkpt lat="54.13816" lon="-6.34274">
        <ele>135.16</ele>
        <time>2021-03-20T22:01:30Z</time>
      </trkpt>
      <trkpt lat="54.13806" lon="-6.34273">
        <ele>134.07</ele>
        <time>2021-03-20T22:01:36Z</time>
      </trkpt>
      <trkpt lat="54.13798" lon="-6.34282">
        <ele>133.68</ele>
        <time>2021-03-20T22:01:41Z</time>
      </trkpt>
      <trkpt lat="54.13771" lon="-6.3426">
        <ele>133</ele>
        <time>2021-03-20T22:01:47Z</time>
      </trkpt>
      <trkpt lat="54.13751" lon="-6.34249">
        <ele>133.02</ele>
        <time>2021-03-20T22:01:53Z</time>
      </trkpt>
      <trkpt lat="54.13711" lon="-6.34237">
        <ele>132.42</ele>
        <time>2021-03-20T22:01:59Z</time>
      </trkpt>
      <trkpt lat="54.13683" lon="-6.34236">
        <ele>130.43</ele>
        <time>2021-03-20T22:02:05Z</time>
      </trkpt>
      <trkpt lat="54.13656" lon="-6.34241">
        <ele>129</ele>
        <time>2021-03-20T22:02:11Z</time>
      </trkpt>
      <trkpt lat="54.1361" lon="-6.34261">
        <ele>131.03</ele>
        <time>2021-03-20T22:02:17Z</time>
      </trkpt>
      <trkpt lat="54.13521" lon="-6.34309">
        <ele>130.74</ele>
        <time>2021-03-20T22:02:22Z</time>
      </trkpt>
      <trkpt lat="54.13472" lon="-6.34338">
        <ele>127.99</ele>
        <time>2021-03-20T22:02:28Z</time>
      </trkpt>
      <trkpt lat="54.1342" lon="-6.34373">
        <ele>127</ele>
        <time>2021-03-20T22:02:34Z</time>
      </trkpt>
      <trkpt lat="54.13387" lon="-6.34399">
        <ele>126.63</ele>
        <time>2021-03-20T22:02:40Z</time>
      </trkpt>
      <trkpt lat="54.1321" lon="-6.34546">
        <ele>128</ele>
        <time>2021-03-20T22:02:46Z</time>
      </trkpt>
      <trkpt lat="54.13163" lon="-6.3459">
        <ele>128.15</ele>
        <time>2021-03-20T22:02:52Z</time>
      </trkpt>
      <trkpt lat="54.13112" lon="-6.34627">
        <ele>129.38</ele>
        <time>2021-03-20T22:02:57Z</time>
      </trkpt>
      <trkpt lat="54.12841" lon="-6.34854">
        <ele>128.19</ele>
        <time>2021-03-20T22:03:03Z</time>
      </trkpt>
      <trkpt lat="54.12553" lon="-6.35102">
        <ele>117</ele>
        <time>2021-03-20T22:03:09Z</time>
      </trkpt>
      <trkpt lat="54.12134" lon="-6.35419">
        <ele>105</ele>
        <time>2021-03-20T22:03:15Z</time>
      </trkpt>
      <trkpt lat="54.12038" lon="-6.35488">
        <ele>104</ele>
        <time>2021-03-20T22:03:21Z</time>
      </trkpt>
      <trkpt lat="54.11985" lon="-6.35524">
        <ele>103.14</ele>
        <time>2021-03-20T22:03:27Z</time>
      </trkpt>
      <trkpt lat="54.11947" lon="-6.35545">
        <ele>103.9</ele>
        <time>2021-03-20T22:03:33Z</time>
      </trkpt>
      <trkpt lat="54.11675" lon="-6.3567">
        <ele>105.61</ele>
        <time>2021-03-20T22:03:38Z</time>
      </trkpt>
      <trkpt lat="54.11506" lon="-6.35759">
        <ele>101.23</ele>
        <time>2021-03-20T22:03:44Z</time>
      </trkpt>
      <trkpt lat="54.11405" lon="-6.35807">
        <ele>98.56</ele>
        <time>2021-03-20T22:03:50Z</time>
      </trkpt>
      <trkpt lat="54.11295" lon="-6.35856">
        <ele>94.58</ele>
        <time>2021-03-20T22:03:56Z</time>
      </trkpt>
      <trkpt lat="54.11216" lon="-6.35885">
        <ele>95</ele>
        <time>2021-03-20T22:04:02Z</time>
      </trkpt>
      <trkpt lat="54.11169" lon="-6.35899">
        <ele>95</ele>
        <time>2021-03-20T22:04:08Z</time>
      </trkpt>
      <trkpt lat="54.11105" lon="-6.35916">
        <ele>94.25</ele>
        <time>2021-03-20T22:04:14Z</time>
      </trkpt>
      <trkpt lat="54.10703" lon="-6.35984">
        <ele>100.42</ele>
        <time>2021-03-20T22:04:19Z</time>
      </trkpt>
      <trkpt lat="54.10634" lon="-6.36001">
        <ele>102</ele>
        <time>2021-03-20T22:04:25Z</time>
      </trkpt>
      <trkpt lat="54.10365" lon="-6.36077">
        <ele>101.46</ele>
        <time>2021-03-20T22:04:31Z</time>
      </trkpt>
      <trkpt lat="54.10328" lon="-6.36086">
        <ele>101.69</ele>
        <time>2021-03-20T22:04:37Z</time>
      </trkpt>
      <trkpt lat="54.10286" lon="-6.36093">
        <ele>100.97</ele>
        <time>2021-03-20T22:04:43Z</time>
      </trkpt>
      <trkpt lat="54.10175" lon="-6.36103">
        <ele>101.15</ele>
        <time>2021-03-20T22:04:49Z</time>
      </trkpt>
      <trkpt lat="54.10111" lon="-6.36104">
        <ele>98.75</ele>
        <time>2021-03-20T22:04:55Z</time>
      </trkpt>
      <trkpt lat="54.10061" lon="-6.36099">
        <ele>101.33</ele>
        <time>2021-03-20T22:05:00Z</time>
      </trkpt>
      <trkpt lat="54.09921" lon="-6.36068">
        <ele>99.95</ele>
        <time>2021-03-20T22:05:06Z</time>
      </trkpt>
      <trkpt lat="54.09907" lon="-6.36057">
        <ele>100.6</ele>
        <time>2021-03-20T22:05:12Z</time>
      </trkpt>
      <trkpt lat="54.09901" lon="-6.36046">
        <ele>100.99</ele>
        <time>2021-03-20T22:05:18Z</time>
      </trkpt>
      <trkpt lat="54.09894" lon="-6.36038">
        <ele>101.35</ele>
        <time>2021-03-20T22:05:23Z</time>
      </trkpt>
      <trkpt lat="54.0989" lon="-6.36037">
        <ele>101.35</ele>
        <time>2021-03-20T22:05:29Z</time>
      </trkpt>
      <trkpt lat="54.09882" lon="-6.36042">
        <ele>100.96</ele>
        <time>2021-03-20T22:05:34Z</time>
      </trkpt>
      <trkpt lat="54.0988" lon="-6.36048">
        <ele>100.57</ele>
        <time>2021-03-20T22:05:40Z</time>
      </trkpt>
      <trkpt lat="54.09862" lon="-6.36062">
        <ele>99.56</ele>
        <time>2021-03-20T22:05:46Z</time>
      </trkpt>
      <trkpt lat="54.09695" lon="-6.3609">
        <ele>95</ele>
        <time>2021-03-20T22:05:51Z</time>
      </trkpt>
      <trkpt lat="54.09647" lon="-6.36096">
        <ele>97.17</ele>
        <time>2021-03-20T22:05:57Z</time>
      </trkpt>
      <trkpt lat="54.09628" lon="-6.36096">
        <ele>98.22</ele>
        <time>2021-03-20T22:06:02Z</time>
      </trkpt>
      <trkpt lat="54.09576" lon="-6.36094">
        <ele>100.26</ele>
        <time>2021-03-20T22:06:08Z</time>
      </trkpt>
      <trkpt lat="54.09493" lon="-6.36072">
        <ele>102.41</ele>
        <time>2021-03-20T22:06:13Z</time>
      </trkpt>
      <trkpt lat="54.09317" lon="-6.3599">
        <ele>107.6</ele>
        <time>2021-03-20T22:06:19Z</time>
      </trkpt>
      <trkpt lat="54.09275" lon="-6.35978">
        <ele>108.8</ele>
        <time>2021-03-20T22:06:24Z</time>
      </trkpt>
      <trkpt lat="54.0917" lon="-6.35932">
        <ele>103.15</ele>
        <time>2021-03-20T22:06:30Z</time>
      </trkpt>
      <trkpt lat="54.09057" lon="-6.35889">
        <ele>106.98</ele>
        <time>2021-03-20T22:06:35Z</time>
      </trkpt>
      <trkpt lat="54.08766" lon="-6.35798">
        <ele>93.9</ele>
        <time>2021-03-20T22:06:41Z</time>
      </trkpt>
      <trkpt lat="54.08505" lon="-6.35703">
        <ele>94.22</ele>
        <time>2021-03-20T22:06:46Z</time>
      </trkpt>
      <trkpt lat="54.08421" lon="-6.35654">
        <ele>91.69</ele>
        <time>2021-03-20T22:06:52Z</time>
      </trkpt>
      <trkpt lat="54.08287" lon="-6.35548">
        <ele>87.96</ele>
        <time>2021-03-20T22:06:57Z</time>
      </trkpt>
      <trkpt lat="54.08235" lon="-6.35501">
        <ele>87.57</ele>
        <time>2021-03-20T22:07:03Z</time>
      </trkpt>
      <trkpt lat="54.08077" lon="-6.35365">
        <ele>83.69</ele>
        <time>2021-03-20T22:07:08Z</time>
      </trkpt>
      <trkpt lat="54.08022" lon="-6.35329">
        <ele>84.08</ele>
        <time>2021-03-20T22:07:14Z</time>
      </trkpt>
      <trkpt lat="54.07965" lon="-6.35299">
        <ele>84.81</ele>
        <time>2021-03-20T22:07:19Z</time>
      </trkpt>
      <trkpt lat="54.07908" lon="-6.35273">
        <ele>90.49</ele>
        <time>2021-03-20T22:07:25Z</time>
      </trkpt>
      <trkpt lat="54.07879" lon="-6.35262">
        <ele>92.39</ele>
        <time>2021-03-20T22:07:30Z</time>
      </trkpt>
      <trkpt lat="54.07732" lon="-6.35226">
        <ele>85.91</ele>
        <time>2021-03-20T22:07:36Z</time>
      </trkpt>
      <trkpt lat="54.07217" lon="-6.3512">
        <ele>84.12</ele>
        <time>2021-03-20T22:07:41Z</time>
      </trkpt>
      <trkpt lat="54.0715" lon="-6.351">
        <ele>82.16</ele>
        <time>2021-03-20T22:07:45Z</time>
      </trkpt>
      <trkpt lat="54.06862" lon="-6.35026">
        <ele>70.91</ele>
        <time>2021-03-20T22:07:49Z</time>
      </trkpt>
      <trkpt lat="54.06847" lon="-6.35016">
        <ele>69.64</ele>
        <time>2021-03-20T22:07:53Z</time>
      </trkpt>
      <trkpt lat="54.06838" lon="-6.35007">
        <ele>68.66</ele>
        <time>2021-03-20T22:07:58Z</time>
      </trkpt>
      <trkpt lat="54.06831" lon="-6.34994">
        <ele>67.71</ele>
        <time>2021-03-20T22:08:01Z</time>
      </trkpt>
      <trkpt lat="54.06821" lon="-6.3499">
        <ele>67.35</ele>
        <time>2021-03-20T22:08:05Z</time>
      </trkpt>
      <trkpt lat="54.06816" lon="-6.34992">
        <ele>67.27</ele>
        <time>2021-03-20T22:08:09Z</time>
      </trkpt>
      <trkpt lat="54.06809" lon="-6.35003">
        <ele>67.35</ele>
        <time>2021-03-20T22:08:12Z</time>
      </trkpt>
      <trkpt lat="54.06807" lon="-6.35019">
        <ele>68.4</ele>
        <time>2021-03-20T22:08:16Z</time>
      </trkpt>
      <trkpt lat="54.06808" lon="-6.35027">
        <ele>69</ele>
        <time>2021-03-20T22:08:20Z</time>
      </trkpt>
      <trkpt lat="54.06791" lon="-6.35038">
        <ele>69.36</ele>
        <time>2021-03-20T22:08:24Z</time>
      </trkpt>
      <trkpt lat="54.06756" lon="-6.35053">
        <ele>70.69</ele>
        <time>2021-03-20T22:08:27Z</time>
      </trkpt>
      <trkpt lat="54.06681" lon="-6.35067">
        <ele>72.58</ele>
        <time>2021-03-20T22:08:31Z</time>
      </trkpt>
      <trkpt lat="54.06636" lon="-6.3508">
        <ele>74.21</ele>
        <time>2021-03-20T22:08:35Z</time>
      </trkpt>
      <trkpt lat="54.06584" lon="-6.35101">
        <ele>75.98</ele>
        <time>2021-03-20T22:08:38Z</time>
      </trkpt>
      <trkpt lat="54.06469" lon="-6.35158">
        <ele>73.11</ele>
        <time>2021-03-20T22:08:42Z</time>
      </trkpt>
      <trkpt lat="54.06342" lon="-6.35182">
        <ele>74.93</ele>
        <time>2021-03-20T22:08:46Z</time>
      </trkpt>
      <trkpt lat="54.06247" lon="-6.35205">
        <ele>74</ele>
        <time>2021-03-20T22:08:50Z</time>
      </trkpt>
      <trkpt lat="54.06193" lon="-6.35228">
        <ele>75.2</ele>
        <time>2021-03-20T22:08:53Z</time>
      </trkpt>
      <trkpt lat="54.06136" lon="-6.3526">
        <ele>72.9</ele>
        <time>2021-03-20T22:08:57Z</time>
      </trkpt>
      <trkpt lat="54.05863" lon="-6.35443">
        <ele>69</ele>
        <time>2021-03-20T22:09:01Z</time>
      </trkpt>
      <trkpt lat="54.05808" lon="-6.35473">
        <ele>71</ele>
        <time>2021-03-20T22:09:05Z</time>
      </trkpt>
      <trkpt lat="54.05788" lon="-6.35481">
        <ele>70.37</ele>
        <time>2021-03-20T22:09:08Z</time>
      </trkpt>
      <trkpt lat="54.05587" lon="-6.35534">
        <ele>65</ele>
        <time>2021-03-20T22:09:12Z</time>
      </trkpt>
      <trkpt lat="54.0555" lon="-6.35539">
        <ele>65.08</ele>
        <time>2021-03-20T22:09:16Z</time>
      </trkpt>
      <trkpt lat="54.05498" lon="-6.35537">
        <ele>63.94</ele>
        <time>2021-03-20T22:09:19Z</time>
      </trkpt>
      <trkpt lat="54.05285" lon="-6.3552">
        <ele>61.52</ele>
        <time>2021-03-20T22:09:23Z</time>
      </trkpt>
      <trkpt lat="54.05243" lon="-6.3552">
        <ele>63.46</ele>
        <time>2021-03-20T22:09:27Z</time>
      </trkpt>
      <trkpt lat="54.0521" lon="-6.35525">
        <ele>65.35</ele>
        <time>2021-03-20T22:09:31Z</time>
      </trkpt>
      <trkpt lat="54.05179" lon="-6.35534">
        <ele>66</ele>
        <time>2021-03-20T22:09:34Z</time>
      </trkpt>
      <trkpt lat="54.05133" lon="-6.35556">
        <ele>65.02</ele>
        <time>2021-03-20T22:09:38Z</time>
      </trkpt>
      <trkpt lat="54.05105" lon="-6.35573">
        <ele>65.61</ele>
        <time>2021-03-20T22:09:42Z</time>
      </trkpt>
      <trkpt lat="54.05073" lon="-6.35597">
        <ele>66.32</ele>
        <time>2021-03-20T22:09:46Z</time>
      </trkpt>
      <trkpt lat="54.05046" lon="-6.35622">
        <ele>66.59</ele>
        <time>2021-03-20T22:09:49Z</time>
      </trkpt>
      <trkpt lat="54.05031" lon="-6.35642">
        <ele>67</ele>
        <time>2021-03-20T22:09:53Z</time>
      </trkpt>
      <trkpt lat="54.05011" lon="-6.35662">
        <ele>66.38</ele>
        <time>2021-03-20T22:09:57Z</time>
      </trkpt>
      <trkpt lat="54.0445" lon="-6.36531">
        <ele>30.81</ele>
        <time>2021-03-20T22:10:00Z</time>
      </trkpt>
      <trkpt lat="54.04392" lon="-6.36627">
        <ele>31</ele>
        <time>2021-03-20T22:10:04Z</time>
      </trkpt>
      <trkpt lat="54.04306" lon="-6.36778">
        <ele>29.05</ele>
        <time>2021-03-20T22:10:08Z</time>
      </trkpt>
      <trkpt lat="54.04187" lon="-6.36984">
        <ele>25.44</ele>
        <time>2021-03-20T22:10:12Z</time>
      </trkpt>
      <trkpt lat="54.04136" lon="-6.37061">
        <ele>23.98</ele>
        <time>2021-03-20T22:10:15Z</time>
      </trkpt>
      <trkpt lat="54.04091" lon="-6.37121">
        <ele>23.09</ele>
        <time>2021-03-20T22:10:19Z</time>
      </trkpt>
      <trkpt lat="54.0405" lon="-6.37186">
        <ele>22.48</ele>
        <time>2021-03-20T22:10:23Z</time>
      </trkpt>
      <trkpt lat="54.03954" lon="-6.37324">
        <ele>19.33</ele>
        <time>2021-03-20T22:10:27Z</time>
      </trkpt>
      <trkpt lat="54.03875" lon="-6.37445">
        <ele>16</ele>
        <time>2021-03-20T22:10:30Z</time>
      </trkpt>
      <trkpt lat="54.03841" lon="-6.37513">
        <ele>14.68</ele>
        <time>2021-03-20T22:10:34Z</time>
      </trkpt>
      <trkpt lat="54.03803" lon="-6.37603">
        <ele>11.2</ele>
        <time>2021-03-20T22:10:38Z</time>
      </trkpt>
      <trkpt lat="54.03744" lon="-6.37775">
        <ele>9.79</ele>
        <time>2021-03-20T22:10:41Z</time>
      </trkpt>
      <trkpt lat="54.03734" lon="-6.37814">
        <ele>10</ele>
        <time>2021-03-20T22:10:45Z</time>
      </trkpt>
      <trkpt lat="54.03732" lon="-6.3783">
        <ele>10</ele>
        <time>2021-03-20T22:10:49Z</time>
      </trkpt>
      <trkpt lat="54.03718" lon="-6.37827">
        <ele>9.85</ele>
        <time>2021-03-20T22:10:50Z</time>
      </trkpt>
      <trkpt lat="54.03705" lon="-6.37834">
        <ele>9.37</ele>
        <time>2021-03-20T22:10:52Z</time>
      </trkpt>
      <trkpt lat="54.03697" lon="-6.37844">
        <ele>9.13</ele>
        <time>2021-03-20T22:10:53Z</time>
      </trkpt>
      <trkpt lat="54.03691" lon="-6.37857">
        <ele>9</ele>
        <time>2021-03-20T22:10:55Z</time>
      </trkpt>
      <trkpt lat="54.03687" lon="-6.37874">
        <ele>9</ele>
        <time>2021-03-20T22:10:57Z</time>
      </trkpt>
      <trkpt lat="54.03688" lon="-6.37899">
        <ele>9.09</ele>
        <time>2021-03-20T22:10:58Z</time>
      </trkpt>
      <trkpt lat="54.03694" lon="-6.37921">
        <ele>9.03</ele>
        <time>2021-03-20T22:11:00Z</time>
      </trkpt>
      <trkpt lat="54.03701" lon="-6.37933">
        <ele>9.23</ele>
        <time>2021-03-20T22:11:01Z</time>
      </trkpt>
      <trkpt lat="54.03691" lon="-6.37961">
        <ele>9.89</ele>
        <time>2021-03-20T22:11:03Z</time>
      </trkpt>
      <trkpt lat="54.03661" lon="-6.38075">
        <ele>13.44</ele>
        <time>2021-03-20T22:11:04Z</time>
      </trkpt>
      <trkpt lat="54.03633" lon="-6.38191">
        <ele>13.3</ele>
        <time>2021-03-20T22:11:06Z</time>
      </trkpt>
      <trkpt lat="54.03587" lon="-6.38394">
        <ele>13.85</ele>
        <time>2021-03-20T22:11:07Z</time>
      </trkpt>
      <trkpt lat="54.0357" lon="-6.38458">
        <ele>12.02</ele>
        <time>2021-03-20T22:11:09Z</time>
      </trkpt>
      <trkpt lat="54.03561" lon="-6.38449">
        <ele>12.02</ele>
        <time>2021-03-20T22:11:17Z</time>
      </trkpt>
      <trkpt lat="54.03547" lon="-6.38442">
        <ele>11.73</ele>
        <time>2021-03-20T22:11:25Z</time>
      </trkpt>
      <trkpt lat="54.03537" lon="-6.38442">
        <ele>11.37</ele>
        <time>2021-03-20T22:11:34Z</time>
      </trkpt>
      <trkpt lat="54.0352" lon="-6.38449">
        <ele>10.75</ele>
        <time>2021-03-20T22:11:42Z</time>
      </trkpt>
      <trkpt lat="54.03508" lon="-6.38462">
        <ele>10.73</ele>
        <time>2021-03-20T22:11:51Z</time>
      </trkpt>
      <trkpt lat="54.03499" lon="-6.38479">
        <ele>10.92</ele>
        <time>2021-03-20T22:11:59Z</time>
      </trkpt>
      <trkpt lat="54.03494" lon="-6.38494">
        <ele>10.57</ele>
        <time>2021-03-20T22:12:07Z</time>
      </trkpt>
      <trkpt lat="54.03491" lon="-6.38522">
        <ele>10.07</ele>
        <time>2021-03-20T22:12:16Z</time>
      </trkpt>
      <trkpt lat="54.03492" lon="-6.38545">
        <ele>10</ele>
        <time>2021-03-20T22:12:24Z</time>
      </trkpt>
      <trkpt lat="54.03495" lon="-6.38561">
        <ele>10</ele>
        <time>2021-03-20T22:12:32Z</time>
      </trkpt>
      <trkpt lat="54.03506" lon="-6.38587">
        <ele>9.8</ele>
        <time>2021-03-20T22:12:41Z</time>
      </trkpt>
      <trkpt lat="54.03519" lon="-6.38603">
        <ele>9.3</ele>
        <time>2021-03-20T22:12:49Z</time>
      </trkpt>
      <trkpt lat="54.03537" lon="-6.38611">
        <ele>9.31</ele>
        <time>2021-03-20T22:12:57Z</time>
      </trkpt>
      <trkpt lat="54.03557" lon="-6.38632">
        <ele>10</ele>
        <time>2021-03-20T22:13:06Z</time>
      </trkpt>
      <trkpt lat="54.03562" lon="-6.38647">
        <ele>10</ele>
        <time>2021-03-20T22:13:14Z</time>
      </trkpt>
      <trkpt lat="54.03567" lon="-6.38664">
        <ele>10</ele>
        <time>2021-03-20T22:13:22Z</time>
      </trkpt>
      <trkpt lat="54.03571" lon="-6.38707">
        <ele>10.45</ele>
        <time>2021-03-20T22:13:31Z</time>
      </trkpt>
      <trkpt lat="54.03574" lon="-6.38857">
        <ele>9.71</ele>
        <time>2021-03-20T22:13:39Z</time>
      </trkpt>
      <trkpt lat="54.03573" lon="-6.39093">
        <ele>6.62</ele>
        <time>2021-03-20T22:13:47Z</time>
      </trkpt>
      <trkpt lat="54.03577" lon="-6.39232">
        <ele>7.24</ele>
        <time>2021-03-20T22:13:56Z</time>
      </trkpt>
      <trkpt lat="54.03596" lon="-6.39631">
        <ele>10.17</ele>
        <time>2021-03-20T22:14:04Z</time>
      </trkpt>
      <trkpt lat="54.03605" lon="-6.39729">
        <ele>14.26</ele>
        <time>2021-03-20T22:14:12Z</time>
      </trkpt>
      <trkpt lat="54.03632" lon="-6.40287">
        <ele>12.57</ele>
        <time>2021-03-20T22:14:21Z</time>
      </trkpt>
      <trkpt lat="54.03641" lon="-6.40504">
        <ele>18.8</ele>
        <time>2021-03-20T22:14:29Z</time>
      </trkpt>
      <trkpt lat="54.03643" lon="-6.40581">
        <ele>19.62</ele>
        <time>2021-03-20T22:14:38Z</time>
      </trkpt>
      <trkpt lat="54.03643" lon="-6.40758">
        <ele>25.52</ele>
        <time>2021-03-20T22:14:46Z</time>
      </trkpt>
      <trkpt lat="54.03642" lon="-6.40867">
        <ele>23</ele>
        <time>2021-03-20T22:14:54Z</time>
      </trkpt>
      <trkpt lat="54.03639" lon="-6.40948">
        <ele>23</ele>
        <time>2021-03-20T22:15:03Z</time>
      </trkpt>
      <trkpt lat="54.03628" lon="-6.4115">
        <ele>23.41</ele>
        <time>2021-03-20T22:15:11Z</time>
      </trkpt>
      <trkpt lat="54.03615" lon="-6.41303">
        <ele>19.22</ele>
        <time>2021-03-20T22:15:19Z</time>
      </trkpt>
      <trkpt lat="54.03596" lon="-6.41479">
        <ele>17.44</ele>
        <time>2021-03-20T22:15:28Z</time>
      </trkpt>
      <trkpt lat="54.03573" lon="-6.41635">
        <ele>15.69</ele>
        <time>2021-03-20T22:15:36Z</time>
      </trkpt>
      <trkpt lat="54.03547" lon="-6.41803">
        <ele>14.77</ele>
        <time>2021-03-20T22:15:44Z</time>
      </trkpt>
      <trkpt lat="54.03524" lon="-6.41918">
        <ele>15</ele>
        <time>2021-03-20T22:15:53Z</time>
      </trkpt>
      <trkpt lat="54.03493" lon="-6.42062">
        <ele>15.96</ele>
        <time>2021-03-20T22:16:01Z</time>
      </trkpt>
      <trkpt lat="54.03436" lon="-6.42294">
        <ele>30.16</ele>
        <time>2021-03-20T22:16:09Z</time>
      </trkpt>
      <trkpt lat="54.0341" lon="-6.42385">
        <ele>25.67</ele>
        <time>2021-03-20T22:16:18Z</time>
      </trkpt>
      <trkpt lat="54.03358" lon="-6.42552">
        <ele>21.88</ele>
        <time>2021-03-20T22:16:26Z</time>
      </trkpt>
      <trkpt lat="54.03331" lon="-6.42628">
        <ele>20.62</ele>
        <time>2021-03-20T22:16:34Z</time>
      </trkpt>
      <trkpt lat="54.03306" lon="-6.42691">
        <ele>21.87</ele>
        <time>2021-03-20T22:16:43Z</time>
      </trkpt>
      <trkpt lat="54.03255" lon="-6.42809">
        <ele>21.35</ele>
        <time>2021-03-20T22:16:51Z</time>
      </trkpt>
      <trkpt lat="54.03198" lon="-6.42919">
        <ele>16.13</ele>
        <time>2021-03-20T22:16:59Z</time>
      </trkpt>
      <trkpt lat="54.03159" lon="-6.42985">
        <ele>13.46</ele>
        <time>2021-03-20T22:17:08Z</time>
      </trkpt>
      <trkpt lat="54.03133" lon="-6.43027">
        <ele>11.78</ele>
        <time>2021-03-20T22:17:16Z</time>
      </trkpt>
      <trkpt lat="54.03097" lon="-6.43079">
        <ele>11.51</ele>
        <time>2021-03-20T22:17:24Z</time>
      </trkpt>
      <trkpt lat="54.03049" lon="-6.43146">
        <ele>10.94</ele>
        <time>2021-03-20T22:17:33Z</time>
      </trkpt>
      <trkpt lat="54.02982" lon="-6.43226">
        <ele>8.54</ele>
        <time>2021-03-20T22:17:41Z</time>
      </trkpt>
      <trkpt lat="54.02907" lon="-6.43299">
        <ele>6.18</ele>
        <time>2021-03-20T22:17:50Z</time>
      </trkpt>
      <trkpt lat="54.02834" lon="-6.43376">
        <ele>7</ele>
        <time>2021-03-20T22:17:58Z</time>
      </trkpt>
      <trkpt lat="54.0238" lon="-6.43831">
        <ele>9</ele>
        <time>2021-03-20T22:18:06Z</time>
      </trkpt>
      <trkpt lat="54.02361" lon="-6.43848">
        <ele>9.01</ele>
        <time>2021-03-20T22:18:15Z</time>
      </trkpt>
      <trkpt lat="54.02212" lon="-6.43996">
        <ele>18.37</ele>
        <time>2021-03-20T22:18:23Z</time>
      </trkpt>
      <trkpt lat="54.02147" lon="-6.44055">
        <ele>22.98</ele>
        <time>2021-03-20T22:18:31Z</time>
      </trkpt>
      <trkpt lat="54.02079" lon="-6.44111">
        <ele>26.46</ele>
        <time>2021-03-20T22:18:40Z</time>
      </trkpt>
      <trkpt lat="54.01966" lon="-6.44199">
        <ele>35.53</ele>
        <time>2021-03-20T22:18:48Z</time>
      </trkpt>
      <trkpt lat="54.0183" lon="-6.44291">
        <ele>29.94</ele>
        <time>2021-03-20T22:18:56Z</time>
      </trkpt>
      <trkpt lat="54.01702" lon="-6.44367">
        <ele>28.52</ele>
        <time>2021-03-20T22:19:05Z</time>
      </trkpt>
      <trkpt lat="54.01549" lon="-6.4444">
        <ele>26.76</ele>
        <time>2021-03-20T22:19:13Z</time>
      </trkpt>
      <trkpt lat="54.01423" lon="-6.44488">
        <ele>37</ele>
        <time>2021-03-20T22:19:21Z</time>
      </trkpt>
      <trkpt lat="54.01352" lon="-6.4451">
        <ele>34.3</ele>
        <time>2021-03-20T22:19:30Z</time>
      </trkpt>
      <trkpt lat="54.01229" lon="-6.44542">
        <ele>32</ele>
        <time>2021-03-20T22:19:38Z</time>
      </trkpt>
      <trkpt lat="54.01152" lon="-6.44556">
        <ele>34.54</ele>
        <time>2021-03-20T22:19:46Z</time>
      </trkpt>
      <trkpt lat="54.01044" lon="-6.44572">
        <ele>38.83</ele>
        <time>2021-03-20T22:19:55Z</time>
      </trkpt>
      <trkpt lat="54.00957" lon="-6.44579">
        <ele>37.08</ele>
        <time>2021-03-20T22:20:03Z</time>
      </trkpt>
      <trkpt lat="54.00748" lon="-6.4458">
        <ele>36.76</ele>
        <time>2021-03-20T22:20:11Z</time>
      </trkpt>
      <trkpt lat="54.00576" lon="-6.44554">
        <ele>32.28</ele>
        <time>2021-03-20T22:20:20Z</time>
      </trkpt>
      <trkpt lat="54.00458" lon="-6.44527">
        <ele>37.05</ele>
        <time>2021-03-20T22:20:28Z</time>
      </trkpt>
      <trkpt lat="54.00389" lon="-6.44508">
        <ele>38.97</ele>
        <time>2021-03-20T22:20:37Z</time>
      </trkpt>
      <trkpt lat="54.00308" lon="-6.44481">
        <ele>33.11</ele>
        <time>2021-03-20T22:20:45Z</time>
      </trkpt>
      <trkpt lat="54.00165" lon="-6.44422">
        <ele>35</ele>
        <time>2021-03-20T22:20:53Z</time>
      </trkpt>
      <trkpt lat="54.00016" lon="-6.44349">
        <ele>28.59</ele>
        <time>2021-03-20T22:21:02Z</time>
      </trkpt>
      <trkpt lat="53.99961" lon="-6.44316">
        <ele>27.42</ele>
        <time>2021-03-20T22:21:10Z</time>
      </trkpt>
      <trkpt lat="53.99296" lon="-6.4389">
        <ele>17.11</ele>
        <time>2021-03-20T22:21:18Z</time>
      </trkpt>
      <trkpt lat="53.98954" lon="-6.43663">
        <ele>25.66</ele>
        <time>2021-03-20T22:21:27Z</time>
      </trkpt>
      <trkpt lat="53.9875" lon="-6.43499">
        <ele>30.03</ele>
        <time>2021-03-20T22:21:35Z</time>
      </trkpt>
      <trkpt lat="53.98677" lon="-6.4343">
        <ele>31.64</ele>
        <time>2021-03-20T22:21:43Z</time>
      </trkpt>
      <trkpt lat="53.98101" lon="-6.42858">
        <ele>41.68</ele>
        <time>2021-03-20T22:21:52Z</time>
      </trkpt>
      <trkpt lat="53.97927" lon="-6.42708">
        <ele>40.82</ele>
        <time>2021-03-20T22:22:00Z</time>
      </trkpt>
      <trkpt lat="53.97819" lon="-6.42628">
        <ele>39.66</ele>
        <time>2021-03-20T22:22:08Z</time>
      </trkpt>
      <trkpt lat="53.97708" lon="-6.42557">
        <ele>35.52</ele>
        <time>2021-03-20T22:22:17Z</time>
      </trkpt>
      <trkpt lat="53.97563" lon="-6.42479">
        <ele>31.77</ele>
        <time>2021-03-20T22:22:25Z</time>
      </trkpt>
      <trkpt lat="53.97454" lon="-6.42431">
        <ele>27.5</ele>
        <time>2021-03-20T22:22:33Z</time>
      </trkpt>
      <trkpt lat="53.97289" lon="-6.42397">
        <ele>24.28</ele>
        <time>2021-03-20T22:22:42Z</time>
      </trkpt>
      <trkpt lat="53.97208" lon="-6.42383">
        <ele>21.48</ele>
        <time>2021-03-20T22:22:50Z</time>
      </trkpt>
      <trkpt lat="53.97108" lon="-6.42372">
        <ele>20.95</ele>
        <time>2021-03-20T22:22:58Z</time>
      </trkpt>
      <trkpt lat="53.96979" lon="-6.42365">
        <ele>21</ele>
        <time>2021-03-20T22:23:07Z</time>
      </trkpt>
      <trkpt lat="53.96932" lon="-6.42359">
        <ele>19.97</ele>
        <time>2021-03-20T22:23:15Z</time>
      </trkpt>
      <trkpt lat="53.96837" lon="-6.4234">
        <ele>18.9</ele>
        <time>2021-03-20T22:23:23Z</time>
      </trkpt>
      <trkpt lat="53.96735" lon="-6.42311">
        <ele>19.09</ele>
        <time>2021-03-20T22:23:32Z</time>
      </trkpt>
      <trkpt lat="53.96643" lon="-6.42275">
        <ele>18.13</ele>
        <time>2021-03-20T22:23:40Z</time>
      </trkpt>
      <trkpt lat="53.96489" lon="-6.42197">
        <ele>17</ele>
        <time>2021-03-20T22:23:49Z</time>
      </trkpt>
      <trkpt lat="53.96222" lon="-6.42051">
        <ele>14.02</ele>
        <time>2021-03-20T22:23:57Z</time>
      </trkpt>
      <trkpt lat="53.96135" lon="-6.42006">
        <ele>14.96</ele>
        <time>2021-03-20T22:24:05Z</time>
      </trkpt>
      <trkpt lat="53.96006" lon="-6.41957">
        <ele>14.09</ele>
        <time>2021-03-20T22:24:14Z</time>
      </trkpt>
      <trkpt lat="53.95876" lon="-6.41925">
        <ele>10.53</ele>
        <time>2021-03-20T22:24:22Z</time>
      </trkpt>
      <trkpt lat="53.95715" lon="-6.41906">
        <ele>8.55</ele>
        <time>2021-03-20T22:24:30Z</time>
      </trkpt>
      <trkpt lat="53.95141" lon="-6.41914">
        <ele>7.16</ele>
        <time>2021-03-20T22:24:39Z</time>
      </trkpt>
      <trkpt lat="53.94866" lon="-6.41925">
        <ele>3</ele>
        <time>2021-03-20T22:24:47Z</time>
      </trkpt>
      <trkpt lat="53.94752" lon="-6.41912">
        <ele>4.06</ele>
        <time>2021-03-20T22:24:55Z</time>
      </trkpt>
      <trkpt lat="53.94645" lon="-6.41895">
        <ele>4</ele>
        <time>2021-03-20T22:25:04Z</time>
      </trkpt>
      <trkpt lat="53.94331" lon="-6.41786">
        <ele>4</ele>
        <time>2021-03-20T22:25:12Z</time>
      </trkpt>
      <trkpt lat="53.93471" lon="-6.41479">
        <ele>4</ele>
        <time>2021-03-20T22:25:20Z</time>
      </trkpt>
      <trkpt lat="53.93226" lon="-6.41388">
        <ele>4.86</ele>
        <time>2021-03-20T22:25:29Z</time>
      </trkpt>
      <trkpt lat="53.93103" lon="-6.41339">
        <ele>3</ele>
        <time>2021-03-20T22:25:37Z</time>
      </trkpt>
      <trkpt lat="53.92989" lon="-6.41309">
        <ele>2.41</ele>
        <time>2021-03-20T22:25:45Z</time>
      </trkpt>
      <trkpt lat="53.92887" lon="-6.41291">
        <ele>3.54</ele>
        <time>2021-03-20T22:25:54Z</time>
      </trkpt>
      <trkpt lat="53.92798" lon="-6.41285">
        <ele>6.46</ele>
        <time>2021-03-20T22:26:02Z</time>
      </trkpt>
      <trkpt lat="53.92738" lon="-6.41285">
        <ele>7.68</ele>
        <time>2021-03-20T22:26:10Z</time>
      </trkpt>
      <trkpt lat="53.92668" lon="-6.41293">
        <ele>8</ele>
        <time>2021-03-20T22:26:19Z</time>
      </trkpt>
      <trkpt lat="53.92551" lon="-6.41319">
        <ele>10.09</ele>
        <time>2021-03-20T22:26:27Z</time>
      </trkpt>
      <trkpt lat="53.92414" lon="-6.41364">
        <ele>11</ele>
        <time>2021-03-20T22:26:36Z</time>
      </trkpt>
      <trkpt lat="53.92012" lon="-6.41526">
        <ele>13.47</ele>
        <time>2021-03-20T22:26:44Z</time>
      </trkpt>
      <trkpt lat="53.91879" lon="-6.41562">
        <ele>13.76</ele>
        <time>2021-03-20T22:26:52Z</time>
      </trkpt>
      <trkpt lat="53.91282" lon="-6.41669">
        <ele>15.13</ele>
        <time>2021-03-20T22:27:01Z</time>
      </trkpt>
      <trkpt lat="53.90952" lon="-6.41742">
        <ele>15.53</ele>
        <time>2021-03-20T22:27:09Z</time>
      </trkpt>
      <trkpt lat="53.90799" lon="-6.4178">
        <ele>13.5</ele>
        <time>2021-03-20T22:27:17Z</time>
      </trkpt>
      <trkpt lat="53.90567" lon="-6.41857">
        <ele>11.14</ele>
        <time>2021-03-20T22:27:26Z</time>
      </trkpt>
      <trkpt lat="53.90314" lon="-6.41977">
        <ele>12</ele>
        <time>2021-03-20T22:27:34Z</time>
      </trkpt>
      <trkpt lat="53.89837" lon="-6.42245">
        <ele>7.14</ele>
        <time>2021-03-20T22:27:42Z</time>
      </trkpt>
      <trkpt lat="53.89633" lon="-6.42356">
        <ele>8.96</ele>
        <time>2021-03-20T22:27:51Z</time>
      </trkpt>
      <trkpt lat="53.8895" lon="-6.4274">
        <ele>13.49</ele>
        <time>2021-03-20T22:27:59Z</time>
      </trkpt>
      <trkpt lat="53.88794" lon="-6.42822">
        <ele>12</ele>
        <time>2021-03-20T22:28:07Z</time>
      </trkpt>
      <trkpt lat="53.88663" lon="-6.42875">
        <ele>15</ele>
        <time>2021-03-20T22:28:16Z</time>
      </trkpt>
      <trkpt lat="53.88421" lon="-6.42946">
        <ele>10.94</ele>
        <time>2021-03-20T22:28:24Z</time>
      </trkpt>
      <trkpt lat="53.88314" lon="-6.42963">
        <ele>10.32</ele>
        <time>2021-03-20T22:28:32Z</time>
      </trkpt>
      <trkpt lat="53.88179" lon="-6.42976">
        <ele>8.44</ele>
        <time>2021-03-20T22:28:41Z</time>
      </trkpt>
      <trkpt lat="53.88097" lon="-6.42978">
        <ele>8</ele>
        <time>2021-03-20T22:28:49Z</time>
      </trkpt>
      <trkpt lat="53.87997" lon="-6.42976">
        <ele>8</ele>
        <time>2021-03-20T22:28:57Z</time>
      </trkpt>
      <trkpt lat="53.87469" lon="-6.42923">
        <ele>14.21</ele>
        <time>2021-03-20T22:29:06Z</time>
      </trkpt>
      <trkpt lat="53.87035" lon="-6.42875">
        <ele>18.62</ele>
        <time>2021-03-20T22:29:14Z</time>
      </trkpt>
      <trkpt lat="53.86528" lon="-6.42827">
        <ele>25</ele>
        <time>2021-03-20T22:29:23Z</time>
      </trkpt>
      <trkpt lat="53.86283" lon="-6.42812">
        <ele>24</ele>
        <time>2021-03-20T22:29:31Z</time>
      </trkpt>
      <trkpt lat="53.85897" lon="-6.42794">
        <ele>24.29</ele>
        <time>2021-03-20T22:29:39Z</time>
      </trkpt>
      <trkpt lat="53.85837" lon="-6.42789">
        <ele>22.81</ele>
        <time>2021-03-20T22:29:48Z</time>
      </trkpt>
      <trkpt lat="53.8573" lon="-6.42771">
        <ele>19.04</ele>
        <time>2021-03-20T22:29:56Z</time>
      </trkpt>
      <trkpt lat="53.85606" lon="-6.42742">
        <ele>19</ele>
        <time>2021-03-20T22:30:04Z</time>
      </trkpt>
      <trkpt lat="53.85478" lon="-6.42698">
        <ele>19</ele>
        <time>2021-03-20T22:30:13Z</time>
      </trkpt>
      <trkpt lat="53.85353" lon="-6.42643">
        <ele>18</ele>
        <time>2021-03-20T22:30:21Z</time>
      </trkpt>
      <trkpt lat="53.8522" lon="-6.42567">
        <ele>22</ele>
        <time>2021-03-20T22:30:29Z</time>
      </trkpt>
      <trkpt lat="53.85151" lon="-6.42523">
        <ele>21.16</ele>
        <time>2021-03-20T22:30:38Z</time>
      </trkpt>
      <trkpt lat="53.83058" lon="-6.41014">
        <ele>50.33</ele>
        <time>2021-03-20T22:30:46Z</time>
      </trkpt>
      <trkpt lat="53.82568" lon="-6.40656">
        <ele>55.07</ele>
        <time>2021-03-20T22:30:54Z</time>
      </trkpt>
      <trkpt lat="53.822" lon="-6.40402">
        <ele>47.31</ele>
        <time>2021-03-20T22:31:03Z</time>
      </trkpt>
      <trkpt lat="53.82068" lon="-6.40316">
        <ele>46.94</ele>
        <time>2021-03-20T22:31:11Z</time>
      </trkpt>
      <trkpt lat="53.81963" lon="-6.40255">
        <ele>46</ele>
        <time>2021-03-20T22:31:19Z</time>
      </trkpt>
      <trkpt lat="53.81863" lon="-6.40202">
        <ele>46.15</ele>
        <time>2021-03-20T22:31:28Z</time>
      </trkpt>
      <trkpt lat="53.8168" lon="-6.40113">
        <ele>52.47</ele>
        <time>2021-03-20T22:31:36Z</time>
      </trkpt>
      <trkpt lat="53.81292" lon="-6.39979">
        <ele>52</ele>
        <time>2021-03-20T22:31:44Z</time>
      </trkpt>
      <trkpt lat="53.81107" lon="-6.39946">
        <ele>57.11</ele>
        <time>2021-03-20T22:31:53Z</time>
      </trkpt>
      <trkpt lat="53.80893" lon="-6.3992">
        <ele>61.01</ele>
        <time>2021-03-20T22:32:01Z</time>
      </trkpt>
      <trkpt lat="53.80672" lon="-6.39909">
        <ele>63.8</ele>
        <time>2021-03-20T22:32:09Z</time>
      </trkpt>
      <trkpt lat="53.80452" lon="-6.3992">
        <ele>68.6</ele>
        <time>2021-03-20T22:32:18Z</time>
      </trkpt>
      <trkpt lat="53.78514" lon="-6.40148">
        <ele>119.65</ele>
        <time>2021-03-20T22:32:26Z</time>
      </trkpt>
      <trkpt lat="53.78328" lon="-6.40178">
        <ele>120.81</ele>
        <time>2021-03-20T22:32:35Z</time>
      </trkpt>
      <trkpt lat="53.78116" lon="-6.40242">
        <ele>130.66</ele>
        <time>2021-03-20T22:32:43Z</time>
      </trkpt>
      <trkpt lat="53.77955" lon="-6.40306">
        <ele>134.37</ele>
        <time>2021-03-20T22:32:51Z</time>
      </trkpt>
      <trkpt lat="53.77742" lon="-6.4042">
        <ele>131.7</ele>
        <time>2021-03-20T22:33:00Z</time>
      </trkpt>
      <trkpt lat="53.77577" lon="-6.40522">
        <ele>123.98</ele>
        <time>2021-03-20T22:33:08Z</time>
      </trkpt>
      <trkpt lat="53.77493" lon="-6.40585">
        <ele>119</ele>
        <time>2021-03-20T22:33:16Z</time>
      </trkpt>
      <trkpt lat="53.77413" lon="-6.40651">
        <ele>118.31</ele>
        <time>2021-03-20T22:33:25Z</time>
      </trkpt>
      <trkpt lat="53.77051" lon="-6.40964">
        <ele>110.46</ele>
        <time>2021-03-20T22:33:33Z</time>
      </trkpt>
      <trkpt lat="53.76641" lon="-6.41296">
        <ele>116.41</ele>
        <time>2021-03-20T22:33:41Z</time>
      </trkpt>
      <trkpt lat="53.764" lon="-6.41409">
        <ele>99.31</ele>
        <time>2021-03-20T22:33:50Z</time>
      </trkpt>
      <trkpt lat="53.76244" lon="-6.41461">
        <ele>94.85</ele>
        <time>2021-03-20T22:33:58Z</time>
      </trkpt>
      <trkpt lat="53.76089" lon="-6.4148">
        <ele>97.21</ele>
        <time>2021-03-20T22:34:06Z</time>
      </trkpt>
      <trkpt lat="53.75931" lon="-6.41489">
        <ele>105.5</ele>
        <time>2021-03-20T22:34:15Z</time>
      </trkpt>
      <trkpt lat="53.75786" lon="-6.41471">
        <ele>103.41</ele>
        <time>2021-03-20T22:34:23Z</time>
      </trkpt>
      <trkpt lat="53.75605" lon="-6.41431">
        <ele>107.23</ele>
        <time>2021-03-20T22:34:31Z</time>
      </trkpt>
      <trkpt lat="53.7538" lon="-6.41338">
        <ele>104.38</ele>
        <time>2021-03-20T22:34:40Z</time>
      </trkpt>
      <trkpt lat="53.75213" lon="-6.4124">
        <ele>98.75</ele>
        <time>2021-03-20T22:34:48Z</time>
      </trkpt>
      <trkpt lat="53.75032" lon="-6.41087">
        <ele>104.11</ele>
        <time>2021-03-20T22:34:56Z</time>
      </trkpt>
      <trkpt lat="53.74929" lon="-6.40986">
        <ele>99.66</ele>
        <time>2021-03-20T22:35:05Z</time>
      </trkpt>
      <trkpt lat="53.74828" lon="-6.40864">
        <ele>90.51</ele>
        <time>2021-03-20T22:35:13Z</time>
      </trkpt>
      <trkpt lat="53.74634" lon="-6.4061">
        <ele>73.8</ele>
        <time>2021-03-20T22:35:22Z</time>
      </trkpt>
      <trkpt lat="53.74487" lon="-6.4043">
        <ele>68.52</ele>
        <time>2021-03-20T22:35:30Z</time>
      </trkpt>
      <trkpt lat="53.74353" lon="-6.40281">
        <ele>64.18</ele>
        <time>2021-03-20T22:35:38Z</time>
      </trkpt>
      <trkpt lat="53.74238" lon="-6.40172">
        <ele>59.17</ele>
        <time>2021-03-20T22:35:47Z</time>
      </trkpt>
      <trkpt lat="53.74027" lon="-6.40001">
        <ele>58.02</ele>
        <time>2021-03-20T22:35:55Z</time>
      </trkpt>
      <trkpt lat="53.73851" lon="-6.39882">
        <ele>58.84</ele>
        <time>2021-03-20T22:36:03Z</time>
      </trkpt>
      <trkpt lat="53.73601" lon="-6.39769">
        <ele>49.65</ele>
        <time>2021-03-20T22:36:12Z</time>
      </trkpt>
      <trkpt lat="53.73454" lon="-6.39714">
        <ele>52.1</ele>
        <time>2021-03-20T22:36:20Z</time>
      </trkpt>
      <trkpt lat="53.73398" lon="-6.39697">
        <ele>50.67</ele>
        <time>2021-03-20T22:36:28Z</time>
      </trkpt>
      <trkpt lat="53.73225" lon="-6.39659">
        <ele>38.15</ele>
        <time>2021-03-20T22:36:37Z</time>
      </trkpt>
      <trkpt lat="53.73063" lon="-6.3964">
        <ele>33</ele>
        <time>2021-03-20T22:36:45Z</time>
      </trkpt>
      <trkpt lat="53.73013" lon="-6.39637">
        <ele>33.48</ele>
        <time>2021-03-20T22:36:53Z</time>
      </trkpt>
      <trkpt lat="53.72918" lon="-6.39636">
        <ele>36.96</ele>
        <time>2021-03-20T22:37:02Z</time>
      </trkpt>
      <trkpt lat="53.72734" lon="-6.39641">
        <ele>31.42</ele>
        <time>2021-03-20T22:37:10Z</time>
      </trkpt>
      <trkpt lat="53.72164" lon="-6.39665">
        <ele>14.89</ele>
        <time>2021-03-20T22:37:18Z</time>
      </trkpt>
      <trkpt lat="53.71728" lon="-6.39679">
        <ele>22.13</ele>
        <time>2021-03-20T22:37:27Z</time>
      </trkpt>
      <trkpt lat="53.71516" lon="-6.3967">
        <ele>24</ele>
        <time>2021-03-20T22:37:35Z</time>
      </trkpt>
      <trkpt lat="53.71434" lon="-6.39651">
        <ele>26.39</ele>
        <time>2021-03-20T22:37:43Z</time>
      </trkpt>
      <trkpt lat="53.71267" lon="-6.39588">
        <ele>31</ele>
        <time>2021-03-20T22:37:52Z</time>
      </trkpt>
      <trkpt lat="53.71176" lon="-6.39544">
        <ele>35.32</ele>
        <time>2021-03-20T22:38:00Z</time>
      </trkpt>
      <trkpt lat="53.71087" lon="-6.39488">
        <ele>39.88</ele>
        <time>2021-03-20T22:38:08Z</time>
      </trkpt>
      <trkpt lat="53.70891" lon="-6.39333">
        <ele>43.91</ele>
        <time>2021-03-20T22:38:17Z</time>
      </trkpt>
      <trkpt lat="53.70782" lon="-6.39215">
        <ele>48.69</ele>
        <time>2021-03-20T22:38:25Z</time>
      </trkpt>
      <trkpt lat="53.70529" lon="-6.38848">
        <ele>55.49</ele>
        <time>2021-03-20T22:38:34Z</time>
      </trkpt>
      <trkpt lat="53.70333" lon="-6.38517">
        <ele>56</ele>
        <time>2021-03-20T22:38:42Z</time>
      </trkpt>
      <trkpt lat="53.70044" lon="-6.38052">
        <ele>55</ele>
        <time>2021-03-20T22:38:50Z</time>
      </trkpt>
      <trkpt lat="53.69774" lon="-6.37685">
        <ele>49</ele>
        <time>2021-03-20T22:38:59Z</time>
      </trkpt>
      <trkpt lat="53.69626" lon="-6.37508">
        <ele>46.67</ele>
        <time>2021-03-20T22:39:07Z</time>
      </trkpt>
      <trkpt lat="53.6955" lon="-6.37419">
        <ele>45</ele>
        <time>2021-03-20T22:39:15Z</time>
      </trkpt>
      <trkpt lat="53.69472" lon="-6.37334">
        <ele>44.01</ele>
        <time>2021-03-20T22:39:24Z</time>
      </trkpt>
      <trkpt lat="53.69329" lon="-6.37184">
        <ele>43.2</ele>
        <time>2021-03-20T22:39:32Z</time>
      </trkpt>
      <trkpt lat="53.69171" lon="-6.37031">
        <ele>45.84</ele>
        <time>2021-03-20T22:39:40Z</time>
      </trkpt>
      <trkpt lat="53.68751" lon="-6.36653">
        <ele>37.61</ele>
        <time>2021-03-20T22:39:49Z</time>
      </trkpt>
      <trkpt lat="53.68579" lon="-6.36501">
        <ele>34.83</ele>
        <time>2021-03-20T22:39:57Z</time>
      </trkpt>
      <trkpt lat="53.68002" lon="-6.35966">
        <ele>44</ele>
        <time>2021-03-20T22:40:05Z</time>
      </trkpt>
      <trkpt lat="53.67716" lon="-6.35647">
        <ele>33.57</ele>
        <time>2021-03-20T22:40:14Z</time>
      </trkpt>
      <trkpt lat="53.67439" lon="-6.35288">
        <ele>38.44</ele>
        <time>2021-03-20T22:40:22Z</time>
      </trkpt>
      <trkpt lat="53.6717" lon="-6.34896">
        <ele>26.02</ele>
        <time>2021-03-20T22:40:30Z</time>
      </trkpt>
      <trkpt lat="53.67004" lon="-6.34618">
        <ele>23</ele>
        <time>2021-03-20T22:40:39Z</time>
      </trkpt>
      <trkpt lat="53.66918" lon="-6.34463">
        <ele>21.65</ele>
        <time>2021-03-20T22:40:47Z</time>
      </trkpt>
      <trkpt lat="53.66834" lon="-6.34302">
        <ele>19</ele>
        <time>2021-03-20T22:40:55Z</time>
      </trkpt>
      <trkpt lat="53.66749" lon="-6.34131">
        <ele>15.61</ele>
        <time>2021-03-20T22:41:04Z</time>
      </trkpt>
      <trkpt lat="53.66574" lon="-6.33755">
        <ele>10.67</ele>
        <time>2021-03-20T22:41:12Z</time>
      </trkpt>
      <trkpt lat="53.6652" lon="-6.3362">
        <ele>15.57</ele>
        <time>2021-03-20T22:41:21Z</time>
      </trkpt>
      <trkpt lat="53.66496" lon="-6.3356">
        <ele>18.31</ele>
        <time>2021-03-20T22:41:29Z</time>
      </trkpt>
      <trkpt lat="53.6643" lon="-6.33377">
        <ele>23.53</ele>
        <time>2021-03-20T22:41:37Z</time>
      </trkpt>
      <trkpt lat="53.6638" lon="-6.33241">
        <ele>26.52</ele>
        <time>2021-03-20T22:41:46Z</time>
      </trkpt>
      <trkpt lat="53.6628" lon="-6.32939">
        <ele>28.92</ele>
        <time>2021-03-20T22:41:54Z</time>
      </trkpt>
      <trkpt lat="53.6611" lon="-6.3241">
        <ele>39.05</ele>
        <time>2021-03-20T22:42:02Z</time>
      </trkpt>
      <trkpt lat="53.66069" lon="-6.32264">
        <ele>38.25</ele>
        <time>2021-03-20T22:42:11Z</time>
      </trkpt>
      <trkpt lat="53.66025" lon="-6.3209">
        <ele>37</ele>
        <time>2021-03-20T22:42:19Z</time>
      </trkpt>
      <trkpt lat="53.65983" lon="-6.31909">
        <ele>35.62</ele>
        <time>2021-03-20T22:42:27Z</time>
      </trkpt>
      <trkpt lat="53.65937" lon="-6.31699">
        <ele>36</ele>
        <time>2021-03-20T22:42:36Z</time>
      </trkpt>
      <trkpt lat="53.65899" lon="-6.31512">
        <ele>37.16</ele>
        <time>2021-03-20T22:42:44Z</time>
      </trkpt>
      <trkpt lat="53.65856" lon="-6.3128">
        <ele>32.06</ele>
        <time>2021-03-20T22:42:52Z</time>
      </trkpt>
      <trkpt lat="53.65822" lon="-6.31078">
        <ele>31.81</ele>
        <time>2021-03-20T22:43:01Z</time>
      </trkpt>
      <trkpt lat="53.6568" lon="-6.30183">
        <ele>27.85</ele>
        <time>2021-03-20T22:43:09Z</time>
      </trkpt>
      <trkpt lat="53.65634" lon="-6.29962">
        <ele>29.82</ele>
        <time>2021-03-20T22:43:17Z</time>
      </trkpt>
      <trkpt lat="53.65586" lon="-6.29748">
        <ele>24.92</ele>
        <time>2021-03-20T22:43:26Z</time>
      </trkpt>
      <trkpt lat="53.6552" lon="-6.2949">
        <ele>26.49</ele>
        <time>2021-03-20T22:43:34Z</time>
      </trkpt>
      <trkpt lat="53.65446" lon="-6.29241">
        <ele>26.95</ele>
        <time>2021-03-20T22:43:42Z</time>
      </trkpt>
      <trkpt lat="53.65186" lon="-6.28487">
        <ele>27.29</ele>
        <time>2021-03-20T22:43:51Z</time>
      </trkpt>
      <trkpt lat="53.65012" lon="-6.27982">
        <ele>29</ele>
        <time>2021-03-20T22:43:59Z</time>
      </trkpt>
      <trkpt lat="53.64928" lon="-6.27754">
        <ele>41.53</ele>
        <time>2021-03-20T22:44:07Z</time>
      </trkpt>
      <trkpt lat="53.64575" lon="-6.26738">
        <ele>34.57</ele>
        <time>2021-03-20T22:44:16Z</time>
      </trkpt>
      <trkpt lat="53.64465" lon="-6.2643">
        <ele>29</ele>
        <time>2021-03-20T22:44:24Z</time>
      </trkpt>
      <trkpt lat="53.64379" lon="-6.26235">
        <ele>27.66</ele>
        <time>2021-03-20T22:44:33Z</time>
      </trkpt>
      <trkpt lat="53.64319" lon="-6.26114">
        <ele>28.11</ele>
        <time>2021-03-20T22:44:41Z</time>
      </trkpt>
      <trkpt lat="53.64265" lon="-6.26012">
        <ele>26.44</ele>
        <time>2021-03-20T22:44:49Z</time>
      </trkpt>
      <trkpt lat="53.64207" lon="-6.25914">
        <ele>26.35</ele>
        <time>2021-03-20T22:44:58Z</time>
      </trkpt>
      <trkpt lat="53.64151" lon="-6.25826">
        <ele>26.14</ele>
        <time>2021-03-20T22:45:06Z</time>
      </trkpt>
      <trkpt lat="53.64042" lon="-6.25668">
        <ele>24.52</ele>
        <time>2021-03-20T22:45:14Z</time>
      </trkpt>
      <trkpt lat="53.63909" lon="-6.25509">
        <ele>25.32</ele>
        <time>2021-03-20T22:45:23Z</time>
      </trkpt>
      <trkpt lat="53.63823" lon="-6.2542">
        <ele>25.58</ele>
        <time>2021-03-20T22:45:31Z</time>
      </trkpt>
      <trkpt lat="53.63738" lon="-6.25338">
        <ele>23.92</ele>
        <time>2021-03-20T22:45:39Z</time>
      </trkpt>
      <trkpt lat="53.63657" lon="-6.25271">
        <ele>21.5</ele>
        <time>2021-03-20T22:45:48Z</time>
      </trkpt>
      <trkpt lat="53.63586" lon="-6.25215">
        <ele>20.78</ele>
        <time>2021-03-20T22:45:56Z</time>
      </trkpt>
      <trkpt lat="53.63509" lon="-6.25164">
        <ele>20.32</ele>
        <time>2021-03-20T22:46:04Z</time>
      </trkpt>
      <trkpt lat="53.63347" lon="-6.25071">
        <ele>17.56</ele>
        <time>2021-03-20T22:46:13Z</time>
      </trkpt>
      <trkpt lat="53.63257" lon="-6.25033">
        <ele>19.74</ele>
        <time>2021-03-20T22:46:21Z</time>
      </trkpt>
      <trkpt lat="53.63174" lon="-6.25004">
        <ele>22</ele>
        <time>2021-03-20T22:46:29Z</time>
      </trkpt>
      <trkpt lat="53.63042" lon="-6.24971">
        <ele>19.46</ele>
        <time>2021-03-20T22:46:38Z</time>
      </trkpt>
      <trkpt lat="53.62838" lon="-6.24935">
        <ele>21.67</ele>
        <time>2021-03-20T22:46:46Z</time>
      </trkpt>
      <trkpt lat="53.6255" lon="-6.24855">
        <ele>31.98</ele>
        <time>2021-03-20T22:46:54Z</time>
      </trkpt>
      <trkpt lat="53.62258" lon="-6.24735">
        <ele>44.19</ele>
        <time>2021-03-20T22:47:03Z</time>
      </trkpt>
      <trkpt lat="53.61971" lon="-6.24566">
        <ele>48.61</ele>
        <time>2021-03-20T22:47:11Z</time>
      </trkpt>
      <trkpt lat="53.61818" lon="-6.24458">
        <ele>49.77</ele>
        <time>2021-03-20T22:47:20Z</time>
      </trkpt>
      <trkpt lat="53.61666" lon="-6.24336">
        <ele>50.09</ele>
        <time>2021-03-20T22:47:28Z</time>
      </trkpt>
      <trkpt lat="53.6153" lon="-6.24213">
        <ele>45.07</ele>
        <time>2021-03-20T22:47:36Z</time>
      </trkpt>
      <trkpt lat="53.61395" lon="-6.24079">
        <ele>43.13</ele>
        <time>2021-03-20T22:47:45Z</time>
      </trkpt>
      <trkpt lat="53.61225" lon="-6.2389">
        <ele>44.89</ele>
        <time>2021-03-20T22:47:53Z</time>
      </trkpt>
      <trkpt lat="53.61065" lon="-6.23684">
        <ele>51.38</ele>
        <time>2021-03-20T22:48:01Z</time>
      </trkpt>
      <trkpt lat="53.60328" lon="-6.22666">
        <ele>52.65</ele>
        <time>2021-03-20T22:48:10Z</time>
      </trkpt>
      <trkpt lat="53.60065" lon="-6.22307">
        <ele>43</ele>
        <time>2021-03-20T22:48:18Z</time>
      </trkpt>
      <trkpt lat="53.59936" lon="-6.2214">
        <ele>43.7</ele>
        <time>2021-03-20T22:48:26Z</time>
      </trkpt>
      <trkpt lat="53.59796" lon="-6.21976">
        <ele>40</ele>
        <time>2021-03-20T22:48:35Z</time>
      </trkpt>
      <trkpt lat="53.59658" lon="-6.2183">
        <ele>37.31</ele>
        <time>2021-03-20T22:48:43Z</time>
      </trkpt>
      <trkpt lat="53.59582" lon="-6.21757">
        <ele>38</ele>
        <time>2021-03-20T22:48:51Z</time>
      </trkpt>
      <trkpt lat="53.59498" lon="-6.21683">
        <ele>37.4</ele>
        <time>2021-03-20T22:49:00Z</time>
      </trkpt>
      <trkpt lat="53.59336" lon="-6.21547">
        <ele>36.92</ele>
        <time>2021-03-20T22:49:08Z</time>
      </trkpt>
      <trkpt lat="53.59228" lon="-6.2147">
        <ele>35</ele>
        <time>2021-03-20T22:49:16Z</time>
      </trkpt>
      <trkpt lat="53.59122" lon="-6.214">
        <ele>31.78</ele>
        <time>2021-03-20T22:49:25Z</time>
      </trkpt>
      <trkpt lat="53.5904" lon="-6.21349">
        <ele>32.12</ele>
        <time>2021-03-20T22:49:33Z</time>
      </trkpt>
      <trkpt lat="53.58958" lon="-6.21304">
        <ele>32.46</ele>
        <time>2021-03-20T22:49:41Z</time>
      </trkpt>
      <trkpt lat="53.58769" lon="-6.21216">
        <ele>31.69</ele>
        <time>2021-03-20T22:49:50Z</time>
      </trkpt>
      <trkpt lat="53.58558" lon="-6.21133">
        <ele>32.27</ele>
        <time>2021-03-20T22:49:58Z</time>
      </trkpt>
      <trkpt lat="53.584" lon="-6.2109">
        <ele>34.09</ele>
        <time>2021-03-20T22:50:07Z</time>
      </trkpt>
      <trkpt lat="53.5818" lon="-6.21045">
        <ele>35.6</ele>
        <time>2021-03-20T22:50:15Z</time>
      </trkpt>
      <trkpt lat="53.57999" lon="-6.21036">
        <ele>34</ele>
        <time>2021-03-20T22:50:23Z</time>
      </trkpt>
      <trkpt lat="53.57848" lon="-6.21032">
        <ele>34</ele>
        <time>2021-03-20T22:50:32Z</time>
      </trkpt>
      <trkpt lat="53.57662" lon="-6.21051">
        <ele>32.84</ele>
        <time>2021-03-20T22:50:40Z</time>
      </trkpt>
      <trkpt lat="53.57148" lon="-6.21159">
        <ele>32.69</ele>
        <time>2021-03-20T22:50:48Z</time>
      </trkpt>
      <trkpt lat="53.56056" lon="-6.21432">
        <ele>37.99</ele>
        <time>2021-03-20T22:50:57Z</time>
      </trkpt>
      <trkpt lat="53.5578" lon="-6.21493">
        <ele>39.91</ele>
        <time>2021-03-20T22:51:05Z</time>
      </trkpt>
      <trkpt lat="53.55732" lon="-6.21509">
        <ele>41.3</ele>
        <time>2021-03-20T22:51:13Z</time>
      </trkpt>
      <trkpt lat="53.556" lon="-6.21538">
        <ele>39.58</ele>
        <time>2021-03-20T22:51:22Z</time>
      </trkpt>
      <trkpt lat="53.55327" lon="-6.21557">
        <ele>36.71</ele>
        <time>2021-03-20T22:51:30Z</time>
      </trkpt>
      <trkpt lat="53.55178" lon="-6.21555">
        <ele>35</ele>
        <time>2021-03-20T22:51:38Z</time>
      </trkpt>
      <trkpt lat="53.5514" lon="-6.21548">
        <ele>35</ele>
        <time>2021-03-20T22:51:47Z</time>
      </trkpt>
      <trkpt lat="53.54969" lon="-6.21533">
        <ele>33</ele>
        <time>2021-03-20T22:51:55Z</time>
      </trkpt>
      <trkpt lat="53.54753" lon="-6.21505">
        <ele>30.02</ele>
        <time>2021-03-20T22:52:03Z</time>
      </trkpt>
      <trkpt lat="53.54459" lon="-6.21432">
        <ele>26</ele>
        <time>2021-03-20T22:52:12Z</time>
      </trkpt>
      <trkpt lat="53.54213" lon="-6.21339">
        <ele>23.12</ele>
        <time>2021-03-20T22:52:20Z</time>
      </trkpt>
      <trkpt lat="53.54131" lon="-6.21303">
        <ele>23.72</ele>
        <time>2021-03-20T22:52:28Z</time>
      </trkpt>
      <trkpt lat="53.53958" lon="-6.21223">
        <ele>24.5</ele>
        <time>2021-03-20T22:52:37Z</time>
      </trkpt>
      <trkpt lat="53.53855" lon="-6.21169">
        <ele>21.14</ele>
        <time>2021-03-20T22:52:45Z</time>
      </trkpt>
      <trkpt lat="53.53705" lon="-6.21083">
        <ele>21</ele>
        <time>2021-03-20T22:52:53Z</time>
      </trkpt>
      <trkpt lat="53.53574" lon="-6.21">
        <ele>22</ele>
        <time>2021-03-20T22:53:02Z</time>
      </trkpt>
      <trkpt lat="53.53441" lon="-6.20907">
        <ele>22.64</ele>
        <time>2021-03-20T22:53:10Z</time>
      </trkpt>
      <trkpt lat="53.53254" lon="-6.20763">
        <ele>22.16</ele>
        <time>2021-03-20T22:53:19Z</time>
      </trkpt>
      <trkpt lat="53.53192" lon="-6.20719">
        <ele>21.9</ele>
        <time>2021-03-20T22:53:27Z</time>
      </trkpt>
      <trkpt lat="53.53066" lon="-6.20638">
        <ele>22</ele>
        <time>2021-03-20T22:53:35Z</time>
      </trkpt>
      <trkpt lat="53.52993" lon="-6.20605">
        <ele>21.26</ele>
        <time>2021-03-20T22:53:44Z</time>
      </trkpt>
      <trkpt lat="53.52925" lon="-6.20583">
        <ele>22</ele>
        <time>2021-03-20T22:53:52Z</time>
      </trkpt>
      <trkpt lat="53.52872" lon="-6.20571">
        <ele>21.44</ele>
        <time>2021-03-20T22:54:00Z</time>
      </trkpt>
      <trkpt lat="53.52799" lon="-6.20564">
        <ele>21.84</ele>
        <time>2021-03-20T22:54:09Z</time>
      </trkpt>
      <trkpt lat="53.52646" lon="-6.2056">
        <ele>21.04</ele>
        <time>2021-03-20T22:54:17Z</time>
      </trkpt>
      <trkpt lat="53.52471" lon="-6.20598">
        <ele>20.03</ele>
        <time>2021-03-20T22:54:25Z</time>
      </trkpt>
      <trkpt lat="53.52354" lon="-6.20645">
        <ele>21</ele>
        <time>2021-03-20T22:54:34Z</time>
      </trkpt>
      <trkpt lat="53.52155" lon="-6.20744">
        <ele>18.12</ele>
        <time>2021-03-20T22:54:42Z</time>
      </trkpt>
      <trkpt lat="53.52006" lon="-6.20804">
        <ele>19.76</ele>
        <time>2021-03-20T22:54:50Z</time>
      </trkpt>
      <trkpt lat="53.51884" lon="-6.20817">
        <ele>20</ele>
        <time>2021-03-20T22:54:59Z</time>
      </trkpt>
      <trkpt lat="53.51761" lon="-6.20819">
        <ele>19.62</ele>
        <time>2021-03-20T22:55:07Z</time>
      </trkpt>
      <trkpt lat="53.51597" lon="-6.20778">
        <ele>19</ele>
        <time>2021-03-20T22:55:15Z</time>
      </trkpt>
      <trkpt lat="53.51433" lon="-6.20708">
        <ele>17.58</ele>
        <time>2021-03-20T22:55:24Z</time>
      </trkpt>
      <trkpt lat="53.51324" lon="-6.20639">
        <ele>17</ele>
        <time>2021-03-20T22:55:32Z</time>
      </trkpt>
      <trkpt lat="53.51088" lon="-6.20429">
        <ele>12.18</ele>
        <time>2021-03-20T22:55:40Z</time>
      </trkpt>
      <trkpt lat="53.50885" lon="-6.20266">
        <ele>11</ele>
        <time>2021-03-20T22:55:49Z</time>
      </trkpt>
      <trkpt lat="53.50681" lon="-6.20141">
        <ele>10.48</ele>
        <time>2021-03-20T22:55:57Z</time>
      </trkpt>
      <trkpt lat="53.50511" lon="-6.2007">
        <ele>8.72</ele>
        <time>2021-03-20T22:56:06Z</time>
      </trkpt>
      <trkpt lat="53.50314" lon="-6.20012">
        <ele>8.71</ele>
        <time>2021-03-20T22:56:14Z</time>
      </trkpt>
      <trkpt lat="53.50144" lon="-6.19989">
        <ele>6</ele>
        <time>2021-03-20T22:56:22Z</time>
      </trkpt>
      <trkpt lat="53.49981" lon="-6.19993">
        <ele>3</ele>
        <time>2021-03-20T22:56:31Z</time>
      </trkpt>
      <trkpt lat="53.49847" lon="-6.2001">
        <ele>3.19</ele>
        <time>2021-03-20T22:56:39Z</time>
      </trkpt>
      <trkpt lat="53.49753" lon="-6.20027">
        <ele>4.92</ele>
        <time>2021-03-20T22:56:47Z</time>
      </trkpt>
      <trkpt lat="53.49676" lon="-6.20048">
        <ele>3.26</ele>
        <time>2021-03-20T22:56:56Z</time>
      </trkpt>
      <trkpt lat="53.49578" lon="-6.20083">
        <ele>3</ele>
        <time>2021-03-20T22:57:04Z</time>
      </trkpt>
      <trkpt lat="53.49421" lon="-6.20158">
        <ele>6.83</ele>
        <time>2021-03-20T22:57:12Z</time>
      </trkpt>
      <trkpt lat="53.49295" lon="-6.20231">
        <ele>8.67</ele>
        <time>2021-03-20T22:57:21Z</time>
      </trkpt>
      <trkpt lat="53.49199" lon="-6.20299">
        <ele>9.04</ele>
        <time>2021-03-20T22:57:29Z</time>
      </trkpt>
      <trkpt lat="53.49109" lon="-6.20369">
        <ele>13.34</ele>
        <time>2021-03-20T22:57:37Z</time>
      </trkpt>
      <trkpt lat="53.48949" lon="-6.20485">
        <ele>13.16</ele>
        <time>2021-03-20T22:57:46Z</time>
      </trkpt>
      <trkpt lat="53.48777" lon="-6.20562">
        <ele>9.99</ele>
        <time>2021-03-20T22:57:54Z</time>
      </trkpt>
      <trkpt lat="53.48608" lon="-6.20626">
        <ele>8.54</ele>
        <time>2021-03-20T22:58:02Z</time>
      </trkpt>
      <trkpt lat="53.48513" lon="-6.20645">
        <ele>8</ele>
        <time>2021-03-20T22:58:11Z</time>
      </trkpt>
      <trkpt lat="53.48405" lon="-6.20656">
        <ele>6.57</ele>
        <time>2021-03-20T22:58:19Z</time>
      </trkpt>
      <trkpt lat="53.48184" lon="-6.20645">
        <ele>9</ele>
        <time>2021-03-20T22:58:27Z</time>
      </trkpt>
      <trkpt lat="53.48102" lon="-6.20631">
        <ele>10</ele>
        <time>2021-03-20T22:58:36Z</time>
      </trkpt>
      <trkpt lat="53.47966" lon="-6.20589">
        <ele>10.84</ele>
        <time>2021-03-20T22:58:44Z</time>
      </trkpt>
      <trkpt lat="53.47837" lon="-6.20533">
        <ele>12</ele>
        <time>2021-03-20T22:58:52Z</time>
      </trkpt>
      <trkpt lat="53.47589" lon="-6.20391">
        <ele>6.26</ele>
        <time>2021-03-20T22:59:01Z</time>
      </trkpt>
      <trkpt lat="53.47394" lon="-6.20295">
        <ele>3</ele>
        <time>2021-03-20T22:59:09Z</time>
      </trkpt>
      <trkpt lat="53.47269" lon="-6.20261">
        <ele>3</ele>
        <time>2021-03-20T22:59:18Z</time>
      </trkpt>
      <trkpt lat="53.47154" lon="-6.2024">
        <ele>3.36</ele>
        <time>2021-03-20T22:59:26Z</time>
      </trkpt>
      <trkpt lat="53.47031" lon="-6.20231">
        <ele>2</ele>
        <time>2021-03-20T22:59:34Z</time>
      </trkpt>
      <trkpt lat="53.46902" lon="-6.20236">
        <ele>5</ele>
        <time>2021-03-20T22:59:43Z</time>
      </trkpt>
      <trkpt lat="53.46708" lon="-6.20277">
        <ele>7.48</ele>
        <time>2021-03-20T22:59:51Z</time>
      </trkpt>
      <trkpt lat="53.46424" lon="-6.20327">
        <ele>3.72</ele>
        <time>2021-03-20T22:59:59Z</time>
      </trkpt>
      <trkpt lat="53.46093" lon="-6.20375">
        <ele>7</ele>
        <time>2021-03-20T23:00:08Z</time>
      </trkpt>
      <trkpt lat="53.45973" lon="-6.20382">
        <ele>8.98</ele>
        <time>2021-03-20T23:00:16Z</time>
      </trkpt>
      <trkpt lat="53.4584" lon="-6.20374">
        <ele>11.45</ele>
        <time>2021-03-20T23:00:24Z</time>
      </trkpt>
      <trkpt lat="53.45527" lon="-6.2029">
        <ele>19.44</ele>
        <time>2021-03-20T23:00:33Z</time>
      </trkpt>
      <trkpt lat="53.4542" lon="-6.20269">
        <ele>18</ele>
        <time>2021-03-20T23:00:41Z</time>
      </trkpt>
      <trkpt lat="53.45306" lon="-6.20254">
        <ele>19</ele>
        <time>2021-03-20T23:00:49Z</time>
      </trkpt>
      <trkpt lat="53.45178" lon="-6.20258">
        <ele>21.75</ele>
        <time>2021-03-20T23:00:58Z</time>
      </trkpt>
      <trkpt lat="53.45059" lon="-6.20273">
        <ele>25.73</ele>
        <time>2021-03-20T23:01:06Z</time>
      </trkpt>
      <trkpt lat="53.44978" lon="-6.20294">
        <ele>25.56</ele>
        <time>2021-03-20T23:01:14Z</time>
      </trkpt>
      <trkpt lat="53.44891" lon="-6.20324">
        <ele>23.06</ele>
        <time>2021-03-20T23:01:23Z</time>
      </trkpt>
      <trkpt lat="53.44731" lon="-6.20389">
        <ele>20</ele>
        <time>2021-03-20T23:01:31Z</time>
      </trkpt>
      <trkpt lat="53.44088" lon="-6.20702">
        <ele>31.1</ele>
        <time>2021-03-20T23:01:39Z</time>
      </trkpt>
      <trkpt lat="53.43839" lon="-6.20842">
        <ele>29.94</ele>
        <time>2021-03-20T23:01:48Z</time>
      </trkpt>
      <trkpt lat="53.43655" lon="-6.20979">
        <ele>29</ele>
        <time>2021-03-20T23:01:56Z</time>
      </trkpt>
      <trkpt lat="53.43214" lon="-6.21398">
        <ele>40.31</ele>
        <time>2021-03-20T23:02:05Z</time>
      </trkpt>
      <trkpt lat="53.43178" lon="-6.21427">
        <ele>40.4</ele>
        <time>2021-03-20T23:02:13Z</time>
      </trkpt>
      <trkpt lat="53.42977" lon="-6.2158">
        <ele>44.86</ele>
        <time>2021-03-20T23:02:21Z</time>
      </trkpt>
      <trkpt lat="53.42822" lon="-6.21671">
        <ele>44.3</ele>
        <time>2021-03-20T23:02:30Z</time>
      </trkpt>
      <trkpt lat="53.42709" lon="-6.21731">
        <ele>44.31</ele>
        <time>2021-03-20T23:02:38Z</time>
      </trkpt>
      <trkpt lat="53.42267" lon="-6.21966">
        <ele>50.17</ele>
        <time>2021-03-20T23:02:46Z</time>
      </trkpt>
      <trkpt lat="53.41686" lon="-6.2228">
        <ele>48.75</ele>
        <time>2021-03-20T23:02:55Z</time>
      </trkpt>
      <trkpt lat="53.41512" lon="-6.22376">
        <ele>50</ele>
        <time>2021-03-20T23:03:03Z</time>
      </trkpt>
      <trkpt lat="53.4146" lon="-6.22409">
        <ele>50</ele>
        <time>2021-03-20T23:03:11Z</time>
      </trkpt>
      <trkpt lat="53.41394" lon="-6.22445">
        <ele>51.79</ele>
        <time>2021-03-20T23:03:20Z</time>
      </trkpt>
      <trkpt lat="53.41244" lon="-6.2252">
        <ele>50.21</ele>
        <time>2021-03-20T23:03:28Z</time>
      </trkpt>
      <trkpt lat="53.41158" lon="-6.22567">
        <ele>52.68</ele>
        <time>2021-03-20T23:03:36Z</time>
      </trkpt>
      <trkpt lat="53.41028" lon="-6.22646">
        <ele>51.02</ele>
        <time>2021-03-20T23:03:45Z</time>
      </trkpt>
      <trkpt lat="53.40939" lon="-6.22708">
        <ele>50.8</ele>
        <time>2021-03-20T23:03:53Z</time>
      </trkpt>
      <trkpt lat="53.40822" lon="-6.22799">
        <ele>50.73</ele>
        <time>2021-03-20T23:04:01Z</time>
      </trkpt>
      <trkpt lat="53.40714" lon="-6.22895">
        <ele>51.54</ele>
        <time>2021-03-20T23:04:10Z</time>
      </trkpt>
      <trkpt lat="53.40618" lon="-6.22991">
        <ele>52.74</ele>
        <time>2021-03-20T23:04:18Z</time>
      </trkpt>
      <trkpt lat="53.40596" lon="-6.23009">
        <ele>53.94</ele>
        <time>2021-03-20T23:04:26Z</time>
      </trkpt>
      <trkpt lat="53.40072" lon="-6.23517">
        <ele>47.61</ele>
        <time>2021-03-20T23:04:35Z</time>
      </trkpt>
      <trkpt lat="53.39929" lon="-6.23662">
        <ele>47</ele>
        <time>2021-03-20T23:04:43Z</time>
      </trkpt>
      <trkpt lat="53.39675" lon="-6.23894">
        <ele>49.86</ele>
        <time>2021-03-20T23:04:52Z</time>
      </trkpt>
      <trkpt lat="53.39663" lon="-6.23895">
        <ele>49.77</ele>
        <time>2021-03-20T23:05:04Z</time>
      </trkpt>
      <trkpt lat="53.39652" lon="-6.239">
        <ele>49.61</ele>
        <time>2021-03-20T23:05:16Z</time>
      </trkpt>
      <trkpt lat="53.39559" lon="-6.23958">
        <ele>51.27</ele>
        <time>2021-03-20T23:05:29Z</time>
      </trkpt>
      <trkpt lat="53.3951" lon="-6.23986">
        <ele>53.14</ele>
        <time>2021-03-20T23:05:41Z</time>
      </trkpt>
      <trkpt lat="53.3946" lon="-6.2401">
        <ele>52.37</ele>
        <time>2021-03-20T23:05:53Z</time>
      </trkpt>
      <trkpt lat="53.39383" lon="-6.24052">
        <ele>55.46</ele>
        <time>2021-03-20T23:06:05Z</time>
      </trkpt>
      <trkpt lat="53.39276" lon="-6.24107">
        <ele>54</ele>
        <time>2021-03-20T23:06:18Z</time>
      </trkpt>
      <trkpt lat="53.39136" lon="-6.24163">
        <ele>51.69</ele>
        <time>2021-03-20T23:06:30Z</time>
      </trkpt>
      <trkpt lat="53.38763" lon="-6.24255">
        <ele>45.53</ele>
        <time>2021-03-20T23:06:42Z</time>
      </trkpt>
      <trkpt lat="53.38614" lon="-6.2429">
        <ele>45.05</ele>
        <time>2021-03-20T23:06:54Z</time>
      </trkpt>
      <trkpt lat="53.38533" lon="-6.24312">
        <ele>46</ele>
        <time>2021-03-20T23:07:07Z</time>
      </trkpt>
      <trkpt lat="53.38456" lon="-6.24336">
        <ele>44.59</ele>
        <time>2021-03-20T23:07:18Z</time>
      </trkpt>
      <trkpt lat="53.38361" lon="-6.24378">
        <ele>44</ele>
        <time>2021-03-20T23:07:29Z</time>
      </trkpt>
      <trkpt lat="53.38288" lon="-6.24419">
        <ele>44.28</ele>
        <time>2021-03-20T23:07:41Z</time>
      </trkpt>
      <trkpt lat="53.38155" lon="-6.24501">
        <ele>42.6</ele>
        <time>2021-03-20T23:07:52Z</time>
      </trkpt>
      <trkpt lat="53.38048" lon="-6.24576">
        <ele>42.73</ele>
        <time>2021-03-20T23:08:03Z</time>
      </trkpt>
      <trkpt lat="53.37768" lon="-6.24817">
        <ele>32.65</ele>
        <time>2021-03-20T23:08:15Z</time>
      </trkpt>
      <trkpt lat="53.3772" lon="-6.24864">
        <ele>29</ele>
        <time>2021-03-20T23:08:26Z</time>
      </trkpt>
      <trkpt lat="53.37686" lon="-6.24907">
        <ele>28.24</ele>
        <time>2021-03-20T23:08:37Z</time>
      </trkpt>
      <trkpt lat="53.37637" lon="-6.24976">
        <ele>29</ele>
        <time>2021-03-20T23:08:49Z</time>
      </trkpt>
      <trkpt lat="53.37616" lon="-6.25001">
        <ele>29.03</ele>
        <time>2021-03-20T23:09:00Z</time>
      </trkpt>
      <trkpt lat="53.37582" lon="-6.25035">
        <ele>28.82</ele>
        <time>2021-03-20T23:09:11Z</time>
      </trkpt>
      <trkpt lat="53.37474" lon="-6.25125">
        <ele>25.06</ele>
        <time>2021-03-20T23:09:23Z</time>
      </trkpt>
      <trkpt lat="53.37428" lon="-6.25156">
        <ele>23.42</ele>
        <time>2021-03-20T23:09:34Z</time>
      </trkpt>
      <trkpt lat="53.37343" lon="-6.25202">
        <ele>21.33</ele>
        <time>2021-03-20T23:09:45Z</time>
      </trkpt>
      <trkpt lat="53.37271" lon="-6.25246">
        <ele>19.88</ele>
        <time>2021-03-20T23:09:57Z</time>
      </trkpt>
      <trkpt lat="53.37173" lon="-6.25318">
        <ele>17</ele>
        <time>2021-03-20T23:10:08Z</time>
      </trkpt>
      <trkpt lat="53.36971" lon="-6.25439">
        <ele>10.95</ele>
        <time>2021-03-20T23:10:19Z</time>
      </trkpt>
      <trkpt lat="53.36876" lon="-6.255">
        <ele>7.03</ele>
        <time>2021-03-20T23:10:31Z</time>
      </trkpt>
      <trkpt lat="53.36769" lon="-6.25544">
        <ele>6.31</ele>
        <time>2021-03-20T23:10:42Z</time>
      </trkpt>
      <trkpt lat="53.36755" lon="-6.25547">
        <ele>6.81</ele>
        <time>2021-03-20T23:10:53Z</time>
      </trkpt>
      <trkpt lat="53.36705" lon="-6.25546">
        <ele>10.22</ele>
        <time>2021-03-20T23:11:05Z</time>
      </trkpt>
      <trkpt lat="53.36649" lon="-6.25555">
        <ele>15.91</ele>
        <time>2021-03-20T23:11:16Z</time>
      </trkpt>
      <trkpt lat="53.36613" lon="-6.25575">
        <ele>17.25</ele>
        <time>2021-03-20T23:11:27Z</time>
      </trkpt>
      <trkpt lat="53.36547" lon="-6.25618">
        <ele>19.06</ele>
        <time>2021-03-20T23:11:38Z</time>
      </trkpt>
      <trkpt lat="53.3642" lon="-6.25719">
        <ele>15.12</ele>
        <time>2021-03-20T23:11:50Z</time>
      </trkpt>
      <trkpt lat="53.36285" lon="-6.25844">
        <ele>14.4</ele>
        <time>2021-03-20T23:12:01Z</time>
      </trkpt>
      <trkpt lat="53.36279" lon="-6.25843">
        <ele>14.07</ele>
        <time>2021-03-20T23:12:12Z</time>
      </trkpt>
      <trkpt lat="53.36254" lon="-6.25865">
        <ele>12.28</ele>
        <time>2021-03-20T23:12:24Z</time>
      </trkpt>
      <trkpt lat="53.36173" lon="-6.25941">
        <ele>10.21</ele>
        <time>2021-03-20T23:12:35Z</time>
      </trkpt>
      <trkpt lat="53.36169" lon="-6.2595">
        <ele>10.28</ele>
        <time>2021-03-20T23:12:46Z</time>
      </trkpt>
      <trkpt lat="53.36138" lon="-6.25974">
        <ele>11</ele>
        <time>2021-03-20T23:12:53Z</time>
      </trkpt>
      <trkpt lat="53.36126" lon="-6.25976">
        <ele>11</ele>
        <time>2021-03-20T23:13:00Z</time>
      </trkpt>
      <trkpt lat="53.36071" lon="-6.26026">
        <ele>12.92</ele>
        <time>2021-03-20T23:13:07Z</time>
      </trkpt>
      <trkpt lat="53.35974" lon="-6.2612">
        <ele>14.92</ele>
        <time>2021-03-20T23:13:13Z</time>
      </trkpt>
      <trkpt lat="53.35937" lon="-6.26153">
        <ele>14.73</ele>
        <time>2021-03-20T23:13:20Z</time>
      </trkpt>
      <trkpt lat="53.35899" lon="-6.26189">
        <ele>14.4</ele>
        <time>2021-03-20T23:13:27Z</time>
      </trkpt>
      <trkpt lat="53.35889" lon="-6.26164">
        <ele>15</ele>
        <time>2021-03-20T23:13:43Z</time>
      </trkpt>
      <trkpt lat="53.35851" lon="-6.26085">
        <ele>15.36</ele>
        <time>2021-03-20T23:13:59Z</time>
      </trkpt>
      <trkpt lat="53.35565" lon="-6.25794">
        <ele>18.54</ele>
        <time>2021-03-20T23:14:15Z</time>
      </trkpt>
      <trkpt lat="53.35465" lon="-6.2572">
        <ele>16.15</ele>
        <time>2021-03-20T23:14:31Z</time>
      </trkpt>
      <trkpt lat="53.35153" lon="-6.255">
        <ele>6.99</ele>
        <time>2021-03-20T23:14:47Z</time>
      </trkpt>
      <trkpt lat="53.35074" lon="-6.25441">
        <ele>7.96</ele>
        <time>2021-03-20T23:15:03Z</time>
      </trkpt>
      <trkpt lat="53.34972" lon="-6.25371">
        <ele>5</ele>
        <time>2021-03-20T23:15:19Z</time>
      </trkpt>
      <trkpt lat="53.34952" lon="-6.25352">
        <ele>5.57</ele>
        <time>2021-03-20T23:15:35Z</time>
      </trkpt>
      <trkpt lat="53.34942" lon="-6.25339">
        <ele>5.05</ele>
        <time>2021-03-20T23:15:51Z</time>
      </trkpt>
      <trkpt lat="53.34947" lon="-6.25298">
        <ele>6.36</ele>
        <time>2021-03-20T23:15:53Z</time>
      </trkpt>
      <trkpt lat="53.34945" lon="-6.25257">
        <ele>7.74</ele>
        <time>2021-03-20T23:15:56Z</time>
      </trkpt>
      <trkpt lat="53.34941" lon="-6.25236">
        <ele>8.56</ele>
        <time>2021-03-20T23:15:59Z</time>
      </trkpt>
      <trkpt lat="53.34931" lon="-6.25209">
        <ele>8.72</ele>
        <time>2021-03-20T23:16:03Z</time>
      </trkpt>
      <trkpt lat="53.34918" lon="-6.25186">
        <ele>9.93</ele>
        <time>2021-03-20T23:16:06Z</time>
      </trkpt>
      <trkpt lat="53.34899" lon="-6.25163">
        <ele>13.62</ele>
        <time>2021-03-20T23:16:10Z</time>
      </trkpt>
      <trkpt lat="53.34883" lon="-6.25151">
        <ele>15.03</ele>
        <time>2021-03-20T23:16:14Z</time>
      </trkpt>
      <trkpt lat="53.34864" lon="-6.25148">
        <ele>13.32</ele>
        <time>2021-03-20T23:16:18Z</time>
      </trkpt>
      <trkpt lat="53.34824" lon="-6.25156">
        <ele>7.69</ele>
        <time>2021-03-20T23:16:21Z</time>
      </trkpt>
      <trkpt lat="53.34763" lon="-6.25175">
        <ele>3.69</ele>
        <time>2021-03-20T23:16:25Z</time>
      </trkpt>
      <trkpt lat="53.34749" lon="-6.25184">
        <ele>3.72</ele>
        <time>2021-03-20T23:16:35Z</time>
      </trkpt>
      <trkpt lat="53.34743" lon="-6.25194">
        <ele>4.5</ele>
        <time>2021-03-20T23:16:45Z</time>
      </trkpt>
      <trkpt lat="53.34742" lon="-6.25211">
        <ele>4.76</ele>
        <time>2021-03-20T23:16:55Z</time>
      </trkpt>
      <trkpt lat="53.3475" lon="-6.25551">
        <ele>10.46</ele>
        <time>2021-03-20T23:17:05Z</time>
      </trkpt>
      <trkpt lat="53.34749" lon="-6.25596">
        <ele>12.14</ele>
        <time>2021-03-20T23:17:15Z</time>
      </trkpt>
      <trkpt lat="53.34746" lon="-6.25637">
        <ele>10.57</ele>
        <time>2021-03-20T23:17:25Z</time>
      </trkpt>
      <trkpt lat="53.34734" lon="-6.25722">
        <ele>6.78</ele>
        <time>2021-03-20T23:17:35Z</time>
      </trkpt>
      <trkpt lat="53.34694" lon="-6.25911">
        <ele>7.37</ele>
        <time>2021-03-20T23:17:45Z</time>
      </trkpt>
      <trkpt lat="53.34704" lon="-6.25911">
        <ele>6.38</ele>
        <time>2021-03-20T23:17:52Z</time>
      </trkpt>
      <trkpt lat="53.34745" lon="-6.25933">
        <ele>6.39</ele>
        <time>2021-03-20T23:17:58Z</time>
      </trkpt>
      <trkpt lat="53.34759" lon="-6.25942">
        <ele>7.59</ele>
        <time>2021-03-20T23:18:25Z</time>
      </trkpt>
      <trkpt lat="53.34975" lon="-6.26038">
        <ele>11.8</ele>
        <time>2021-03-20T23:18:53Z</time>
      </trkpt>
    </trkseg>
  </trk>
</gpx>